<?xml version='1.0' encoding='UTF-8'?><gpx version="1.1" creator="JPX - https://github.com/jenetics/jpx" xmlns="http://www.topografix.com/GPX/1/1"><trk><trkseg><trkpt lat="45.4028423" lon="8.5593684"><ele>142.0</ele><time>2026-04-18T15:13:21.995Z</time></trkpt><trkpt lat="45.4027521" lon="8.5594157"><ele>142.0</ele><time>2026-04-18T15:13:23.994Z</time></trkpt><trkpt lat="45.4026589" lon="8.5594689"><ele>142.0</ele><time>2026-04-18T15:13:25.994Z</time></trkpt><trkpt lat="45.402564" lon="8.5595334"><ele>142.0</ele><time>2026-04-18T15:13:27.995Z</time></trkpt><trkpt lat="45.402452" lon="8.559602"><ele>142.0</ele><time>2026-04-18T15:13:29.995Z</time></trkpt><trkpt lat="45.4023926" lon="8.5596417"><ele>141.83333333333334</ele><time>2026-04-18T15:13:30.995Z</time></trkpt><trkpt lat="45.4023323" lon="8.5596817"><ele>141.66666666666669</ele><time>2026-04-18T15:13:31.995Z</time></trkpt><trkpt lat="45.4022719" lon="8.5597174"><ele>141.5</ele><time>2026-04-18T15:13:32.995Z</time></trkpt><trkpt lat="45.4022023" lon="8.5597564"><ele>141.33333333333334</ele><time>2026-04-18T15:13:33.995Z</time></trkpt><trkpt lat="45.4021255" lon="8.5598061"><ele>141.16666666666666</ele><time>2026-04-18T15:13:34.995Z</time></trkpt><trkpt lat="45.4020461" lon="8.5598544"><ele>141.0</ele><time>2026-04-18T15:13:35.995Z</time></trkpt><trkpt lat="45.4019736" lon="8.5599006"><ele>140.66666666666666</ele><time>2026-04-18T15:13:36.995Z</time></trkpt><trkpt lat="45.401898" lon="8.5599435"><ele>140.33333333333334</ele><time>2026-04-18T15:13:37.994Z</time></trkpt><trkpt lat="45.4018247" lon="8.5599867"><ele>140.0</ele><time>2026-04-18T15:13:38.995Z</time></trkpt><trkpt lat="45.4017525" lon="8.5600316"><ele>139.66666666666669</ele><time>2026-04-18T15:13:39.995Z</time></trkpt><trkpt lat="45.4016767" lon="8.5600752"><ele>139.33333333333334</ele><time>2026-04-18T15:13:40.994Z</time></trkpt><trkpt lat="45.4016013" lon="8.5601178"><ele>139.0</ele><time>2026-04-18T15:13:41.995Z</time></trkpt><trkpt lat="45.4015231" lon="8.5601637"><ele>139.0</ele><time>2026-04-18T15:13:42.995Z</time></trkpt><trkpt lat="45.4014434" lon="8.5602106"><ele>139.0</ele><time>2026-04-18T15:13:43.995Z</time></trkpt><trkpt lat="45.4013659" lon="8.5602588"><ele>139.0</ele><time>2026-04-18T15:13:44.995Z</time></trkpt><trkpt lat="45.4012834" lon="8.5603078"><ele>139.0</ele><time>2026-04-18T15:13:45.995Z</time></trkpt><trkpt lat="45.4012033" lon="8.560352"><ele>139.0</ele><time>2026-04-18T15:13:46.994Z</time></trkpt><trkpt lat="45.4011227" lon="8.5604023"><ele>139.0</ele><time>2026-04-18T15:13:47.994Z</time></trkpt><trkpt lat="45.4010472" lon="8.5604472"><ele>138.4</ele><time>2026-04-18T15:13:48.995Z</time></trkpt><trkpt lat="45.400968" lon="8.5604961"><ele>137.8</ele><time>2026-04-18T15:13:49.994Z</time></trkpt><trkpt lat="45.4008865" lon="8.5605496"><ele>137.2</ele><time>2026-04-18T15:13:50.995Z</time></trkpt><trkpt lat="45.4007998" lon="8.5606078"><ele>136.6</ele><time>2026-04-18T15:13:51.994Z</time></trkpt><trkpt lat="45.4007084" lon="8.5606628"><ele>136.0</ele><time>2026-04-18T15:13:52.995Z</time></trkpt><trkpt lat="45.4006219" lon="8.5607108"><ele>136.0</ele><time>2026-04-18T15:13:53.995Z</time></trkpt><trkpt lat="45.4005374" lon="8.5607578"><ele>136.0</ele><time>2026-04-18T15:13:54.994Z</time></trkpt><trkpt lat="45.4004538" lon="8.5608025"><ele>136.0</ele><time>2026-04-18T15:13:55.994Z</time></trkpt><trkpt lat="45.4003684" lon="8.5608522"><ele>136.0</ele><time>2026-04-18T15:13:56.994Z</time></trkpt><trkpt lat="45.4002846" lon="8.5609014"><ele>136.0</ele><time>2026-04-18T15:13:57.995Z</time></trkpt><trkpt lat="45.4001999" lon="8.5609503"><ele>136.0</ele><time>2026-04-18T15:13:58.995Z</time></trkpt><trkpt lat="45.4001134" lon="8.5609998"><ele>136.0</ele><time>2026-04-18T15:13:59.995Z</time></trkpt><trkpt lat="45.4000258" lon="8.5610521"><ele>136.0</ele><time>2026-04-18T15:14:00.995Z</time></trkpt><trkpt lat="45.399938" lon="8.5611007"><ele>136.0</ele><time>2026-04-18T15:14:01.995Z</time></trkpt><trkpt lat="45.3998513" lon="8.5611531"><ele>136.0</ele><time>2026-04-18T15:14:02.995Z</time></trkpt><trkpt lat="45.3997652" lon="8.5612071"><ele>136.0</ele><time>2026-04-18T15:14:03.994Z</time></trkpt><trkpt lat="45.3996798" lon="8.5612577"><ele>136.0</ele><time>2026-04-18T15:14:04.995Z</time></trkpt><trkpt lat="45.3995946" lon="8.5613075"><ele>136.0</ele><time>2026-04-18T15:14:05.995Z</time></trkpt><trkpt lat="45.3995062" lon="8.5613544"><ele>136.0</ele><time>2026-04-18T15:14:06.995Z</time></trkpt><trkpt lat="45.3994191" lon="8.5614004"><ele>136.0</ele><time>2026-04-18T15:14:07.995Z</time></trkpt><trkpt lat="45.399334" lon="8.5614474"><ele>135.66666666666669</ele><time>2026-04-18T15:14:08.995Z</time></trkpt><trkpt lat="45.399248" lon="8.5614987"><ele>135.33333333333334</ele><time>2026-04-18T15:14:09.995Z</time></trkpt><trkpt lat="45.3991702" lon="8.5615476"><ele>135.0</ele><time>2026-04-18T15:14:10.994Z</time></trkpt><trkpt lat="45.3991022" lon="8.5615845"><ele>134.66666666666666</ele><time>2026-04-18T15:14:11.994Z</time></trkpt><trkpt lat="45.3990366" lon="8.5616285"><ele>134.33333333333331</ele><time>2026-04-18T15:14:12.995Z</time></trkpt><trkpt lat="45.3989757" lon="8.5616637"><ele>134.0</ele><time>2026-04-18T15:14:13.995Z</time></trkpt><trkpt lat="45.3988799" lon="8.5617155"><ele>134.33333333333331</ele><time>2026-04-18T15:14:15.995Z</time></trkpt><trkpt lat="45.3988194" lon="8.5617551"><ele>134.66666666666666</ele><time>2026-04-18T15:14:18.994Z</time></trkpt><trkpt lat="45.398748" lon="8.5617939"><ele>135.0</ele><time>2026-04-18T15:15:04.994Z</time></trkpt><trkpt lat="45.3986436" lon="8.5618566"><ele>135.33333333333334</ele><time>2026-04-18T15:15:06.995Z</time></trkpt><trkpt lat="45.3985835" lon="8.5618914"><ele>135.66666666666669</ele><time>2026-04-18T15:15:07.995Z</time></trkpt><trkpt lat="45.3985195" lon="8.5619264"><ele>136.0</ele><time>2026-04-18T15:15:08.995Z</time></trkpt><trkpt lat="45.3984524" lon="8.5619493"><ele>136.0</ele><time>2026-04-18T15:15:09.995Z</time></trkpt><trkpt lat="45.3983812" lon="8.5619711"><ele>136.0</ele><time>2026-04-18T15:15:10.995Z</time></trkpt><trkpt lat="45.3983085" lon="8.5619891"><ele>136.0</ele><time>2026-04-18T15:15:11.995Z</time></trkpt><trkpt lat="45.3982361" lon="8.5620046"><ele>136.0</ele><time>2026-04-18T15:15:12.995Z</time></trkpt><trkpt lat="45.3981561" lon="8.5620243"><ele>136.0</ele><time>2026-04-18T15:15:13.995Z</time></trkpt><trkpt lat="45.398077" lon="8.5620408"><ele>136.0</ele><time>2026-04-18T15:15:14.995Z</time></trkpt><trkpt lat="45.3979977" lon="8.5620527"><ele>135.83333333333334</ele><time>2026-04-18T15:15:15.995Z</time></trkpt><trkpt lat="45.3979196" lon="8.5620644"><ele>135.66666666666669</ele><time>2026-04-18T15:15:16.994Z</time></trkpt><trkpt lat="45.3978381" lon="8.5620723"><ele>135.5</ele><time>2026-04-18T15:15:17.995Z</time></trkpt><trkpt lat="45.3977555" lon="8.5620788"><ele>135.33333333333334</ele><time>2026-04-18T15:15:18.994Z</time></trkpt><trkpt lat="45.3976687" lon="8.5620873"><ele>135.16666666666666</ele><time>2026-04-18T15:15:19.995Z</time></trkpt><trkpt lat="45.3975769" lon="8.5620919"><ele>135.0</ele><time>2026-04-18T15:15:20.995Z</time></trkpt><trkpt lat="45.3974818" lon="8.5620939"><ele>135.0</ele><time>2026-04-18T15:15:21.995Z</time></trkpt><trkpt lat="45.3973833" lon="8.5620982"><ele>135.0</ele><time>2026-04-18T15:15:22.994Z</time></trkpt><trkpt lat="45.3972808" lon="8.5620993"><ele>135.0</ele><time>2026-04-18T15:15:23.994Z</time></trkpt><trkpt lat="45.3971783" lon="8.5621022"><ele>135.0</ele><time>2026-04-18T15:15:24.995Z</time></trkpt><trkpt lat="45.3970724" lon="8.5621031"><ele>135.0</ele><time>2026-04-18T15:15:25.994Z</time></trkpt><trkpt lat="45.3969674" lon="8.5621055"><ele>135.4</ele><time>2026-04-18T15:15:26.994Z</time></trkpt><trkpt lat="45.3968598" lon="8.5621071"><ele>135.8</ele><time>2026-04-18T15:15:27.995Z</time></trkpt><trkpt lat="45.39675" lon="8.5621112"><ele>136.2</ele><time>2026-04-18T15:15:28.995Z</time></trkpt><trkpt lat="45.3966385" lon="8.5621155"><ele>136.6</ele><time>2026-04-18T15:15:29.995Z</time></trkpt><trkpt lat="45.3965232" lon="8.5621164"><ele>137.0</ele><time>2026-04-18T15:15:30.995Z</time></trkpt><trkpt lat="45.3964081" lon="8.5621187"><ele>136.5</ele><time>2026-04-18T15:15:31.995Z</time></trkpt><trkpt lat="45.3962922" lon="8.5621227"><ele>136.0</ele><time>2026-04-18T15:15:32.995Z</time></trkpt><trkpt lat="45.3961759" lon="8.5621323"><ele>135.5</ele><time>2026-04-18T15:15:33.995Z</time></trkpt><trkpt lat="45.3960537" lon="8.5621407"><ele>135.0</ele><time>2026-04-18T15:15:34.995Z</time></trkpt><trkpt lat="45.3959327" lon="8.5621434"><ele>135.0</ele><time>2026-04-18T15:15:35.995Z</time></trkpt><trkpt lat="45.3958126" lon="8.5621418"><ele>135.0</ele><time>2026-04-18T15:15:36.995Z</time></trkpt><trkpt lat="45.3956947" lon="8.562137"><ele>135.0</ele><time>2026-04-18T15:15:37.994Z</time></trkpt><trkpt lat="45.395584" lon="8.5621282"><ele>135.0</ele><time>2026-04-18T15:15:38.995Z</time></trkpt><trkpt lat="45.395473" lon="8.5621183"><ele>134.8</ele><time>2026-04-18T15:15:39.994Z</time></trkpt><trkpt lat="45.3953657" lon="8.5621089"><ele>134.6</ele><time>2026-04-18T15:15:40.994Z</time></trkpt><trkpt lat="45.3952625" lon="8.5620978"><ele>134.4</ele><time>2026-04-18T15:15:41.995Z</time></trkpt><trkpt lat="45.3951586" lon="8.5620886"><ele>134.2</ele><time>2026-04-18T15:15:42.995Z</time></trkpt><trkpt lat="45.3950535" lon="8.5620776"><ele>134.0</ele><time>2026-04-18T15:15:43.994Z</time></trkpt><trkpt lat="45.3949494" lon="8.5620692"><ele>134.0</ele><time>2026-04-18T15:15:44.995Z</time></trkpt><trkpt lat="45.394845" lon="8.5620587"><ele>134.0</ele><time>2026-04-18T15:15:45.994Z</time></trkpt><trkpt lat="45.3947397" lon="8.5620512"><ele>134.0</ele><time>2026-04-18T15:15:46.995Z</time></trkpt><trkpt lat="45.3946258" lon="8.5620413"><ele>134.0</ele><time>2026-04-18T15:15:47.995Z</time></trkpt><trkpt lat="45.3945077" lon="8.5620301"><ele>134.0</ele><time>2026-04-18T15:15:48.995Z</time></trkpt><trkpt lat="45.394388" lon="8.5620192"><ele>134.0</ele><time>2026-04-18T15:15:49.995Z</time></trkpt><trkpt lat="45.3942668" lon="8.5620117"><ele>134.0</ele><time>2026-04-18T15:15:50.995Z</time></trkpt><trkpt lat="45.3941443" lon="8.5620032"><ele>134.0</ele><time>2026-04-18T15:15:51.994Z</time></trkpt><trkpt lat="45.3940198" lon="8.5619935"><ele>134.0</ele><time>2026-04-18T15:15:52.994Z</time></trkpt><trkpt lat="45.3938956" lon="8.5619846"><ele>134.0</ele><time>2026-04-18T15:15:53.995Z</time></trkpt><trkpt lat="45.3937697" lon="8.5619733"><ele>134.0</ele><time>2026-04-18T15:15:54.994Z</time></trkpt><trkpt lat="45.3936476" lon="8.5619601"><ele>134.0</ele><time>2026-04-18T15:15:55.995Z</time></trkpt><trkpt lat="45.3935238" lon="8.5619482"><ele>134.0</ele><time>2026-04-18T15:15:56.995Z</time></trkpt><trkpt lat="45.393402" lon="8.5619382"><ele>134.0</ele><time>2026-04-18T15:15:57.995Z</time></trkpt><trkpt lat="45.3932783" lon="8.5619267"><ele>134.0</ele><time>2026-04-18T15:15:58.995Z</time></trkpt><trkpt lat="45.3931562" lon="8.5619149"><ele>134.0</ele><time>2026-04-18T15:15:59.995Z</time></trkpt><trkpt lat="45.3930392" lon="8.5619023"><ele>134.0</ele><time>2026-04-18T15:16:00.995Z</time></trkpt><trkpt lat="45.3929309" lon="8.5618931"><ele>133.8</ele><time>2026-04-18T15:16:01.995Z</time></trkpt><trkpt lat="45.3928221" lon="8.5618834"><ele>133.60000000000002</ele><time>2026-04-18T15:16:02.995Z</time></trkpt><trkpt lat="45.3927197" lon="8.5618732"><ele>133.4</ele><time>2026-04-18T15:16:03.995Z</time></trkpt><trkpt lat="45.3926166" lon="8.5618638"><ele>133.20000000000002</ele><time>2026-04-18T15:16:04.994Z</time></trkpt><trkpt lat="45.3925204" lon="8.5618572"><ele>133.0</ele><time>2026-04-18T15:16:05.995Z</time></trkpt><trkpt lat="45.3924347" lon="8.5618516"><ele>133.0</ele><time>2026-04-18T15:16:06.995Z</time></trkpt><trkpt lat="45.392365" lon="8.5618434"><ele>133.0</ele><time>2026-04-18T15:16:07.995Z</time></trkpt><trkpt lat="45.3922481" lon="8.561825"><ele>133.0</ele><time>2026-04-18T15:16:09.994Z</time></trkpt><trkpt lat="45.3921637" lon="8.5618466"><ele>133.0</ele><time>2026-04-18T15:16:11.995Z</time></trkpt><trkpt lat="45.3921179" lon="8.5619096"><ele>133.0</ele><time>2026-04-18T15:16:13.995Z</time></trkpt><trkpt lat="45.3920906" lon="8.5620141"><ele>133.0</ele><time>2026-04-18T15:16:15.995Z</time></trkpt><trkpt lat="45.3920771" lon="8.5621466"><ele>133.33333333333334</ele><time>2026-04-18T15:16:17.995Z</time></trkpt><trkpt lat="45.3920718" lon="8.5622559"><ele>133.66666666666669</ele><time>2026-04-18T15:16:19.994Z</time></trkpt><trkpt lat="45.3920678" lon="8.5623683"><ele>134.0</ele><time>2026-04-18T15:16:21.995Z</time></trkpt><trkpt lat="45.3920622" lon="8.5625301"><ele>134.33333333333334</ele><time>2026-04-18T15:16:23.995Z</time></trkpt><trkpt lat="45.3920577" lon="8.5626296"><ele>134.66666666666666</ele><time>2026-04-18T15:16:24.995Z</time></trkpt><trkpt lat="45.3920483" lon="8.5627261"><ele>135.0</ele><time>2026-04-18T15:16:25.995Z</time></trkpt><trkpt lat="45.3920364" lon="8.5628239"><ele>135.0</ele><time>2026-04-18T15:16:26.994Z</time></trkpt><trkpt lat="45.3920208" lon="8.5629217"><ele>135.0</ele><time>2026-04-18T15:16:27.994Z</time></trkpt><trkpt lat="45.3919762" lon="8.5630888"><ele>135.0</ele><time>2026-04-18T15:16:29.995Z</time></trkpt><trkpt lat="45.3919443" lon="8.563168"><ele>135.0</ele><time>2026-04-18T15:16:30.995Z</time></trkpt><trkpt lat="45.3918758" lon="8.563307"><ele>135.0</ele><time>2026-04-18T15:16:32.994Z</time></trkpt><trkpt lat="45.3918225" lon="8.5634581"><ele>135.0</ele><time>2026-04-18T15:16:34.995Z</time></trkpt><trkpt lat="45.3917952" lon="8.563627"><ele>135.0</ele><time>2026-04-18T15:16:36.995Z</time></trkpt><trkpt lat="45.391768" lon="8.563795"><ele>135.0</ele><time>2026-04-18T15:16:38.995Z</time></trkpt><trkpt lat="45.3917563" lon="8.5638853"><ele>135.0</ele><time>2026-04-18T15:16:39.995Z</time></trkpt><trkpt lat="45.3917482" lon="8.5639788"><ele>135.0</ele><time>2026-04-18T15:16:40.994Z</time></trkpt><trkpt lat="45.3917391" lon="8.5640775"><ele>135.0</ele><time>2026-04-18T15:16:41.995Z</time></trkpt><trkpt lat="45.3917296" lon="8.5641765"><ele>134.83333333333334</ele><time>2026-04-18T15:16:42.994Z</time></trkpt><trkpt lat="45.3917144" lon="8.5642752"><ele>134.66666666666666</ele><time>2026-04-18T15:16:43.994Z</time></trkpt><trkpt lat="45.3916976" lon="8.5643786"><ele>134.5</ele><time>2026-04-18T15:16:44.995Z</time></trkpt><trkpt lat="45.3916798" lon="8.5644887"><ele>134.33333333333331</ele><time>2026-04-18T15:16:45.995Z</time></trkpt><trkpt lat="45.3916645" lon="8.5645993"><ele>134.16666666666666</ele><time>2026-04-18T15:16:46.994Z</time></trkpt><trkpt lat="45.3916496" lon="8.5647157"><ele>134.0</ele><time>2026-04-18T15:16:47.995Z</time></trkpt><trkpt lat="45.3916374" lon="8.5648334"><ele>134.0</ele><time>2026-04-18T15:16:48.995Z</time></trkpt><trkpt lat="45.391633" lon="8.5649557"><ele>134.0</ele><time>2026-04-18T15:16:49.995Z</time></trkpt><trkpt lat="45.3916271" lon="8.5650822"><ele>134.0</ele><time>2026-04-18T15:16:50.995Z</time></trkpt><trkpt lat="45.3916221" lon="8.5652072"><ele>134.0</ele><time>2026-04-18T15:16:51.995Z</time></trkpt><trkpt lat="45.3916177" lon="8.5653325"><ele>134.0</ele><time>2026-04-18T15:16:52.995Z</time></trkpt><trkpt lat="45.3916149" lon="8.5654602"><ele>134.0</ele><time>2026-04-18T15:16:53.995Z</time></trkpt><trkpt lat="45.3916109" lon="8.5655857"><ele>133.83333333333331</ele><time>2026-04-18T15:16:54.995Z</time></trkpt><trkpt lat="45.3916117" lon="8.5657107"><ele>133.66666666666666</ele><time>2026-04-18T15:16:55.995Z</time></trkpt><trkpt lat="45.3916165" lon="8.5658355"><ele>133.5</ele><time>2026-04-18T15:16:56.995Z</time></trkpt><trkpt lat="45.3916208" lon="8.5659618"><ele>133.33333333333334</ele><time>2026-04-18T15:16:57.995Z</time></trkpt><trkpt lat="45.3916269" lon="8.5660896"><ele>133.16666666666669</ele><time>2026-04-18T15:16:58.995Z</time></trkpt><trkpt lat="45.3916304" lon="8.5662109"><ele>133.0</ele><time>2026-04-18T15:16:59.995Z</time></trkpt><trkpt lat="45.3916341" lon="8.5663252"><ele>132.83333333333334</ele><time>2026-04-18T15:17:00.995Z</time></trkpt><trkpt lat="45.3916326" lon="8.5664277"><ele>132.66666666666669</ele><time>2026-04-18T15:17:01.995Z</time></trkpt><trkpt lat="45.3916194" lon="8.5665184"><ele>132.5</ele><time>2026-04-18T15:17:02.994Z</time></trkpt><trkpt lat="45.3915932" lon="8.5666193"><ele>132.33333333333334</ele><time>2026-04-18T15:17:03.995Z</time></trkpt><trkpt lat="45.3915591" lon="8.5667112"><ele>132.16666666666666</ele><time>2026-04-18T15:17:04.994Z</time></trkpt><trkpt lat="45.3915205" lon="8.5667822"><ele>132.0</ele><time>2026-04-18T15:17:05.995Z</time></trkpt><trkpt lat="45.3914337" lon="8.566859"><ele>132.0</ele><time>2026-04-18T15:17:07.995Z</time></trkpt><trkpt lat="45.3913705" lon="8.5668451"><ele>132.0</ele><time>2026-04-18T15:17:09.994Z</time></trkpt><trkpt lat="45.3912784" lon="8.5668573"><ele>132.0</ele><time>2026-04-18T15:17:20.994Z</time></trkpt><trkpt lat="45.3911581" lon="8.5668597"><ele>132.0</ele><time>2026-04-18T15:17:22.995Z</time></trkpt><trkpt lat="45.3910881" lon="8.5668578"><ele>132.0</ele><time>2026-04-18T15:17:23.994Z</time></trkpt><trkpt lat="45.391014" lon="8.5668544"><ele>132.0</ele><time>2026-04-18T15:17:24.995Z</time></trkpt><trkpt lat="45.390941" lon="8.5668565"><ele>132.14285714285714</ele><time>2026-04-18T15:17:25.995Z</time></trkpt><trkpt lat="45.3908701" lon="8.5668609"><ele>132.28571428571428</ele><time>2026-04-18T15:17:26.995Z</time></trkpt><trkpt lat="45.3907991" lon="8.5668667"><ele>132.42857142857144</ele><time>2026-04-18T15:17:27.995Z</time></trkpt><trkpt lat="45.3907288" lon="8.5668663"><ele>132.57142857142856</ele><time>2026-04-18T15:17:28.995Z</time></trkpt><trkpt lat="45.390658" lon="8.5668635"><ele>132.71428571428572</ele><time>2026-04-18T15:17:29.995Z</time></trkpt><trkpt lat="45.3905857" lon="8.5668762"><ele>132.85714285714286</ele><time>2026-04-18T15:17:30.995Z</time></trkpt><trkpt lat="45.3905132" lon="8.5668903"><ele>133.0</ele><time>2026-04-18T15:17:31.995Z</time></trkpt><trkpt lat="45.3904395" lon="8.5669219"><ele>133.0</ele><time>2026-04-18T15:17:32.994Z</time></trkpt><trkpt lat="45.3903702" lon="8.5669771"><ele>133.0</ele><time>2026-04-18T15:17:33.994Z</time></trkpt><trkpt lat="45.3903116" lon="8.5670496"><ele>133.0</ele><time>2026-04-18T15:17:34.995Z</time></trkpt><trkpt lat="45.3902578" lon="8.567137"><ele>133.0</ele><time>2026-04-18T15:17:35.994Z</time></trkpt><trkpt lat="45.390201" lon="8.5672383"><ele>133.0</ele><time>2026-04-18T15:17:36.995Z</time></trkpt><trkpt lat="45.3901398" lon="8.5673422"><ele>133.0</ele><time>2026-04-18T15:17:37.994Z</time></trkpt><trkpt lat="45.3900733" lon="8.5674572"><ele>133.0</ele><time>2026-04-18T15:17:38.994Z</time></trkpt><trkpt lat="45.3900077" lon="8.5675697"><ele>133.0</ele><time>2026-04-18T15:17:39.995Z</time></trkpt><trkpt lat="45.3899462" lon="8.5676678"><ele>133.0</ele><time>2026-04-18T15:17:40.994Z</time></trkpt><trkpt lat="45.389879" lon="8.5677591"><ele>133.0</ele><time>2026-04-18T15:17:41.995Z</time></trkpt><trkpt lat="45.3898005" lon="8.5678353"><ele>133.0</ele><time>2026-04-18T15:17:42.995Z</time></trkpt><trkpt lat="45.3897174" lon="8.5678797"><ele>132.8</ele><time>2026-04-18T15:17:43.995Z</time></trkpt><trkpt lat="45.3896281" lon="8.5679106"><ele>132.60000000000002</ele><time>2026-04-18T15:17:44.994Z</time></trkpt><trkpt lat="45.3895284" lon="8.5679325"><ele>132.39999999999998</ele><time>2026-04-18T15:17:45.994Z</time></trkpt><trkpt lat="45.3894197" lon="8.5679537"><ele>132.2</ele><time>2026-04-18T15:17:46.995Z</time></trkpt><trkpt lat="45.3893081" lon="8.5679734"><ele>132.0</ele><time>2026-04-18T15:17:47.995Z</time></trkpt><trkpt lat="45.3891931" lon="8.5679988"><ele>132.0</ele><time>2026-04-18T15:17:48.995Z</time></trkpt><trkpt lat="45.3890819" lon="8.5680209"><ele>132.0</ele><time>2026-04-18T15:17:49.995Z</time></trkpt><trkpt lat="45.3889835" lon="8.5680385"><ele>132.0</ele><time>2026-04-18T15:17:50.995Z</time></trkpt><trkpt lat="45.3888944" lon="8.5680486"><ele>132.0</ele><time>2026-04-18T15:17:51.995Z</time></trkpt><trkpt lat="45.3888074" lon="8.5680594"><ele>132.0</ele><time>2026-04-18T15:17:52.995Z</time></trkpt><trkpt lat="45.3887267" lon="8.5680582"><ele>132.16666666666666</ele><time>2026-04-18T15:17:53.995Z</time></trkpt><trkpt lat="45.3886444" lon="8.5680476"><ele>132.33333333333334</ele><time>2026-04-18T15:17:54.995Z</time></trkpt><trkpt lat="45.3885609" lon="8.5680284"><ele>132.5</ele><time>2026-04-18T15:17:55.995Z</time></trkpt><trkpt lat="45.3884711" lon="8.5680022"><ele>132.66666666666669</ele><time>2026-04-18T15:17:56.995Z</time></trkpt><trkpt lat="45.38838" lon="8.5679735"><ele>132.83333333333334</ele><time>2026-04-18T15:17:57.995Z</time></trkpt><trkpt lat="45.3882855" lon="8.5679486"><ele>133.0</ele><time>2026-04-18T15:17:58.994Z</time></trkpt><trkpt lat="45.3881847" lon="8.5679261"><ele>133.0</ele><time>2026-04-18T15:17:59.995Z</time></trkpt><trkpt lat="45.388078" lon="8.5679024"><ele>133.0</ele><time>2026-04-18T15:18:00.994Z</time></trkpt><trkpt lat="45.3879715" lon="8.5678745"><ele>133.0</ele><time>2026-04-18T15:18:01.995Z</time></trkpt><trkpt lat="45.3878643" lon="8.5678503"><ele>133.0</ele><time>2026-04-18T15:18:02.994Z</time></trkpt><trkpt lat="45.3877662" lon="8.5678284"><ele>133.0</ele><time>2026-04-18T15:18:03.995Z</time></trkpt><trkpt lat="45.3876792" lon="8.5678096"><ele>132.66666666666669</ele><time>2026-04-18T15:18:04.995Z</time></trkpt><trkpt lat="45.3875977" lon="8.5677955"><ele>132.33333333333334</ele><time>2026-04-18T15:18:05.994Z</time></trkpt><trkpt lat="45.3875283" lon="8.5677851"><ele>132.0</ele><time>2026-04-18T15:18:06.995Z</time></trkpt><trkpt lat="45.3874642" lon="8.56779"><ele>131.66666666666666</ele><time>2026-04-18T15:18:07.995Z</time></trkpt><trkpt lat="45.3873683" lon="8.5678138"><ele>131.33333333333331</ele><time>2026-04-18T15:18:09.994Z</time></trkpt><trkpt lat="45.3872649" lon="8.5678096"><ele>131.0</ele><time>2026-04-18T15:18:11.994Z</time></trkpt><trkpt lat="45.3872087" lon="8.5677679"><ele>131.0</ele><time>2026-04-18T15:18:12.995Z</time></trkpt><trkpt lat="45.387152" lon="8.5677037"><ele>131.0</ele><time>2026-04-18T15:18:13.995Z</time></trkpt><trkpt lat="45.3870936" lon="8.5676164"><ele>131.0</ele><time>2026-04-18T15:18:14.995Z</time></trkpt><trkpt lat="45.3870357" lon="8.5675149"><ele>131.0</ele><time>2026-04-18T15:18:15.995Z</time></trkpt><trkpt lat="45.3869747" lon="8.5674054"><ele>131.0</ele><time>2026-04-18T15:18:16.994Z</time></trkpt><trkpt lat="45.3869021" lon="8.5673006"><ele>131.0</ele><time>2026-04-18T15:18:17.994Z</time></trkpt><trkpt lat="45.3868176" lon="8.5671992"><ele>131.0</ele><time>2026-04-18T15:18:18.994Z</time></trkpt><trkpt lat="45.3867273" lon="8.5670936"><ele>131.0</ele><time>2026-04-18T15:18:19.994Z</time></trkpt><trkpt lat="45.3866335" lon="8.5669892"><ele>131.0</ele><time>2026-04-18T15:18:20.994Z</time></trkpt><trkpt lat="45.3865315" lon="8.5668874"><ele>131.0</ele><time>2026-04-18T15:18:21.994Z</time></trkpt><trkpt lat="45.3864343" lon="8.5667807"><ele>131.0</ele><time>2026-04-18T15:18:22.995Z</time></trkpt><trkpt lat="45.3863382" lon="8.5666693"><ele>131.0</ele><time>2026-04-18T15:18:23.995Z</time></trkpt><trkpt lat="45.3862399" lon="8.5665613"><ele>131.0</ele><time>2026-04-18T15:18:24.994Z</time></trkpt><trkpt lat="45.3861402" lon="8.5664548"><ele>131.0</ele><time>2026-04-18T15:18:25.994Z</time></trkpt><trkpt lat="45.3860457" lon="8.566348"><ele>131.0</ele><time>2026-04-18T15:18:26.995Z</time></trkpt><trkpt lat="45.3859549" lon="8.5662398"><ele>131.0</ele><time>2026-04-18T15:18:27.994Z</time></trkpt><trkpt lat="45.3858585" lon="8.5661362"><ele>131.0</ele><time>2026-04-18T15:18:28.995Z</time></trkpt><trkpt lat="45.3857608" lon="8.5660327"><ele>131.0</ele><time>2026-04-18T15:18:29.995Z</time></trkpt><trkpt lat="45.3856669" lon="8.5659341"><ele>131.0</ele><time>2026-04-18T15:18:30.995Z</time></trkpt><trkpt lat="45.385579" lon="8.5658511"><ele>131.0</ele><time>2026-04-18T15:18:31.995Z</time></trkpt><trkpt lat="45.3854952" lon="8.5657829"><ele>131.0</ele><time>2026-04-18T15:18:32.995Z</time></trkpt><trkpt lat="45.3854156" lon="8.5657338"><ele>131.0</ele><time>2026-04-18T15:18:33.995Z</time></trkpt><trkpt lat="45.3853363" lon="8.5657129"><ele>131.0</ele><time>2026-04-18T15:18:34.995Z</time></trkpt><trkpt lat="45.3852569" lon="8.5657173"><ele>131.0</ele><time>2026-04-18T15:18:35.995Z</time></trkpt><trkpt lat="45.3851765" lon="8.5657364"><ele>131.0</ele><time>2026-04-18T15:18:36.994Z</time></trkpt><trkpt lat="45.3850896" lon="8.5657691"><ele>131.0</ele><time>2026-04-18T15:18:37.994Z</time></trkpt><trkpt lat="45.3849912" lon="8.5658023"><ele>131.0</ele><time>2026-04-18T15:18:38.995Z</time></trkpt><trkpt lat="45.3848792" lon="8.5658361"><ele>131.0</ele><time>2026-04-18T15:18:39.995Z</time></trkpt><trkpt lat="45.3847516" lon="8.5658717"><ele>131.0</ele><time>2026-04-18T15:18:40.995Z</time></trkpt><trkpt lat="45.3846154" lon="8.5659133"><ele>131.0</ele><time>2026-04-18T15:18:41.995Z</time></trkpt><trkpt lat="45.3844701" lon="8.565961"><ele>131.0</ele><time>2026-04-18T15:18:42.994Z</time></trkpt><trkpt lat="45.3843221" lon="8.566009"><ele>131.0</ele><time>2026-04-18T15:18:43.995Z</time></trkpt><trkpt lat="45.3841797" lon="8.5660528"><ele>131.0</ele><time>2026-04-18T15:18:44.995Z</time></trkpt><trkpt lat="45.3840396" lon="8.5660931"><ele>131.0</ele><time>2026-04-18T15:18:45.995Z</time></trkpt><trkpt lat="45.3839013" lon="8.5661358"><ele>131.0</ele><time>2026-04-18T15:18:46.994Z</time></trkpt><trkpt lat="45.383765" lon="8.5661764"><ele>131.0</ele><time>2026-04-18T15:18:47.995Z</time></trkpt><trkpt lat="45.3836288" lon="8.566216"><ele>131.0</ele><time>2026-04-18T15:18:48.995Z</time></trkpt><trkpt lat="45.3834915" lon="8.5662563"><ele>131.0</ele><time>2026-04-18T15:18:49.995Z</time></trkpt><trkpt lat="45.3833512" lon="8.5663037"><ele>131.0</ele><time>2026-04-18T15:18:50.995Z</time></trkpt><trkpt lat="45.3832134" lon="8.5663448"><ele>131.0</ele><time>2026-04-18T15:18:51.994Z</time></trkpt><trkpt lat="45.3830762" lon="8.5663878"><ele>131.0</ele><time>2026-04-18T15:18:52.995Z</time></trkpt><trkpt lat="45.3829402" lon="8.5664284"><ele>131.0</ele><time>2026-04-18T15:18:53.995Z</time></trkpt><trkpt lat="45.3828082" lon="8.5664678"><ele>131.0</ele><time>2026-04-18T15:18:54.994Z</time></trkpt><trkpt lat="45.3826843" lon="8.5665024"><ele>131.0</ele><time>2026-04-18T15:18:55.995Z</time></trkpt><trkpt lat="45.3825716" lon="8.5665347"><ele>131.0</ele><time>2026-04-18T15:18:56.995Z</time></trkpt><trkpt lat="45.3824634" lon="8.566566"><ele>131.0</ele><time>2026-04-18T15:18:57.995Z</time></trkpt><trkpt lat="45.3823679" lon="8.566591"><ele>131.0</ele><time>2026-04-18T15:18:58.995Z</time></trkpt><trkpt lat="45.3822851" lon="8.5666235"><ele>131.0</ele><time>2026-04-18T15:18:59.994Z</time></trkpt><trkpt lat="45.3822138" lon="8.5666728"><ele>131.0</ele><time>2026-04-18T15:19:00.995Z</time></trkpt><trkpt lat="45.3821565" lon="8.5667306"><ele>131.0</ele><time>2026-04-18T15:19:01.994Z</time></trkpt><trkpt lat="45.3821118" lon="8.5667953"><ele>131.0</ele><time>2026-04-18T15:19:02.994Z</time></trkpt><trkpt lat="45.3820654" lon="8.5669241"><ele>131.0</ele><time>2026-04-18T15:19:04.994Z</time></trkpt><trkpt lat="45.382064" lon="8.5670619"><ele>131.0</ele><time>2026-04-18T15:19:06.995Z</time></trkpt><trkpt lat="45.3820763" lon="8.5671561"><ele>131.0</ele><time>2026-04-18T15:19:07.995Z</time></trkpt><trkpt lat="45.3820984" lon="8.5672712"><ele>131.0</ele><time>2026-04-18T15:19:08.994Z</time></trkpt><trkpt lat="45.3821267" lon="8.5673838"><ele>131.0</ele><time>2026-04-18T15:19:09.995Z</time></trkpt><trkpt lat="45.3821596" lon="8.5674876"><ele>131.0</ele><time>2026-04-18T15:19:10.994Z</time></trkpt><trkpt lat="45.3821949" lon="8.5675813"><ele>131.0</ele><time>2026-04-18T15:19:11.995Z</time></trkpt><trkpt lat="45.3822242" lon="8.5676674"><ele>131.0</ele><time>2026-04-18T15:19:12.994Z</time></trkpt><trkpt lat="45.3822437" lon="8.567812"><ele>131.0</ele><time>2026-04-18T15:19:14.995Z</time></trkpt><trkpt lat="45.3822063" lon="8.5678911"><ele>131.2</ele><time>2026-04-18T15:19:16.994Z</time></trkpt><trkpt lat="45.3821356" lon="8.5679214"><ele>131.39999999999998</ele><time>2026-04-18T15:19:18.995Z</time></trkpt><trkpt lat="45.3820322" lon="8.5679511"><ele>131.6</ele><time>2026-04-18T15:19:20.994Z</time></trkpt><trkpt lat="45.3819169" lon="8.568021"><ele>131.79999999999998</ele><time>2026-04-18T15:19:22.995Z</time></trkpt><trkpt lat="45.3818477" lon="8.5680676"><ele>132.0</ele><time>2026-04-18T15:19:23.995Z</time></trkpt><trkpt lat="45.3817756" lon="8.5681223"><ele>132.0</ele><time>2026-04-18T15:19:24.995Z</time></trkpt><trkpt lat="45.3817081" lon="8.5681761"><ele>132.0</ele><time>2026-04-18T15:19:25.994Z</time></trkpt><trkpt lat="45.3816399" lon="8.5682383"><ele>132.0</ele><time>2026-04-18T15:19:26.995Z</time></trkpt><trkpt lat="45.3815733" lon="8.5682995"><ele>132.0</ele><time>2026-04-18T15:19:27.994Z</time></trkpt><trkpt lat="45.3815044" lon="8.568364"><ele>132.0</ele><time>2026-04-18T15:19:28.995Z</time></trkpt><trkpt lat="45.3814296" lon="8.5684334"><ele>132.0</ele><time>2026-04-18T15:19:29.995Z</time></trkpt><trkpt lat="45.3813554" lon="8.5685003"><ele>132.0</ele><time>2026-04-18T15:19:30.994Z</time></trkpt><trkpt lat="45.3812798" lon="8.5685678"><ele>132.0</ele><time>2026-04-18T15:19:31.994Z</time></trkpt><trkpt lat="45.381204" lon="8.5686356"><ele>132.0</ele><time>2026-04-18T15:19:32.995Z</time></trkpt><trkpt lat="45.3811284" lon="8.5687038"><ele>132.0</ele><time>2026-04-18T15:19:33.994Z</time></trkpt><trkpt lat="45.3810501" lon="8.5687736"><ele>132.0</ele><time>2026-04-18T15:19:34.995Z</time></trkpt><trkpt lat="45.3809698" lon="8.5688488"><ele>132.0</ele><time>2026-04-18T15:19:35.995Z</time></trkpt><trkpt lat="45.3808841" lon="8.5689291"><ele>132.0</ele><time>2026-04-18T15:19:36.994Z</time></trkpt><trkpt lat="45.3807958" lon="8.569009"><ele>132.0</ele><time>2026-04-18T15:19:37.995Z</time></trkpt><trkpt lat="45.3807025" lon="8.5690871"><ele>132.0</ele><time>2026-04-18T15:19:38.995Z</time></trkpt><trkpt lat="45.3806096" lon="8.5691714"><ele>132.0</ele><time>2026-04-18T15:19:39.995Z</time></trkpt><trkpt lat="45.3805225" lon="8.5692481"><ele>132.0</ele><time>2026-04-18T15:19:40.995Z</time></trkpt><trkpt lat="45.3804406" lon="8.5693209"><ele>132.0</ele><time>2026-04-18T15:19:41.994Z</time></trkpt><trkpt lat="45.3803662" lon="8.5693863"><ele>132.0</ele><time>2026-04-18T15:19:42.994Z</time></trkpt><trkpt lat="45.3802957" lon="8.5694491"><ele>132.0</ele><time>2026-04-18T15:19:43.995Z</time></trkpt><trkpt lat="45.3802245" lon="8.5695121"><ele>132.0</ele><time>2026-04-18T15:19:44.995Z</time></trkpt><trkpt lat="45.380153" lon="8.569577"><ele>132.0</ele><time>2026-04-18T15:19:45.994Z</time></trkpt><trkpt lat="45.3800773" lon="8.5696427"><ele>132.0</ele><time>2026-04-18T15:19:46.994Z</time></trkpt><trkpt lat="45.3800046" lon="8.5697113"><ele>132.0</ele><time>2026-04-18T15:19:47.995Z</time></trkpt><trkpt lat="45.3799342" lon="8.5697693"><ele>132.0</ele><time>2026-04-18T15:19:48.994Z</time></trkpt><trkpt lat="45.3798704" lon="8.5698297"><ele>132.0</ele><time>2026-04-18T15:19:49.995Z</time></trkpt><trkpt lat="45.3798056" lon="8.5698915"><ele>132.0</ele><time>2026-04-18T15:19:50.995Z</time></trkpt><trkpt lat="45.3797431" lon="8.5699472"><ele>132.0</ele><time>2026-04-18T15:19:51.995Z</time></trkpt><trkpt lat="45.3796753" lon="8.5700025"><ele>131.5</ele><time>2026-04-18T15:19:52.994Z</time></trkpt><trkpt lat="45.3796036" lon="8.5700649"><ele>131.0</ele><time>2026-04-18T15:19:53.995Z</time></trkpt><trkpt lat="45.3795332" lon="8.5701273"><ele>130.5</ele><time>2026-04-18T15:19:54.995Z</time></trkpt><trkpt lat="45.3794663" lon="8.5701862"><ele>130.0</ele><time>2026-04-18T15:19:55.995Z</time></trkpt><trkpt lat="45.3794004" lon="8.5702461"><ele>129.5</ele><time>2026-04-18T15:19:56.995Z</time></trkpt><trkpt lat="45.3793313" lon="8.5703082"><ele>129.0</ele><time>2026-04-18T15:19:57.994Z</time></trkpt><trkpt lat="45.3792632" lon="8.5703689"><ele>128.83333333333334</ele><time>2026-04-18T15:19:58.995Z</time></trkpt><trkpt lat="45.379193" lon="8.5704309"><ele>128.66666666666666</ele><time>2026-04-18T15:19:59.995Z</time></trkpt><trkpt lat="45.3791236" lon="8.5704944"><ele>128.5</ele><time>2026-04-18T15:20:00.995Z</time></trkpt><trkpt lat="45.3790521" lon="8.5705596"><ele>128.33333333333331</ele><time>2026-04-18T15:20:01.994Z</time></trkpt><trkpt lat="45.3789782" lon="8.5706244"><ele>128.16666666666666</ele><time>2026-04-18T15:20:02.994Z</time></trkpt><trkpt lat="45.3789011" lon="8.5706939"><ele>128.0</ele><time>2026-04-18T15:20:03.995Z</time></trkpt><trkpt lat="45.3788243" lon="8.5707647"><ele>128.4</ele><time>2026-04-18T15:20:04.995Z</time></trkpt><trkpt lat="45.3787445" lon="8.5708345"><ele>128.8</ele><time>2026-04-18T15:20:05.994Z</time></trkpt><trkpt lat="45.3786655" lon="8.5708996"><ele>129.2</ele><time>2026-04-18T15:20:06.994Z</time></trkpt><trkpt lat="45.3785871" lon="8.5709638"><ele>129.6</ele><time>2026-04-18T15:20:07.995Z</time></trkpt><trkpt lat="45.3785086" lon="8.5710296"><ele>130.0</ele><time>2026-04-18T15:20:08.994Z</time></trkpt><trkpt lat="45.3784289" lon="8.5710843"><ele>130.0</ele><time>2026-04-18T15:20:09.995Z</time></trkpt><trkpt lat="45.3783451" lon="8.5711389"><ele>130.0</ele><time>2026-04-18T15:20:10.995Z</time></trkpt><trkpt lat="45.3782665" lon="8.5711888"><ele>130.0</ele><time>2026-04-18T15:20:11.994Z</time></trkpt><trkpt lat="45.3781872" lon="8.5712271"><ele>130.0</ele><time>2026-04-18T15:20:12.994Z</time></trkpt><trkpt lat="45.378103" lon="8.5712552"><ele>130.0</ele><time>2026-04-18T15:20:13.995Z</time></trkpt><trkpt lat="45.3780164" lon="8.5712825"><ele>130.0</ele><time>2026-04-18T15:20:14.995Z</time></trkpt><trkpt lat="45.3779256" lon="8.5713047"><ele>130.16666666666669</ele><time>2026-04-18T15:20:15.995Z</time></trkpt><trkpt lat="45.3778329" lon="8.5713188"><ele>130.33333333333334</ele><time>2026-04-18T15:20:16.995Z</time></trkpt><trkpt lat="45.3777456" lon="8.5713315"><ele>130.5</ele><time>2026-04-18T15:20:17.995Z</time></trkpt><trkpt lat="45.3776566" lon="8.5713376"><ele>130.66666666666666</ele><time>2026-04-18T15:20:18.995Z</time></trkpt><trkpt lat="45.3775688" lon="8.5713342"><ele>130.83333333333331</ele><time>2026-04-18T15:20:19.995Z</time></trkpt><trkpt lat="45.377478" lon="8.5713211"><ele>131.0</ele><time>2026-04-18T15:20:20.995Z</time></trkpt><trkpt lat="45.3773847" lon="8.571307"><ele>131.0</ele><time>2026-04-18T15:20:21.994Z</time></trkpt><trkpt lat="45.3772879" lon="8.5712935"><ele>131.0</ele><time>2026-04-18T15:20:22.995Z</time></trkpt><trkpt lat="45.3771911" lon="8.5712802"><ele>131.0</ele><time>2026-04-18T15:20:23.995Z</time></trkpt><trkpt lat="45.3770981" lon="8.5712687"><ele>131.0</ele><time>2026-04-18T15:20:24.994Z</time></trkpt><trkpt lat="45.3770072" lon="8.5712566"><ele>131.0</ele><time>2026-04-18T15:20:25.995Z</time></trkpt><trkpt lat="45.3769199" lon="8.5712475"><ele>131.0</ele><time>2026-04-18T15:20:26.994Z</time></trkpt><trkpt lat="45.376833" lon="8.5712376"><ele>131.0</ele><time>2026-04-18T15:20:27.995Z</time></trkpt><trkpt lat="45.3767428" lon="8.5712321"><ele>131.0</ele><time>2026-04-18T15:20:28.995Z</time></trkpt><trkpt lat="45.376656" lon="8.5712317"><ele>131.0</ele><time>2026-04-18T15:20:29.995Z</time></trkpt><trkpt lat="45.3765733" lon="8.5712417"><ele>131.0</ele><time>2026-04-18T15:20:30.995Z</time></trkpt><trkpt lat="45.3764954" lon="8.5712597"><ele>131.0</ele><time>2026-04-18T15:20:31.995Z</time></trkpt><trkpt lat="45.3764184" lon="8.5712915"><ele>131.0</ele><time>2026-04-18T15:20:32.994Z</time></trkpt><trkpt lat="45.3763441" lon="8.5713287"><ele>131.0</ele><time>2026-04-18T15:20:33.995Z</time></trkpt><trkpt lat="45.3762641" lon="8.5713767"><ele>131.0</ele><time>2026-04-18T15:20:34.995Z</time></trkpt><trkpt lat="45.376172" lon="8.5714326"><ele>131.0</ele><time>2026-04-18T15:20:35.995Z</time></trkpt><trkpt lat="45.3760813" lon="8.5714964"><ele>131.0</ele><time>2026-04-18T15:20:36.995Z</time></trkpt><trkpt lat="45.3759886" lon="8.5715634"><ele>131.0</ele><time>2026-04-18T15:20:37.995Z</time></trkpt><trkpt lat="45.3758942" lon="8.5716343"><ele>131.0</ele><time>2026-04-18T15:20:38.995Z</time></trkpt><trkpt lat="45.3758072" lon="8.5717029"><ele>131.0</ele><time>2026-04-18T15:20:39.995Z</time></trkpt><trkpt lat="45.3757149" lon="8.5717713"><ele>131.0</ele><time>2026-04-18T15:20:40.995Z</time></trkpt><trkpt lat="45.3756169" lon="8.5718398"><ele>131.0</ele><time>2026-04-18T15:20:41.995Z</time></trkpt><trkpt lat="45.375511" lon="8.5719066"><ele>131.0</ele><time>2026-04-18T15:20:42.995Z</time></trkpt><trkpt lat="45.3754046" lon="8.571968"><ele>131.0</ele><time>2026-04-18T15:20:43.994Z</time></trkpt><trkpt lat="45.3753033" lon="8.5720261"><ele>131.0</ele><time>2026-04-18T15:20:44.995Z</time></trkpt><trkpt lat="45.3752003" lon="8.5720786"><ele>131.0</ele><time>2026-04-18T15:20:45.995Z</time></trkpt><trkpt lat="45.3750969" lon="8.5721277"><ele>131.0</ele><time>2026-04-18T15:20:46.995Z</time></trkpt><trkpt lat="45.3749923" lon="8.5721742"><ele>131.0</ele><time>2026-04-18T15:20:47.994Z</time></trkpt><trkpt lat="45.374886" lon="8.572212"><ele>131.0</ele><time>2026-04-18T15:20:48.995Z</time></trkpt><trkpt lat="45.3747871" lon="8.5722412"><ele>131.0</ele><time>2026-04-18T15:20:49.995Z</time></trkpt><trkpt lat="45.3746866" lon="8.5722708"><ele>131.0</ele><time>2026-04-18T15:20:50.995Z</time></trkpt><trkpt lat="45.3745835" lon="8.5722926"><ele>131.0</ele><time>2026-04-18T15:20:51.995Z</time></trkpt><trkpt lat="45.3744771" lon="8.572314"><ele>131.0</ele><time>2026-04-18T15:20:52.995Z</time></trkpt><trkpt lat="45.3743755" lon="8.572333"><ele>131.0</ele><time>2026-04-18T15:20:53.995Z</time></trkpt><trkpt lat="45.3742748" lon="8.572348"><ele>131.0</ele><time>2026-04-18T15:20:54.995Z</time></trkpt><trkpt lat="45.3741749" lon="8.5723605"><ele>131.0</ele><time>2026-04-18T15:20:55.995Z</time></trkpt><trkpt lat="45.3740784" lon="8.5723757"><ele>131.0</ele><time>2026-04-18T15:20:56.995Z</time></trkpt><trkpt lat="45.3739856" lon="8.5723911"><ele>131.0</ele><time>2026-04-18T15:20:57.994Z</time></trkpt><trkpt lat="45.373898" lon="8.5724031"><ele>131.0</ele><time>2026-04-18T15:20:58.994Z</time></trkpt><trkpt lat="45.3738064" lon="8.5724178"><ele>131.0</ele><time>2026-04-18T15:20:59.995Z</time></trkpt><trkpt lat="45.3737074" lon="8.5724344"><ele>131.0</ele><time>2026-04-18T15:21:00.995Z</time></trkpt><trkpt lat="45.3736206" lon="8.5724434"><ele>131.0</ele><time>2026-04-18T15:21:01.995Z</time></trkpt><trkpt lat="45.3735415" lon="8.5724482"><ele>131.0</ele><time>2026-04-18T15:21:02.995Z</time></trkpt><trkpt lat="45.3734639" lon="8.5724599"><ele>131.0</ele><time>2026-04-18T15:21:03.995Z</time></trkpt><trkpt lat="45.3733762" lon="8.5724772"><ele>131.0</ele><time>2026-04-18T15:21:04.994Z</time></trkpt><trkpt lat="45.373282" lon="8.5724961"><ele>131.0</ele><time>2026-04-18T15:21:05.995Z</time></trkpt><trkpt lat="45.373187" lon="8.5725013"><ele>131.0</ele><time>2026-04-18T15:21:06.995Z</time></trkpt><trkpt lat="45.3730876" lon="8.572505"><ele>131.0</ele><time>2026-04-18T15:21:07.994Z</time></trkpt><trkpt lat="45.3729906" lon="8.5725118"><ele>131.0</ele><time>2026-04-18T15:21:08.994Z</time></trkpt><trkpt lat="45.3728864" lon="8.5725215"><ele>131.0</ele><time>2026-04-18T15:21:09.994Z</time></trkpt><trkpt lat="45.372777" lon="8.5725321"><ele>131.0</ele><time>2026-04-18T15:21:10.995Z</time></trkpt><trkpt lat="45.3726661" lon="8.5725485"><ele>131.0</ele><time>2026-04-18T15:21:11.995Z</time></trkpt><trkpt lat="45.3725517" lon="8.572566"><ele>131.0</ele><time>2026-04-18T15:21:12.994Z</time></trkpt><trkpt lat="45.3724314" lon="8.5725843"><ele>131.0</ele><time>2026-04-18T15:21:13.994Z</time></trkpt><trkpt lat="45.3723076" lon="8.5726027"><ele>131.0</ele><time>2026-04-18T15:21:14.994Z</time></trkpt><trkpt lat="45.3721827" lon="8.5726196"><ele>131.0</ele><time>2026-04-18T15:21:15.995Z</time></trkpt><trkpt lat="45.3720543" lon="8.5726368"><ele>131.0</ele><time>2026-04-18T15:21:16.994Z</time></trkpt><trkpt lat="45.371927" lon="8.5726512"><ele>130.75</ele><time>2026-04-18T15:21:17.994Z</time></trkpt><trkpt lat="45.3718003" lon="8.5726665"><ele>130.5</ele><time>2026-04-18T15:21:18.994Z</time></trkpt><trkpt lat="45.3716729" lon="8.5726821"><ele>130.25</ele><time>2026-04-18T15:21:19.995Z</time></trkpt><trkpt lat="45.3715502" lon="8.5727017"><ele>130.0</ele><time>2026-04-18T15:21:20.995Z</time></trkpt><trkpt lat="45.37144" lon="8.5727166"><ele>130.0</ele><time>2026-04-18T15:21:21.995Z</time></trkpt><trkpt lat="45.3713305" lon="8.5727314"><ele>130.0</ele><time>2026-04-18T15:21:22.994Z</time></trkpt><trkpt lat="45.3712199" lon="8.5727444"><ele>130.0</ele><time>2026-04-18T15:21:23.995Z</time></trkpt><trkpt lat="45.3711096" lon="8.5727555"><ele>130.0</ele><time>2026-04-18T15:21:24.995Z</time></trkpt><trkpt lat="45.3709955" lon="8.5727728"><ele>130.0</ele><time>2026-04-18T15:21:25.994Z</time></trkpt><trkpt lat="45.3708779" lon="8.5727919"><ele>130.0</ele><time>2026-04-18T15:21:26.994Z</time></trkpt><trkpt lat="45.3707615" lon="8.5728237"><ele>130.0</ele><time>2026-04-18T15:21:27.995Z</time></trkpt><trkpt lat="45.3706555" lon="8.5728584"><ele>130.0</ele><time>2026-04-18T15:21:28.995Z</time></trkpt><trkpt lat="45.3705565" lon="8.5728855"><ele>130.0</ele><time>2026-04-18T15:21:29.995Z</time></trkpt><trkpt lat="45.3704685" lon="8.5729061"><ele>130.0</ele><time>2026-04-18T15:21:30.995Z</time></trkpt><trkpt lat="45.3703898" lon="8.572921"><ele>129.66666666666669</ele><time>2026-04-18T15:21:31.995Z</time></trkpt><trkpt lat="45.3703148" lon="8.5729253"><ele>129.33333333333334</ele><time>2026-04-18T15:21:32.995Z</time></trkpt><trkpt lat="45.370241" lon="8.5729264"><ele>129.0</ele><time>2026-04-18T15:21:33.995Z</time></trkpt><trkpt lat="45.3701612" lon="8.5729229"><ele>128.66666666666666</ele><time>2026-04-18T15:21:34.995Z</time></trkpt><trkpt lat="45.3700757" lon="8.5729119"><ele>128.33333333333331</ele><time>2026-04-18T15:21:35.995Z</time></trkpt><trkpt lat="45.3699898" lon="8.5728949"><ele>128.0</ele><time>2026-04-18T15:21:36.995Z</time></trkpt><trkpt lat="45.3699047" lon="8.572876"><ele>127.99999999999999</ele><time>2026-04-18T15:21:37.995Z</time></trkpt><trkpt lat="45.369818" lon="8.5728568"><ele>128.0</ele><time>2026-04-18T15:21:38.995Z</time></trkpt><trkpt lat="45.3697325" lon="8.5728336"><ele>128.0</ele><time>2026-04-18T15:21:39.994Z</time></trkpt><trkpt lat="45.3696435" lon="8.5728063"><ele>128.0</ele><time>2026-04-18T15:21:40.995Z</time></trkpt><trkpt lat="45.3695527" lon="8.5727875"><ele>127.99999999999999</ele><time>2026-04-18T15:21:41.995Z</time></trkpt><trkpt lat="45.369462" lon="8.5727732"><ele>128.0</ele><time>2026-04-18T15:21:42.995Z</time></trkpt><trkpt lat="45.3693726" lon="8.5727576"><ele>128.20000000000002</ele><time>2026-04-18T15:21:43.994Z</time></trkpt><trkpt lat="45.3692831" lon="8.5727473"><ele>128.4</ele><time>2026-04-18T15:21:44.994Z</time></trkpt><trkpt lat="45.3691929" lon="8.5727393"><ele>128.60000000000002</ele><time>2026-04-18T15:21:45.995Z</time></trkpt><trkpt lat="45.3690978" lon="8.5727303"><ele>128.8</ele><time>2026-04-18T15:21:46.995Z</time></trkpt><trkpt lat="45.3689988" lon="8.5727178"><ele>129.0</ele><time>2026-04-18T15:21:47.995Z</time></trkpt><trkpt lat="45.3688923" lon="8.5727058"><ele>128.75</ele><time>2026-04-18T15:21:48.994Z</time></trkpt><trkpt lat="45.3687827" lon="8.5726912"><ele>128.5</ele><time>2026-04-18T15:21:49.995Z</time></trkpt><trkpt lat="45.3686684" lon="8.5726764"><ele>128.25</ele><time>2026-04-18T15:21:50.995Z</time></trkpt><trkpt lat="45.3685481" lon="8.5726613"><ele>128.0</ele><time>2026-04-18T15:21:51.995Z</time></trkpt><trkpt lat="45.3684242" lon="8.5726435"><ele>128.0</ele><time>2026-04-18T15:21:52.995Z</time></trkpt><trkpt lat="45.3682949" lon="8.5726293"><ele>128.0</ele><time>2026-04-18T15:21:53.995Z</time></trkpt><trkpt lat="45.3681647" lon="8.572613"><ele>128.0</ele><time>2026-04-18T15:21:54.994Z</time></trkpt><trkpt lat="45.3680336" lon="8.5725999"><ele>128.0</ele><time>2026-04-18T15:21:55.995Z</time></trkpt><trkpt lat="45.3679047" lon="8.5725831"><ele>127.75</ele><time>2026-04-18T15:21:56.995Z</time></trkpt><trkpt lat="45.3677819" lon="8.5725678"><ele>127.5</ele><time>2026-04-18T15:21:57.995Z</time></trkpt><trkpt lat="45.3676582" lon="8.57255"><ele>127.25</ele><time>2026-04-18T15:21:58.995Z</time></trkpt><trkpt lat="45.3675337" lon="8.5725371"><ele>127.0</ele><time>2026-04-18T15:21:59.995Z</time></trkpt><trkpt lat="45.3674049" lon="8.5725228"><ele>127.0</ele><time>2026-04-18T15:22:00.995Z</time></trkpt><trkpt lat="45.3672755" lon="8.5725057"><ele>127.0</ele><time>2026-04-18T15:22:01.995Z</time></trkpt><trkpt lat="45.3671545" lon="8.5724886"><ele>127.0</ele><time>2026-04-18T15:22:02.995Z</time></trkpt><trkpt lat="45.3670399" lon="8.5724783"><ele>127.0</ele><time>2026-04-18T15:22:03.995Z</time></trkpt><trkpt lat="45.3669315" lon="8.5724684"><ele>127.16666666666667</ele><time>2026-04-18T15:22:04.994Z</time></trkpt><trkpt lat="45.3668315" lon="8.5724646"><ele>127.33333333333334</ele><time>2026-04-18T15:22:05.995Z</time></trkpt><trkpt lat="45.3667391" lon="8.572474"><ele>127.5</ele><time>2026-04-18T15:22:06.995Z</time></trkpt><trkpt lat="45.3666531" lon="8.5724917"><ele>127.66666666666666</ele><time>2026-04-18T15:22:07.994Z</time></trkpt><trkpt lat="45.3665741" lon="8.572517"><ele>127.83333333333333</ele><time>2026-04-18T15:22:08.995Z</time></trkpt><trkpt lat="45.3665039" lon="8.572537"><ele>128.0</ele><time>2026-04-18T15:22:09.994Z</time></trkpt><trkpt lat="45.3663995" lon="8.5726235"><ele>128.0</ele><time>2026-04-18T15:22:11.994Z</time></trkpt><trkpt lat="45.3663513" lon="8.5727605"><ele>128.0</ele><time>2026-04-18T15:22:13.995Z</time></trkpt><trkpt lat="45.3663574" lon="8.5729341"><ele>128.0</ele><time>2026-04-18T15:22:15.995Z</time></trkpt><trkpt lat="45.3663776" lon="8.5730345"><ele>128.0</ele><time>2026-04-18T15:22:16.995Z</time></trkpt><trkpt lat="45.366402" lon="8.5731448"><ele>128.0</ele><time>2026-04-18T15:22:17.995Z</time></trkpt><trkpt lat="45.3664219" lon="8.573266"><ele>128.0</ele><time>2026-04-18T15:22:18.995Z</time></trkpt><trkpt lat="45.3664433" lon="8.5733913"><ele>128.0</ele><time>2026-04-18T15:22:19.994Z</time></trkpt><trkpt lat="45.3664639" lon="8.5735124"><ele>128.0</ele><time>2026-04-18T15:22:20.994Z</time></trkpt><trkpt lat="45.3664856" lon="8.5736358"><ele>128.0</ele><time>2026-04-18T15:22:21.995Z</time></trkpt><trkpt lat="45.3665083" lon="8.5737677"><ele>128.0</ele><time>2026-04-18T15:22:22.995Z</time></trkpt><trkpt lat="45.3665319" lon="8.5739078"><ele>128.0</ele><time>2026-04-18T15:22:23.994Z</time></trkpt><trkpt lat="45.3665543" lon="8.5740573"><ele>128.0</ele><time>2026-04-18T15:22:24.995Z</time></trkpt><trkpt lat="45.3665813" lon="8.574197"><ele>128.0</ele><time>2026-04-18T15:22:25.994Z</time></trkpt><trkpt lat="45.3666061" lon="8.5743297"><ele>128.0</ele><time>2026-04-18T15:22:26.994Z</time></trkpt><trkpt lat="45.36663" lon="8.5744575"><ele>128.0</ele><time>2026-04-18T15:22:27.995Z</time></trkpt><trkpt lat="45.3666499" lon="8.5745689"><ele>128.0</ele><time>2026-04-18T15:22:28.994Z</time></trkpt><trkpt lat="45.3666694" lon="8.5746889"><ele>128.0</ele><time>2026-04-18T15:22:29.995Z</time></trkpt><trkpt lat="45.36669" lon="8.57482"><ele>128.0</ele><time>2026-04-18T15:22:30.994Z</time></trkpt><trkpt lat="45.3667149" lon="8.5749525"><ele>128.0</ele><time>2026-04-18T15:22:31.995Z</time></trkpt><trkpt lat="45.3667375" lon="8.5750796"><ele>128.0</ele><time>2026-04-18T15:22:32.995Z</time></trkpt><trkpt lat="45.3667586" lon="8.5752053"><ele>127.99999999999999</ele><time>2026-04-18T15:22:33.995Z</time></trkpt><trkpt lat="45.3667804" lon="8.5753182"><ele>128.0</ele><time>2026-04-18T15:22:34.995Z</time></trkpt><trkpt lat="45.3667944" lon="8.5754247"><ele>128.0</ele><time>2026-04-18T15:22:35.995Z</time></trkpt><trkpt lat="45.3668082" lon="8.5755335"><ele>128.0</ele><time>2026-04-18T15:22:36.995Z</time></trkpt><trkpt lat="45.3668168" lon="8.5756288"><ele>127.99999999999999</ele><time>2026-04-18T15:22:37.995Z</time></trkpt><trkpt lat="45.3668178" lon="8.5757204"><ele>128.0</ele><time>2026-04-18T15:22:38.995Z</time></trkpt><trkpt lat="45.3667661" lon="8.5758674"><ele>127.99999999999999</ele><time>2026-04-18T15:22:40.994Z</time></trkpt><trkpt lat="45.3667076" lon="8.5759156"><ele>128.0</ele><time>2026-04-18T15:22:41.994Z</time></trkpt><trkpt lat="45.3666282" lon="8.5759583"><ele>128.0</ele><time>2026-04-18T15:22:42.995Z</time></trkpt><trkpt lat="45.3665383" lon="8.5759969"><ele>128.0</ele><time>2026-04-18T15:22:43.994Z</time></trkpt><trkpt lat="45.3664464" lon="8.5760396"><ele>127.99999999999999</ele><time>2026-04-18T15:22:44.995Z</time></trkpt><trkpt lat="45.3663599" lon="8.5760826"><ele>128.0</ele><time>2026-04-18T15:22:45.995Z</time></trkpt><trkpt lat="45.366282" lon="8.5761264"><ele>127.83333333333333</ele><time>2026-04-18T15:22:46.994Z</time></trkpt><trkpt lat="45.3662133" lon="8.5761739"><ele>127.66666666666666</ele><time>2026-04-18T15:22:47.995Z</time></trkpt><trkpt lat="45.3661608" lon="8.5762346"><ele>127.5</ele><time>2026-04-18T15:22:48.994Z</time></trkpt><trkpt lat="45.3661131" lon="8.5763063"><ele>127.33333333333334</ele><time>2026-04-18T15:22:49.995Z</time></trkpt><trkpt lat="45.3660673" lon="8.5763925"><ele>127.16666666666667</ele><time>2026-04-18T15:22:50.994Z</time></trkpt><trkpt lat="45.3660233" lon="8.5764929"><ele>127.0</ele><time>2026-04-18T15:22:51.994Z</time></trkpt><trkpt lat="45.3659781" lon="8.5765949"><ele>127.00000000000001</ele><time>2026-04-18T15:22:52.995Z</time></trkpt><trkpt lat="45.3659315" lon="8.5767023"><ele>127.0</ele><time>2026-04-18T15:22:53.995Z</time></trkpt><trkpt lat="45.3658869" lon="8.5768024"><ele>127.0</ele><time>2026-04-18T15:22:54.995Z</time></trkpt><trkpt lat="45.3658391" lon="8.576892"><ele>127.0</ele><time>2026-04-18T15:22:55.995Z</time></trkpt><trkpt lat="45.365802" lon="8.5769676"><ele>127.00000000000001</ele><time>2026-04-18T15:22:56.994Z</time></trkpt><trkpt lat="45.3657446" lon="8.5770561"><ele>127.0</ele><time>2026-04-18T15:22:58.995Z</time></trkpt><trkpt lat="45.3656259" lon="8.5770613"><ele>127.0</ele><time>2026-04-18T15:23:00.994Z</time></trkpt><trkpt lat="45.3655349" lon="8.5770358"><ele>127.0</ele><time>2026-04-18T15:23:01.994Z</time></trkpt><trkpt lat="45.3654173" lon="8.577012"><ele>127.0</ele><time>2026-04-18T15:23:02.994Z</time></trkpt><trkpt lat="45.3652937" lon="8.5769902"><ele>127.0</ele><time>2026-04-18T15:23:03.995Z</time></trkpt><trkpt lat="45.3651579" lon="8.576968"><ele>127.0</ele><time>2026-04-18T15:23:04.995Z</time></trkpt><trkpt lat="45.365021" lon="8.5769478"><ele>127.0</ele><time>2026-04-18T15:23:05.995Z</time></trkpt><trkpt lat="45.3648804" lon="8.5769292"><ele>127.0</ele><time>2026-04-18T15:23:06.995Z</time></trkpt><trkpt lat="45.364738" lon="8.5769097"><ele>127.0</ele><time>2026-04-18T15:23:07.995Z</time></trkpt><trkpt lat="45.3646052" lon="8.5768927"><ele>127.25</ele><time>2026-04-18T15:23:08.995Z</time></trkpt><trkpt lat="45.3644823" lon="8.5768714"><ele>127.5</ele><time>2026-04-18T15:23:09.995Z</time></trkpt><trkpt lat="45.3643636" lon="8.5768487"><ele>127.75</ele><time>2026-04-18T15:23:10.995Z</time></trkpt><trkpt lat="45.3642451" lon="8.5768166"><ele>128.0</ele><time>2026-04-18T15:23:11.994Z</time></trkpt><trkpt lat="45.3641213" lon="8.5767686"><ele>128.0</ele><time>2026-04-18T15:23:12.994Z</time></trkpt><trkpt lat="45.3640011" lon="8.576714"><ele>128.0</ele><time>2026-04-18T15:23:13.994Z</time></trkpt><trkpt lat="45.363876" lon="8.5766443"><ele>128.0</ele><time>2026-04-18T15:23:14.995Z</time></trkpt><trkpt lat="45.3637483" lon="8.5765643"><ele>128.0</ele><time>2026-04-18T15:23:15.995Z</time></trkpt><trkpt lat="45.3636229" lon="8.5764764"><ele>128.25</ele><time>2026-04-18T15:23:16.995Z</time></trkpt><trkpt lat="45.3634925" lon="8.5763866"><ele>128.5</ele><time>2026-04-18T15:23:17.994Z</time></trkpt><trkpt lat="45.3633633" lon="8.576294"><ele>128.75</ele><time>2026-04-18T15:23:18.995Z</time></trkpt><trkpt lat="45.3632357" lon="8.5762014"><ele>129.0</ele><time>2026-04-18T15:23:19.995Z</time></trkpt><trkpt lat="45.3631118" lon="8.5761172"><ele>129.25</ele><time>2026-04-18T15:23:20.994Z</time></trkpt><trkpt lat="45.3629954" lon="8.5760338"><ele>129.5</ele><time>2026-04-18T15:23:21.995Z</time></trkpt><trkpt lat="45.3628903" lon="8.5759591"><ele>129.75</ele><time>2026-04-18T15:23:22.994Z</time></trkpt><trkpt lat="45.3627917" lon="8.5758902"><ele>130.0</ele><time>2026-04-18T15:23:23.995Z</time></trkpt><trkpt lat="45.3626968" lon="8.5758285"><ele>130.0</ele><time>2026-04-18T15:23:24.994Z</time></trkpt><trkpt lat="45.3626068" lon="8.5757703"><ele>130.0</ele><time>2026-04-18T15:23:25.994Z</time></trkpt><trkpt lat="45.3625123" lon="8.5757082"><ele>130.0</ele><time>2026-04-18T15:23:26.995Z</time></trkpt><trkpt lat="45.3624113" lon="8.5756417"><ele>130.0</ele><time>2026-04-18T15:23:27.994Z</time></trkpt><trkpt lat="45.3623047" lon="8.5755701"><ele>130.0</ele><time>2026-04-18T15:23:28.995Z</time></trkpt><trkpt lat="45.3622029" lon="8.5754997"><ele>130.25</ele><time>2026-04-18T15:23:29.994Z</time></trkpt><trkpt lat="45.3620956" lon="8.5754345"><ele>130.5</ele><time>2026-04-18T15:23:30.995Z</time></trkpt><trkpt lat="45.3619898" lon="8.5753596"><ele>130.75</ele><time>2026-04-18T15:23:31.995Z</time></trkpt><trkpt lat="45.3618902" lon="8.5752899"><ele>131.0</ele><time>2026-04-18T15:23:32.995Z</time></trkpt><trkpt lat="45.3617965" lon="8.5752258"><ele>131.0</ele><time>2026-04-18T15:23:33.995Z</time></trkpt><trkpt lat="45.3617032" lon="8.5751588"><ele>131.0</ele><time>2026-04-18T15:23:34.995Z</time></trkpt><trkpt lat="45.3616102" lon="8.5750968"><ele>131.0</ele><time>2026-04-18T15:23:35.995Z</time></trkpt><trkpt lat="45.361518" lon="8.5750277"><ele>131.0</ele><time>2026-04-18T15:23:36.995Z</time></trkpt><trkpt lat="45.3614305" lon="8.574964"><ele>131.0</ele><time>2026-04-18T15:23:37.995Z</time></trkpt><trkpt lat="45.3613439" lon="8.5749036"><ele>130.8</ele><time>2026-04-18T15:23:38.994Z</time></trkpt><trkpt lat="45.3612589" lon="8.5748403"><ele>130.6</ele><time>2026-04-18T15:23:39.995Z</time></trkpt><trkpt lat="45.361176" lon="8.574782"><ele>130.4</ele><time>2026-04-18T15:23:40.995Z</time></trkpt><trkpt lat="45.3610987" lon="8.5747165"><ele>130.2</ele><time>2026-04-18T15:23:41.994Z</time></trkpt><trkpt lat="45.36102" lon="8.5746518"><ele>130.0</ele><time>2026-04-18T15:23:42.995Z</time></trkpt><trkpt lat="45.3609521" lon="8.5745907"><ele>130.0</ele><time>2026-04-18T15:23:43.994Z</time></trkpt><trkpt lat="45.3608966" lon="8.5745374"><ele>130.0</ele><time>2026-04-18T15:23:44.995Z</time></trkpt><trkpt lat="45.3608049" lon="8.5744774"><ele>130.0</ele><time>2026-04-18T15:23:46.995Z</time></trkpt><trkpt lat="45.3607361" lon="8.5745098"><ele>130.0</ele><time>2026-04-18T15:23:48.995Z</time></trkpt><trkpt lat="45.3606861" lon="8.5746532"><ele>130.0</ele><time>2026-04-18T15:23:50.994Z</time></trkpt><trkpt lat="45.3606275" lon="8.5747766"><ele>130.0</ele><time>2026-04-18T15:23:51.994Z</time></trkpt><trkpt lat="45.3605534" lon="8.5749166"><ele>130.0</ele><time>2026-04-18T15:23:52.995Z</time></trkpt><trkpt lat="45.3604746" lon="8.575061"><ele>130.0</ele><time>2026-04-18T15:23:53.995Z</time></trkpt><trkpt lat="45.3603912" lon="8.5752172"><ele>130.0</ele><time>2026-04-18T15:23:54.994Z</time></trkpt><trkpt lat="45.3602982" lon="8.5753766"><ele>130.0</ele><time>2026-04-18T15:23:55.995Z</time></trkpt><trkpt lat="45.3601953" lon="8.5755475"><ele>130.0</ele><time>2026-04-18T15:23:56.995Z</time></trkpt><trkpt lat="45.3600889" lon="8.5757194"><ele>130.0</ele><time>2026-04-18T15:23:57.994Z</time></trkpt><trkpt lat="45.3599906" lon="8.5758796"><ele>130.0</ele><time>2026-04-18T15:23:58.994Z</time></trkpt><trkpt lat="45.3598915" lon="8.5760333"><ele>130.0</ele><time>2026-04-18T15:23:59.995Z</time></trkpt><trkpt lat="45.3597964" lon="8.5761936"><ele>130.0</ele><time>2026-04-18T15:24:00.995Z</time></trkpt><trkpt lat="45.3597145" lon="8.5763844"><ele>129.66666666666669</ele><time>2026-04-18T15:24:01.995Z</time></trkpt><trkpt lat="45.3596345" lon="8.5765913"><ele>129.33333333333334</ele><time>2026-04-18T15:24:02.995Z</time></trkpt><trkpt lat="45.3595493" lon="8.5768048"><ele>129.0</ele><time>2026-04-18T15:24:03.995Z</time></trkpt><trkpt lat="45.359465" lon="8.5770134"><ele>128.66666666666666</ele><time>2026-04-18T15:24:04.994Z</time></trkpt><trkpt lat="45.3593795" lon="8.5772259"><ele>128.33333333333331</ele><time>2026-04-18T15:24:05.995Z</time></trkpt><trkpt lat="45.3592928" lon="8.5774282"><ele>128.0</ele><time>2026-04-18T15:24:06.995Z</time></trkpt><trkpt lat="45.3592142" lon="8.5776051"><ele>128.0</ele><time>2026-04-18T15:24:07.994Z</time></trkpt><trkpt lat="45.3591418" lon="8.5777569"><ele>128.0</ele><time>2026-04-18T15:24:08.995Z</time></trkpt><trkpt lat="45.3590741" lon="8.5778837"><ele>128.0</ele><time>2026-04-18T15:24:09.995Z</time></trkpt><trkpt lat="45.3590131" lon="8.5779992"><ele>128.0</ele><time>2026-04-18T15:24:10.995Z</time></trkpt><trkpt lat="45.3589523" lon="8.5781043"><ele>128.0</ele><time>2026-04-18T15:24:11.995Z</time></trkpt><trkpt lat="45.3588944" lon="8.5782066"><ele>128.20000000000002</ele><time>2026-04-18T15:24:12.994Z</time></trkpt><trkpt lat="45.3588306" lon="8.578312"><ele>128.4</ele><time>2026-04-18T15:24:13.994Z</time></trkpt><trkpt lat="45.3587662" lon="8.5784223"><ele>128.60000000000002</ele><time>2026-04-18T15:24:14.995Z</time></trkpt><trkpt lat="45.3586967" lon="8.5785344"><ele>128.8</ele><time>2026-04-18T15:24:15.995Z</time></trkpt><trkpt lat="45.3586365" lon="8.5786432"><ele>129.0</ele><time>2026-04-18T15:24:16.995Z</time></trkpt><trkpt lat="45.3585742" lon="8.5787494"><ele>129.0</ele><time>2026-04-18T15:24:17.995Z</time></trkpt><trkpt lat="45.3585106" lon="8.5788593"><ele>129.0</ele><time>2026-04-18T15:24:18.994Z</time></trkpt><trkpt lat="45.3584485" lon="8.5789744"><ele>129.0</ele><time>2026-04-18T15:24:19.994Z</time></trkpt><trkpt lat="45.3583923" lon="8.579092"><ele>129.0</ele><time>2026-04-18T15:24:20.994Z</time></trkpt><trkpt lat="45.3583362" lon="8.5791937"><ele>129.0</ele><time>2026-04-18T15:24:21.994Z</time></trkpt><trkpt lat="45.3582811" lon="8.5792845"><ele>129.0</ele><time>2026-04-18T15:24:22.995Z</time></trkpt><trkpt lat="45.3582261" lon="8.5793517"><ele>129.0</ele><time>2026-04-18T15:24:23.995Z</time></trkpt><trkpt lat="45.3581665" lon="8.5793833"><ele>129.0</ele><time>2026-04-18T15:24:24.995Z</time></trkpt><trkpt lat="45.358094" lon="8.5793672"><ele>129.0</ele><time>2026-04-18T15:24:25.994Z</time></trkpt><trkpt lat="45.3580137" lon="8.5793061"><ele>129.0</ele><time>2026-04-18T15:24:26.994Z</time></trkpt><trkpt lat="45.3579173" lon="8.5792191"><ele>129.0</ele><time>2026-04-18T15:24:27.994Z</time></trkpt><trkpt lat="45.3578182" lon="8.5791099"><ele>129.0</ele><time>2026-04-18T15:24:28.994Z</time></trkpt><trkpt lat="45.3577149" lon="8.57901"><ele>129.0</ele><time>2026-04-18T15:24:29.995Z</time></trkpt><trkpt lat="45.3576221" lon="8.5789257"><ele>129.0</ele><time>2026-04-18T15:24:30.995Z</time></trkpt><trkpt lat="45.3575333" lon="8.5788555"><ele>129.0</ele><time>2026-04-18T15:24:31.995Z</time></trkpt><trkpt lat="45.3574511" lon="8.5787913"><ele>129.0</ele><time>2026-04-18T15:24:32.994Z</time></trkpt><trkpt lat="45.3573744" lon="8.5787448"><ele>129.0</ele><time>2026-04-18T15:24:33.994Z</time></trkpt><trkpt lat="45.3573005" lon="8.5787176"><ele>129.0</ele><time>2026-04-18T15:24:34.994Z</time></trkpt><trkpt lat="45.3572349" lon="8.5787165"><ele>129.0</ele><time>2026-04-18T15:24:35.995Z</time></trkpt><trkpt lat="45.3571654" lon="8.5787378"><ele>129.0</ele><time>2026-04-18T15:24:36.994Z</time></trkpt><trkpt lat="45.3570947" lon="8.5787963"><ele>129.0</ele><time>2026-04-18T15:24:37.995Z</time></trkpt><trkpt lat="45.3570252" lon="8.578872"><ele>129.0</ele><time>2026-04-18T15:24:38.994Z</time></trkpt><trkpt lat="45.3569591" lon="8.578954"><ele>128.8</ele><time>2026-04-18T15:24:39.995Z</time></trkpt><trkpt lat="45.3568908" lon="8.5790378"><ele>128.60000000000002</ele><time>2026-04-18T15:24:40.995Z</time></trkpt><trkpt lat="45.356816" lon="8.5791307"><ele>128.4</ele><time>2026-04-18T15:24:41.995Z</time></trkpt><trkpt lat="45.3567391" lon="8.5792276"><ele>128.20000000000002</ele><time>2026-04-18T15:24:42.995Z</time></trkpt><trkpt lat="45.3566635" lon="8.5793189"><ele>128.0</ele><time>2026-04-18T15:24:43.995Z</time></trkpt><trkpt lat="45.3565904" lon="8.5794125"><ele>128.0</ele><time>2026-04-18T15:24:44.995Z</time></trkpt><trkpt lat="45.356523" lon="8.5795027"><ele>128.0</ele><time>2026-04-18T15:24:45.995Z</time></trkpt><trkpt lat="45.3564576" lon="8.5795936"><ele>128.0</ele><time>2026-04-18T15:24:46.995Z</time></trkpt><trkpt lat="45.356397" lon="8.5796919"><ele>128.0</ele><time>2026-04-18T15:24:47.995Z</time></trkpt><trkpt lat="45.3563422" lon="8.5798039"><ele>128.0</ele><time>2026-04-18T15:24:48.995Z</time></trkpt><trkpt lat="45.356291" lon="8.5799257"><ele>128.0</ele><time>2026-04-18T15:24:49.995Z</time></trkpt><trkpt lat="45.3562403" lon="8.580055"><ele>128.0</ele><time>2026-04-18T15:24:50.995Z</time></trkpt><trkpt lat="45.3561933" lon="8.5801796"><ele>128.0</ele><time>2026-04-18T15:24:51.995Z</time></trkpt><trkpt lat="45.3561412" lon="8.5802978"><ele>128.0</ele><time>2026-04-18T15:24:52.994Z</time></trkpt><trkpt lat="45.3560833" lon="8.5804168"><ele>128.0</ele><time>2026-04-18T15:24:53.995Z</time></trkpt><trkpt lat="45.356019" lon="8.5805309"><ele>128.0</ele><time>2026-04-18T15:24:54.995Z</time></trkpt><trkpt lat="45.3559496" lon="8.5806557"><ele>128.0</ele><time>2026-04-18T15:24:55.995Z</time></trkpt><trkpt lat="45.3558762" lon="8.5807876"><ele>128.0</ele><time>2026-04-18T15:24:56.994Z</time></trkpt><trkpt lat="45.3558016" lon="8.5809147"><ele>128.0</ele><time>2026-04-18T15:24:57.994Z</time></trkpt><trkpt lat="45.3557283" lon="8.5810448"><ele>128.0</ele><time>2026-04-18T15:24:58.995Z</time></trkpt><trkpt lat="45.3556547" lon="8.5811785"><ele>128.0</ele><time>2026-04-18T15:24:59.994Z</time></trkpt><trkpt lat="45.3555764" lon="8.5813156"><ele>128.0</ele><time>2026-04-18T15:25:00.994Z</time></trkpt><trkpt lat="45.3555026" lon="8.5814621"><ele>128.0</ele><time>2026-04-18T15:25:01.994Z</time></trkpt><trkpt lat="45.3554235" lon="8.5816151"><ele>127.75</ele><time>2026-04-18T15:25:02.995Z</time></trkpt><trkpt lat="45.3553404" lon="8.5817727"><ele>127.5</ele><time>2026-04-18T15:25:03.995Z</time></trkpt><trkpt lat="45.3552553" lon="8.5819357"><ele>127.25</ele><time>2026-04-18T15:25:04.995Z</time></trkpt><trkpt lat="45.3551649" lon="8.5820986"><ele>127.0</ele><time>2026-04-18T15:25:05.995Z</time></trkpt><trkpt lat="45.355078" lon="8.5822582"><ele>127.0</ele><time>2026-04-18T15:25:06.995Z</time></trkpt><trkpt lat="45.3549974" lon="8.5824058"><ele>127.0</ele><time>2026-04-18T15:25:07.995Z</time></trkpt><trkpt lat="45.3549216" lon="8.5825453"><ele>127.0</ele><time>2026-04-18T15:25:08.995Z</time></trkpt><trkpt lat="45.3548503" lon="8.5826744"><ele>127.0</ele><time>2026-04-18T15:25:09.995Z</time></trkpt><trkpt lat="45.3547826" lon="8.5827976"><ele>127.25</ele><time>2026-04-18T15:25:10.994Z</time></trkpt><trkpt lat="45.3547138" lon="8.5829248"><ele>127.5</ele><time>2026-04-18T15:25:11.995Z</time></trkpt><trkpt lat="45.3546449" lon="8.5830567"><ele>127.75</ele><time>2026-04-18T15:25:12.995Z</time></trkpt><trkpt lat="45.3545734" lon="8.5831873"><ele>128.0</ele><time>2026-04-18T15:25:13.995Z</time></trkpt><trkpt lat="45.3545026" lon="8.5833215"><ele>127.25</ele><time>2026-04-18T15:25:14.995Z</time></trkpt><trkpt lat="45.3544299" lon="8.5834545"><ele>126.5</ele><time>2026-04-18T15:25:15.995Z</time></trkpt><trkpt lat="45.3543588" lon="8.5835865"><ele>125.75</ele><time>2026-04-18T15:25:16.994Z</time></trkpt><trkpt lat="45.3542886" lon="8.583717"><ele>125.0</ele><time>2026-04-18T15:25:17.994Z</time></trkpt><trkpt lat="45.3542177" lon="8.5838509"><ele>125.0</ele><time>2026-04-18T15:25:18.994Z</time></trkpt><trkpt lat="45.3541444" lon="8.5839868"><ele>125.0</ele><time>2026-04-18T15:25:19.994Z</time></trkpt><trkpt lat="45.3540712" lon="8.5841269"><ele>125.0</ele><time>2026-04-18T15:25:20.994Z</time></trkpt><trkpt lat="45.3539979" lon="8.5842606"><ele>125.0</ele><time>2026-04-18T15:25:21.995Z</time></trkpt><trkpt lat="45.3539254" lon="8.5843961"><ele>125.0</ele><time>2026-04-18T15:25:22.994Z</time></trkpt><trkpt lat="45.353852" lon="8.5845335"><ele>125.0</ele><time>2026-04-18T15:25:23.995Z</time></trkpt><trkpt lat="45.3537765" lon="8.5846676"><ele>125.0</ele><time>2026-04-18T15:25:24.995Z</time></trkpt><trkpt lat="45.353705" lon="8.5848006"><ele>125.0</ele><time>2026-04-18T15:25:25.994Z</time></trkpt><trkpt lat="45.3536329" lon="8.5849335"><ele>125.0</ele><time>2026-04-18T15:25:26.995Z</time></trkpt><trkpt lat="45.3535621" lon="8.5850652"><ele>125.0</ele><time>2026-04-18T15:25:27.995Z</time></trkpt><trkpt lat="45.3534916" lon="8.5851971"><ele>125.0</ele><time>2026-04-18T15:25:28.994Z</time></trkpt><trkpt lat="45.3534191" lon="8.5853376"><ele>125.0</ele><time>2026-04-18T15:25:29.994Z</time></trkpt><trkpt lat="45.3533457" lon="8.5854753"><ele>125.0</ele><time>2026-04-18T15:25:30.995Z</time></trkpt><trkpt lat="45.3532756" lon="8.5856033"><ele>125.0</ele><time>2026-04-18T15:25:31.994Z</time></trkpt><trkpt lat="45.3532051" lon="8.5857329"><ele>125.0</ele><time>2026-04-18T15:25:32.995Z</time></trkpt><trkpt lat="45.3531352" lon="8.5858611"><ele>125.0</ele><time>2026-04-18T15:25:33.995Z</time></trkpt><trkpt lat="45.3530623" lon="8.5859909"><ele>125.0</ele><time>2026-04-18T15:25:34.994Z</time></trkpt><trkpt lat="45.3529967" lon="8.5861093"><ele>125.0</ele><time>2026-04-18T15:25:35.994Z</time></trkpt><trkpt lat="45.3529382" lon="8.5862143"><ele>125.0</ele><time>2026-04-18T15:25:36.995Z</time></trkpt><trkpt lat="45.3528911" lon="8.5862978"><ele>125.0</ele><time>2026-04-18T15:25:37.995Z</time></trkpt><trkpt lat="45.3528418" lon="8.5864446"><ele>125.0</ele><time>2026-04-18T15:25:39.995Z</time></trkpt><trkpt lat="45.3528545" lon="8.5865963"><ele>124.99999999999999</ele><time>2026-04-18T15:25:41.995Z</time></trkpt><trkpt lat="45.3528692" lon="8.5866934"><ele>125.0</ele><time>2026-04-18T15:25:42.994Z</time></trkpt><trkpt lat="45.3528754" lon="8.5867998"><ele>125.0</ele><time>2026-04-18T15:25:43.994Z</time></trkpt><trkpt lat="45.3528793" lon="8.5869189"><ele>125.0</ele><time>2026-04-18T15:25:44.994Z</time></trkpt><trkpt lat="45.3528697" lon="8.5870474"><ele>124.99999999999999</ele><time>2026-04-18T15:25:45.995Z</time></trkpt><trkpt lat="45.352854" lon="8.5871744"><ele>125.0</ele><time>2026-04-18T15:25:46.995Z</time></trkpt><trkpt lat="45.3528297" lon="8.5873108"><ele>125.0</ele><time>2026-04-18T15:25:47.995Z</time></trkpt><trkpt lat="45.3527949" lon="8.5874557"><ele>125.0</ele><time>2026-04-18T15:25:48.995Z</time></trkpt><trkpt lat="45.3527564" lon="8.5875969"><ele>125.0</ele><time>2026-04-18T15:25:49.994Z</time></trkpt><trkpt lat="45.3527137" lon="8.5877364"><ele>125.0</ele><time>2026-04-18T15:25:50.995Z</time></trkpt><trkpt lat="45.352665" lon="8.5878765"><ele>125.0</ele><time>2026-04-18T15:25:51.994Z</time></trkpt><trkpt lat="45.3526115" lon="8.5880154"><ele>125.0</ele><time>2026-04-18T15:25:52.995Z</time></trkpt><trkpt lat="45.3525509" lon="8.5881555"><ele>125.0</ele><time>2026-04-18T15:25:53.995Z</time></trkpt><trkpt lat="45.3524824" lon="8.588295"><ele>125.0</ele><time>2026-04-18T15:25:54.994Z</time></trkpt><trkpt lat="45.3524098" lon="8.5884312"><ele>125.0</ele><time>2026-04-18T15:25:55.994Z</time></trkpt><trkpt lat="45.3523333" lon="8.5885721"><ele>125.25</ele><time>2026-04-18T15:25:56.995Z</time></trkpt><trkpt lat="45.3522514" lon="8.5887114"><ele>125.5</ele><time>2026-04-18T15:25:57.995Z</time></trkpt><trkpt lat="45.3521699" lon="8.5888487"><ele>125.75</ele><time>2026-04-18T15:25:58.994Z</time></trkpt><trkpt lat="45.3520886" lon="8.5889905"><ele>126.0</ele><time>2026-04-18T15:25:59.995Z</time></trkpt><trkpt lat="45.3520042" lon="8.5891315"><ele>125.5</ele><time>2026-04-18T15:26:00.995Z</time></trkpt><trkpt lat="45.3519221" lon="8.5892667"><ele>125.0</ele><time>2026-04-18T15:26:01.994Z</time></trkpt><trkpt lat="45.3518415" lon="8.5893983"><ele>124.5</ele><time>2026-04-18T15:26:02.995Z</time></trkpt><trkpt lat="45.3517605" lon="8.5895271"><ele>124.0</ele><time>2026-04-18T15:26:03.995Z</time></trkpt><trkpt lat="45.3516814" lon="8.5896493"><ele>124.0</ele><time>2026-04-18T15:26:04.994Z</time></trkpt><trkpt lat="45.351604" lon="8.5897646"><ele>124.0</ele><time>2026-04-18T15:26:05.995Z</time></trkpt><trkpt lat="45.351527" lon="8.58987"><ele>124.0</ele><time>2026-04-18T15:26:06.995Z</time></trkpt><trkpt lat="45.3514428" lon="8.5899745"><ele>124.0</ele><time>2026-04-18T15:26:07.995Z</time></trkpt><trkpt lat="45.3513609" lon="8.59008"><ele>124.0</ele><time>2026-04-18T15:26:08.994Z</time></trkpt><trkpt lat="45.3512781" lon="8.5901801"><ele>124.0</ele><time>2026-04-18T15:26:09.995Z</time></trkpt><trkpt lat="45.3511988" lon="8.5902846"><ele>124.0</ele><time>2026-04-18T15:26:10.995Z</time></trkpt><trkpt lat="45.3511231" lon="8.5903904"><ele>124.0</ele><time>2026-04-18T15:26:11.994Z</time></trkpt><trkpt lat="45.3510447" lon="8.590506"><ele>124.0</ele><time>2026-04-18T15:26:12.995Z</time></trkpt><trkpt lat="45.3509691" lon="8.5906242"><ele>124.0</ele><time>2026-04-18T15:26:13.995Z</time></trkpt><trkpt lat="45.3508934" lon="8.5907494"><ele>124.25</ele><time>2026-04-18T15:26:14.995Z</time></trkpt><trkpt lat="45.3508185" lon="8.5908716"><ele>124.5</ele><time>2026-04-18T15:26:15.994Z</time></trkpt><trkpt lat="45.3507436" lon="8.5909964"><ele>124.75</ele><time>2026-04-18T15:26:16.995Z</time></trkpt><trkpt lat="45.3506674" lon="8.5911255"><ele>125.0</ele><time>2026-04-18T15:26:17.995Z</time></trkpt><trkpt lat="45.3505922" lon="8.591258"><ele>125.0</ele><time>2026-04-18T15:26:18.995Z</time></trkpt><trkpt lat="45.3505175" lon="8.5913883"><ele>125.0</ele><time>2026-04-18T15:26:19.995Z</time></trkpt><trkpt lat="45.350439" lon="8.5915184"><ele>125.0</ele><time>2026-04-18T15:26:20.995Z</time></trkpt><trkpt lat="45.3503568" lon="8.591642"><ele>125.0</ele><time>2026-04-18T15:26:21.994Z</time></trkpt><trkpt lat="45.3502796" lon="8.5917571"><ele>125.0</ele><time>2026-04-18T15:26:22.995Z</time></trkpt><trkpt lat="45.3502031" lon="8.5918632"><ele>125.0</ele><time>2026-04-18T15:26:23.994Z</time></trkpt><trkpt lat="45.3501279" lon="8.5919687"><ele>125.0</ele><time>2026-04-18T15:26:24.995Z</time></trkpt><trkpt lat="45.3500489" lon="8.5920808"><ele>125.0</ele><time>2026-04-18T15:26:25.995Z</time></trkpt><trkpt lat="45.3499663" lon="8.5921904"><ele>125.0</ele><time>2026-04-18T15:26:26.994Z</time></trkpt><trkpt lat="45.3498863" lon="8.5922947"><ele>124.99999999999999</ele><time>2026-04-18T15:26:27.995Z</time></trkpt><trkpt lat="45.3498138" lon="8.5923926"><ele>125.0</ele><time>2026-04-18T15:26:28.995Z</time></trkpt><trkpt lat="45.3497448" lon="8.5924743"><ele>125.0</ele><time>2026-04-18T15:26:29.994Z</time></trkpt><trkpt lat="45.349678" lon="8.5925423"><ele>125.0</ele><time>2026-04-18T15:26:30.995Z</time></trkpt><trkpt lat="45.349608" lon="8.5926075"><ele>124.99999999999999</ele><time>2026-04-18T15:26:31.995Z</time></trkpt><trkpt lat="45.3495342" lon="8.5926663"><ele>125.0</ele><time>2026-04-18T15:26:32.995Z</time></trkpt><trkpt lat="45.3494536" lon="8.5927213"><ele>125.0</ele><time>2026-04-18T15:26:33.995Z</time></trkpt><trkpt lat="45.3493682" lon="8.592766"><ele>125.0</ele><time>2026-04-18T15:26:34.995Z</time></trkpt><trkpt lat="45.3492793" lon="8.5928051"><ele>125.0</ele><time>2026-04-18T15:26:35.994Z</time></trkpt><trkpt lat="45.3491867" lon="8.5928385"><ele>125.0</ele><time>2026-04-18T15:26:36.995Z</time></trkpt><trkpt lat="45.3490906" lon="8.5928714"><ele>125.0</ele><time>2026-04-18T15:26:37.995Z</time></trkpt><trkpt lat="45.348996" lon="8.5929036"><ele>124.8</ele><time>2026-04-18T15:26:38.994Z</time></trkpt><trkpt lat="45.3489065" lon="8.5929333"><ele>124.6</ele><time>2026-04-18T15:26:39.994Z</time></trkpt><trkpt lat="45.3488181" lon="8.5929659"><ele>124.4</ele><time>2026-04-18T15:26:40.995Z</time></trkpt><trkpt lat="45.3487324" lon="8.5929908"><ele>124.2</ele><time>2026-04-18T15:26:41.995Z</time></trkpt><trkpt lat="45.3486424" lon="8.5930225"><ele>124.0</ele><time>2026-04-18T15:26:42.994Z</time></trkpt><trkpt lat="45.3485499" lon="8.593057"><ele>123.83333333333334</ele><time>2026-04-18T15:26:43.995Z</time></trkpt><trkpt lat="45.3484605" lon="8.5930908"><ele>123.66666666666667</ele><time>2026-04-18T15:26:44.995Z</time></trkpt><trkpt lat="45.3483777" lon="8.5931272"><ele>123.5</ele><time>2026-04-18T15:26:45.994Z</time></trkpt><trkpt lat="45.3483041" lon="8.5931666"><ele>123.33333333333334</ele><time>2026-04-18T15:26:46.995Z</time></trkpt><trkpt lat="45.348229" lon="8.5932168"><ele>123.16666666666667</ele><time>2026-04-18T15:26:47.994Z</time></trkpt><trkpt lat="45.3481592" lon="8.5932753"><ele>123.0</ele><time>2026-04-18T15:26:48.995Z</time></trkpt><trkpt lat="45.3480921" lon="8.5933404"><ele>123.0</ele><time>2026-04-18T15:26:49.994Z</time></trkpt><trkpt lat="45.3480279" lon="8.5934131"><ele>123.0</ele><time>2026-04-18T15:26:50.994Z</time></trkpt><trkpt lat="45.3479627" lon="8.5934935"><ele>123.0</ele><time>2026-04-18T15:26:51.995Z</time></trkpt><trkpt lat="45.3478922" lon="8.5935732"><ele>123.0</ele><time>2026-04-18T15:26:52.995Z</time></trkpt><trkpt lat="45.3478157" lon="8.5936539"><ele>123.0</ele><time>2026-04-18T15:26:53.994Z</time></trkpt><trkpt lat="45.3477403" lon="8.5937298"><ele>123.0</ele><time>2026-04-18T15:26:54.994Z</time></trkpt><trkpt lat="45.347668" lon="8.5938041"><ele>123.16666666666667</ele><time>2026-04-18T15:26:55.995Z</time></trkpt><trkpt lat="45.3475985" lon="8.5938679"><ele>123.33333333333334</ele><time>2026-04-18T15:26:56.994Z</time></trkpt><trkpt lat="45.3475279" lon="8.5939366"><ele>123.5</ele><time>2026-04-18T15:26:57.995Z</time></trkpt><trkpt lat="45.347457" lon="8.5940029"><ele>123.66666666666667</ele><time>2026-04-18T15:26:58.994Z</time></trkpt><trkpt lat="45.3473909" lon="8.5940674"><ele>123.83333333333334</ele><time>2026-04-18T15:26:59.994Z</time></trkpt><trkpt lat="45.3473239" lon="8.594134"><ele>124.0</ele><time>2026-04-18T15:27:00.994Z</time></trkpt><trkpt lat="45.3472564" lon="8.5942157"><ele>124.0</ele><time>2026-04-18T15:27:01.994Z</time></trkpt><trkpt lat="45.3471848" lon="8.5943097"><ele>124.0</ele><time>2026-04-18T15:27:02.994Z</time></trkpt><trkpt lat="45.3471124" lon="8.5943959"><ele>124.0</ele><time>2026-04-18T15:27:03.995Z</time></trkpt><trkpt lat="45.3470402" lon="8.5944826"><ele>124.0</ele><time>2026-04-18T15:27:04.994Z</time></trkpt><trkpt lat="45.3469731" lon="8.5945637"><ele>124.0</ele><time>2026-04-18T15:27:05.995Z</time></trkpt><trkpt lat="45.3469027" lon="8.5946558"><ele>124.0</ele><time>2026-04-18T15:27:06.995Z</time></trkpt><trkpt lat="45.3468337" lon="8.5947546"><ele>124.0</ele><time>2026-04-18T15:27:07.995Z</time></trkpt><trkpt lat="45.3467682" lon="8.5948585"><ele>124.0</ele><time>2026-04-18T15:27:08.994Z</time></trkpt><trkpt lat="45.3467027" lon="8.5949704"><ele>124.0</ele><time>2026-04-18T15:27:09.995Z</time></trkpt><trkpt lat="45.3466336" lon="8.595094"><ele>124.0</ele><time>2026-04-18T15:27:10.995Z</time></trkpt><trkpt lat="45.3465624" lon="8.595231"><ele>124.0</ele><time>2026-04-18T15:27:11.995Z</time></trkpt><trkpt lat="45.3464965" lon="8.5953705"><ele>124.0</ele><time>2026-04-18T15:27:12.995Z</time></trkpt><trkpt lat="45.346437" lon="8.5955026"><ele>124.0</ele><time>2026-04-18T15:27:13.994Z</time></trkpt><trkpt lat="45.3463789" lon="8.5956274"><ele>124.0</ele><time>2026-04-18T15:27:14.995Z</time></trkpt><trkpt lat="45.346329" lon="8.5957442"><ele>124.0</ele><time>2026-04-18T15:27:15.994Z</time></trkpt><trkpt lat="45.346289" lon="8.5958604"><ele>124.2</ele><time>2026-04-18T15:27:16.995Z</time></trkpt><trkpt lat="45.3462531" lon="8.5959913"><ele>124.4</ele><time>2026-04-18T15:27:17.995Z</time></trkpt><trkpt lat="45.3462183" lon="8.5961231"><ele>124.6</ele><time>2026-04-18T15:27:18.995Z</time></trkpt><trkpt lat="45.3461731" lon="8.596252"><ele>124.8</ele><time>2026-04-18T15:27:19.995Z</time></trkpt><trkpt lat="45.3461128" lon="8.5963796"><ele>125.0</ele><time>2026-04-18T15:27:20.994Z</time></trkpt><trkpt lat="45.3460457" lon="8.5965012"><ele>125.0</ele><time>2026-04-18T15:27:21.995Z</time></trkpt><trkpt lat="45.3459738" lon="8.5966205"><ele>125.0</ele><time>2026-04-18T15:27:22.994Z</time></trkpt><trkpt lat="45.3459066" lon="8.5967356"><ele>125.0</ele><time>2026-04-18T15:27:23.994Z</time></trkpt><trkpt lat="45.3458402" lon="8.5968443"><ele>125.0</ele><time>2026-04-18T15:27:24.994Z</time></trkpt><trkpt lat="45.3457739" lon="8.5969517"><ele>125.0</ele><time>2026-04-18T15:27:25.994Z</time></trkpt><trkpt lat="45.3457118" lon="8.5970545"><ele>125.0</ele><time>2026-04-18T15:27:26.995Z</time></trkpt><trkpt lat="45.3456533" lon="8.5971513"><ele>125.0</ele><time>2026-04-18T15:27:27.994Z</time></trkpt><trkpt lat="45.3456012" lon="8.5972396"><ele>125.0</ele><time>2026-04-18T15:27:28.994Z</time></trkpt><trkpt lat="45.3455565" lon="8.5973138"><ele>125.0</ele><time>2026-04-18T15:27:29.995Z</time></trkpt><trkpt lat="45.3454609" lon="8.5973903"><ele>125.0</ele><time>2026-04-18T15:27:31.995Z</time></trkpt><trkpt lat="45.3453531" lon="8.5973533"><ele>125.0</ele><time>2026-04-18T15:27:33.995Z</time></trkpt><trkpt lat="45.3452849" lon="8.5973044"><ele>125.0</ele><time>2026-04-18T15:27:34.995Z</time></trkpt><trkpt lat="45.3452065" lon="8.5972524"><ele>125.0</ele><time>2026-04-18T15:27:35.995Z</time></trkpt><trkpt lat="45.3451124" lon="8.5971955"><ele>125.0</ele><time>2026-04-18T15:27:36.995Z</time></trkpt><trkpt lat="45.3450153" lon="8.5971388"><ele>125.0</ele><time>2026-04-18T15:27:37.995Z</time></trkpt><trkpt lat="45.344909" lon="8.5970772"><ele>125.0</ele><time>2026-04-18T15:27:38.994Z</time></trkpt><trkpt lat="45.3447982" lon="8.5970159"><ele>125.0</ele><time>2026-04-18T15:27:39.995Z</time></trkpt><trkpt lat="45.3446842" lon="8.5969561"><ele>125.0</ele><time>2026-04-18T15:27:40.995Z</time></trkpt><trkpt lat="45.3445655" lon="8.5968937"><ele>125.0</ele><time>2026-04-18T15:27:41.994Z</time></trkpt><trkpt lat="45.3444446" lon="8.596836"><ele>124.6</ele><time>2026-04-18T15:27:42.995Z</time></trkpt><trkpt lat="45.3443281" lon="8.5967809"><ele>124.2</ele><time>2026-04-18T15:27:43.995Z</time></trkpt><trkpt lat="45.3442227" lon="8.5967284"><ele>123.80000000000001</ele><time>2026-04-18T15:27:44.994Z</time></trkpt><trkpt lat="45.3441233" lon="8.5966797"><ele>123.4</ele><time>2026-04-18T15:27:45.994Z</time></trkpt><trkpt lat="45.3440305" lon="8.596631"><ele>123.0</ele><time>2026-04-18T15:27:46.994Z</time></trkpt><trkpt lat="45.3439455" lon="8.5965806"><ele>122.83333333333333</ele><time>2026-04-18T15:27:47.994Z</time></trkpt><trkpt lat="45.3438633" lon="8.5965304"><ele>122.66666666666666</ele><time>2026-04-18T15:27:48.995Z</time></trkpt><trkpt lat="45.3437883" lon="8.5964865"><ele>122.5</ele><time>2026-04-18T15:27:49.995Z</time></trkpt><trkpt lat="45.3437178" lon="8.5964394"><ele>122.33333333333333</ele><time>2026-04-18T15:27:50.994Z</time></trkpt><trkpt lat="45.3436521" lon="8.5964031"><ele>122.16666666666666</ele><time>2026-04-18T15:27:51.995Z</time></trkpt><trkpt lat="45.3435877" lon="8.5963694"><ele>122.0</ele><time>2026-04-18T15:27:52.994Z</time></trkpt><trkpt lat="45.3435275" lon="8.596338"><ele>121.99999999999999</ele><time>2026-04-18T15:27:53.995Z</time></trkpt><trkpt lat="45.3434048" lon="8.5962756"><ele>122.0</ele><time>2026-04-18T15:27:55.994Z</time></trkpt><trkpt lat="45.3433411" lon="8.5962339"><ele>122.0</ele><time>2026-04-18T15:27:56.995Z</time></trkpt><trkpt lat="45.3432787" lon="8.5961823"><ele>122.0</ele><time>2026-04-18T15:27:57.994Z</time></trkpt><trkpt lat="45.3432275" lon="8.5961255"><ele>121.99999999999999</ele><time>2026-04-18T15:27:58.995Z</time></trkpt><trkpt lat="45.3431448" lon="8.5960225"><ele>122.0</ele><time>2026-04-18T15:28:00.994Z</time></trkpt><trkpt lat="45.3430743" lon="8.5959792"><ele>122.25</ele><time>2026-04-18T15:28:02.994Z</time></trkpt><trkpt lat="45.3430125" lon="8.5960263"><ele>122.5</ele><time>2026-04-18T15:28:05.994Z</time></trkpt><trkpt lat="45.342967" lon="8.5962293"><ele>122.75</ele><time>2026-04-18T15:28:07.994Z</time></trkpt><trkpt lat="45.3429301" lon="8.5963776"><ele>123.0</ele><time>2026-04-18T15:28:08.995Z</time></trkpt><trkpt lat="45.3428896" lon="8.5965484"><ele>123.0</ele><time>2026-04-18T15:28:09.995Z</time></trkpt><trkpt lat="45.3428425" lon="8.5967408"><ele>123.0</ele><time>2026-04-18T15:28:10.995Z</time></trkpt><trkpt lat="45.3427891" lon="8.5969486"><ele>123.0</ele><time>2026-04-18T15:28:11.995Z</time></trkpt><trkpt lat="45.3427336" lon="8.5971673"><ele>123.0</ele><time>2026-04-18T15:28:12.994Z</time></trkpt><trkpt lat="45.3426757" lon="8.5973902"><ele>123.0</ele><time>2026-04-18T15:28:13.994Z</time></trkpt><trkpt lat="45.3426101" lon="8.5976304"><ele>123.0</ele><time>2026-04-18T15:28:14.994Z</time></trkpt><trkpt lat="45.3425409" lon="8.5978793"><ele>123.33333333333334</ele><time>2026-04-18T15:28:15.994Z</time></trkpt><trkpt lat="45.342464" lon="8.5981363"><ele>123.66666666666667</ele><time>2026-04-18T15:28:16.995Z</time></trkpt><trkpt lat="45.3423796" lon="8.5983983"><ele>124.0</ele><time>2026-04-18T15:28:17.994Z</time></trkpt><trkpt lat="45.342291" lon="8.5986677"><ele>124.0</ele><time>2026-04-18T15:28:18.995Z</time></trkpt><trkpt lat="45.3422014" lon="8.5989432"><ele>124.0</ele><time>2026-04-18T15:28:19.994Z</time></trkpt><trkpt lat="45.3421074" lon="8.5992261"><ele>124.0</ele><time>2026-04-18T15:28:20.995Z</time></trkpt><trkpt lat="45.3420144" lon="8.5995136"><ele>124.0</ele><time>2026-04-18T15:28:21.994Z</time></trkpt><trkpt lat="45.341922" lon="8.5998042"><ele>124.0</ele><time>2026-04-18T15:28:22.995Z</time></trkpt><trkpt lat="45.3418257" lon="8.6001015"><ele>124.5</ele><time>2026-04-18T15:28:23.994Z</time></trkpt><trkpt lat="45.3417292" lon="8.6003956"><ele>125.0</ele><time>2026-04-18T15:28:24.994Z</time></trkpt><trkpt lat="45.3416348" lon="8.6006958"><ele>125.0</ele><time>2026-04-18T15:28:25.995Z</time></trkpt><trkpt lat="45.3415369" lon="8.6010042"><ele>125.0</ele><time>2026-04-18T15:28:26.995Z</time></trkpt><trkpt lat="45.3414364" lon="8.6013204"><ele>123.5</ele><time>2026-04-18T15:28:27.995Z</time></trkpt><trkpt lat="45.3413335" lon="8.6016424"><ele>122.0</ele><time>2026-04-18T15:28:28.995Z</time></trkpt><trkpt lat="45.3412276" lon="8.6019712"><ele>122.5</ele><time>2026-04-18T15:28:29.994Z</time></trkpt><trkpt lat="45.3411179" lon="8.6023064"><ele>123.0</ele><time>2026-04-18T15:28:30.995Z</time></trkpt><trkpt lat="45.3410122" lon="8.6026239"><ele>123.0</ele><time>2026-04-18T15:28:31.994Z</time></trkpt><trkpt lat="45.3409176" lon="8.6029237"><ele>123.0</ele><time>2026-04-18T15:28:32.995Z</time></trkpt><trkpt lat="45.340827" lon="8.6032089"><ele>123.0</ele><time>2026-04-18T15:28:33.995Z</time></trkpt><trkpt lat="45.3407441" lon="8.603472"><ele>123.0</ele><time>2026-04-18T15:28:34.994Z</time></trkpt><trkpt lat="45.340661" lon="8.6037266"><ele>123.0</ele><time>2026-04-18T15:28:35.994Z</time></trkpt><trkpt lat="45.3405778" lon="8.6039781"><ele>123.0</ele><time>2026-04-18T15:28:36.995Z</time></trkpt><trkpt lat="45.3404983" lon="8.6042339"><ele>123.0</ele><time>2026-04-18T15:28:37.994Z</time></trkpt><trkpt lat="45.340416" lon="8.6044888"><ele>123.0</ele><time>2026-04-18T15:28:38.994Z</time></trkpt><trkpt lat="45.3403375" lon="8.6047363"><ele>123.0</ele><time>2026-04-18T15:28:39.995Z</time></trkpt><trkpt lat="45.3402642" lon="8.6049662"><ele>123.0</ele><time>2026-04-18T15:28:40.995Z</time></trkpt><trkpt lat="45.3401961" lon="8.6051828"><ele>123.0</ele><time>2026-04-18T15:28:41.994Z</time></trkpt><trkpt lat="45.3401336" lon="8.6053917"><ele>123.0</ele><time>2026-04-18T15:28:42.995Z</time></trkpt><trkpt lat="45.3400735" lon="8.6055909"><ele>123.0</ele><time>2026-04-18T15:28:43.995Z</time></trkpt><trkpt lat="45.340012" lon="8.605789"><ele>123.0</ele><time>2026-04-18T15:28:44.995Z</time></trkpt><trkpt lat="45.3399556" lon="8.6059698"><ele>123.0</ele><time>2026-04-18T15:28:45.994Z</time></trkpt><trkpt lat="45.3398997" lon="8.6061393"><ele>123.0</ele><time>2026-04-18T15:28:46.995Z</time></trkpt><trkpt lat="45.3398476" lon="8.6062947"><ele>123.00000000000001</ele><time>2026-04-18T15:28:47.995Z</time></trkpt><trkpt lat="45.3398027" lon="8.6064419"><ele>123.00000000000001</ele><time>2026-04-18T15:28:48.995Z</time></trkpt><trkpt lat="45.3397566" lon="8.6065761"><ele>123.0</ele><time>2026-04-18T15:28:49.995Z</time></trkpt><trkpt lat="45.3396987" lon="8.6066813"><ele>123.0</ele><time>2026-04-18T15:28:50.995Z</time></trkpt><trkpt lat="45.3396267" lon="8.6067401"><ele>123.5</ele><time>2026-04-18T15:28:51.995Z</time></trkpt><trkpt lat="45.3395385" lon="8.6067698"><ele>124.0</ele><time>2026-04-18T15:28:52.995Z</time></trkpt><trkpt lat="45.3394329" lon="8.6067821"><ele>124.5</ele><time>2026-04-18T15:28:53.994Z</time></trkpt><trkpt lat="45.3393138" lon="8.6067954"><ele>125.0</ele><time>2026-04-18T15:28:54.994Z</time></trkpt><trkpt lat="45.339177" lon="8.6068025"><ele>125.0</ele><time>2026-04-18T15:28:55.994Z</time></trkpt><trkpt lat="45.3390274" lon="8.6068152"><ele>125.0</ele><time>2026-04-18T15:28:56.994Z</time></trkpt><trkpt lat="45.3388832" lon="8.6068323"><ele>125.0</ele><time>2026-04-18T15:28:57.995Z</time></trkpt><trkpt lat="45.3387385" lon="8.6068426"><ele>125.0</ele><time>2026-04-18T15:28:58.995Z</time></trkpt><trkpt lat="45.3385883" lon="8.6068536"><ele>125.0</ele><time>2026-04-18T15:28:59.994Z</time></trkpt><trkpt lat="45.3384424" lon="8.6068692"><ele>125.0</ele><time>2026-04-18T15:29:00.995Z</time></trkpt><trkpt lat="45.3383076" lon="8.606881"><ele>125.0</ele><time>2026-04-18T15:29:01.994Z</time></trkpt><trkpt lat="45.3381815" lon="8.6068952"><ele>125.0</ele><time>2026-04-18T15:29:02.994Z</time></trkpt><trkpt lat="45.3380647" lon="8.6069112"><ele>125.0</ele><time>2026-04-18T15:29:03.994Z</time></trkpt><trkpt lat="45.3379549" lon="8.6069216"><ele>125.0</ele><time>2026-04-18T15:29:04.995Z</time></trkpt><trkpt lat="45.3378551" lon="8.6069269"><ele>125.0</ele><time>2026-04-18T15:29:05.994Z</time></trkpt><trkpt lat="45.3377566" lon="8.6069365"><ele>125.0</ele><time>2026-04-18T15:29:06.994Z</time></trkpt><trkpt lat="45.3376565" lon="8.6069455"><ele>125.0</ele><time>2026-04-18T15:29:07.995Z</time></trkpt><trkpt lat="45.3375571" lon="8.6069608"><ele>124.99999999999999</ele><time>2026-04-18T15:29:08.995Z</time></trkpt><trkpt lat="45.3374633" lon="8.6069709"><ele>125.0</ele><time>2026-04-18T15:29:09.995Z</time></trkpt><trkpt lat="45.3373785" lon="8.6069885"><ele>125.0</ele><time>2026-04-18T15:29:10.995Z</time></trkpt><trkpt lat="45.3373008" lon="8.6070021"><ele>125.0</ele><time>2026-04-18T15:29:11.995Z</time></trkpt><trkpt lat="45.3372289" lon="8.6070113"><ele>124.99999999999999</ele><time>2026-04-18T15:29:12.995Z</time></trkpt><trkpt lat="45.3371285" lon="8.607003"><ele>125.0</ele><time>2026-04-18T15:29:14.995Z</time></trkpt><trkpt lat="45.3370751" lon="8.6069429"><ele>124.6</ele><time>2026-04-18T15:29:16.995Z</time></trkpt><trkpt lat="45.3370587" lon="8.6068261"><ele>124.2</ele><time>2026-04-18T15:29:18.994Z</time></trkpt><trkpt lat="45.3370631" lon="8.6066632"><ele>123.80000000000001</ele><time>2026-04-18T15:29:20.994Z</time></trkpt><trkpt lat="45.3370603" lon="8.6064986"><ele>123.4</ele><time>2026-04-18T15:29:22.995Z</time></trkpt><trkpt lat="45.3370368" lon="8.6063454"><ele>123.0</ele><time>2026-04-18T15:29:24.994Z</time></trkpt><trkpt lat="45.3369859" lon="8.6062418"><ele>123.0</ele><time>2026-04-18T15:29:26.994Z</time></trkpt><trkpt lat="45.3369012" lon="8.6061827"><ele>123.0</ele><time>2026-04-18T15:29:28.995Z</time></trkpt><trkpt lat="45.3367964" lon="8.6061794"><ele>123.0</ele><time>2026-04-18T15:29:30.995Z</time></trkpt><trkpt lat="45.3367283" lon="8.6061933"><ele>123.0</ele><time>2026-04-18T15:29:31.994Z</time></trkpt><trkpt lat="45.3366491" lon="8.6062072"><ele>123.0</ele><time>2026-04-18T15:29:32.995Z</time></trkpt><trkpt lat="45.3365645" lon="8.606219"><ele>123.0</ele><time>2026-04-18T15:29:33.995Z</time></trkpt><trkpt lat="45.3364785" lon="8.6062285"><ele>123.0</ele><time>2026-04-18T15:29:34.995Z</time></trkpt><trkpt lat="45.3363892" lon="8.6062399"><ele>123.00000000000001</ele><time>2026-04-18T15:29:35.994Z</time></trkpt><trkpt lat="45.3362992" lon="8.6062533"><ele>123.00000000000001</ele><time>2026-04-18T15:29:36.995Z</time></trkpt><trkpt lat="45.3362093" lon="8.606266"><ele>123.0</ele><time>2026-04-18T15:29:37.995Z</time></trkpt><trkpt lat="45.3361142" lon="8.6062804"><ele>123.0</ele><time>2026-04-18T15:29:38.995Z</time></trkpt><trkpt lat="45.3360208" lon="8.6062949"><ele>122.60000000000001</ele><time>2026-04-18T15:29:39.995Z</time></trkpt><trkpt lat="45.3359242" lon="8.6063076"><ele>122.20000000000002</ele><time>2026-04-18T15:29:40.995Z</time></trkpt><trkpt lat="45.3358293" lon="8.6063228"><ele>121.8</ele><time>2026-04-18T15:29:41.995Z</time></trkpt><trkpt lat="45.3357293" lon="8.6063365"><ele>121.4</ele><time>2026-04-18T15:29:42.995Z</time></trkpt><trkpt lat="45.3356264" lon="8.6063524"><ele>121.0</ele><time>2026-04-18T15:29:43.995Z</time></trkpt><trkpt lat="45.335523" lon="8.6063618"><ele>121.0</ele><time>2026-04-18T15:29:44.995Z</time></trkpt><trkpt lat="45.3354194" lon="8.6063749"><ele>121.0</ele><time>2026-04-18T15:29:45.995Z</time></trkpt><trkpt lat="45.3353167" lon="8.6063865"><ele>121.0</ele><time>2026-04-18T15:29:46.995Z</time></trkpt><trkpt lat="45.3352107" lon="8.6063977"><ele>121.0</ele><time>2026-04-18T15:29:47.994Z</time></trkpt><trkpt lat="45.3351061" lon="8.6064102"><ele>121.0</ele><time>2026-04-18T15:29:48.995Z</time></trkpt><trkpt lat="45.3350031" lon="8.606428"><ele>121.0</ele><time>2026-04-18T15:29:49.994Z</time></trkpt><trkpt lat="45.3348984" lon="8.6064424"><ele>121.0</ele><time>2026-04-18T15:29:50.995Z</time></trkpt><trkpt lat="45.3347917" lon="8.6064551"><ele>121.0</ele><time>2026-04-18T15:29:51.995Z</time></trkpt><trkpt lat="45.3346853" lon="8.6064705"><ele>121.0</ele><time>2026-04-18T15:29:52.994Z</time></trkpt><trkpt lat="45.3345806" lon="8.6064862"><ele>121.0</ele><time>2026-04-18T15:29:53.995Z</time></trkpt><trkpt lat="45.3344712" lon="8.6065006"><ele>121.0</ele><time>2026-04-18T15:29:54.995Z</time></trkpt><trkpt lat="45.33436" lon="8.6065186"><ele>121.0</ele><time>2026-04-18T15:29:55.994Z</time></trkpt><trkpt lat="45.3342507" lon="8.6065356"><ele>121.0</ele><time>2026-04-18T15:29:56.994Z</time></trkpt><trkpt lat="45.3341407" lon="8.6065508"><ele>121.0</ele><time>2026-04-18T15:29:57.995Z</time></trkpt><trkpt lat="45.3340322" lon="8.6065668"><ele>121.0</ele><time>2026-04-18T15:29:58.995Z</time></trkpt><trkpt lat="45.3339254" lon="8.6065844"><ele>120.8</ele><time>2026-04-18T15:29:59.995Z</time></trkpt><trkpt lat="45.3338189" lon="8.6066012"><ele>120.6</ele><time>2026-04-18T15:30:00.995Z</time></trkpt><trkpt lat="45.333717" lon="8.606615"><ele>120.4</ele><time>2026-04-18T15:30:01.995Z</time></trkpt><trkpt lat="45.3336158" lon="8.6066304"><ele>120.2</ele><time>2026-04-18T15:30:02.994Z</time></trkpt><trkpt lat="45.3335155" lon="8.6066502"><ele>120.0</ele><time>2026-04-18T15:30:03.995Z</time></trkpt><trkpt lat="45.3334106" lon="8.6066703"><ele>120.0</ele><time>2026-04-18T15:30:04.995Z</time></trkpt><trkpt lat="45.3333062" lon="8.6066848"><ele>120.0</ele><time>2026-04-18T15:30:05.994Z</time></trkpt><trkpt lat="45.3332012" lon="8.6066972"><ele>120.0</ele><time>2026-04-18T15:30:06.995Z</time></trkpt><trkpt lat="45.3330973" lon="8.6067115"><ele>120.0</ele><time>2026-04-18T15:30:07.995Z</time></trkpt><trkpt lat="45.332994" lon="8.6067236"><ele>120.0</ele><time>2026-04-18T15:30:08.995Z</time></trkpt><trkpt lat="45.3328959" lon="8.6067378"><ele>120.0</ele><time>2026-04-18T15:30:09.995Z</time></trkpt><trkpt lat="45.3327978" lon="8.6067527"><ele>120.0</ele><time>2026-04-18T15:30:10.994Z</time></trkpt><trkpt lat="45.3327003" lon="8.6067644"><ele>120.0</ele><time>2026-04-18T15:30:11.994Z</time></trkpt><trkpt lat="45.332605" lon="8.6067815"><ele>120.0</ele><time>2026-04-18T15:30:12.994Z</time></trkpt><trkpt lat="45.332508" lon="8.6067966"><ele>120.0</ele><time>2026-04-18T15:30:13.995Z</time></trkpt><trkpt lat="45.3324112" lon="8.6068094"><ele>120.0</ele><time>2026-04-18T15:30:14.995Z</time></trkpt><trkpt lat="45.3323165" lon="8.6068237"><ele>120.0</ele><time>2026-04-18T15:30:15.995Z</time></trkpt><trkpt lat="45.3322271" lon="8.6068382"><ele>120.0</ele><time>2026-04-18T15:30:16.995Z</time></trkpt><trkpt lat="45.3321383" lon="8.6068491"><ele>120.0</ele><time>2026-04-18T15:30:17.994Z</time></trkpt><trkpt lat="45.3320429" lon="8.6068639"><ele>120.0</ele><time>2026-04-18T15:30:18.995Z</time></trkpt><trkpt lat="45.331947" lon="8.6068819"><ele>119.8</ele><time>2026-04-18T15:30:19.995Z</time></trkpt><trkpt lat="45.3318493" lon="8.606897"><ele>119.6</ele><time>2026-04-18T15:30:20.995Z</time></trkpt><trkpt lat="45.3317449" lon="8.6069122"><ele>119.4</ele><time>2026-04-18T15:30:21.995Z</time></trkpt><trkpt lat="45.3316423" lon="8.6069263"><ele>119.2</ele><time>2026-04-18T15:30:22.995Z</time></trkpt><trkpt lat="45.3315402" lon="8.6069425"><ele>119.0</ele><time>2026-04-18T15:30:23.995Z</time></trkpt><trkpt lat="45.3314386" lon="8.6069606"><ele>119.2</ele><time>2026-04-18T15:30:24.994Z</time></trkpt><trkpt lat="45.3313401" lon="8.6069752"><ele>119.4</ele><time>2026-04-18T15:30:25.995Z</time></trkpt><trkpt lat="45.3312426" lon="8.606987"><ele>119.6</ele><time>2026-04-18T15:30:26.995Z</time></trkpt><trkpt lat="45.3311452" lon="8.606999"><ele>119.8</ele><time>2026-04-18T15:30:27.995Z</time></trkpt><trkpt lat="45.3310487" lon="8.6070094"><ele>120.0</ele><time>2026-04-18T15:30:28.995Z</time></trkpt><trkpt lat="45.3309536" lon="8.607023"><ele>120.0</ele><time>2026-04-18T15:30:29.995Z</time></trkpt><trkpt lat="45.3308587" lon="8.6070386"><ele>120.0</ele><time>2026-04-18T15:30:30.995Z</time></trkpt><trkpt lat="45.330767" lon="8.6070526"><ele>120.0</ele><time>2026-04-18T15:30:31.995Z</time></trkpt><trkpt lat="45.330681" lon="8.6070656"><ele>120.0</ele><time>2026-04-18T15:30:32.995Z</time></trkpt><trkpt lat="45.3305993" lon="8.6070778"><ele>120.0</ele><time>2026-04-18T15:30:33.994Z</time></trkpt><trkpt lat="45.3305181" lon="8.6070953"><ele>120.0</ele><time>2026-04-18T15:30:34.995Z</time></trkpt><trkpt lat="45.3304319" lon="8.6071048"><ele>120.16666666666667</ele><time>2026-04-18T15:30:35.995Z</time></trkpt><trkpt lat="45.3303537" lon="8.6071114"><ele>120.33333333333334</ele><time>2026-04-18T15:30:36.995Z</time></trkpt><trkpt lat="45.3302794" lon="8.6071203"><ele>120.5</ele><time>2026-04-18T15:30:37.994Z</time></trkpt><trkpt lat="45.3302042" lon="8.6071314"><ele>120.66666666666667</ele><time>2026-04-18T15:30:38.995Z</time></trkpt><trkpt lat="45.3301262" lon="8.607139"><ele>120.83333333333334</ele><time>2026-04-18T15:30:39.995Z</time></trkpt><trkpt lat="45.3300473" lon="8.6071423"><ele>121.0</ele><time>2026-04-18T15:30:40.994Z</time></trkpt><trkpt lat="45.3299709" lon="8.6071525"><ele>121.00000000000001</ele><time>2026-04-18T15:30:41.995Z</time></trkpt><trkpt lat="45.3298941" lon="8.6071611"><ele>121.0</ele><time>2026-04-18T15:30:42.995Z</time></trkpt><trkpt lat="45.3298191" lon="8.6071729"><ele>121.0</ele><time>2026-04-18T15:30:43.995Z</time></trkpt><trkpt lat="45.3297418" lon="8.6071873"><ele>121.0</ele><time>2026-04-18T15:30:44.995Z</time></trkpt><trkpt lat="45.3296677" lon="8.6072053"><ele>121.00000000000001</ele><time>2026-04-18T15:30:45.994Z</time></trkpt><trkpt lat="45.3295932" lon="8.6072224"><ele>121.0</ele><time>2026-04-18T15:30:46.995Z</time></trkpt><trkpt lat="45.3295177" lon="8.6072345"><ele>120.50000000000001</ele><time>2026-04-18T15:30:47.994Z</time></trkpt><trkpt lat="45.3294426" lon="8.6072458"><ele>120.0</ele><time>2026-04-18T15:30:48.995Z</time></trkpt><trkpt lat="45.3293696" lon="8.6072591"><ele>119.5</ele><time>2026-04-18T15:30:49.995Z</time></trkpt><trkpt lat="45.3292955" lon="8.6072713"><ele>119.0</ele><time>2026-04-18T15:30:50.994Z</time></trkpt><trkpt lat="45.3292224" lon="8.60728"><ele>118.50000000000001</ele><time>2026-04-18T15:30:51.995Z</time></trkpt><trkpt lat="45.3291002" lon="8.6072837"><ele>118.0</ele><time>2026-04-18T15:30:53.995Z</time></trkpt><trkpt lat="45.3290343" lon="8.6072723"><ele>118.00000000000001</ele><time>2026-04-18T15:30:54.995Z</time></trkpt><trkpt lat="45.3289642" lon="8.607241"><ele>118.0</ele><time>2026-04-18T15:30:55.995Z</time></trkpt><trkpt lat="45.3288943" lon="8.6071942"><ele>118.0</ele><time>2026-04-18T15:30:56.994Z</time></trkpt><trkpt lat="45.3288252" lon="8.6071364"><ele>118.0</ele><time>2026-04-18T15:30:57.994Z</time></trkpt><trkpt lat="45.3287537" lon="8.6070793"><ele>118.00000000000001</ele><time>2026-04-18T15:30:58.995Z</time></trkpt><trkpt lat="45.3286874" lon="8.6070346"><ele>118.0</ele><time>2026-04-18T15:30:59.995Z</time></trkpt><trkpt lat="45.3286218" lon="8.606989"><ele>118.28571428571428</ele><time>2026-04-18T15:31:00.994Z</time></trkpt><trkpt lat="45.3285511" lon="8.6069496"><ele>118.57142857142858</ele><time>2026-04-18T15:31:01.994Z</time></trkpt><trkpt lat="45.3284828" lon="8.6069235"><ele>118.85714285714286</ele><time>2026-04-18T15:31:02.995Z</time></trkpt><trkpt lat="45.3284156" lon="8.6069174"><ele>119.14285714285714</ele><time>2026-04-18T15:31:03.995Z</time></trkpt><trkpt lat="45.3283433" lon="8.6069206"><ele>119.42857142857142</ele><time>2026-04-18T15:31:04.994Z</time></trkpt><trkpt lat="45.3282678" lon="8.6069273"><ele>119.71428571428572</ele><time>2026-04-18T15:31:05.994Z</time></trkpt><trkpt lat="45.3281887" lon="8.6069347"><ele>120.0</ele><time>2026-04-18T15:31:06.994Z</time></trkpt><trkpt lat="45.3281068" lon="8.6069394"><ele>120.16666666666667</ele><time>2026-04-18T15:31:07.995Z</time></trkpt><trkpt lat="45.3280194" lon="8.606939"><ele>120.33333333333334</ele><time>2026-04-18T15:31:08.995Z</time></trkpt><trkpt lat="45.3279386" lon="8.6069313"><ele>120.5</ele><time>2026-04-18T15:31:09.994Z</time></trkpt><trkpt lat="45.3278578" lon="8.6069165"><ele>120.66666666666667</ele><time>2026-04-18T15:31:10.994Z</time></trkpt><trkpt lat="45.3277796" lon="8.606895"><ele>120.83333333333334</ele><time>2026-04-18T15:31:11.995Z</time></trkpt><trkpt lat="45.3277082" lon="8.6068725"><ele>121.0</ele><time>2026-04-18T15:31:12.995Z</time></trkpt><trkpt lat="45.3276412" lon="8.6068568"><ele>121.0</ele><time>2026-04-18T15:31:13.994Z</time></trkpt><trkpt lat="45.3275216" lon="8.6068265"><ele>121.0</ele><time>2026-04-18T15:31:15.995Z</time></trkpt><trkpt lat="45.3274121" lon="8.6067955"><ele>121.0</ele><time>2026-04-18T15:31:17.994Z</time></trkpt><trkpt lat="45.3273283" lon="8.6067282"><ele>121.0</ele><time>2026-04-18T15:31:19.995Z</time></trkpt><trkpt lat="45.3272782" lon="8.6066465"><ele>121.0</ele><time>2026-04-18T15:31:48.995Z</time></trkpt><trkpt lat="45.3272297" lon="8.6065415"><ele>121.0</ele><time>2026-04-18T15:31:51.994Z</time></trkpt><trkpt lat="45.3271738" lon="8.6064389"><ele>121.0</ele><time>2026-04-18T15:31:53.994Z</time></trkpt><trkpt lat="45.3271217" lon="8.6063405"><ele>121.0</ele><time>2026-04-18T15:31:55.995Z</time></trkpt><trkpt lat="45.3270759" lon="8.6062476"><ele>121.0</ele><time>2026-04-18T15:31:57.994Z</time></trkpt><trkpt lat="45.3271185" lon="8.6063458"><ele>121.0</ele><time>2026-04-18T15:32:30.995Z</time></trkpt><trkpt lat="45.3271965" lon="8.606487"><ele>121.0</ele><time>2026-04-18T15:32:32.995Z</time></trkpt><trkpt lat="45.3272772" lon="8.6066233"><ele>121.0</ele><time>2026-04-18T15:32:34.994Z</time></trkpt><trkpt lat="45.3273681" lon="8.6067404"><ele>121.0</ele><time>2026-04-18T15:32:36.994Z</time></trkpt><trkpt lat="45.3274249" lon="8.6067792"><ele>121.0</ele><time>2026-04-18T15:32:37.995Z</time></trkpt><trkpt lat="45.3274869" lon="8.606812"><ele>121.0</ele><time>2026-04-18T15:32:38.995Z</time></trkpt><trkpt lat="45.3275637" lon="8.6068416"><ele>121.00000000000001</ele><time>2026-04-18T15:32:39.995Z</time></trkpt><trkpt lat="45.3276507" lon="8.6068654"><ele>121.0</ele><time>2026-04-18T15:32:40.995Z</time></trkpt><trkpt lat="45.327747" lon="8.6068857"><ele>121.0</ele><time>2026-04-18T15:32:41.995Z</time></trkpt><trkpt lat="45.3278379" lon="8.6069049"><ele>121.0</ele><time>2026-04-18T15:32:42.995Z</time></trkpt><trkpt lat="45.3279217" lon="8.6069256"><ele>121.00000000000001</ele><time>2026-04-18T15:32:43.994Z</time></trkpt><trkpt lat="45.3280014" lon="8.6069358"><ele>121.0</ele><time>2026-04-18T15:32:44.995Z</time></trkpt><trkpt lat="45.3280773" lon="8.6069379"><ele>120.85714285714285</ele><time>2026-04-18T15:32:45.995Z</time></trkpt><trkpt lat="45.32815" lon="8.6069351"><ele>120.7142857142857</ele><time>2026-04-18T15:32:46.994Z</time></trkpt><trkpt lat="45.3282288" lon="8.6069279"><ele>120.57142857142857</ele><time>2026-04-18T15:32:47.994Z</time></trkpt><trkpt lat="45.3283112" lon="8.6069198"><ele>120.42857142857142</ele><time>2026-04-18T15:32:48.995Z</time></trkpt><trkpt lat="45.3283901" lon="8.6069177"><ele>120.28571428571428</ele><time>2026-04-18T15:32:49.995Z</time></trkpt><trkpt lat="45.3284602" lon="8.606928"><ele>120.14285714285714</ele><time>2026-04-18T15:32:50.994Z</time></trkpt><trkpt lat="45.328523" lon="8.606949"><ele>120.0</ele><time>2026-04-18T15:32:51.994Z</time></trkpt><trkpt lat="45.3285869" lon="8.6069737"><ele>120.0</ele><time>2026-04-18T15:32:52.994Z</time></trkpt><trkpt lat="45.3286441" lon="8.6070117"><ele>120.0</ele><time>2026-04-18T15:32:53.995Z</time></trkpt><trkpt lat="45.3287528" lon="8.607089"><ele>120.0</ele><time>2026-04-18T15:32:55.994Z</time></trkpt><trkpt lat="45.3288479" lon="8.6071611"><ele>120.0</ele><time>2026-04-18T15:32:57.995Z</time></trkpt><trkpt lat="45.3289094" lon="8.607234"><ele>120.0</ele><time>2026-04-18T15:32:59.995Z</time></trkpt><trkpt lat="45.328914" lon="8.6073257"><ele>120.0</ele><time>2026-04-18T15:33:02.995Z</time></trkpt><trkpt lat="45.3288566" lon="8.6073823"><ele>120.0</ele><time>2026-04-18T15:33:10.994Z</time></trkpt><trkpt lat="45.3287889" lon="8.6074027"><ele>120.0</ele><time>2026-04-18T15:33:12.994Z</time></trkpt><trkpt lat="45.3286983" lon="8.6074174"><ele>120.0</ele><time>2026-04-18T15:33:14.995Z</time></trkpt><trkpt lat="45.3286118" lon="8.6074264"><ele>120.0</ele><time>2026-04-18T15:33:16.994Z</time></trkpt><trkpt lat="45.328541" lon="8.607438"><ele>120.0</ele><time>2026-04-18T15:33:18.994Z</time></trkpt><trkpt lat="45.3284734" lon="8.6074417"><ele>120.0</ele><time>2026-04-18T15:33:25.995Z</time></trkpt><trkpt lat="45.3285386" lon="8.6074652"><ele>120.0</ele><time>2026-04-18T15:33:58.99Z</time></trkpt><trkpt lat="45.3286082" lon="8.6075515"><ele>120.0</ele><time>2026-04-18T15:34:00.991Z</time></trkpt><trkpt lat="45.3286764" lon="8.6076691"><ele>120.0</ele><time>2026-04-18T15:34:02.991Z</time></trkpt><trkpt lat="45.3287219" lon="8.6077341"><ele>120.0</ele><time>2026-04-18T15:34:03.99Z</time></trkpt><trkpt lat="45.3287707" lon="8.6077991"><ele>120.0</ele><time>2026-04-18T15:34:04.991Z</time></trkpt><trkpt lat="45.3288581" lon="8.6079175"><ele>120.0</ele><time>2026-04-18T15:34:06.991Z</time></trkpt><trkpt lat="45.3289427" lon="8.6080324"><ele>120.0</ele><time>2026-04-18T15:34:08.99Z</time></trkpt><trkpt lat="45.3290152" lon="8.6081301"><ele>120.0</ele><time>2026-04-18T15:34:10.991Z</time></trkpt><trkpt lat="45.329075" lon="8.6082149"><ele>120.0</ele><time>2026-04-18T15:34:12.991Z</time></trkpt><trkpt lat="45.3291436" lon="8.6083032"><ele>120.0</ele><time>2026-04-18T15:34:14.991Z</time></trkpt><trkpt lat="45.3292193" lon="8.6083979"><ele>120.0</ele><time>2026-04-18T15:34:16.99Z</time></trkpt><trkpt lat="45.329297" lon="8.6084918"><ele>120.0</ele><time>2026-04-18T15:34:18.991Z</time></trkpt><trkpt lat="45.3293838" lon="8.6085972"><ele>120.0</ele><time>2026-04-18T15:34:20.991Z</time></trkpt><trkpt lat="45.3294753" lon="8.6086926"><ele>120.0</ele><time>2026-04-18T15:34:22.991Z</time></trkpt><trkpt lat="45.3295558" lon="8.608759"><ele>120.0</ele><time>2026-04-18T15:34:24.99Z</time></trkpt><trkpt lat="45.3296126" lon="8.6088198"><ele>119.85714285714286</ele><time>2026-04-18T15:34:26.991Z</time></trkpt><trkpt lat="45.329656" lon="8.6088903"><ele>119.71428571428571</ele><time>2026-04-18T15:34:29.991Z</time></trkpt><trkpt lat="45.3296821" lon="8.6089779"><ele>119.57142857142857</ele><time>2026-04-18T15:34:41.991Z</time></trkpt><trkpt lat="45.3296488" lon="8.6088995"><ele>119.42857142857143</ele><time>2026-04-18T15:34:53.991Z</time></trkpt><trkpt lat="45.3295808" lon="8.6088725"><ele>119.28571428571428</ele><time>2026-04-18T15:34:55.991Z</time></trkpt><trkpt lat="45.3295068" lon="8.6088397"><ele>119.14285714285714</ele><time>2026-04-18T15:34:57.991Z</time></trkpt><trkpt lat="45.3294342" lon="8.608797"><ele>119.0</ele><time>2026-04-18T15:34:59.991Z</time></trkpt><trkpt lat="45.3293574" lon="8.6087265"><ele>119.0</ele><time>2026-04-18T15:35:01.99Z</time></trkpt><trkpt lat="45.3292781" lon="8.6086429"><ele>119.0</ele><time>2026-04-18T15:35:03.991Z</time></trkpt><trkpt lat="45.3291977" lon="8.608571"><ele>119.0</ele><time>2026-04-18T15:35:05.99Z</time></trkpt><trkpt lat="45.3291167" lon="8.6085334"><ele>119.0</ele><time>2026-04-18T15:35:07.99Z</time></trkpt><trkpt lat="45.3290192" lon="8.6085918"><ele>119.0</ele><time>2026-04-18T15:35:10.99Z</time></trkpt><trkpt lat="45.3289359" lon="8.6086968"><ele>119.16666666666666</ele><time>2026-04-18T15:35:12.99Z</time></trkpt><trkpt lat="45.3288526" lon="8.6088304"><ele>119.33333333333333</ele><time>2026-04-18T15:35:14.99Z</time></trkpt><trkpt lat="45.3288098" lon="8.6089081"><ele>119.5</ele><time>2026-04-18T15:35:15.991Z</time></trkpt><trkpt lat="45.3287607" lon="8.6089962"><ele>119.66666666666666</ele><time>2026-04-18T15:35:16.99Z</time></trkpt><trkpt lat="45.3287216" lon="8.6090787"><ele>119.83333333333333</ele><time>2026-04-18T15:35:17.991Z</time></trkpt><trkpt lat="45.3286881" lon="8.6091575"><ele>120.0</ele><time>2026-04-18T15:35:18.991Z</time></trkpt><trkpt lat="45.3286134" lon="8.6092984"><ele>120.0</ele><time>2026-04-18T15:35:20.991Z</time></trkpt><trkpt lat="45.3285699" lon="8.6093717"><ele>120.0</ele><time>2026-04-18T15:35:21.991Z</time></trkpt><trkpt lat="45.3285264" lon="8.6094463"><ele>120.0</ele><time>2026-04-18T15:35:22.991Z</time></trkpt><trkpt lat="45.3284804" lon="8.6095187"><ele>120.0</ele><time>2026-04-18T15:35:23.99Z</time></trkpt><trkpt lat="45.3284363" lon="8.6095963"><ele>120.0</ele><time>2026-04-18T15:35:24.991Z</time></trkpt><trkpt lat="45.3283981" lon="8.6096765"><ele>120.0</ele><time>2026-04-18T15:35:25.991Z</time></trkpt><trkpt lat="45.3283536" lon="8.6097542"><ele>120.0</ele><time>2026-04-18T15:35:26.99Z</time></trkpt><trkpt lat="45.3283074" lon="8.6098232"><ele>120.0</ele><time>2026-04-18T15:35:27.991Z</time></trkpt><trkpt lat="45.3282634" lon="8.609895"><ele>120.0</ele><time>2026-04-18T15:35:28.99Z</time></trkpt><trkpt lat="45.3282213" lon="8.6099709"><ele>120.0</ele><time>2026-04-18T15:35:29.991Z</time></trkpt><trkpt lat="45.3281731" lon="8.6100575"><ele>120.0</ele><time>2026-04-18T15:35:30.99Z</time></trkpt><trkpt lat="45.3281238" lon="8.6101473"><ele>120.0</ele><time>2026-04-18T15:35:31.99Z</time></trkpt><trkpt lat="45.3280726" lon="8.6102341"><ele>120.0</ele><time>2026-04-18T15:35:32.991Z</time></trkpt><trkpt lat="45.3280263" lon="8.6103148"><ele>120.0</ele><time>2026-04-18T15:35:33.991Z</time></trkpt><trkpt lat="45.3279862" lon="8.610391"><ele>119.6</ele><time>2026-04-18T15:35:34.99Z</time></trkpt><trkpt lat="45.327911" lon="8.6105228"><ele>119.2</ele><time>2026-04-18T15:35:36.991Z</time></trkpt><trkpt lat="45.3278393" lon="8.610629"><ele>118.80000000000001</ele><time>2026-04-18T15:35:38.991Z</time></trkpt><trkpt lat="45.3277682" lon="8.6107465"><ele>118.4</ele><time>2026-04-18T15:35:40.991Z</time></trkpt><trkpt lat="45.3277011" lon="8.6108816"><ele>118.0</ele><time>2026-04-18T15:35:42.991Z</time></trkpt><trkpt lat="45.3276299" lon="8.6110159"><ele>118.00000000000001</ele><time>2026-04-18T15:35:44.991Z</time></trkpt><trkpt lat="45.327553" lon="8.6111622"><ele>118.0</ele><time>2026-04-18T15:35:46.99Z</time></trkpt><trkpt lat="45.3275119" lon="8.6112392"><ele>118.0</ele><time>2026-04-18T15:35:47.991Z</time></trkpt><trkpt lat="45.3274722" lon="8.6113174"><ele>118.0</ele><time>2026-04-18T15:35:48.991Z</time></trkpt><trkpt lat="45.3274288" lon="8.6113925"><ele>118.00000000000001</ele><time>2026-04-18T15:35:49.991Z</time></trkpt><trkpt lat="45.32739" lon="8.6114635"><ele>118.0</ele><time>2026-04-18T15:35:50.991Z</time></trkpt><trkpt lat="45.3273493" lon="8.6115379"><ele>118.00000000000001</ele><time>2026-04-18T15:35:51.99Z</time></trkpt><trkpt lat="45.3273101" lon="8.6116173"><ele>118.0</ele><time>2026-04-18T15:35:52.991Z</time></trkpt><trkpt lat="45.327269" lon="8.6116937"><ele>118.0</ele><time>2026-04-18T15:35:53.991Z</time></trkpt><trkpt lat="45.3272291" lon="8.6117687"><ele>118.0</ele><time>2026-04-18T15:35:54.991Z</time></trkpt><trkpt lat="45.3271849" lon="8.6118423"><ele>118.00000000000001</ele><time>2026-04-18T15:35:55.99Z</time></trkpt><trkpt lat="45.327145" lon="8.6119164"><ele>118.0</ele><time>2026-04-18T15:35:56.991Z</time></trkpt><trkpt lat="45.3270696" lon="8.6120498"><ele>118.4</ele><time>2026-04-18T15:35:58.99Z</time></trkpt><trkpt lat="45.3269919" lon="8.6121779"><ele>118.80000000000001</ele><time>2026-04-18T15:36:00.991Z</time></trkpt><trkpt lat="45.3269069" lon="8.6122744"><ele>119.2</ele><time>2026-04-18T15:36:02.99Z</time></trkpt><trkpt lat="45.32681" lon="8.6123471"><ele>119.6</ele><time>2026-04-18T15:36:04.991Z</time></trkpt><trkpt lat="45.3267414" lon="8.6124245"><ele>120.0</ele><time>2026-04-18T15:36:06.99Z</time></trkpt><trkpt lat="45.3266871" lon="8.6125146"><ele>120.0</ele><time>2026-04-18T15:36:08.99Z</time></trkpt><trkpt lat="45.3266288" lon="8.612558"><ele>120.0</ele><time>2026-04-18T15:36:10.99Z</time></trkpt><trkpt lat="45.3265583" lon="8.612542"><ele>120.0</ele><time>2026-04-18T15:36:12.99Z</time></trkpt><trkpt lat="45.3264787" lon="8.6125163"><ele>120.0</ele><time>2026-04-18T15:36:14.99Z</time></trkpt><trkpt lat="45.3263856" lon="8.6124903"><ele>120.0</ele><time>2026-04-18T15:36:16.99Z</time></trkpt><trkpt lat="45.3262574" lon="8.6124441"><ele>120.0</ele><time>2026-04-18T15:36:18.991Z</time></trkpt><trkpt lat="45.3261747" lon="8.6124165"><ele>119.66666666666667</ele><time>2026-04-18T15:36:19.99Z</time></trkpt><trkpt lat="45.3260874" lon="8.6123903"><ele>119.33333333333334</ele><time>2026-04-18T15:36:20.99Z</time></trkpt><trkpt lat="45.3259997" lon="8.6123595"><ele>119.0</ele><time>2026-04-18T15:36:21.991Z</time></trkpt><trkpt lat="45.3259135" lon="8.6123353"><ele>118.66666666666667</ele><time>2026-04-18T15:36:22.99Z</time></trkpt><trkpt lat="45.3258232" lon="8.612309"><ele>118.33333333333334</ele><time>2026-04-18T15:36:23.99Z</time></trkpt><trkpt lat="45.3257378" lon="8.6122827"><ele>118.0</ele><time>2026-04-18T15:36:24.991Z</time></trkpt><trkpt lat="45.3256518" lon="8.6122563"><ele>118.2</ele><time>2026-04-18T15:36:25.991Z</time></trkpt><trkpt lat="45.3255593" lon="8.6122342"><ele>118.4</ele><time>2026-04-18T15:36:26.991Z</time></trkpt><trkpt lat="45.3254629" lon="8.6122111"><ele>118.60000000000001</ele><time>2026-04-18T15:36:27.991Z</time></trkpt><trkpt lat="45.3253713" lon="8.6121835"><ele>118.80000000000001</ele><time>2026-04-18T15:36:28.991Z</time></trkpt><trkpt lat="45.3252844" lon="8.6121579"><ele>119.0</ele><time>2026-04-18T15:36:29.99Z</time></trkpt><trkpt lat="45.3252067" lon="8.6121326"><ele>119.0</ele><time>2026-04-18T15:36:30.991Z</time></trkpt><trkpt lat="45.3251352" lon="8.6121111"><ele>119.0</ele><time>2026-04-18T15:36:31.991Z</time></trkpt><trkpt lat="45.3250336" lon="8.6120704"><ele>119.0</ele><time>2026-04-18T15:36:33.991Z</time></trkpt><trkpt lat="45.3249687" lon="8.6120622"><ele>119.0</ele><time>2026-04-18T15:36:35.991Z</time></trkpt><trkpt lat="45.3248961" lon="8.6121665"><ele>119.0</ele><time>2026-04-18T15:36:38.991Z</time></trkpt><trkpt lat="45.3248264" lon="8.6123186"><ele>119.0</ele><time>2026-04-18T15:36:40.99Z</time></trkpt><trkpt lat="45.3247819" lon="8.6124113"><ele>119.0</ele><time>2026-04-18T15:36:41.991Z</time></trkpt><trkpt lat="45.3247354" lon="8.612527"><ele>119.0</ele><time>2026-04-18T15:36:42.99Z</time></trkpt><trkpt lat="45.3246972" lon="8.6126729"><ele>119.0</ele><time>2026-04-18T15:36:43.991Z</time></trkpt><trkpt lat="45.3246696" lon="8.6128309"><ele>119.0</ele><time>2026-04-18T15:36:44.991Z</time></trkpt><trkpt lat="45.3246476" lon="8.6129924"><ele>119.25</ele><time>2026-04-18T15:36:45.99Z</time></trkpt><trkpt lat="45.3246255" lon="8.6131638"><ele>119.5</ele><time>2026-04-18T15:36:46.991Z</time></trkpt><trkpt lat="45.3246035" lon="8.6133424"><ele>119.75</ele><time>2026-04-18T15:36:47.991Z</time></trkpt><trkpt lat="45.3245799" lon="8.6135302"><ele>120.0</ele><time>2026-04-18T15:36:48.991Z</time></trkpt><trkpt lat="45.3245571" lon="8.6137308"><ele>120.0</ele><time>2026-04-18T15:36:49.99Z</time></trkpt><trkpt lat="45.3245323" lon="8.6139329"><ele>120.0</ele><time>2026-04-18T15:36:50.991Z</time></trkpt><trkpt lat="45.3245094" lon="8.6141133"><ele>120.0</ele><time>2026-04-18T15:36:51.991Z</time></trkpt><trkpt lat="45.324489" lon="8.614277"><ele>120.0</ele><time>2026-04-18T15:36:52.99Z</time></trkpt><trkpt lat="45.3244655" lon="8.6144253"><ele>119.8</ele><time>2026-04-18T15:36:53.99Z</time></trkpt><trkpt lat="45.3244489" lon="8.6145584"><ele>119.6</ele><time>2026-04-18T15:36:54.991Z</time></trkpt><trkpt lat="45.3244369" lon="8.6146942"><ele>119.4</ele><time>2026-04-18T15:36:55.991Z</time></trkpt><trkpt lat="45.3244482" lon="8.614835"><ele>119.2</ele><time>2026-04-18T15:36:56.991Z</time></trkpt><trkpt lat="45.3244718" lon="8.6149883"><ele>119.0</ele><time>2026-04-18T15:36:57.991Z</time></trkpt><trkpt lat="45.3245134" lon="8.6151599"><ele>119.0</ele><time>2026-04-18T15:36:58.991Z</time></trkpt><trkpt lat="45.3245637" lon="8.6153484"><ele>119.0</ele><time>2026-04-18T15:36:59.991Z</time></trkpt><trkpt lat="45.3246182" lon="8.6155499"><ele>119.0</ele><time>2026-04-18T15:37:00.991Z</time></trkpt><trkpt lat="45.3246742" lon="8.6157629"><ele>119.0</ele><time>2026-04-18T15:37:01.99Z</time></trkpt><trkpt lat="45.3247253" lon="8.615974"><ele>119.0</ele><time>2026-04-18T15:37:02.99Z</time></trkpt><trkpt lat="45.3247717" lon="8.6161748"><ele>119.0</ele><time>2026-04-18T15:37:03.991Z</time></trkpt><trkpt lat="45.3248064" lon="8.616367"><ele>119.0</ele><time>2026-04-18T15:37:04.991Z</time></trkpt><trkpt lat="45.3248252" lon="8.6165461"><ele>119.0</ele><time>2026-04-18T15:37:05.991Z</time></trkpt><trkpt lat="45.3248263" lon="8.6167269"><ele>119.0</ele><time>2026-04-18T15:37:06.99Z</time></trkpt><trkpt lat="45.3248158" lon="8.6169103"><ele>119.0</ele><time>2026-04-18T15:37:07.991Z</time></trkpt><trkpt lat="45.3247912" lon="8.6171033"><ele>119.0</ele><time>2026-04-18T15:37:08.991Z</time></trkpt><trkpt lat="45.3247582" lon="8.6173097"><ele>119.0</ele><time>2026-04-18T15:37:09.991Z</time></trkpt><trkpt lat="45.3247213" lon="8.6175227"><ele>119.0</ele><time>2026-04-18T15:37:10.991Z</time></trkpt><trkpt lat="45.3246884" lon="8.6177213"><ele>119.0</ele><time>2026-04-18T15:37:11.99Z</time></trkpt><trkpt lat="45.3246602" lon="8.6179026"><ele>119.0</ele><time>2026-04-18T15:37:12.991Z</time></trkpt><trkpt lat="45.3246359" lon="8.6180552"><ele>118.99999999999999</ele><time>2026-04-18T15:37:13.99Z</time></trkpt><trkpt lat="45.324612" lon="8.6181809"><ele>119.0</ele><time>2026-04-18T15:37:14.99Z</time></trkpt><trkpt lat="45.3245757" lon="8.6182835"><ele>119.0</ele><time>2026-04-18T15:37:15.991Z</time></trkpt><trkpt lat="45.3245207" lon="8.6183565"><ele>119.0</ele><time>2026-04-18T15:37:16.991Z</time></trkpt><trkpt lat="45.3244483" lon="8.6184081"><ele>118.99999999999999</ele><time>2026-04-18T15:37:17.991Z</time></trkpt><trkpt lat="45.3243542" lon="8.6184505"><ele>119.0</ele><time>2026-04-18T15:37:18.99Z</time></trkpt><trkpt lat="45.3242476" lon="8.6184917"><ele>119.0</ele><time>2026-04-18T15:37:19.991Z</time></trkpt><trkpt lat="45.3241321" lon="8.6185402"><ele>119.0</ele><time>2026-04-18T15:37:20.991Z</time></trkpt><trkpt lat="45.3240049" lon="8.618599"><ele>119.0</ele><time>2026-04-18T15:37:21.99Z</time></trkpt><trkpt lat="45.3238698" lon="8.6186632"><ele>119.0</ele><time>2026-04-18T15:37:22.99Z</time></trkpt><trkpt lat="45.3237246" lon="8.6187299"><ele>119.0</ele><time>2026-04-18T15:37:23.991Z</time></trkpt><trkpt lat="45.3235723" lon="8.6187995"><ele>119.0</ele><time>2026-04-18T15:37:24.991Z</time></trkpt><trkpt lat="45.3234135" lon="8.6188731"><ele>119.0</ele><time>2026-04-18T15:37:25.991Z</time></trkpt><trkpt lat="45.323254" lon="8.6189481"><ele>119.0</ele><time>2026-04-18T15:37:26.991Z</time></trkpt><trkpt lat="45.3231047" lon="8.6190186"><ele>119.0</ele><time>2026-04-18T15:37:27.991Z</time></trkpt><trkpt lat="45.3229667" lon="8.6190843"><ele>119.0</ele><time>2026-04-18T15:37:28.991Z</time></trkpt><trkpt lat="45.3228313" lon="8.619132"><ele>119.0</ele><time>2026-04-18T15:37:29.991Z</time></trkpt><trkpt lat="45.3226909" lon="8.6191338"><ele>119.33333333333333</ele><time>2026-04-18T15:37:30.991Z</time></trkpt><trkpt lat="45.3225506" lon="8.6190867"><ele>119.66666666666666</ele><time>2026-04-18T15:37:31.991Z</time></trkpt><trkpt lat="45.3224035" lon="8.6190118"><ele>120.0</ele><time>2026-04-18T15:37:32.991Z</time></trkpt><trkpt lat="45.3222377" lon="8.61896"><ele>119.66666666666666</ele><time>2026-04-18T15:37:33.991Z</time></trkpt><trkpt lat="45.3220696" lon="8.618914"><ele>119.33333333333333</ele><time>2026-04-18T15:37:34.99Z</time></trkpt><trkpt lat="45.3218985" lon="8.6188411"><ele>119.0</ele><time>2026-04-18T15:37:35.991Z</time></trkpt><trkpt lat="45.3217308" lon="8.6187489"><ele>119.0</ele><time>2026-04-18T15:37:36.99Z</time></trkpt><trkpt lat="45.3215645" lon="8.6186205"><ele>119.0</ele><time>2026-04-18T15:37:37.99Z</time></trkpt><trkpt lat="45.3213945" lon="8.6184621"><ele>119.0</ele><time>2026-04-18T15:37:38.99Z</time></trkpt><trkpt lat="45.3212252" lon="8.6182923"><ele>119.0</ele><time>2026-04-18T15:37:39.99Z</time></trkpt><trkpt lat="45.3210502" lon="8.6181142"><ele>119.0</ele><time>2026-04-18T15:37:40.99Z</time></trkpt><trkpt lat="45.3208765" lon="8.6179397"><ele>119.0</ele><time>2026-04-18T15:37:41.99Z</time></trkpt><trkpt lat="45.3206987" lon="8.617763"><ele>119.0</ele><time>2026-04-18T15:37:42.991Z</time></trkpt><trkpt lat="45.3205225" lon="8.6175868"><ele>119.0</ele><time>2026-04-18T15:37:43.991Z</time></trkpt><trkpt lat="45.3203444" lon="8.6174185"><ele>119.0</ele><time>2026-04-18T15:37:44.991Z</time></trkpt><trkpt lat="45.3201666" lon="8.6172513"><ele>119.0</ele><time>2026-04-18T15:37:45.991Z</time></trkpt><trkpt lat="45.3199857" lon="8.617085"><ele>119.0</ele><time>2026-04-18T15:37:46.991Z</time></trkpt><trkpt lat="45.319805" lon="8.6169178"><ele>119.0</ele><time>2026-04-18T15:37:47.99Z</time></trkpt><trkpt lat="45.3196293" lon="8.6167596"><ele>119.0</ele><time>2026-04-18T15:37:48.991Z</time></trkpt><trkpt lat="45.3194604" lon="8.6166034"><ele>119.0</ele><time>2026-04-18T15:37:49.99Z</time></trkpt><trkpt lat="45.3192883" lon="8.61645"><ele>119.0</ele><time>2026-04-18T15:37:50.99Z</time></trkpt><trkpt lat="45.3191191" lon="8.6162946"><ele>119.0</ele><time>2026-04-18T15:37:51.99Z</time></trkpt><trkpt lat="45.3189504" lon="8.6161386"><ele>119.0</ele><time>2026-04-18T15:37:52.99Z</time></trkpt><trkpt lat="45.3187799" lon="8.6159854"><ele>119.0</ele><time>2026-04-18T15:37:53.991Z</time></trkpt><trkpt lat="45.3186081" lon="8.6158321"><ele>119.0</ele><time>2026-04-18T15:37:54.99Z</time></trkpt><trkpt lat="45.3184358" lon="8.6156779"><ele>119.0</ele><time>2026-04-18T15:37:55.991Z</time></trkpt><trkpt lat="45.3182629" lon="8.6155258"><ele>119.0</ele><time>2026-04-18T15:37:56.991Z</time></trkpt><trkpt lat="45.3180911" lon="8.6153794"><ele>119.0</ele><time>2026-04-18T15:37:57.99Z</time></trkpt><trkpt lat="45.3179141" lon="8.6152313"><ele>119.0</ele><time>2026-04-18T15:37:58.991Z</time></trkpt><trkpt lat="45.3177402" lon="8.6150837"><ele>119.0</ele><time>2026-04-18T15:37:59.991Z</time></trkpt><trkpt lat="45.3175696" lon="8.614928"><ele>119.0</ele><time>2026-04-18T15:38:00.991Z</time></trkpt><trkpt lat="45.3173969" lon="8.6147664"><ele>119.0</ele><time>2026-04-18T15:38:01.99Z</time></trkpt><trkpt lat="45.317228" lon="8.6146067"><ele>119.0</ele><time>2026-04-18T15:38:02.99Z</time></trkpt><trkpt lat="45.3170579" lon="8.6144464"><ele>119.0</ele><time>2026-04-18T15:38:03.991Z</time></trkpt><trkpt lat="45.3168852" lon="8.614289"><ele>119.0</ele><time>2026-04-18T15:38:04.991Z</time></trkpt><trkpt lat="45.3167136" lon="8.6141289"><ele>119.0</ele><time>2026-04-18T15:38:05.991Z</time></trkpt><trkpt lat="45.3165439" lon="8.6139669"><ele>119.33333333333333</ele><time>2026-04-18T15:38:06.99Z</time></trkpt><trkpt lat="45.3163769" lon="8.6138087"><ele>119.66666666666666</ele><time>2026-04-18T15:38:07.991Z</time></trkpt><trkpt lat="45.3162059" lon="8.6136453"><ele>120.0</ele><time>2026-04-18T15:38:08.991Z</time></trkpt><trkpt lat="45.3160353" lon="8.6134813"><ele>120.0</ele><time>2026-04-18T15:38:09.991Z</time></trkpt><trkpt lat="45.3158644" lon="8.6133114"><ele>120.0</ele><time>2026-04-18T15:38:10.99Z</time></trkpt><trkpt lat="45.3156939" lon="8.6131452"><ele>120.0</ele><time>2026-04-18T15:38:11.991Z</time></trkpt><trkpt lat="45.3155237" lon="8.6129779"><ele>119.33333333333334</ele><time>2026-04-18T15:38:12.99Z</time></trkpt><trkpt lat="45.3153497" lon="8.6128171"><ele>118.66666666666667</ele><time>2026-04-18T15:38:13.99Z</time></trkpt><trkpt lat="45.3151734" lon="8.6126562"><ele>118.0</ele><time>2026-04-18T15:38:14.991Z</time></trkpt><trkpt lat="45.3149965" lon="8.6124968"><ele>118.0</ele><time>2026-04-18T15:38:15.991Z</time></trkpt><trkpt lat="45.3148227" lon="8.6123308"><ele>118.0</ele><time>2026-04-18T15:38:16.99Z</time></trkpt><trkpt lat="45.3146534" lon="8.6121561"><ele>118.0</ele><time>2026-04-18T15:38:17.991Z</time></trkpt><trkpt lat="45.3144852" lon="8.6119776"><ele>118.66666666666667</ele><time>2026-04-18T15:38:18.991Z</time></trkpt><trkpt lat="45.3143223" lon="8.6118008"><ele>119.33333333333334</ele><time>2026-04-18T15:38:19.99Z</time></trkpt><trkpt lat="45.3141727" lon="8.6116277"><ele>120.0</ele><time>2026-04-18T15:38:20.991Z</time></trkpt><trkpt lat="45.3140297" lon="8.6114678"><ele>120.33333333333334</ele><time>2026-04-18T15:38:21.99Z</time></trkpt><trkpt lat="45.3138933" lon="8.6113142"><ele>120.66666666666667</ele><time>2026-04-18T15:38:22.99Z</time></trkpt><trkpt lat="45.3137508" lon="8.6111714"><ele>121.0</ele><time>2026-04-18T15:38:23.991Z</time></trkpt><trkpt lat="45.3135972" lon="8.6110353"><ele>121.0</ele><time>2026-04-18T15:38:24.991Z</time></trkpt><trkpt lat="45.313436" lon="8.6109149"><ele>121.0</ele><time>2026-04-18T15:38:25.99Z</time></trkpt><trkpt lat="45.3132675" lon="8.6108089"><ele>121.0</ele><time>2026-04-18T15:38:26.991Z</time></trkpt><trkpt lat="45.3130915" lon="8.6107146"><ele>120.0</ele><time>2026-04-18T15:38:27.991Z</time></trkpt><trkpt lat="45.3129157" lon="8.6106216"><ele>119.0</ele><time>2026-04-18T15:38:28.991Z</time></trkpt><trkpt lat="45.3127383" lon="8.6105237"><ele>118.0</ele><time>2026-04-18T15:38:29.991Z</time></trkpt><trkpt lat="45.3125719" lon="8.6104326"><ele>118.0</ele><time>2026-04-18T15:38:30.991Z</time></trkpt><trkpt lat="45.3124144" lon="8.6103487"><ele>118.0</ele><time>2026-04-18T15:38:31.991Z</time></trkpt><trkpt lat="45.3122641" lon="8.6102686"><ele>118.0</ele><time>2026-04-18T15:38:32.991Z</time></trkpt><trkpt lat="45.3121298" lon="8.6101982"><ele>118.33333333333334</ele><time>2026-04-18T15:38:33.991Z</time></trkpt><trkpt lat="45.3120255" lon="8.6101409"><ele>118.66666666666667</ele><time>2026-04-18T15:38:34.991Z</time></trkpt><trkpt lat="45.3119581" lon="8.610101"><ele>119.0</ele><time>2026-04-18T15:38:35.99Z</time></trkpt><trkpt lat="45.3119062" lon="8.6101824"><ele>119.33333333333334</ele><time>2026-04-18T15:38:46.99Z</time></trkpt><trkpt lat="45.3118781" lon="8.6103055"><ele>119.66666666666667</ele><time>2026-04-18T15:38:48.99Z</time></trkpt><trkpt lat="45.3118511" lon="8.6103896"><ele>120.0</ele><time>2026-04-18T15:38:49.991Z</time></trkpt><trkpt lat="45.3118238" lon="8.6104777"><ele>120.0</ele><time>2026-04-18T15:38:50.991Z</time></trkpt><trkpt lat="45.3117929" lon="8.610574"><ele>120.0</ele><time>2026-04-18T15:38:51.991Z</time></trkpt><trkpt lat="45.3117562" lon="8.6106796"><ele>120.0</ele><time>2026-04-18T15:38:52.991Z</time></trkpt><trkpt lat="45.3117205" lon="8.6107867"><ele>120.0</ele><time>2026-04-18T15:38:53.991Z</time></trkpt><trkpt lat="45.3116867" lon="8.6108913"><ele>120.0</ele><time>2026-04-18T15:38:54.991Z</time></trkpt><trkpt lat="45.3116548" lon="8.6109938"><ele>120.0</ele><time>2026-04-18T15:38:55.99Z</time></trkpt><trkpt lat="45.311622" lon="8.6111036"><ele>119.83333333333333</ele><time>2026-04-18T15:38:56.991Z</time></trkpt><trkpt lat="45.3115918" lon="8.6112182"><ele>119.66666666666666</ele><time>2026-04-18T15:38:57.991Z</time></trkpt><trkpt lat="45.3115568" lon="8.6113297"><ele>119.5</ele><time>2026-04-18T15:38:58.991Z</time></trkpt><trkpt lat="45.3115262" lon="8.6114526"><ele>119.33333333333333</ele><time>2026-04-18T15:38:59.991Z</time></trkpt><trkpt lat="45.3114951" lon="8.6115755"><ele>119.16666666666666</ele><time>2026-04-18T15:39:00.99Z</time></trkpt><trkpt lat="45.3114614" lon="8.6116976"><ele>119.0</ele><time>2026-04-18T15:39:01.991Z</time></trkpt><trkpt lat="45.3114306" lon="8.6118175"><ele>119.4</ele><time>2026-04-18T15:39:02.991Z</time></trkpt><trkpt lat="45.311394" lon="8.6119425"><ele>119.80000000000001</ele><time>2026-04-18T15:39:03.991Z</time></trkpt><trkpt lat="45.3113564" lon="8.6120651"><ele>120.19999999999999</ele><time>2026-04-18T15:39:04.991Z</time></trkpt><trkpt lat="45.3113198" lon="8.6121887"><ele>120.6</ele><time>2026-04-18T15:39:05.991Z</time></trkpt><trkpt lat="45.3112894" lon="8.6123089"><ele>121.0</ele><time>2026-04-18T15:39:06.99Z</time></trkpt><trkpt lat="45.3112611" lon="8.612421"><ele>121.0</ele><time>2026-04-18T15:39:07.991Z</time></trkpt><trkpt lat="45.3112359" lon="8.6125398"><ele>121.0</ele><time>2026-04-18T15:39:08.99Z</time></trkpt><trkpt lat="45.3112119" lon="8.6126606"><ele>121.0</ele><time>2026-04-18T15:39:09.991Z</time></trkpt><trkpt lat="45.3111866" lon="8.6127857"><ele>121.0</ele><time>2026-04-18T15:39:10.991Z</time></trkpt><trkpt lat="45.3111587" lon="8.6129094"><ele>121.0</ele><time>2026-04-18T15:39:11.99Z</time></trkpt><trkpt lat="45.3111374" lon="8.6130371"><ele>121.0</ele><time>2026-04-18T15:39:12.99Z</time></trkpt><trkpt lat="45.3111177" lon="8.6131701"><ele>121.0</ele><time>2026-04-18T15:39:13.991Z</time></trkpt><trkpt lat="45.3110989" lon="8.6133068"><ele>121.0</ele><time>2026-04-18T15:39:14.991Z</time></trkpt><trkpt lat="45.311082" lon="8.6134472"><ele>121.0</ele><time>2026-04-18T15:39:15.99Z</time></trkpt><trkpt lat="45.3110628" lon="8.6135948"><ele>121.0</ele><time>2026-04-18T15:39:16.99Z</time></trkpt><trkpt lat="45.3110467" lon="8.6137506"><ele>121.19999999999999</ele><time>2026-04-18T15:39:17.991Z</time></trkpt><trkpt lat="45.3110294" lon="8.6138976"><ele>121.39999999999999</ele><time>2026-04-18T15:39:18.99Z</time></trkpt><trkpt lat="45.3110138" lon="8.6140304"><ele>121.6</ele><time>2026-04-18T15:39:19.991Z</time></trkpt><trkpt lat="45.3110036" lon="8.6141663"><ele>121.8</ele><time>2026-04-18T15:39:20.991Z</time></trkpt><trkpt lat="45.3109905" lon="8.6142979"><ele>122.0</ele><time>2026-04-18T15:39:21.99Z</time></trkpt><trkpt lat="45.3109791" lon="8.6144287"><ele>121.8</ele><time>2026-04-18T15:39:22.99Z</time></trkpt><trkpt lat="45.3109747" lon="8.6145596"><ele>121.6</ele><time>2026-04-18T15:39:23.991Z</time></trkpt><trkpt lat="45.310976" lon="8.614694"><ele>121.39999999999999</ele><time>2026-04-18T15:39:24.991Z</time></trkpt><trkpt lat="45.3109789" lon="8.6148334"><ele>121.19999999999999</ele><time>2026-04-18T15:39:25.99Z</time></trkpt><trkpt lat="45.3109832" lon="8.6149658"><ele>121.0</ele><time>2026-04-18T15:39:26.991Z</time></trkpt><trkpt lat="45.310987" lon="8.6150852"><ele>121.0</ele><time>2026-04-18T15:39:27.99Z</time></trkpt><trkpt lat="45.3109885" lon="8.6151989"><ele>121.0</ele><time>2026-04-18T15:39:28.991Z</time></trkpt><trkpt lat="45.3109917" lon="8.6152891"><ele>121.0</ele><time>2026-04-18T15:39:29.99Z</time></trkpt><trkpt lat="45.3110089" lon="8.6154594"><ele>121.0</ele><time>2026-04-18T15:39:31.991Z</time></trkpt><trkpt lat="45.3110098" lon="8.6156018"><ele>121.0</ele><time>2026-04-18T15:39:33.991Z</time></trkpt><trkpt lat="45.311" lon="8.6157336"><ele>121.00000000000001</ele><time>2026-04-18T15:39:35.991Z</time></trkpt><trkpt lat="45.3110012" lon="8.6159124"><ele>121.0</ele><time>2026-04-18T15:39:37.991Z</time></trkpt><trkpt lat="45.3110148" lon="8.6160034"><ele>121.0</ele><time>2026-04-18T15:39:38.991Z</time></trkpt><trkpt lat="45.3110339" lon="8.6161019"><ele>121.0</ele><time>2026-04-18T15:39:39.991Z</time></trkpt><trkpt lat="45.3110597" lon="8.6162032"><ele>121.00000000000001</ele><time>2026-04-18T15:39:40.99Z</time></trkpt><trkpt lat="45.311093" lon="8.6163115"><ele>121.0</ele><time>2026-04-18T15:39:41.99Z</time></trkpt><trkpt lat="45.3111274" lon="8.6164242"><ele>120.66666666666667</ele><time>2026-04-18T15:39:42.991Z</time></trkpt><trkpt lat="45.3111563" lon="8.6165238"><ele>120.33333333333334</ele><time>2026-04-18T15:39:43.991Z</time></trkpt><trkpt lat="45.3111756" lon="8.6166148"><ele>120.0</ele><time>2026-04-18T15:39:44.991Z</time></trkpt><trkpt lat="45.3111973" lon="8.6167951"><ele>119.66666666666666</ele><time>2026-04-18T15:39:46.991Z</time></trkpt><trkpt lat="45.3111978" lon="8.6168968"><ele>119.33333333333333</ele><time>2026-04-18T15:39:47.991Z</time></trkpt><trkpt lat="45.3112025" lon="8.6169981"><ele>119.0</ele><time>2026-04-18T15:39:48.99Z</time></trkpt><trkpt lat="45.3112051" lon="8.6171017"><ele>118.83333333333333</ele><time>2026-04-18T15:39:49.99Z</time></trkpt><trkpt lat="45.3112104" lon="8.6172045"><ele>118.66666666666666</ele><time>2026-04-18T15:39:50.991Z</time></trkpt><trkpt lat="45.3112161" lon="8.6173147"><ele>118.5</ele><time>2026-04-18T15:39:51.99Z</time></trkpt><trkpt lat="45.3112239" lon="8.6174275"><ele>118.33333333333334</ele><time>2026-04-18T15:39:52.99Z</time></trkpt><trkpt lat="45.311235" lon="8.617538"><ele>118.16666666666667</ele><time>2026-04-18T15:39:53.99Z</time></trkpt><trkpt lat="45.3112487" lon="8.6176512"><ele>118.0</ele><time>2026-04-18T15:39:54.991Z</time></trkpt><trkpt lat="45.3112584" lon="8.6177608"><ele>118.14285714285714</ele><time>2026-04-18T15:39:55.991Z</time></trkpt><trkpt lat="45.3112677" lon="8.6178662"><ele>118.28571428571429</ele><time>2026-04-18T15:39:56.99Z</time></trkpt><trkpt lat="45.3112774" lon="8.6179666"><ele>118.42857142857143</ele><time>2026-04-18T15:39:57.991Z</time></trkpt><trkpt lat="45.311281" lon="8.6180646"><ele>118.57142857142857</ele><time>2026-04-18T15:39:58.991Z</time></trkpt><trkpt lat="45.3112867" lon="8.6181567"><ele>118.71428571428572</ele><time>2026-04-18T15:39:59.991Z</time></trkpt><trkpt lat="45.3112923" lon="8.6182576"><ele>118.85714285714286</ele><time>2026-04-18T15:40:00.991Z</time></trkpt><trkpt lat="45.3112937" lon="8.6183597"><ele>119.0</ele><time>2026-04-18T15:40:01.99Z</time></trkpt><trkpt lat="45.3112906" lon="8.6184632"><ele>118.99999999999999</ele><time>2026-04-18T15:40:02.991Z</time></trkpt><trkpt lat="45.3112864" lon="8.6185692"><ele>119.0</ele><time>2026-04-18T15:40:03.991Z</time></trkpt><trkpt lat="45.3112867" lon="8.6186773"><ele>119.0</ele><time>2026-04-18T15:40:04.99Z</time></trkpt><trkpt lat="45.3112877" lon="8.618784"><ele>119.0</ele><time>2026-04-18T15:40:05.991Z</time></trkpt><trkpt lat="45.3112875" lon="8.618874"><ele>118.99999999999999</ele><time>2026-04-18T15:40:06.99Z</time></trkpt><trkpt lat="45.3112815" lon="8.6190113"><ele>119.0</ele><time>2026-04-18T15:40:08.991Z</time></trkpt><trkpt lat="45.311237" lon="8.619094"><ele>118.99999999999999</ele><time>2026-04-18T15:40:10.99Z</time></trkpt><trkpt lat="45.3111702" lon="8.6190911"><ele>119.0</ele><time>2026-04-18T15:40:12.991Z</time></trkpt><trkpt lat="45.311056" lon="8.6190526"><ele>119.0</ele><time>2026-04-18T15:40:14.991Z</time></trkpt><trkpt lat="45.3109813" lon="8.6190335"><ele>119.0</ele><time>2026-04-18T15:40:15.99Z</time></trkpt><trkpt lat="45.3108964" lon="8.6190179"><ele>118.99999999999999</ele><time>2026-04-18T15:40:16.991Z</time></trkpt><trkpt lat="45.3108059" lon="8.6189947"><ele>119.0</ele><time>2026-04-18T15:40:17.991Z</time></trkpt><trkpt lat="45.3107138" lon="8.6189683"><ele>119.0</ele><time>2026-04-18T15:40:18.991Z</time></trkpt><trkpt lat="45.3106146" lon="8.6189407"><ele>119.0</ele><time>2026-04-18T15:40:19.991Z</time></trkpt><trkpt lat="45.3105126" lon="8.618915"><ele>119.0</ele><time>2026-04-18T15:40:20.991Z</time></trkpt><trkpt lat="45.3104041" lon="8.6188879"><ele>119.0</ele><time>2026-04-18T15:40:21.99Z</time></trkpt><trkpt lat="45.3103045" lon="8.618863"><ele>119.0</ele><time>2026-04-18T15:40:22.991Z</time></trkpt><trkpt lat="45.3102109" lon="8.6188373"><ele>118.6</ele><time>2026-04-18T15:40:23.991Z</time></trkpt><trkpt lat="45.3101136" lon="8.6188092"><ele>118.2</ele><time>2026-04-18T15:40:24.991Z</time></trkpt><trkpt lat="45.3100133" lon="8.6187869"><ele>117.79999999999998</ele><time>2026-04-18T15:40:25.991Z</time></trkpt><trkpt lat="45.3099133" lon="8.6187599"><ele>117.39999999999999</ele><time>2026-04-18T15:40:26.99Z</time></trkpt><trkpt lat="45.3098144" lon="8.6187325"><ele>117.0</ele><time>2026-04-18T15:40:27.991Z</time></trkpt><trkpt lat="45.3097194" lon="8.6187065"><ele>117.5</ele><time>2026-04-18T15:40:28.991Z</time></trkpt><trkpt lat="45.3096241" lon="8.6186823"><ele>118.0</ele><time>2026-04-18T15:40:29.99Z</time></trkpt><trkpt lat="45.3095379" lon="8.6186599"><ele>118.5</ele><time>2026-04-18T15:40:30.99Z</time></trkpt><trkpt lat="45.3094576" lon="8.6186381"><ele>119.0</ele><time>2026-04-18T15:40:31.99Z</time></trkpt><trkpt lat="45.3093869" lon="8.618622"><ele>119.5</ele><time>2026-04-18T15:40:32.991Z</time></trkpt><trkpt lat="45.309322" lon="8.618606"><ele>120.0</ele><time>2026-04-18T15:40:33.99Z</time></trkpt><trkpt lat="45.3092083" lon="8.6185773"><ele>120.0</ele><time>2026-04-18T15:40:35.99Z</time></trkpt><trkpt lat="45.3091108" lon="8.6185941"><ele>120.0</ele><time>2026-04-18T15:40:37.991Z</time></trkpt><trkpt lat="45.3090699" lon="8.6186743"><ele>120.0</ele><time>2026-04-18T15:40:39.99Z</time></trkpt><trkpt lat="45.3090652" lon="8.6188061"><ele>120.0</ele><time>2026-04-18T15:40:41.991Z</time></trkpt><trkpt lat="45.3090698" lon="8.6189724"><ele>120.0</ele><time>2026-04-18T15:40:43.991Z</time></trkpt><trkpt lat="45.3090684" lon="8.6191587"><ele>120.0</ele><time>2026-04-18T15:40:45.991Z</time></trkpt><trkpt lat="45.3090676" lon="8.6192568"><ele>120.0</ele><time>2026-04-18T15:40:46.99Z</time></trkpt><trkpt lat="45.3090619" lon="8.6193534"><ele>120.0</ele><time>2026-04-18T15:40:47.99Z</time></trkpt><trkpt lat="45.3090563" lon="8.6194525"><ele>120.0</ele><time>2026-04-18T15:40:48.991Z</time></trkpt><trkpt lat="45.309056" lon="8.6195542"><ele>120.0</ele><time>2026-04-18T15:40:49.991Z</time></trkpt><trkpt lat="45.3090557" lon="8.6196621"><ele>120.0</ele><time>2026-04-18T15:40:50.99Z</time></trkpt><trkpt lat="45.3090555" lon="8.6197716"><ele>120.0</ele><time>2026-04-18T15:40:51.991Z</time></trkpt><trkpt lat="45.3090511" lon="8.6198802"><ele>120.0</ele><time>2026-04-18T15:40:52.991Z</time></trkpt><trkpt lat="45.30905" lon="8.6199871"><ele>120.0</ele><time>2026-04-18T15:40:53.991Z</time></trkpt><trkpt lat="45.3090435" lon="8.6200787"><ele>120.0</ele><time>2026-04-18T15:40:54.99Z</time></trkpt><trkpt lat="45.3090323" lon="8.6201809"><ele>120.0</ele><time>2026-04-18T15:40:55.991Z</time></trkpt><trkpt lat="45.3090223" lon="8.6202931"><ele>120.0</ele><time>2026-04-18T15:40:56.991Z</time></trkpt><trkpt lat="45.3090227" lon="8.6203957"><ele>120.0</ele><time>2026-04-18T15:40:57.991Z</time></trkpt><trkpt lat="45.3090166" lon="8.6205094"><ele>120.0</ele><time>2026-04-18T15:40:58.991Z</time></trkpt><trkpt lat="45.309014" lon="8.6206311"><ele>119.66666666666667</ele><time>2026-04-18T15:40:59.991Z</time></trkpt><trkpt lat="45.3090113" lon="8.6207577"><ele>119.33333333333334</ele><time>2026-04-18T15:41:00.991Z</time></trkpt><trkpt lat="45.3090108" lon="8.6208859"><ele>119.0</ele><time>2026-04-18T15:41:01.991Z</time></trkpt><trkpt lat="45.3090103" lon="8.6210199"><ele>118.66666666666667</ele><time>2026-04-18T15:41:02.991Z</time></trkpt><trkpt lat="45.3090055" lon="8.6211441"><ele>118.33333333333334</ele><time>2026-04-18T15:41:03.99Z</time></trkpt><trkpt lat="45.3090007" lon="8.6212608"><ele>118.0</ele><time>2026-04-18T15:41:04.991Z</time></trkpt><trkpt lat="45.3090044" lon="8.621379"><ele>118.00000000000001</ele><time>2026-04-18T15:41:05.991Z</time></trkpt><trkpt lat="45.3090065" lon="8.6214883"><ele>118.0</ele><time>2026-04-18T15:41:06.99Z</time></trkpt><trkpt lat="45.3090096" lon="8.6215908"><ele>118.0</ele><time>2026-04-18T15:41:07.991Z</time></trkpt><trkpt lat="45.309011" lon="8.6216889"><ele>118.0</ele><time>2026-04-18T15:41:08.991Z</time></trkpt><trkpt lat="45.3090104" lon="8.6217832"><ele>118.00000000000001</ele><time>2026-04-18T15:41:09.99Z</time></trkpt><trkpt lat="45.3090031" lon="8.6219489"><ele>118.0</ele><time>2026-04-18T15:41:11.991Z</time></trkpt><trkpt lat="45.3090073" lon="8.6221176"><ele>118.00000000000001</ele><time>2026-04-18T15:41:13.991Z</time></trkpt><trkpt lat="45.309011" lon="8.6222082"><ele>118.0</ele><time>2026-04-18T15:41:14.99Z</time></trkpt><trkpt lat="45.309015" lon="8.6222987"><ele>118.0</ele><time>2026-04-18T15:41:15.99Z</time></trkpt><trkpt lat="45.3090089" lon="8.6224673"><ele>118.0</ele><time>2026-04-18T15:41:17.991Z</time></trkpt><trkpt lat="45.3090104" lon="8.6225989"><ele>118.00000000000001</ele><time>2026-04-18T15:41:19.991Z</time></trkpt><trkpt lat="45.3089771" lon="8.6227084"><ele>118.0</ele><time>2026-04-18T15:41:22.99Z</time></trkpt><trkpt lat="45.3088907" lon="8.6227483"><ele>118.16666666666667</ele><time>2026-04-18T15:41:25.991Z</time></trkpt><trkpt lat="45.308841" lon="8.6228659"><ele>118.33333333333334</ele><time>2026-04-18T15:41:28.99Z</time></trkpt><trkpt lat="45.3088175" lon="8.6230053"><ele>118.5</ele><time>2026-04-18T15:41:30.99Z</time></trkpt><trkpt lat="45.3088009" lon="8.6230969"><ele>118.66666666666666</ele><time>2026-04-18T15:41:31.99Z</time></trkpt><trkpt lat="45.3087862" lon="8.6232015"><ele>118.83333333333333</ele><time>2026-04-18T15:41:32.99Z</time></trkpt><trkpt lat="45.308769" lon="8.6233051"><ele>119.0</ele><time>2026-04-18T15:41:33.99Z</time></trkpt><trkpt lat="45.3087537" lon="8.6234033"><ele>118.99999999999999</ele><time>2026-04-18T15:41:34.991Z</time></trkpt><trkpt lat="45.3087386" lon="8.6235065"><ele>119.0</ele><time>2026-04-18T15:41:35.991Z</time></trkpt><trkpt lat="45.3087245" lon="8.6236155"><ele>119.0</ele><time>2026-04-18T15:41:36.991Z</time></trkpt><trkpt lat="45.3087025" lon="8.6237269"><ele>119.0</ele><time>2026-04-18T15:41:37.99Z</time></trkpt><trkpt lat="45.3086853" lon="8.6238396"><ele>118.99999999999999</ele><time>2026-04-18T15:41:38.991Z</time></trkpt><trkpt lat="45.3086694" lon="8.6239462"><ele>119.0</ele><time>2026-04-18T15:41:39.991Z</time></trkpt><trkpt lat="45.308655" lon="8.6240514"><ele>118.99999999999999</ele><time>2026-04-18T15:41:40.991Z</time></trkpt><trkpt lat="45.3086348" lon="8.6241709"><ele>119.0</ele><time>2026-04-18T15:41:41.991Z</time></trkpt><trkpt lat="45.3086122" lon="8.6242965"><ele>119.0</ele><time>2026-04-18T15:41:42.991Z</time></trkpt><trkpt lat="45.3085919" lon="8.6244173"><ele>119.0</ele><time>2026-04-18T15:41:43.991Z</time></trkpt><trkpt lat="45.3085748" lon="8.6245341"><ele>118.99999999999999</ele><time>2026-04-18T15:41:44.991Z</time></trkpt><trkpt lat="45.3085583" lon="8.624639"><ele>119.0</ele><time>2026-04-18T15:41:45.99Z</time></trkpt><trkpt lat="45.3085424" lon="8.6247417"><ele>118.99999999999999</ele><time>2026-04-18T15:41:46.99Z</time></trkpt><trkpt lat="45.3085273" lon="8.6248347"><ele>119.0</ele><time>2026-04-18T15:41:47.991Z</time></trkpt><trkpt lat="45.3085169" lon="8.6249248"><ele>119.0</ele><time>2026-04-18T15:41:48.99Z</time></trkpt><trkpt lat="45.3084885" lon="8.6250759"><ele>119.0</ele><time>2026-04-18T15:41:50.991Z</time></trkpt><trkpt lat="45.3084286" lon="8.6251832"><ele>118.99999999999999</ele><time>2026-04-18T15:41:52.991Z</time></trkpt><trkpt lat="45.3083308" lon="8.6251952"><ele>119.0</ele><time>2026-04-18T15:41:54.991Z</time></trkpt><trkpt lat="45.3082045" lon="8.6251749"><ele>118.99999999999999</ele><time>2026-04-18T15:41:56.991Z</time></trkpt><trkpt lat="45.3081307" lon="8.6251585"><ele>119.0</ele><time>2026-04-18T15:41:57.991Z</time></trkpt><trkpt lat="45.3080513" lon="8.625143"><ele>119.0</ele><time>2026-04-18T15:41:58.991Z</time></trkpt><trkpt lat="45.3079706" lon="8.6251259"><ele>119.0</ele><time>2026-04-18T15:41:59.991Z</time></trkpt><trkpt lat="45.3078887" lon="8.6251126"><ele>118.99999999999999</ele><time>2026-04-18T15:42:00.991Z</time></trkpt><trkpt lat="45.3078054" lon="8.6250958"><ele>119.0</ele><time>2026-04-18T15:42:01.99Z</time></trkpt><trkpt lat="45.3077207" lon="8.625076"><ele>118.99999999999999</ele><time>2026-04-18T15:42:02.991Z</time></trkpt><trkpt lat="45.3076387" lon="8.6250587"><ele>119.0</ele><time>2026-04-18T15:42:03.991Z</time></trkpt><trkpt lat="45.3075575" lon="8.6250446"><ele>119.0</ele><time>2026-04-18T15:42:04.991Z</time></trkpt><trkpt lat="45.3074753" lon="8.6250289"><ele>119.0</ele><time>2026-04-18T15:42:05.991Z</time></trkpt><trkpt lat="45.3073924" lon="8.6250145"><ele>118.99999999999999</ele><time>2026-04-18T15:42:06.99Z</time></trkpt><trkpt lat="45.3073084" lon="8.6249982"><ele>119.0</ele><time>2026-04-18T15:42:07.99Z</time></trkpt><trkpt lat="45.3072228" lon="8.6249792"><ele>118.80000000000001</ele><time>2026-04-18T15:42:08.991Z</time></trkpt><trkpt lat="45.3071336" lon="8.6249573"><ele>118.60000000000001</ele><time>2026-04-18T15:42:09.991Z</time></trkpt><trkpt lat="45.307041" lon="8.6249335"><ele>118.4</ele><time>2026-04-18T15:42:10.991Z</time></trkpt><trkpt lat="45.3069504" lon="8.6249124"><ele>118.2</ele><time>2026-04-18T15:42:11.991Z</time></trkpt><trkpt lat="45.3068559" lon="8.6248884"><ele>118.0</ele><time>2026-04-18T15:42:12.991Z</time></trkpt><trkpt lat="45.3067584" lon="8.6248654"><ele>118.0</ele><time>2026-04-18T15:42:13.99Z</time></trkpt><trkpt lat="45.3066674" lon="8.624848"><ele>118.00000000000001</ele><time>2026-04-18T15:42:14.991Z</time></trkpt><trkpt lat="45.3065755" lon="8.6248262"><ele>118.00000000000001</ele><time>2026-04-18T15:42:15.99Z</time></trkpt><trkpt lat="45.3064836" lon="8.6248052"><ele>118.0</ele><time>2026-04-18T15:42:16.991Z</time></trkpt><trkpt lat="45.3063928" lon="8.6247854"><ele>118.0</ele><time>2026-04-18T15:42:17.991Z</time></trkpt><trkpt lat="45.3063029" lon="8.6247629"><ele>117.80000000000001</ele><time>2026-04-18T15:42:18.991Z</time></trkpt><trkpt lat="45.3062101" lon="8.6247416"><ele>117.60000000000001</ele><time>2026-04-18T15:42:19.991Z</time></trkpt><trkpt lat="45.3061107" lon="8.6247192"><ele>117.39999999999999</ele><time>2026-04-18T15:42:20.991Z</time></trkpt><trkpt lat="45.3060105" lon="8.624699"><ele>117.19999999999999</ele><time>2026-04-18T15:42:21.99Z</time></trkpt><trkpt lat="45.3059098" lon="8.6246769"><ele>117.0</ele><time>2026-04-18T15:42:22.991Z</time></trkpt><trkpt lat="45.3058073" lon="8.6246618"><ele>117.0</ele><time>2026-04-18T15:42:23.99Z</time></trkpt><trkpt lat="45.3057013" lon="8.6246458"><ele>116.99999999999999</ele><time>2026-04-18T15:42:24.991Z</time></trkpt><trkpt lat="45.3055921" lon="8.624626"><ele>116.99999999999999</ele><time>2026-04-18T15:42:25.991Z</time></trkpt><trkpt lat="45.3054902" lon="8.624609"><ele>117.0</ele><time>2026-04-18T15:42:26.991Z</time></trkpt><trkpt lat="45.3053962" lon="8.6245909"><ele>117.0</ele><time>2026-04-18T15:42:27.99Z</time></trkpt><trkpt lat="45.3053005" lon="8.6245748"><ele>117.33333333333333</ele><time>2026-04-18T15:42:28.991Z</time></trkpt><trkpt lat="45.3052051" lon="8.624563"><ele>117.66666666666666</ele><time>2026-04-18T15:42:29.991Z</time></trkpt><trkpt lat="45.3051231" lon="8.6245466"><ele>118.0</ele><time>2026-04-18T15:42:30.99Z</time></trkpt><trkpt lat="45.3050491" lon="8.6245417"><ele>118.33333333333333</ele><time>2026-04-18T15:42:31.99Z</time></trkpt><trkpt lat="45.3049744" lon="8.6245292"><ele>118.66666666666666</ele><time>2026-04-18T15:42:32.991Z</time></trkpt><trkpt lat="45.3048965" lon="8.6245156"><ele>119.0</ele><time>2026-04-18T15:42:33.99Z</time></trkpt><trkpt lat="45.304817" lon="8.6245018"><ele>118.80000000000001</ele><time>2026-04-18T15:42:34.991Z</time></trkpt><trkpt lat="45.3047315" lon="8.6244871"><ele>118.60000000000001</ele><time>2026-04-18T15:42:35.991Z</time></trkpt><trkpt lat="45.3046447" lon="8.624471"><ele>118.4</ele><time>2026-04-18T15:42:36.99Z</time></trkpt><trkpt lat="45.3045534" lon="8.6244497"><ele>118.2</ele><time>2026-04-18T15:42:37.991Z</time></trkpt><trkpt lat="45.3044565" lon="8.6244205"><ele>118.0</ele><time>2026-04-18T15:42:38.991Z</time></trkpt><trkpt lat="45.3043571" lon="8.6243853"><ele>118.0</ele><time>2026-04-18T15:42:39.991Z</time></trkpt><trkpt lat="45.3042585" lon="8.6243418"><ele>118.00000000000001</ele><time>2026-04-18T15:42:40.99Z</time></trkpt><trkpt lat="45.3041571" lon="8.6242863"><ele>118.00000000000001</ele><time>2026-04-18T15:42:41.991Z</time></trkpt><trkpt lat="45.3040574" lon="8.6242245"><ele>118.0</ele><time>2026-04-18T15:42:42.99Z</time></trkpt><trkpt lat="45.303962" lon="8.6241658"><ele>118.0</ele><time>2026-04-18T15:42:43.99Z</time></trkpt><trkpt lat="45.3038585" lon="8.6241096"><ele>117.75</ele><time>2026-04-18T15:42:44.99Z</time></trkpt><trkpt lat="45.3037573" lon="8.6240543"><ele>117.5</ele><time>2026-04-18T15:42:45.99Z</time></trkpt><trkpt lat="45.3036503" lon="8.6240007"><ele>117.25</ele><time>2026-04-18T15:42:46.991Z</time></trkpt><trkpt lat="45.3035434" lon="8.6239457"><ele>117.0</ele><time>2026-04-18T15:42:47.991Z</time></trkpt><trkpt lat="45.3034352" lon="8.6238895"><ele>117.0</ele><time>2026-04-18T15:42:48.99Z</time></trkpt><trkpt lat="45.3033278" lon="8.623837"><ele>116.99999999999999</ele><time>2026-04-18T15:42:49.99Z</time></trkpt><trkpt lat="45.303225" lon="8.6237877"><ele>116.99999999999999</ele><time>2026-04-18T15:42:50.991Z</time></trkpt><trkpt lat="45.3031241" lon="8.6237407"><ele>117.0</ele><time>2026-04-18T15:42:51.991Z</time></trkpt><trkpt lat="45.3030252" lon="8.623693"><ele>117.0</ele><time>2026-04-18T15:42:52.991Z</time></trkpt><trkpt lat="45.3029277" lon="8.62365"><ele>117.16666666666667</ele><time>2026-04-18T15:42:53.99Z</time></trkpt><trkpt lat="45.3028312" lon="8.6236051"><ele>117.33333333333334</ele><time>2026-04-18T15:42:54.991Z</time></trkpt><trkpt lat="45.3027387" lon="8.6235645"><ele>117.5</ele><time>2026-04-18T15:42:55.991Z</time></trkpt><trkpt lat="45.3026548" lon="8.623527"><ele>117.66666666666667</ele><time>2026-04-18T15:42:56.99Z</time></trkpt><trkpt lat="45.3025763" lon="8.6234925"><ele>117.83333333333334</ele><time>2026-04-18T15:42:57.991Z</time></trkpt><trkpt lat="45.3025029" lon="8.6234664"><ele>118.0</ele><time>2026-04-18T15:42:58.99Z</time></trkpt><trkpt lat="45.302425" lon="8.6234369"><ele>118.0</ele><time>2026-04-18T15:42:59.99Z</time></trkpt><trkpt lat="45.3023401" lon="8.623407"><ele>118.00000000000001</ele><time>2026-04-18T15:43:00.991Z</time></trkpt><trkpt lat="45.302249" lon="8.6233796"><ele>118.00000000000001</ele><time>2026-04-18T15:43:01.99Z</time></trkpt><trkpt lat="45.3021534" lon="8.623355"><ele>118.0</ele><time>2026-04-18T15:43:02.991Z</time></trkpt><trkpt lat="45.3020541" lon="8.6233341"><ele>118.0</ele><time>2026-04-18T15:43:03.99Z</time></trkpt><trkpt lat="45.3019507" lon="8.6233138"><ele>118.0</ele><time>2026-04-18T15:43:04.991Z</time></trkpt><trkpt lat="45.3018491" lon="8.6232895"><ele>118.00000000000001</ele><time>2026-04-18T15:43:05.99Z</time></trkpt><trkpt lat="45.3017483" lon="8.6232657"><ele>118.00000000000001</ele><time>2026-04-18T15:43:06.991Z</time></trkpt><trkpt lat="45.3016495" lon="8.6232392"><ele>118.0</ele><time>2026-04-18T15:43:07.99Z</time></trkpt><trkpt lat="45.3015495" lon="8.6232156"><ele>118.0</ele><time>2026-04-18T15:43:08.991Z</time></trkpt><trkpt lat="45.301445" lon="8.6231939"><ele>117.60000000000001</ele><time>2026-04-18T15:43:09.99Z</time></trkpt><trkpt lat="45.301344" lon="8.6231728"><ele>117.20000000000002</ele><time>2026-04-18T15:43:10.991Z</time></trkpt><trkpt lat="45.30124" lon="8.6231479"><ele>116.8</ele><time>2026-04-18T15:43:11.991Z</time></trkpt><trkpt lat="45.3011344" lon="8.6231251"><ele>116.4</ele><time>2026-04-18T15:43:12.99Z</time></trkpt><trkpt lat="45.301026" lon="8.623099"><ele>116.0</ele><time>2026-04-18T15:43:13.991Z</time></trkpt><trkpt lat="45.3009172" lon="8.6230715"><ele>116.0</ele><time>2026-04-18T15:43:14.991Z</time></trkpt><trkpt lat="45.3008091" lon="8.6230475"><ele>116.0</ele><time>2026-04-18T15:43:15.99Z</time></trkpt><trkpt lat="45.3007005" lon="8.623027"><ele>116.0</ele><time>2026-04-18T15:43:16.991Z</time></trkpt><trkpt lat="45.3005951" lon="8.6230082"><ele>116.0</ele><time>2026-04-18T15:43:17.991Z</time></trkpt><trkpt lat="45.3004891" lon="8.6229855"><ele>116.0</ele><time>2026-04-18T15:43:18.991Z</time></trkpt><trkpt lat="45.3003887" lon="8.6229613"><ele>116.4</ele><time>2026-04-18T15:43:19.991Z</time></trkpt><trkpt lat="45.3002866" lon="8.6229402"><ele>116.8</ele><time>2026-04-18T15:43:20.991Z</time></trkpt><trkpt lat="45.3001843" lon="8.622922"><ele>117.20000000000002</ele><time>2026-04-18T15:43:21.991Z</time></trkpt><trkpt lat="45.3000854" lon="8.6228985"><ele>117.60000000000001</ele><time>2026-04-18T15:43:22.99Z</time></trkpt><trkpt lat="45.2999883" lon="8.6228767"><ele>118.0</ele><time>2026-04-18T15:43:23.991Z</time></trkpt><trkpt lat="45.2998958" lon="8.6228548"><ele>118.00000000000001</ele><time>2026-04-18T15:43:24.991Z</time></trkpt><trkpt lat="45.2998124" lon="8.6228354"><ele>118.0</ele><time>2026-04-18T15:43:25.991Z</time></trkpt><trkpt lat="45.2997369" lon="8.6228115"><ele>118.0</ele><time>2026-04-18T15:43:26.991Z</time></trkpt><trkpt lat="45.2996636" lon="8.6227964"><ele>118.0</ele><time>2026-04-18T15:43:27.991Z</time></trkpt><trkpt lat="45.2995978" lon="8.6227853"><ele>118.00000000000001</ele><time>2026-04-18T15:43:28.991Z</time></trkpt><trkpt lat="45.2994844" lon="8.6227612"><ele>118.0</ele><time>2026-04-18T15:43:30.991Z</time></trkpt><trkpt lat="45.2993896" lon="8.6227432"><ele>118.00000000000001</ele><time>2026-04-18T15:43:32.991Z</time></trkpt><trkpt lat="45.2993151" lon="8.6226928"><ele>118.0</ele><time>2026-04-18T15:43:34.99Z</time></trkpt><trkpt lat="45.2992611" lon="8.6225938"><ele>118.0</ele><time>2026-04-18T15:43:36.991Z</time></trkpt><trkpt lat="45.2992113" lon="8.6224738"><ele>118.0</ele><time>2026-04-18T15:43:38.991Z</time></trkpt><trkpt lat="45.299155" lon="8.6223336"><ele>118.00000000000001</ele><time>2026-04-18T15:43:40.991Z</time></trkpt><trkpt lat="45.2991213" lon="8.622257"><ele>118.0</ele><time>2026-04-18T15:43:41.99Z</time></trkpt><trkpt lat="45.2990855" lon="8.6221833"><ele>118.00000000000001</ele><time>2026-04-18T15:43:42.991Z</time></trkpt><trkpt lat="45.2990408" lon="8.6221042"><ele>118.0</ele><time>2026-04-18T15:43:43.991Z</time></trkpt><trkpt lat="45.2989904" lon="8.6220246"><ele>118.0</ele><time>2026-04-18T15:43:44.991Z</time></trkpt><trkpt lat="45.298937" lon="8.6219487"><ele>118.0</ele><time>2026-04-18T15:43:45.99Z</time></trkpt><trkpt lat="45.2988802" lon="8.6218707"><ele>118.00000000000001</ele><time>2026-04-18T15:43:46.991Z</time></trkpt><trkpt lat="45.2988183" lon="8.6217982"><ele>118.0</ele><time>2026-04-18T15:43:47.99Z</time></trkpt><trkpt lat="45.298756" lon="8.6217264"><ele>118.00000000000001</ele><time>2026-04-18T15:43:48.991Z</time></trkpt><trkpt lat="45.2986972" lon="8.6216591"><ele>118.0</ele><time>2026-04-18T15:43:49.991Z</time></trkpt><trkpt lat="45.2986352" lon="8.6215915"><ele>118.0</ele><time>2026-04-18T15:43:50.991Z</time></trkpt><trkpt lat="45.2985762" lon="8.6215222"><ele>118.0</ele><time>2026-04-18T15:43:51.99Z</time></trkpt><trkpt lat="45.298518" lon="8.6214507"><ele>118.00000000000001</ele><time>2026-04-18T15:43:52.991Z</time></trkpt><trkpt lat="45.2984604" lon="8.6213813"><ele>118.0</ele><time>2026-04-18T15:43:53.99Z</time></trkpt><trkpt lat="45.2984009" lon="8.6213161"><ele>118.00000000000001</ele><time>2026-04-18T15:43:54.991Z</time></trkpt><trkpt lat="45.2983403" lon="8.621247"><ele>118.0</ele><time>2026-04-18T15:43:55.991Z</time></trkpt><trkpt lat="45.2982808" lon="8.6211806"><ele>118.0</ele><time>2026-04-18T15:43:56.991Z</time></trkpt><trkpt lat="45.2982209" lon="8.6211146"><ele>118.0</ele><time>2026-04-18T15:43:57.99Z</time></trkpt><trkpt lat="45.2981576" lon="8.6210447"><ele>118.00000000000001</ele><time>2026-04-18T15:43:58.991Z</time></trkpt><trkpt lat="45.2980841" lon="8.6209692"><ele>118.0</ele><time>2026-04-18T15:43:59.99Z</time></trkpt><trkpt lat="45.29801" lon="8.6208964"><ele>117.83333333333334</ele><time>2026-04-18T15:44:00.991Z</time></trkpt><trkpt lat="45.2979352" lon="8.6208213"><ele>117.66666666666667</ele><time>2026-04-18T15:44:01.991Z</time></trkpt><trkpt lat="45.2978634" lon="8.6207454"><ele>117.5</ele><time>2026-04-18T15:44:02.991Z</time></trkpt><trkpt lat="45.2977969" lon="8.6206771"><ele>117.33333333333334</ele><time>2026-04-18T15:44:03.991Z</time></trkpt><trkpt lat="45.2977312" lon="8.6206021"><ele>117.16666666666667</ele><time>2026-04-18T15:44:04.991Z</time></trkpt><trkpt lat="45.2976679" lon="8.6205207"><ele>117.0</ele><time>2026-04-18T15:44:05.99Z</time></trkpt><trkpt lat="45.2976079" lon="8.6204319"><ele>117.0</ele><time>2026-04-18T15:44:06.991Z</time></trkpt><trkpt lat="45.2975479" lon="8.6203379"><ele>117.0</ele><time>2026-04-18T15:44:07.99Z</time></trkpt><trkpt lat="45.297489" lon="8.6202452"><ele>117.0</ele><time>2026-04-18T15:44:08.991Z</time></trkpt><trkpt lat="45.2974304" lon="8.620148"><ele>117.0</ele><time>2026-04-18T15:44:09.991Z</time></trkpt><trkpt lat="45.297369" lon="8.6200546"><ele>117.0</ele><time>2026-04-18T15:44:10.991Z</time></trkpt><trkpt lat="45.2973069" lon="8.619963"><ele>117.0</ele><time>2026-04-18T15:44:11.991Z</time></trkpt><trkpt lat="45.2972432" lon="8.6198723"><ele>117.0</ele><time>2026-04-18T15:44:12.991Z</time></trkpt><trkpt lat="45.2971797" lon="8.6197884"><ele>117.0</ele><time>2026-04-18T15:44:13.991Z</time></trkpt><trkpt lat="45.2971207" lon="8.6197185"><ele>117.0</ele><time>2026-04-18T15:44:14.99Z</time></trkpt><trkpt lat="45.2970705" lon="8.6196602"><ele>117.0</ele><time>2026-04-18T15:44:15.991Z</time></trkpt><trkpt lat="45.2969958" lon="8.619579"><ele>117.0</ele><time>2026-04-18T15:44:17.991Z</time></trkpt><trkpt lat="45.296927" lon="8.6195839"><ele>117.0</ele><time>2026-04-18T15:44:21.991Z</time></trkpt><trkpt lat="45.2969079" lon="8.6196708"><ele>117.0</ele><time>2026-04-18T15:44:24.991Z</time></trkpt><trkpt lat="45.2968917" lon="8.6197653"><ele>117.0</ele><time>2026-04-18T15:44:26.99Z</time></trkpt><trkpt lat="45.2968671" lon="8.6198888"><ele>117.0</ele><time>2026-04-18T15:44:28.991Z</time></trkpt><trkpt lat="45.2968331" lon="8.6200679"><ele>117.0</ele><time>2026-04-18T15:44:30.991Z</time></trkpt><trkpt lat="45.296814" lon="8.6201671"><ele>117.0</ele><time>2026-04-18T15:44:31.991Z</time></trkpt><trkpt lat="45.2967949" lon="8.6202613"><ele>117.0</ele><time>2026-04-18T15:44:32.991Z</time></trkpt><trkpt lat="45.2967785" lon="8.6203491"><ele>117.0</ele><time>2026-04-18T15:44:33.991Z</time></trkpt><trkpt lat="45.2967385" lon="8.620531"><ele>116.99999999999999</ele><time>2026-04-18T15:44:35.991Z</time></trkpt><trkpt lat="45.2967146" lon="8.6206424"><ele>116.99999999999999</ele><time>2026-04-18T15:44:36.991Z</time></trkpt><trkpt lat="45.296689" lon="8.620763"><ele>117.0</ele><time>2026-04-18T15:44:37.991Z</time></trkpt><trkpt lat="45.2966632" lon="8.6208883"><ele>117.0</ele><time>2026-04-18T15:44:38.991Z</time></trkpt><trkpt lat="45.2966321" lon="8.6210192"><ele>117.19999999999999</ele><time>2026-04-18T15:44:39.99Z</time></trkpt><trkpt lat="45.2966041" lon="8.6211619"><ele>117.39999999999999</ele><time>2026-04-18T15:44:40.99Z</time></trkpt><trkpt lat="45.2965732" lon="8.6213083"><ele>117.60000000000001</ele><time>2026-04-18T15:44:41.99Z</time></trkpt><trkpt lat="45.2965435" lon="8.621456"><ele>117.80000000000001</ele><time>2026-04-18T15:44:42.99Z</time></trkpt><trkpt lat="45.2965147" lon="8.6216112"><ele>118.0</ele><time>2026-04-18T15:44:43.991Z</time></trkpt><trkpt lat="45.2964877" lon="8.6217651"><ele>118.0</ele><time>2026-04-18T15:44:44.991Z</time></trkpt><trkpt lat="45.2964598" lon="8.6219141"><ele>118.00000000000001</ele><time>2026-04-18T15:44:45.99Z</time></trkpt><trkpt lat="45.2964308" lon="8.6220525"><ele>118.00000000000001</ele><time>2026-04-18T15:44:46.991Z</time></trkpt><trkpt lat="45.2964031" lon="8.6221926"><ele>118.0</ele><time>2026-04-18T15:44:47.99Z</time></trkpt><trkpt lat="45.2963773" lon="8.6223296"><ele>118.0</ele><time>2026-04-18T15:44:48.991Z</time></trkpt><trkpt lat="45.2963587" lon="8.6224711"><ele>118.0</ele><time>2026-04-18T15:44:49.991Z</time></trkpt><trkpt lat="45.2963439" lon="8.6226191"><ele>118.00000000000001</ele><time>2026-04-18T15:44:50.991Z</time></trkpt><trkpt lat="45.2963323" lon="8.6227687"><ele>118.00000000000001</ele><time>2026-04-18T15:44:51.99Z</time></trkpt><trkpt lat="45.2963191" lon="8.6229193"><ele>118.0</ele><time>2026-04-18T15:44:52.991Z</time></trkpt><trkpt lat="45.2963073" lon="8.6230721"><ele>118.0</ele><time>2026-04-18T15:44:53.99Z</time></trkpt><trkpt lat="45.2962925" lon="8.6232235"><ele>118.00000000000001</ele><time>2026-04-18T15:44:54.99Z</time></trkpt><trkpt lat="45.2962783" lon="8.6233692"><ele>118.0</ele><time>2026-04-18T15:44:55.99Z</time></trkpt><trkpt lat="45.2962655" lon="8.6235022"><ele>118.0</ele><time>2026-04-18T15:44:56.991Z</time></trkpt><trkpt lat="45.2962499" lon="8.6236236"><ele>118.0</ele><time>2026-04-18T15:44:57.991Z</time></trkpt><trkpt lat="45.2962384" lon="8.6237288"><ele>118.00000000000001</ele><time>2026-04-18T15:44:58.991Z</time></trkpt><trkpt lat="45.2962272" lon="8.6238228"><ele>118.0</ele><time>2026-04-18T15:44:59.99Z</time></trkpt><trkpt lat="45.2961958" lon="8.6239699"><ele>118.0</ele><time>2026-04-18T15:45:01.99Z</time></trkpt><trkpt lat="45.2961283" lon="8.6240531"><ele>118.00000000000001</ele><time>2026-04-18T15:45:03.99Z</time></trkpt><trkpt lat="45.296002" lon="8.6240776"><ele>118.00000000000001</ele><time>2026-04-18T15:45:05.991Z</time></trkpt><trkpt lat="45.2959247" lon="8.62408"><ele>118.0</ele><time>2026-04-18T15:45:06.991Z</time></trkpt><trkpt lat="45.2958467" lon="8.6240801"><ele>118.0</ele><time>2026-04-18T15:45:07.99Z</time></trkpt><trkpt lat="45.2957669" lon="8.6240804"><ele>118.00000000000001</ele><time>2026-04-18T15:45:08.991Z</time></trkpt><trkpt lat="45.295683" lon="8.6240863"><ele>118.0</ele><time>2026-04-18T15:45:09.991Z</time></trkpt><trkpt lat="45.295598" lon="8.6240876"><ele>118.0</ele><time>2026-04-18T15:45:10.991Z</time></trkpt><trkpt lat="45.2955161" lon="8.6240864"><ele>118.0</ele><time>2026-04-18T15:45:11.99Z</time></trkpt><trkpt lat="45.2954346" lon="8.6240887"><ele>118.00000000000001</ele><time>2026-04-18T15:45:12.99Z</time></trkpt><trkpt lat="45.2953544" lon="8.6240897"><ele>118.0</ele><time>2026-04-18T15:45:13.99Z</time></trkpt><trkpt lat="45.2952739" lon="8.6240913"><ele>117.83333333333334</ele><time>2026-04-18T15:45:14.991Z</time></trkpt><trkpt lat="45.2951914" lon="8.6241001"><ele>117.66666666666667</ele><time>2026-04-18T15:45:15.99Z</time></trkpt><trkpt lat="45.2951101" lon="8.6241032"><ele>117.5</ele><time>2026-04-18T15:45:16.99Z</time></trkpt><trkpt lat="45.2950267" lon="8.6241108"><ele>117.33333333333334</ele><time>2026-04-18T15:45:17.99Z</time></trkpt><trkpt lat="45.2949436" lon="8.6241167"><ele>117.16666666666667</ele><time>2026-04-18T15:45:18.991Z</time></trkpt><trkpt lat="45.2948633" lon="8.6241092"><ele>117.0</ele><time>2026-04-18T15:45:19.99Z</time></trkpt><trkpt lat="45.2947833" lon="8.624083"><ele>117.19999999999999</ele><time>2026-04-18T15:45:20.99Z</time></trkpt><trkpt lat="45.2947061" lon="8.6240418"><ele>117.39999999999999</ele><time>2026-04-18T15:45:21.991Z</time></trkpt><trkpt lat="45.2946259" lon="8.6240025"><ele>117.60000000000001</ele><time>2026-04-18T15:45:22.991Z</time></trkpt><trkpt lat="45.2945429" lon="8.6239627"><ele>117.80000000000001</ele><time>2026-04-18T15:45:23.991Z</time></trkpt><trkpt lat="45.2944489" lon="8.6239219"><ele>118.0</ele><time>2026-04-18T15:45:24.99Z</time></trkpt><trkpt lat="45.294354" lon="8.6238811"><ele>118.0</ele><time>2026-04-18T15:45:25.99Z</time></trkpt><trkpt lat="45.2942576" lon="8.6238412"><ele>118.00000000000001</ele><time>2026-04-18T15:45:26.991Z</time></trkpt><trkpt lat="45.2941612" lon="8.6238016"><ele>118.00000000000001</ele><time>2026-04-18T15:45:27.991Z</time></trkpt><trkpt lat="45.2940641" lon="8.6237619"><ele>118.0</ele><time>2026-04-18T15:45:28.991Z</time></trkpt><trkpt lat="45.2939582" lon="8.6237192"><ele>118.0</ele><time>2026-04-18T15:45:29.991Z</time></trkpt><trkpt lat="45.2938533" lon="8.6236752"><ele>118.0</ele><time>2026-04-18T15:45:30.991Z</time></trkpt><trkpt lat="45.2937507" lon="8.623631"><ele>118.00000000000001</ele><time>2026-04-18T15:45:31.991Z</time></trkpt><trkpt lat="45.2936488" lon="8.6235895"><ele>118.00000000000001</ele><time>2026-04-18T15:45:32.99Z</time></trkpt><trkpt lat="45.2935476" lon="8.6235466"><ele>118.0</ele><time>2026-04-18T15:45:33.991Z</time></trkpt><trkpt lat="45.2934449" lon="8.6235065"><ele>118.0</ele><time>2026-04-18T15:45:34.991Z</time></trkpt><trkpt lat="45.2933459" lon="8.6234644"><ele>118.0</ele><time>2026-04-18T15:45:35.991Z</time></trkpt><trkpt lat="45.29325" lon="8.6234196"><ele>118.00000000000001</ele><time>2026-04-18T15:45:36.991Z</time></trkpt><trkpt lat="45.2931526" lon="8.6233779"><ele>118.00000000000001</ele><time>2026-04-18T15:45:37.991Z</time></trkpt><trkpt lat="45.2930501" lon="8.6233335"><ele>118.0</ele><time>2026-04-18T15:45:38.99Z</time></trkpt><trkpt lat="45.2929489" lon="8.6232921"><ele>118.0</ele><time>2026-04-18T15:45:39.99Z</time></trkpt><trkpt lat="45.2928499" lon="8.6232492"><ele>117.60000000000001</ele><time>2026-04-18T15:45:40.991Z</time></trkpt><trkpt lat="45.2927489" lon="8.6232082"><ele>117.20000000000002</ele><time>2026-04-18T15:45:41.991Z</time></trkpt><trkpt lat="45.2926546" lon="8.6231662"><ele>116.8</ele><time>2026-04-18T15:45:42.991Z</time></trkpt><trkpt lat="45.2925601" lon="8.623124"><ele>116.4</ele><time>2026-04-18T15:45:43.991Z</time></trkpt><trkpt lat="45.2924649" lon="8.6230796"><ele>116.0</ele><time>2026-04-18T15:45:44.991Z</time></trkpt><trkpt lat="45.2923681" lon="8.6230357"><ele>116.0</ele><time>2026-04-18T15:45:45.991Z</time></trkpt><trkpt lat="45.2922777" lon="8.6229834"><ele>116.0</ele><time>2026-04-18T15:45:46.991Z</time></trkpt><trkpt lat="45.2921856" lon="8.6229258"><ele>116.0</ele><time>2026-04-18T15:45:47.991Z</time></trkpt><trkpt lat="45.2920952" lon="8.6228682"><ele>116.0</ele><time>2026-04-18T15:45:48.991Z</time></trkpt><trkpt lat="45.2920111" lon="8.6228119"><ele>116.0</ele><time>2026-04-18T15:45:49.991Z</time></trkpt><trkpt lat="45.2919348" lon="8.6227614"><ele>115.99999999999999</ele><time>2026-04-18T15:45:50.991Z</time></trkpt><trkpt lat="45.2918695" lon="8.6227174"><ele>116.0</ele><time>2026-04-18T15:45:51.991Z</time></trkpt><trkpt lat="45.2918093" lon="8.6226769"><ele>116.0</ele><time>2026-04-18T15:45:52.991Z</time></trkpt><trkpt lat="45.2917271" lon="8.6225811"><ele>116.0</ele><time>2026-04-18T15:45:54.99Z</time></trkpt><trkpt lat="45.2917183" lon="8.6224403"><ele>115.99999999999999</ele><time>2026-04-18T15:45:56.991Z</time></trkpt><trkpt lat="45.2917315" lon="8.6223411"><ele>116.0</ele><time>2026-04-18T15:45:57.99Z</time></trkpt><trkpt lat="45.2917488" lon="8.6222243"><ele>116.0</ele><time>2026-04-18T15:45:58.991Z</time></trkpt><trkpt lat="45.2917633" lon="8.6221113"><ele>116.0</ele><time>2026-04-18T15:45:59.99Z</time></trkpt><trkpt lat="45.2917716" lon="8.622004"><ele>116.0</ele><time>2026-04-18T15:46:00.991Z</time></trkpt><trkpt lat="45.2917795" lon="8.6219087"><ele>116.0</ele><time>2026-04-18T15:46:01.991Z</time></trkpt><trkpt lat="45.2917625" lon="8.6217428"><ele>116.0</ele><time>2026-04-18T15:46:03.991Z</time></trkpt><trkpt lat="45.2916948" lon="8.6216211"><ele>115.99999999999999</ele><time>2026-04-18T15:46:05.991Z</time></trkpt><trkpt lat="45.2916385" lon="8.6215808"><ele>116.0</ele><time>2026-04-18T15:46:06.991Z</time></trkpt><trkpt lat="45.2915664" lon="8.6215499"><ele>116.0</ele><time>2026-04-18T15:46:07.99Z</time></trkpt><trkpt lat="45.2914818" lon="8.6215238"><ele>116.0</ele><time>2026-04-18T15:46:08.991Z</time></trkpt><trkpt lat="45.2913885" lon="8.6214961"><ele>115.99999999999999</ele><time>2026-04-18T15:46:09.991Z</time></trkpt><trkpt lat="45.2912865" lon="8.621469"><ele>116.0</ele><time>2026-04-18T15:46:10.991Z</time></trkpt><trkpt lat="45.291183" lon="8.6214356"><ele>116.0</ele><time>2026-04-18T15:46:11.991Z</time></trkpt><trkpt lat="45.2910803" lon="8.6214031"><ele>116.0</ele><time>2026-04-18T15:46:12.991Z</time></trkpt><trkpt lat="45.2909797" lon="8.6213709"><ele>116.0</ele><time>2026-04-18T15:46:13.99Z</time></trkpt><trkpt lat="45.290876" lon="8.6213417"><ele>116.0</ele><time>2026-04-18T15:46:14.991Z</time></trkpt><trkpt lat="45.2907764" lon="8.6213192"><ele>116.0</ele><time>2026-04-18T15:46:15.99Z</time></trkpt><trkpt lat="45.2906751" lon="8.6212981"><ele>116.0</ele><time>2026-04-18T15:46:16.99Z</time></trkpt><trkpt lat="45.2905726" lon="8.6212694"><ele>116.0</ele><time>2026-04-18T15:46:17.991Z</time></trkpt><trkpt lat="45.2904689" lon="8.6212406"><ele>116.0</ele><time>2026-04-18T15:46:18.991Z</time></trkpt><trkpt lat="45.2903567" lon="8.6212127"><ele>116.0</ele><time>2026-04-18T15:46:19.99Z</time></trkpt><trkpt lat="45.2902428" lon="8.6211839"><ele>116.0</ele><time>2026-04-18T15:46:20.99Z</time></trkpt><trkpt lat="45.2901267" lon="8.6211589"><ele>116.19999999999999</ele><time>2026-04-18T15:46:21.991Z</time></trkpt><trkpt lat="45.2900101" lon="8.6211332"><ele>116.39999999999999</ele><time>2026-04-18T15:46:22.99Z</time></trkpt><trkpt lat="45.2899049" lon="8.6211083"><ele>116.6</ele><time>2026-04-18T15:46:23.991Z</time></trkpt><trkpt lat="45.2898089" lon="8.6210853"><ele>116.8</ele><time>2026-04-18T15:46:24.991Z</time></trkpt><trkpt lat="45.2897227" lon="8.621067"><ele>117.0</ele><time>2026-04-18T15:46:25.991Z</time></trkpt><trkpt lat="45.2896488" lon="8.6210494"><ele>117.0</ele><time>2026-04-18T15:46:26.991Z</time></trkpt><trkpt lat="45.2895477" lon="8.6210151"><ele>116.99999999999999</ele><time>2026-04-18T15:46:28.991Z</time></trkpt><trkpt lat="45.2894854" lon="8.6209282"><ele>116.99999999999999</ele><time>2026-04-18T15:46:31.99Z</time></trkpt><trkpt lat="45.2895193" lon="8.620823"><ele>117.0</ele><time>2026-04-18T15:46:33.99Z</time></trkpt><trkpt lat="45.2895979" lon="8.6206734"><ele>117.0</ele><time>2026-04-18T15:46:35.991Z</time></trkpt><trkpt lat="45.2896484" lon="8.6205628"><ele>117.0</ele><time>2026-04-18T15:46:36.991Z</time></trkpt><trkpt lat="45.2896947" lon="8.62043"><ele>117.0</ele><time>2026-04-18T15:46:37.99Z</time></trkpt><trkpt lat="45.2897387" lon="8.620277"><ele>117.0</ele><time>2026-04-18T15:46:38.991Z</time></trkpt><trkpt lat="45.2897748" lon="8.620112"><ele>117.0</ele><time>2026-04-18T15:46:39.991Z</time></trkpt><trkpt lat="45.2898047" lon="8.6199372"><ele>117.0</ele><time>2026-04-18T15:46:40.99Z</time></trkpt><trkpt lat="45.2898282" lon="8.6197579"><ele>117.0</ele><time>2026-04-18T15:46:41.991Z</time></trkpt><trkpt lat="45.2898496" lon="8.6195704"><ele>117.0</ele><time>2026-04-18T15:46:42.991Z</time></trkpt><trkpt lat="45.2898718" lon="8.6193742"><ele>117.0</ele><time>2026-04-18T15:46:43.99Z</time></trkpt><trkpt lat="45.289899" lon="8.6191681"><ele>117.0</ele><time>2026-04-18T15:46:44.991Z</time></trkpt><trkpt lat="45.2899366" lon="8.6189637"><ele>117.0</ele><time>2026-04-18T15:46:45.99Z</time></trkpt><trkpt lat="45.2899901" lon="8.6187523"><ele>117.0</ele><time>2026-04-18T15:46:46.991Z</time></trkpt><trkpt lat="45.2900548" lon="8.6185425"><ele>116.66666666666666</ele><time>2026-04-18T15:46:47.991Z</time></trkpt><trkpt lat="45.2901342" lon="8.6183349"><ele>116.33333333333333</ele><time>2026-04-18T15:46:48.99Z</time></trkpt><trkpt lat="45.2902311" lon="8.6181303"><ele>116.0</ele><time>2026-04-18T15:46:49.99Z</time></trkpt><trkpt lat="45.29034" lon="8.6179338"><ele>116.0</ele><time>2026-04-18T15:46:50.991Z</time></trkpt><trkpt lat="45.2904572" lon="8.6177417"><ele>116.0</ele><time>2026-04-18T15:46:51.99Z</time></trkpt><trkpt lat="45.2905777" lon="8.6175478"><ele>116.0</ele><time>2026-04-18T15:46:52.991Z</time></trkpt><trkpt lat="45.2907024" lon="8.617344"><ele>116.0</ele><time>2026-04-18T15:46:53.991Z</time></trkpt><trkpt lat="45.2908282" lon="8.6171256"><ele>116.0</ele><time>2026-04-18T15:46:54.991Z</time></trkpt><trkpt lat="45.2909427" lon="8.6168983"><ele>116.0</ele><time>2026-04-18T15:46:55.991Z</time></trkpt><trkpt lat="45.2910348" lon="8.616661"><ele>116.0</ele><time>2026-04-18T15:46:56.991Z</time></trkpt><trkpt lat="45.2910996" lon="8.6164136"><ele>116.0</ele><time>2026-04-18T15:46:57.991Z</time></trkpt><trkpt lat="45.2911449" lon="8.6161547"><ele>116.0</ele><time>2026-04-18T15:46:58.991Z</time></trkpt><trkpt lat="45.2911692" lon="8.6158846"><ele>116.0</ele><time>2026-04-18T15:46:59.991Z</time></trkpt><trkpt lat="45.291173" lon="8.615609"><ele>116.0</ele><time>2026-04-18T15:47:00.99Z</time></trkpt><trkpt lat="45.2911497" lon="8.6153193"><ele>116.0</ele><time>2026-04-18T15:47:01.99Z</time></trkpt><trkpt lat="45.2911019" lon="8.6150277"><ele>116.5</ele><time>2026-04-18T15:47:02.991Z</time></trkpt><trkpt lat="45.29104" lon="8.6147259"><ele>117.0</ele><time>2026-04-18T15:47:03.991Z</time></trkpt><trkpt lat="45.290972" lon="8.614416"><ele>117.0</ele><time>2026-04-18T15:47:04.99Z</time></trkpt><trkpt lat="45.2909022" lon="8.6141027"><ele>117.0</ele><time>2026-04-18T15:47:05.991Z</time></trkpt><trkpt lat="45.2908363" lon="8.6137831"><ele>116.0</ele><time>2026-04-18T15:47:06.99Z</time></trkpt><trkpt lat="45.2907733" lon="8.61346"><ele>115.0</ele><time>2026-04-18T15:47:07.99Z</time></trkpt><trkpt lat="45.2907111" lon="8.6131517"><ele>115.0</ele><time>2026-04-18T15:47:08.991Z</time></trkpt><trkpt lat="45.2906561" lon="8.6128631"><ele>115.0</ele><time>2026-04-18T15:47:09.991Z</time></trkpt><trkpt lat="45.2906021" lon="8.6125921"><ele>115.0</ele><time>2026-04-18T15:47:10.991Z</time></trkpt><trkpt lat="45.2905513" lon="8.6123484"><ele>115.0</ele><time>2026-04-18T15:47:11.99Z</time></trkpt><trkpt lat="45.2905044" lon="8.6121342"><ele>115.0</ele><time>2026-04-18T15:47:12.991Z</time></trkpt><trkpt lat="45.2904607" lon="8.6119364"><ele>115.0</ele><time>2026-04-18T15:47:13.991Z</time></trkpt><trkpt lat="45.2904141" lon="8.6117276"><ele>115.33333333333334</ele><time>2026-04-18T15:47:14.99Z</time></trkpt><trkpt lat="45.2903623" lon="8.6115045"><ele>115.66666666666666</ele><time>2026-04-18T15:47:15.99Z</time></trkpt><trkpt lat="45.2903107" lon="8.611265"><ele>116.0</ele><time>2026-04-18T15:47:16.991Z</time></trkpt><trkpt lat="45.2902634" lon="8.6110247"><ele>116.33333333333333</ele><time>2026-04-18T15:47:17.991Z</time></trkpt><trkpt lat="45.2902152" lon="8.6107972"><ele>116.66666666666666</ele><time>2026-04-18T15:47:18.991Z</time></trkpt><trkpt lat="45.2901688" lon="8.610587"><ele>117.0</ele><time>2026-04-18T15:47:19.991Z</time></trkpt><trkpt lat="45.2901166" lon="8.6103634"><ele>117.0</ele><time>2026-04-18T15:47:20.991Z</time></trkpt><trkpt lat="45.2900705" lon="8.6101202"><ele>117.0</ele><time>2026-04-18T15:47:21.99Z</time></trkpt><trkpt lat="45.2900312" lon="8.6098757"><ele>117.0</ele><time>2026-04-18T15:47:22.991Z</time></trkpt><trkpt lat="45.2899926" lon="8.6096416"><ele>117.66666666666666</ele><time>2026-04-18T15:47:23.99Z</time></trkpt><trkpt lat="45.2899428" lon="8.6094087"><ele>118.33333333333333</ele><time>2026-04-18T15:47:24.991Z</time></trkpt><trkpt lat="45.2898976" lon="8.609182"><ele>119.0</ele><time>2026-04-18T15:47:25.991Z</time></trkpt><trkpt lat="45.2898516" lon="8.6089552"><ele>119.0</ele><time>2026-04-18T15:47:26.991Z</time></trkpt><trkpt lat="45.2898052" lon="8.608725"><ele>119.0</ele><time>2026-04-18T15:47:27.991Z</time></trkpt><trkpt lat="45.2897595" lon="8.6084983"><ele>119.0</ele><time>2026-04-18T15:47:28.991Z</time></trkpt><trkpt lat="45.2897098" lon="8.6082711"><ele>119.0</ele><time>2026-04-18T15:47:29.991Z</time></trkpt><trkpt lat="45.2896578" lon="8.6080431"><ele>119.0</ele><time>2026-04-18T15:47:30.99Z</time></trkpt><trkpt lat="45.289608" lon="8.6078201"><ele>119.0</ele><time>2026-04-18T15:47:31.991Z</time></trkpt><trkpt lat="45.2895613" lon="8.6076096"><ele>119.0</ele><time>2026-04-18T15:47:32.991Z</time></trkpt><trkpt lat="45.2895139" lon="8.6074001"><ele>119.0</ele><time>2026-04-18T15:47:33.991Z</time></trkpt><trkpt lat="45.2894695" lon="8.6071921"><ele>119.0</ele><time>2026-04-18T15:47:34.991Z</time></trkpt><trkpt lat="45.2894323" lon="8.6069986"><ele>119.0</ele><time>2026-04-18T15:47:35.99Z</time></trkpt><trkpt lat="45.2893984" lon="8.6068267"><ele>119.0</ele><time>2026-04-18T15:47:36.99Z</time></trkpt><trkpt lat="45.2893711" lon="8.6066652"><ele>119.0</ele><time>2026-04-18T15:47:37.99Z</time></trkpt><trkpt lat="45.2893413" lon="8.6065037"><ele>119.0</ele><time>2026-04-18T15:47:38.991Z</time></trkpt><trkpt lat="45.289317" lon="8.6063684"><ele>119.0</ele><time>2026-04-18T15:47:39.991Z</time></trkpt><trkpt lat="45.2892995" lon="8.6062515"><ele>119.0</ele><time>2026-04-18T15:47:40.99Z</time></trkpt><trkpt lat="45.2892552" lon="8.6061311"><ele>119.0</ele><time>2026-04-18T15:47:42.99Z</time></trkpt><trkpt lat="45.2891609" lon="8.6061931"><ele>119.0</ele><time>2026-04-18T15:47:45.991Z</time></trkpt><trkpt lat="45.2890963" lon="8.6062623"><ele>119.0</ele><time>2026-04-18T15:47:46.991Z</time></trkpt><trkpt lat="45.2890149" lon="8.6063451"><ele>119.0</ele><time>2026-04-18T15:47:47.991Z</time></trkpt><trkpt lat="45.2889115" lon="8.6064276"><ele>119.0</ele><time>2026-04-18T15:47:48.991Z</time></trkpt><trkpt lat="45.288797" lon="8.6065061"><ele>119.0</ele><time>2026-04-18T15:47:49.99Z</time></trkpt><trkpt lat="45.2886689" lon="8.6065746"><ele>119.0</ele><time>2026-04-18T15:47:50.991Z</time></trkpt><trkpt lat="45.2885409" lon="8.6066374"><ele>119.0</ele><time>2026-04-18T15:47:51.991Z</time></trkpt><trkpt lat="45.2884187" lon="8.6066942"><ele>119.0</ele><time>2026-04-18T15:47:52.991Z</time></trkpt><trkpt lat="45.2883024" lon="8.6067522"><ele>119.0</ele><time>2026-04-18T15:47:53.99Z</time></trkpt><trkpt lat="45.2881929" lon="8.6068159"><ele>119.0</ele><time>2026-04-18T15:47:54.99Z</time></trkpt><trkpt lat="45.2880814" lon="8.6068905"><ele>119.0</ele><time>2026-04-18T15:47:55.991Z</time></trkpt><trkpt lat="45.2879807" lon="8.6069777"><ele>119.0</ele><time>2026-04-18T15:47:56.991Z</time></trkpt><trkpt lat="45.2878835" lon="8.6070627"><ele>118.6</ele><time>2026-04-18T15:47:57.991Z</time></trkpt><trkpt lat="45.2877941" lon="8.6071487"><ele>118.2</ele><time>2026-04-18T15:47:58.991Z</time></trkpt><trkpt lat="45.2877112" lon="8.607227"><ele>117.79999999999998</ele><time>2026-04-18T15:47:59.991Z</time></trkpt><trkpt lat="45.2876355" lon="8.6073053"><ele>117.39999999999999</ele><time>2026-04-18T15:48:00.991Z</time></trkpt><trkpt lat="45.2875655" lon="8.6073817"><ele>117.0</ele><time>2026-04-18T15:48:01.991Z</time></trkpt><trkpt lat="45.2874894" lon="8.6074561"><ele>117.0</ele><time>2026-04-18T15:48:02.99Z</time></trkpt><trkpt lat="45.2874081" lon="8.6075339"><ele>116.99999999999999</ele><time>2026-04-18T15:48:03.991Z</time></trkpt><trkpt lat="45.2873212" lon="8.6076079"><ele>116.99999999999999</ele><time>2026-04-18T15:48:04.991Z</time></trkpt><trkpt lat="45.2872281" lon="8.6076776"><ele>117.0</ele><time>2026-04-18T15:48:05.99Z</time></trkpt><trkpt lat="45.2871285" lon="8.6077519"><ele>117.0</ele><time>2026-04-18T15:48:06.991Z</time></trkpt><trkpt lat="45.2870264" lon="8.6078271"><ele>117.19999999999999</ele><time>2026-04-18T15:48:07.99Z</time></trkpt><trkpt lat="45.2869316" lon="8.6078967"><ele>117.39999999999999</ele><time>2026-04-18T15:48:08.991Z</time></trkpt><trkpt lat="45.2868384" lon="8.6079592"><ele>117.60000000000001</ele><time>2026-04-18T15:48:09.991Z</time></trkpt><trkpt lat="45.2867493" lon="8.6080196"><ele>117.80000000000001</ele><time>2026-04-18T15:48:10.991Z</time></trkpt><trkpt lat="45.2866555" lon="8.6080802"><ele>118.0</ele><time>2026-04-18T15:48:11.991Z</time></trkpt><trkpt lat="45.2865608" lon="8.6081436"><ele>118.0</ele><time>2026-04-18T15:48:12.991Z</time></trkpt><trkpt lat="45.286463" lon="8.6082091"><ele>118.00000000000001</ele><time>2026-04-18T15:48:13.991Z</time></trkpt><trkpt lat="45.2863645" lon="8.6082723"><ele>118.00000000000001</ele><time>2026-04-18T15:48:14.991Z</time></trkpt><trkpt lat="45.2862706" lon="8.6083437"><ele>118.0</ele><time>2026-04-18T15:48:15.99Z</time></trkpt><trkpt lat="45.2861706" lon="8.6084115"><ele>118.0</ele><time>2026-04-18T15:48:16.991Z</time></trkpt><trkpt lat="45.2860818" lon="8.6084768"><ele>117.60000000000001</ele><time>2026-04-18T15:48:17.99Z</time></trkpt><trkpt lat="45.2860012" lon="8.6085406"><ele>117.20000000000002</ele><time>2026-04-18T15:48:18.991Z</time></trkpt><trkpt lat="45.2859221" lon="8.6086073"><ele>116.8</ele><time>2026-04-18T15:48:19.99Z</time></trkpt><trkpt lat="45.2858411" lon="8.6086751"><ele>116.4</ele><time>2026-04-18T15:48:20.991Z</time></trkpt><trkpt lat="45.2857608" lon="8.608737"><ele>116.0</ele><time>2026-04-18T15:48:21.99Z</time></trkpt><trkpt lat="45.2856782" lon="8.6087992"><ele>115.99999999999999</ele><time>2026-04-18T15:48:22.991Z</time></trkpt><trkpt lat="45.285597" lon="8.6088561"><ele>116.0</ele><time>2026-04-18T15:48:23.99Z</time></trkpt><trkpt lat="45.2855214" lon="8.6089013"><ele>116.0</ele><time>2026-04-18T15:48:24.991Z</time></trkpt><trkpt lat="45.285448" lon="8.6089423"><ele>116.0</ele><time>2026-04-18T15:48:25.991Z</time></trkpt><trkpt lat="45.2853826" lon="8.6089775"><ele>115.99999999999999</ele><time>2026-04-18T15:48:26.991Z</time></trkpt><trkpt lat="45.2853201" lon="8.6090078"><ele>116.0</ele><time>2026-04-18T15:48:27.991Z</time></trkpt><trkpt lat="45.2852559" lon="8.6090314"><ele>116.0</ele><time>2026-04-18T15:48:28.99Z</time></trkpt><trkpt lat="45.2851385" lon="8.6090496"><ele>116.0</ele><time>2026-04-18T15:48:30.991Z</time></trkpt><trkpt lat="45.2850475" lon="8.6090447"><ele>116.0</ele><time>2026-04-18T15:48:32.99Z</time></trkpt><trkpt lat="45.2849576" lon="8.6090798"><ele>116.0</ele><time>2026-04-18T15:48:34.99Z</time></trkpt><trkpt lat="45.2848646" lon="8.6092232"><ele>116.0</ele><time>2026-04-18T15:48:36.99Z</time></trkpt><trkpt lat="45.2848107" lon="8.6093426"><ele>115.75</ele><time>2026-04-18T15:48:37.99Z</time></trkpt><trkpt lat="45.2847439" lon="8.6094807"><ele>115.5</ele><time>2026-04-18T15:48:38.99Z</time></trkpt><trkpt lat="45.2846742" lon="8.6096388"><ele>115.25</ele><time>2026-04-18T15:48:39.991Z</time></trkpt><trkpt lat="45.2845955" lon="8.6098051"><ele>115.0</ele><time>2026-04-18T15:48:40.99Z</time></trkpt><trkpt lat="45.2845197" lon="8.609977"><ele>114.75</ele><time>2026-04-18T15:48:41.991Z</time></trkpt><trkpt lat="45.2844421" lon="8.6101581"><ele>114.5</ele><time>2026-04-18T15:48:42.991Z</time></trkpt><trkpt lat="45.2843709" lon="8.6103154"><ele>114.25</ele><time>2026-04-18T15:48:43.99Z</time></trkpt><trkpt lat="45.2843051" lon="8.6104637"><ele>114.0</ele><time>2026-04-18T15:48:44.991Z</time></trkpt><trkpt lat="45.2842436" lon="8.610601"><ele>114.4</ele><time>2026-04-18T15:48:45.991Z</time></trkpt><trkpt lat="45.2841886" lon="8.610725"><ele>114.80000000000001</ele><time>2026-04-18T15:48:46.991Z</time></trkpt><trkpt lat="45.2841325" lon="8.6108525"><ele>115.19999999999999</ele><time>2026-04-18T15:48:47.99Z</time></trkpt><trkpt lat="45.2840755" lon="8.6109883"><ele>115.6</ele><time>2026-04-18T15:48:48.991Z</time></trkpt><trkpt lat="45.2840152" lon="8.6111365"><ele>116.0</ele><time>2026-04-18T15:48:49.991Z</time></trkpt><trkpt lat="45.2839465" lon="8.6112814"><ele>116.0</ele><time>2026-04-18T15:48:50.991Z</time></trkpt><trkpt lat="45.2838732" lon="8.6114401"><ele>116.0</ele><time>2026-04-18T15:48:51.991Z</time></trkpt><trkpt lat="45.2837949" lon="8.6116031"><ele>116.0</ele><time>2026-04-18T15:48:52.991Z</time></trkpt><trkpt lat="45.2837137" lon="8.6117604"><ele>116.0</ele><time>2026-04-18T15:48:53.991Z</time></trkpt><trkpt lat="45.2836424" lon="8.6119112"><ele>116.0</ele><time>2026-04-18T15:48:54.99Z</time></trkpt><trkpt lat="45.2835746" lon="8.6120583"><ele>116.0</ele><time>2026-04-18T15:48:55.991Z</time></trkpt><trkpt lat="45.2835024" lon="8.6122026"><ele>116.0</ele><time>2026-04-18T15:48:56.99Z</time></trkpt><trkpt lat="45.283431" lon="8.6123484"><ele>116.0</ele><time>2026-04-18T15:48:57.99Z</time></trkpt><trkpt lat="45.2833577" lon="8.6124953"><ele>116.0</ele><time>2026-04-18T15:48:58.991Z</time></trkpt><trkpt lat="45.2832875" lon="8.612645"><ele>116.0</ele><time>2026-04-18T15:48:59.991Z</time></trkpt><trkpt lat="45.2832156" lon="8.612801"><ele>116.0</ele><time>2026-04-18T15:49:00.991Z</time></trkpt><trkpt lat="45.2831468" lon="8.6129536"><ele>116.0</ele><time>2026-04-18T15:49:01.99Z</time></trkpt><trkpt lat="45.2830881" lon="8.6130923"><ele>116.0</ele><time>2026-04-18T15:49:02.991Z</time></trkpt><trkpt lat="45.2830336" lon="8.6132249"><ele>116.0</ele><time>2026-04-18T15:49:03.991Z</time></trkpt><trkpt lat="45.282987" lon="8.613341"><ele>116.0</ele><time>2026-04-18T15:49:04.991Z</time></trkpt><trkpt lat="45.2829436" lon="8.6134532"><ele>116.0</ele><time>2026-04-18T15:49:05.991Z</time></trkpt><trkpt lat="45.2829104" lon="8.6135834"><ele>116.0</ele><time>2026-04-18T15:49:06.99Z</time></trkpt><trkpt lat="45.2828968" lon="8.6137313"><ele>116.0</ele><time>2026-04-18T15:49:07.99Z</time></trkpt><trkpt lat="45.2828955" lon="8.6138994"><ele>116.0</ele><time>2026-04-18T15:49:08.99Z</time></trkpt><trkpt lat="45.2828989" lon="8.614073"><ele>116.0</ele><time>2026-04-18T15:49:09.991Z</time></trkpt><trkpt lat="45.2829001" lon="8.6142451"><ele>116.0</ele><time>2026-04-18T15:49:10.99Z</time></trkpt><trkpt lat="45.2829009" lon="8.6144187"><ele>116.0</ele><time>2026-04-18T15:49:11.991Z</time></trkpt><trkpt lat="45.2829042" lon="8.6145904"><ele>116.0</ele><time>2026-04-18T15:49:12.991Z</time></trkpt><trkpt lat="45.2829147" lon="8.6147616"><ele>116.0</ele><time>2026-04-18T15:49:13.991Z</time></trkpt><trkpt lat="45.2829396" lon="8.6149254"><ele>116.0</ele><time>2026-04-18T15:49:14.991Z</time></trkpt><trkpt lat="45.2830005" lon="8.6150737"><ele>116.0</ele><time>2026-04-18T15:49:15.991Z</time></trkpt><trkpt lat="45.2830899" lon="8.6151976"><ele>116.0</ele><time>2026-04-18T15:49:16.991Z</time></trkpt><trkpt lat="45.283201" lon="8.6152935"><ele>116.0</ele><time>2026-04-18T15:49:17.99Z</time></trkpt><trkpt lat="45.2833079" lon="8.6154076"><ele>116.0</ele><time>2026-04-18T15:49:18.99Z</time></trkpt><trkpt lat="45.2833999" lon="8.6155692"><ele>116.0</ele><time>2026-04-18T15:49:19.99Z</time></trkpt><trkpt lat="45.2834839" lon="8.6157452"><ele>116.0</ele><time>2026-04-18T15:49:20.99Z</time></trkpt><trkpt lat="45.283558" lon="8.6159348"><ele>116.0</ele><time>2026-04-18T15:49:21.991Z</time></trkpt><trkpt lat="45.2836228" lon="8.6161344"><ele>116.0</ele><time>2026-04-18T15:49:22.99Z</time></trkpt><trkpt lat="45.2836837" lon="8.6163353"><ele>116.0</ele><time>2026-04-18T15:49:23.99Z</time></trkpt><trkpt lat="45.2837392" lon="8.6165417"><ele>116.0</ele><time>2026-04-18T15:49:24.991Z</time></trkpt><trkpt lat="45.2837894" lon="8.6167558"><ele>116.0</ele><time>2026-04-18T15:49:25.991Z</time></trkpt><trkpt lat="45.2838197" lon="8.6169751"><ele>116.0</ele><time>2026-04-18T15:49:26.991Z</time></trkpt><trkpt lat="45.2838399" lon="8.6171931"><ele>116.0</ele><time>2026-04-18T15:49:27.991Z</time></trkpt><trkpt lat="45.2838494" lon="8.6173952"><ele>115.75</ele><time>2026-04-18T15:49:28.991Z</time></trkpt><trkpt lat="45.2838499" lon="8.617593"><ele>115.5</ele><time>2026-04-18T15:49:29.99Z</time></trkpt><trkpt lat="45.2838331" lon="8.6177983"><ele>115.25</ele><time>2026-04-18T15:49:30.99Z</time></trkpt><trkpt lat="45.2837962" lon="8.618007"><ele>115.0</ele><time>2026-04-18T15:49:31.99Z</time></trkpt><trkpt lat="45.2837395" lon="8.618217"><ele>115.0</ele><time>2026-04-18T15:49:32.991Z</time></trkpt><trkpt lat="45.2836755" lon="8.6184317"><ele>115.0</ele><time>2026-04-18T15:49:33.99Z</time></trkpt><trkpt lat="45.2835978" lon="8.618653"><ele>115.0</ele><time>2026-04-18T15:49:34.991Z</time></trkpt><trkpt lat="45.2835196" lon="8.6188793"><ele>115.0</ele><time>2026-04-18T15:49:35.991Z</time></trkpt><trkpt lat="45.2834498" lon="8.6191094"><ele>115.0</ele><time>2026-04-18T15:49:36.991Z</time></trkpt><trkpt lat="45.2833865" lon="8.6193433"><ele>115.0</ele><time>2026-04-18T15:49:37.99Z</time></trkpt><trkpt lat="45.2833336" lon="8.6195769"><ele>115.25</ele><time>2026-04-18T15:49:38.991Z</time></trkpt><trkpt lat="45.2832876" lon="8.6197985"><ele>115.5</ele><time>2026-04-18T15:49:39.991Z</time></trkpt><trkpt lat="45.2832463" lon="8.6199948"><ele>115.75</ele><time>2026-04-18T15:49:40.991Z</time></trkpt><trkpt lat="45.2832125" lon="8.6201558"><ele>116.0</ele><time>2026-04-18T15:49:41.991Z</time></trkpt><trkpt lat="45.283186" lon="8.6202898"><ele>115.99999999999999</ele><time>2026-04-18T15:49:42.991Z</time></trkpt><trkpt lat="45.2831665" lon="8.6204035"><ele>116.0</ele><time>2026-04-18T15:49:43.99Z</time></trkpt><trkpt lat="45.2831387" lon="8.6205136"><ele>116.0</ele><time>2026-04-18T15:49:44.991Z</time></trkpt><trkpt lat="45.2831007" lon="8.620625"><ele>116.0</ele><time>2026-04-18T15:49:45.991Z</time></trkpt><trkpt lat="45.2830482" lon="8.6207378"><ele>115.99999999999999</ele><time>2026-04-18T15:49:46.991Z</time></trkpt><trkpt lat="45.2829943" lon="8.6208555"><ele>116.0</ele><time>2026-04-18T15:49:47.99Z</time></trkpt><trkpt lat="45.2829329" lon="8.6209915"><ele>116.0</ele><time>2026-04-18T15:49:48.99Z</time></trkpt><trkpt lat="45.282863" lon="8.6211404"><ele>116.0</ele><time>2026-04-18T15:49:49.99Z</time></trkpt><trkpt lat="45.282799" lon="8.6212942"><ele>116.0</ele><time>2026-04-18T15:49:50.99Z</time></trkpt><trkpt lat="45.2827326" lon="8.6214425"><ele>116.0</ele><time>2026-04-18T15:49:51.991Z</time></trkpt><trkpt lat="45.2826659" lon="8.6215833"><ele>115.8</ele><time>2026-04-18T15:49:52.99Z</time></trkpt><trkpt lat="45.2826057" lon="8.6217153"><ele>115.6</ele><time>2026-04-18T15:49:53.991Z</time></trkpt><trkpt lat="45.2825536" lon="8.6218428"><ele>115.4</ele><time>2026-04-18T15:49:54.99Z</time></trkpt><trkpt lat="45.2825052" lon="8.6219682"><ele>115.2</ele><time>2026-04-18T15:49:55.99Z</time></trkpt><trkpt lat="45.282458" lon="8.6220857"><ele>115.0</ele><time>2026-04-18T15:49:56.991Z</time></trkpt><trkpt lat="45.2824206" lon="8.6222117"><ele>115.0</ele><time>2026-04-18T15:49:57.991Z</time></trkpt><trkpt lat="45.2823957" lon="8.6223434"><ele>115.0</ele><time>2026-04-18T15:49:58.99Z</time></trkpt><trkpt lat="45.2823757" lon="8.6224875"><ele>115.0</ele><time>2026-04-18T15:49:59.991Z</time></trkpt><trkpt lat="45.2823591" lon="8.6226333"><ele>115.0</ele><time>2026-04-18T15:50:00.991Z</time></trkpt><trkpt lat="45.2823494" lon="8.6227858"><ele>115.0</ele><time>2026-04-18T15:50:01.99Z</time></trkpt><trkpt lat="45.2823383" lon="8.6229422"><ele>115.0</ele><time>2026-04-18T15:50:02.991Z</time></trkpt><trkpt lat="45.2823216" lon="8.6230976"><ele>115.0</ele><time>2026-04-18T15:50:03.99Z</time></trkpt><trkpt lat="45.2822995" lon="8.6232467"><ele>115.0</ele><time>2026-04-18T15:50:04.99Z</time></trkpt><trkpt lat="45.2822688" lon="8.6233924"><ele>115.0</ele><time>2026-04-18T15:50:05.99Z</time></trkpt><trkpt lat="45.2822257" lon="8.6235269"><ele>115.0</ele><time>2026-04-18T15:50:06.99Z</time></trkpt><trkpt lat="45.2821784" lon="8.6236617"><ele>114.8</ele><time>2026-04-18T15:50:07.991Z</time></trkpt><trkpt lat="45.2821301" lon="8.6237994"><ele>114.6</ele><time>2026-04-18T15:50:08.99Z</time></trkpt><trkpt lat="45.2820852" lon="8.6239361"><ele>114.4</ele><time>2026-04-18T15:50:09.991Z</time></trkpt><trkpt lat="45.28204" lon="8.6240765"><ele>114.2</ele><time>2026-04-18T15:50:10.991Z</time></trkpt><trkpt lat="45.2819959" lon="8.6242231"><ele>114.0</ele><time>2026-04-18T15:50:11.991Z</time></trkpt><trkpt lat="45.2819556" lon="8.6243697"><ele>114.0</ele><time>2026-04-18T15:50:12.991Z</time></trkpt><trkpt lat="45.2819154" lon="8.6245179"><ele>114.0</ele><time>2026-04-18T15:50:13.99Z</time></trkpt><trkpt lat="45.2818753" lon="8.6246697"><ele>114.0</ele><time>2026-04-18T15:50:14.991Z</time></trkpt><trkpt lat="45.281835" lon="8.624823"><ele>114.0</ele><time>2026-04-18T15:50:15.99Z</time></trkpt><trkpt lat="45.281795" lon="8.6249816"><ele>114.0</ele><time>2026-04-18T15:50:16.991Z</time></trkpt><trkpt lat="45.281755" lon="8.6251408"><ele>114.0</ele><time>2026-04-18T15:50:17.991Z</time></trkpt><trkpt lat="45.2817217" lon="8.6252844"><ele>114.0</ele><time>2026-04-18T15:50:18.991Z</time></trkpt><trkpt lat="45.2816806" lon="8.6254425"><ele>114.0</ele><time>2026-04-18T15:50:19.99Z</time></trkpt><trkpt lat="45.2816422" lon="8.625602"><ele>114.0</ele><time>2026-04-18T15:50:20.991Z</time></trkpt><trkpt lat="45.2816028" lon="8.6257593"><ele>114.0</ele><time>2026-04-18T15:50:21.99Z</time></trkpt><trkpt lat="45.2815594" lon="8.6259199"><ele>114.0</ele><time>2026-04-18T15:50:22.99Z</time></trkpt><trkpt lat="45.2815164" lon="8.626078"><ele>114.0</ele><time>2026-04-18T15:50:23.991Z</time></trkpt><trkpt lat="45.2814746" lon="8.6262383"><ele>114.25</ele><time>2026-04-18T15:50:24.991Z</time></trkpt><trkpt lat="45.2814313" lon="8.6263957"><ele>114.5</ele><time>2026-04-18T15:50:25.991Z</time></trkpt><trkpt lat="45.2813864" lon="8.6265509"><ele>114.75</ele><time>2026-04-18T15:50:26.991Z</time></trkpt><trkpt lat="45.2813471" lon="8.6267088"><ele>115.0</ele><time>2026-04-18T15:50:27.99Z</time></trkpt><trkpt lat="45.2813071" lon="8.6268646"><ele>115.0</ele><time>2026-04-18T15:50:28.991Z</time></trkpt><trkpt lat="45.2812658" lon="8.6270144"><ele>115.0</ele><time>2026-04-18T15:50:29.99Z</time></trkpt><trkpt lat="45.2812256" lon="8.6271652"><ele>115.0</ele><time>2026-04-18T15:50:30.99Z</time></trkpt><trkpt lat="45.2811916" lon="8.6273141"><ele>115.0</ele><time>2026-04-18T15:50:31.99Z</time></trkpt><trkpt lat="45.2811579" lon="8.6274559"><ele>115.0</ele><time>2026-04-18T15:50:32.991Z</time></trkpt><trkpt lat="45.281132" lon="8.627601"><ele>115.0</ele><time>2026-04-18T15:50:33.99Z</time></trkpt><trkpt lat="45.2811024" lon="8.6277489"><ele>115.0</ele><time>2026-04-18T15:50:34.991Z</time></trkpt><trkpt lat="45.2810707" lon="8.6278982"><ele>115.0</ele><time>2026-04-18T15:50:35.991Z</time></trkpt><trkpt lat="45.281041" lon="8.628043"><ele>115.0</ele><time>2026-04-18T15:50:36.991Z</time></trkpt><trkpt lat="45.2810172" lon="8.6281993"><ele>115.0</ele><time>2026-04-18T15:50:37.991Z</time></trkpt><trkpt lat="45.2809993" lon="8.6283512"><ele>115.0</ele><time>2026-04-18T15:50:38.99Z</time></trkpt><trkpt lat="45.2809801" lon="8.6284995"><ele>115.0</ele><time>2026-04-18T15:50:39.99Z</time></trkpt><trkpt lat="45.2809645" lon="8.6286372"><ele>115.0</ele><time>2026-04-18T15:50:40.991Z</time></trkpt><trkpt lat="45.2809463" lon="8.6287699"><ele>115.0</ele><time>2026-04-18T15:50:41.99Z</time></trkpt><trkpt lat="45.2809323" lon="8.6289062"><ele>115.0</ele><time>2026-04-18T15:50:42.99Z</time></trkpt><trkpt lat="45.2809276" lon="8.6290331"><ele>114.8</ele><time>2026-04-18T15:50:43.991Z</time></trkpt><trkpt lat="45.2809312" lon="8.62916"><ele>114.6</ele><time>2026-04-18T15:50:44.991Z</time></trkpt><trkpt lat="45.2809475" lon="8.6292856"><ele>114.4</ele><time>2026-04-18T15:50:45.991Z</time></trkpt><trkpt lat="45.280979" lon="8.6294104"><ele>114.2</ele><time>2026-04-18T15:50:46.991Z</time></trkpt><trkpt lat="45.2810194" lon="8.6295405"><ele>114.0</ele><time>2026-04-18T15:50:47.991Z</time></trkpt><trkpt lat="45.2810568" lon="8.6296763"><ele>114.0</ele><time>2026-04-18T15:50:48.991Z</time></trkpt><trkpt lat="45.2810784" lon="8.6298188"><ele>114.0</ele><time>2026-04-18T15:50:49.99Z</time></trkpt><trkpt lat="45.2810929" lon="8.6299637"><ele>114.0</ele><time>2026-04-18T15:50:50.991Z</time></trkpt><trkpt lat="45.2811053" lon="8.6301127"><ele>114.0</ele><time>2026-04-18T15:50:51.991Z</time></trkpt><trkpt lat="45.281122" lon="8.6302562"><ele>114.0</ele><time>2026-04-18T15:50:52.991Z</time></trkpt><trkpt lat="45.2811463" lon="8.6303969"><ele>114.0</ele><time>2026-04-18T15:50:53.991Z</time></trkpt><trkpt lat="45.2811791" lon="8.6305349"><ele>114.0</ele><time>2026-04-18T15:50:54.991Z</time></trkpt><trkpt lat="45.281217" lon="8.6306725"><ele>114.0</ele><time>2026-04-18T15:50:55.99Z</time></trkpt><trkpt lat="45.2812567" lon="8.6308145"><ele>114.0</ele><time>2026-04-18T15:50:56.991Z</time></trkpt><trkpt lat="45.281301" lon="8.6309667"><ele>114.0</ele><time>2026-04-18T15:50:57.991Z</time></trkpt><trkpt lat="45.2813455" lon="8.6311144"><ele>114.0</ele><time>2026-04-18T15:50:58.991Z</time></trkpt><trkpt lat="45.2813909" lon="8.6312579"><ele>114.0</ele><time>2026-04-18T15:50:59.991Z</time></trkpt><trkpt lat="45.2814394" lon="8.631403"><ele>114.0</ele><time>2026-04-18T15:51:00.99Z</time></trkpt><trkpt lat="45.2814829" lon="8.6315528"><ele>114.0</ele><time>2026-04-18T15:51:01.991Z</time></trkpt><trkpt lat="45.2815276" lon="8.6317084"><ele>114.0</ele><time>2026-04-18T15:51:02.99Z</time></trkpt><trkpt lat="45.2815702" lon="8.6318564"><ele>114.0</ele><time>2026-04-18T15:51:03.991Z</time></trkpt><trkpt lat="45.2816167" lon="8.6320001"><ele>114.0</ele><time>2026-04-18T15:51:04.991Z</time></trkpt><trkpt lat="45.2816563" lon="8.6321374"><ele>114.0</ele><time>2026-04-18T15:51:05.99Z</time></trkpt><trkpt lat="45.2816912" lon="8.632261"><ele>114.0</ele><time>2026-04-18T15:51:06.991Z</time></trkpt><trkpt lat="45.2817293" lon="8.6323778"><ele>114.0</ele><time>2026-04-18T15:51:07.991Z</time></trkpt><trkpt lat="45.2817728" lon="8.6324944"><ele>114.0</ele><time>2026-04-18T15:51:08.99Z</time></trkpt><trkpt lat="45.2818233" lon="8.6326099"><ele>114.0</ele><time>2026-04-18T15:51:09.991Z</time></trkpt><trkpt lat="45.2818728" lon="8.6327251"><ele>114.0</ele><time>2026-04-18T15:51:10.991Z</time></trkpt><trkpt lat="45.2819205" lon="8.6328393"><ele>114.0</ele><time>2026-04-18T15:51:11.991Z</time></trkpt><trkpt lat="45.2819395" lon="8.6329518"><ele>114.0</ele><time>2026-04-18T15:51:12.991Z</time></trkpt><trkpt lat="45.2819527" lon="8.633071"><ele>114.0</ele><time>2026-04-18T15:51:13.99Z</time></trkpt><trkpt lat="45.2819638" lon="8.6331915"><ele>114.0</ele><time>2026-04-18T15:51:14.99Z</time></trkpt><trkpt lat="45.2819738" lon="8.6333198"><ele>114.0</ele><time>2026-04-18T15:51:15.991Z</time></trkpt><trkpt lat="45.2819765" lon="8.6334617"><ele>114.0</ele><time>2026-04-18T15:51:16.991Z</time></trkpt><trkpt lat="45.281981" lon="8.6336092"><ele>113.75</ele><time>2026-04-18T15:51:17.991Z</time></trkpt><trkpt lat="45.2819857" lon="8.6337694"><ele>113.5</ele><time>2026-04-18T15:51:18.99Z</time></trkpt><trkpt lat="45.2819908" lon="8.6339345"><ele>113.25</ele><time>2026-04-18T15:51:19.991Z</time></trkpt><trkpt lat="45.2819966" lon="8.6341059"><ele>113.0</ele><time>2026-04-18T15:51:20.991Z</time></trkpt><trkpt lat="45.2820001" lon="8.6342821"><ele>113.0</ele><time>2026-04-18T15:51:21.991Z</time></trkpt><trkpt lat="45.2819976" lon="8.634454"><ele>113.0</ele><time>2026-04-18T15:51:22.991Z</time></trkpt><trkpt lat="45.2819966" lon="8.6346206"><ele>113.0</ele><time>2026-04-18T15:51:23.99Z</time></trkpt><trkpt lat="45.2819951" lon="8.634784"><ele>113.0</ele><time>2026-04-18T15:51:24.99Z</time></trkpt><trkpt lat="45.2819893" lon="8.6349465"><ele>112.80000000000001</ele><time>2026-04-18T15:51:25.991Z</time></trkpt><trkpt lat="45.2819834" lon="8.6351043"><ele>112.60000000000001</ele><time>2026-04-18T15:51:26.99Z</time></trkpt><trkpt lat="45.2819796" lon="8.6352628"><ele>112.39999999999999</ele><time>2026-04-18T15:51:27.991Z</time></trkpt><trkpt lat="45.2819776" lon="8.6354189"><ele>112.19999999999999</ele><time>2026-04-18T15:51:28.99Z</time></trkpt><trkpt lat="45.2819714" lon="8.6355666"><ele>112.0</ele><time>2026-04-18T15:51:29.99Z</time></trkpt><trkpt lat="45.2819655" lon="8.6357032"><ele>112.0</ele><time>2026-04-18T15:51:30.991Z</time></trkpt><trkpt lat="45.281956" lon="8.6358343"><ele>111.99999999999999</ele><time>2026-04-18T15:51:31.991Z</time></trkpt><trkpt lat="45.281943" lon="8.6359754"><ele>111.99999999999999</ele><time>2026-04-18T15:51:32.991Z</time></trkpt><trkpt lat="45.281925" lon="8.6361206"><ele>112.0</ele><time>2026-04-18T15:51:33.991Z</time></trkpt><trkpt lat="45.2818991" lon="8.6362574"><ele>112.0</ele><time>2026-04-18T15:51:34.99Z</time></trkpt><trkpt lat="45.2818729" lon="8.6363752"><ele>112.33333333333334</ele><time>2026-04-18T15:51:35.991Z</time></trkpt><trkpt lat="45.2818435" lon="8.6364899"><ele>112.66666666666667</ele><time>2026-04-18T15:51:36.99Z</time></trkpt><trkpt lat="45.2818134" lon="8.6365973"><ele>113.0</ele><time>2026-04-18T15:51:37.991Z</time></trkpt><trkpt lat="45.2817883" lon="8.6367028"><ele>113.33333333333334</ele><time>2026-04-18T15:51:38.991Z</time></trkpt><trkpt lat="45.2817623" lon="8.6368123"><ele>113.66666666666667</ele><time>2026-04-18T15:51:39.991Z</time></trkpt><trkpt lat="45.2817369" lon="8.6369319"><ele>114.0</ele><time>2026-04-18T15:51:40.991Z</time></trkpt><trkpt lat="45.2817094" lon="8.6370554"><ele>114.33333333333333</ele><time>2026-04-18T15:51:41.991Z</time></trkpt><trkpt lat="45.2816809" lon="8.6371782"><ele>114.66666666666666</ele><time>2026-04-18T15:51:42.99Z</time></trkpt><trkpt lat="45.2816497" lon="8.6372956"><ele>115.0</ele><time>2026-04-18T15:51:43.991Z</time></trkpt><trkpt lat="45.2816167" lon="8.6374147"><ele>115.33333333333333</ele><time>2026-04-18T15:51:44.991Z</time></trkpt><trkpt lat="45.2815785" lon="8.637531"><ele>115.66666666666666</ele><time>2026-04-18T15:51:45.99Z</time></trkpt><trkpt lat="45.2815423" lon="8.6376468"><ele>116.0</ele><time>2026-04-18T15:51:46.991Z</time></trkpt><trkpt lat="45.281506" lon="8.6377688"><ele>115.6</ele><time>2026-04-18T15:51:47.991Z</time></trkpt><trkpt lat="45.2814693" lon="8.6378891"><ele>115.19999999999999</ele><time>2026-04-18T15:51:48.991Z</time></trkpt><trkpt lat="45.2814386" lon="8.6380139"><ele>114.80000000000001</ele><time>2026-04-18T15:51:49.991Z</time></trkpt><trkpt lat="45.2814045" lon="8.6381382"><ele>114.4</ele><time>2026-04-18T15:51:50.991Z</time></trkpt><trkpt lat="45.2813823" lon="8.6382666"><ele>114.0</ele><time>2026-04-18T15:51:51.99Z</time></trkpt><trkpt lat="45.2813684" lon="8.638388"><ele>114.0</ele><time>2026-04-18T15:51:52.991Z</time></trkpt><trkpt lat="45.2813604" lon="8.6385136"><ele>114.0</ele><time>2026-04-18T15:51:53.991Z</time></trkpt><trkpt lat="45.2813579" lon="8.6386406"><ele>114.0</ele><time>2026-04-18T15:51:54.99Z</time></trkpt><trkpt lat="45.2813606" lon="8.6387705"><ele>114.0</ele><time>2026-04-18T15:51:55.991Z</time></trkpt><trkpt lat="45.2813628" lon="8.6388995"><ele>114.0</ele><time>2026-04-18T15:51:56.99Z</time></trkpt><trkpt lat="45.2813653" lon="8.6390286"><ele>113.80000000000001</ele><time>2026-04-18T15:51:57.991Z</time></trkpt><trkpt lat="45.2813706" lon="8.6391602"><ele>113.60000000000001</ele><time>2026-04-18T15:51:58.991Z</time></trkpt><trkpt lat="45.2813801" lon="8.6392917"><ele>113.4</ele><time>2026-04-18T15:51:59.991Z</time></trkpt><trkpt lat="45.281389" lon="8.6394273"><ele>113.2</ele><time>2026-04-18T15:52:00.991Z</time></trkpt><trkpt lat="45.2814031" lon="8.6395591"><ele>113.0</ele><time>2026-04-18T15:52:01.991Z</time></trkpt><trkpt lat="45.2814259" lon="8.6396911"><ele>113.0</ele><time>2026-04-18T15:52:02.991Z</time></trkpt><trkpt lat="45.2814599" lon="8.6398147"><ele>113.00000000000001</ele><time>2026-04-18T15:52:03.99Z</time></trkpt><trkpt lat="45.2815028" lon="8.6399364"><ele>113.00000000000001</ele><time>2026-04-18T15:52:04.99Z</time></trkpt><trkpt lat="45.2815478" lon="8.6400564"><ele>113.0</ele><time>2026-04-18T15:52:05.99Z</time></trkpt><trkpt lat="45.2815915" lon="8.6401707"><ele>113.0</ele><time>2026-04-18T15:52:06.991Z</time></trkpt><trkpt lat="45.2816368" lon="8.6402878"><ele>113.0</ele><time>2026-04-18T15:52:07.991Z</time></trkpt><trkpt lat="45.2816853" lon="8.6404066"><ele>113.00000000000001</ele><time>2026-04-18T15:52:08.99Z</time></trkpt><trkpt lat="45.2817248" lon="8.640527"><ele>113.00000000000001</ele><time>2026-04-18T15:52:09.991Z</time></trkpt><trkpt lat="45.2817621" lon="8.6406469"><ele>113.0</ele><time>2026-04-18T15:52:10.991Z</time></trkpt><trkpt lat="45.2817981" lon="8.6407691"><ele>113.0</ele><time>2026-04-18T15:52:11.991Z</time></trkpt><trkpt lat="45.281835" lon="8.640892"><ele>112.99999999999999</ele><time>2026-04-18T15:52:12.991Z</time></trkpt><trkpt lat="45.2818671" lon="8.6410099"><ele>113.0</ele><time>2026-04-18T15:52:13.991Z</time></trkpt><trkpt lat="45.2818993" lon="8.6411265"><ele>113.0</ele><time>2026-04-18T15:52:14.991Z</time></trkpt><trkpt lat="45.2819274" lon="8.6412448"><ele>113.0</ele><time>2026-04-18T15:52:15.99Z</time></trkpt><trkpt lat="45.2819538" lon="8.6413644"><ele>112.99999999999999</ele><time>2026-04-18T15:52:16.991Z</time></trkpt><trkpt lat="45.2819768" lon="8.6414855"><ele>113.0</ele><time>2026-04-18T15:52:17.99Z</time></trkpt><trkpt lat="45.2819943" lon="8.6415936"><ele>112.99999999999999</ele><time>2026-04-18T15:52:18.991Z</time></trkpt><trkpt lat="45.2820138" lon="8.6416894"><ele>113.0</ele><time>2026-04-18T15:52:19.99Z</time></trkpt><trkpt lat="45.2820719" lon="8.6418352"><ele>113.0</ele><time>2026-04-18T15:52:21.99Z</time></trkpt><trkpt lat="45.2821191" lon="8.6419814"><ele>113.0</ele><time>2026-04-18T15:52:23.991Z</time></trkpt><trkpt lat="45.2821221" lon="8.6420778"><ele>112.99999999999999</ele><time>2026-04-18T15:52:24.99Z</time></trkpt><trkpt lat="45.2821071" lon="8.6421816"><ele>113.0</ele><time>2026-04-18T15:52:25.991Z</time></trkpt><trkpt lat="45.2820892" lon="8.6422837"><ele>112.99999999999999</ele><time>2026-04-18T15:52:26.991Z</time></trkpt><trkpt lat="45.2820847" lon="8.6423897"><ele>113.0</ele><time>2026-04-18T15:52:27.991Z</time></trkpt><trkpt lat="45.2820931" lon="8.6425036"><ele>113.0</ele><time>2026-04-18T15:52:28.991Z</time></trkpt><trkpt lat="45.2821072" lon="8.6426295"><ele>113.0</ele><time>2026-04-18T15:52:29.991Z</time></trkpt><trkpt lat="45.2821238" lon="8.6427605"><ele>112.99999999999999</ele><time>2026-04-18T15:52:30.991Z</time></trkpt><trkpt lat="45.2821437" lon="8.6428956"><ele>113.0</ele><time>2026-04-18T15:52:31.991Z</time></trkpt><trkpt lat="45.2821621" lon="8.6430271"><ele>113.0</ele><time>2026-04-18T15:52:32.99Z</time></trkpt><trkpt lat="45.2821821" lon="8.6431578"><ele>113.00000000000001</ele><time>2026-04-18T15:52:33.99Z</time></trkpt><trkpt lat="45.2822048" lon="8.6432891"><ele>113.00000000000001</ele><time>2026-04-18T15:52:34.991Z</time></trkpt><trkpt lat="45.2822281" lon="8.6434274"><ele>113.0</ele><time>2026-04-18T15:52:35.991Z</time></trkpt><trkpt lat="45.2822528" lon="8.6435647"><ele>113.0</ele><time>2026-04-18T15:52:36.99Z</time></trkpt><trkpt lat="45.2822758" lon="8.6436947"><ele>113.0</ele><time>2026-04-18T15:52:37.991Z</time></trkpt><trkpt lat="45.2823036" lon="8.6438239"><ele>113.00000000000001</ele><time>2026-04-18T15:52:38.991Z</time></trkpt><trkpt lat="45.2823315" lon="8.6439559"><ele>113.00000000000001</ele><time>2026-04-18T15:52:39.991Z</time></trkpt><trkpt lat="45.2823632" lon="8.6440862"><ele>113.0</ele><time>2026-04-18T15:52:40.991Z</time></trkpt><trkpt lat="45.2823963" lon="8.6442168"><ele>113.0</ele><time>2026-04-18T15:52:41.991Z</time></trkpt><trkpt lat="45.2824294" lon="8.6443515"><ele>113.0</ele><time>2026-04-18T15:52:42.99Z</time></trkpt><trkpt lat="45.2824647" lon="8.6444872"><ele>113.00000000000001</ele><time>2026-04-18T15:52:43.991Z</time></trkpt><trkpt lat="45.2825021" lon="8.6446261"><ele>113.00000000000001</ele><time>2026-04-18T15:52:44.991Z</time></trkpt><trkpt lat="45.2825385" lon="8.6447664"><ele>113.0</ele><time>2026-04-18T15:52:45.991Z</time></trkpt><trkpt lat="45.2825765" lon="8.6449073"><ele>113.0</ele><time>2026-04-18T15:52:46.991Z</time></trkpt><trkpt lat="45.2826147" lon="8.64505"><ele>112.99999999999999</ele><time>2026-04-18T15:52:47.991Z</time></trkpt><trkpt lat="45.2826479" lon="8.6451768"><ele>113.0</ele><time>2026-04-18T15:52:48.991Z</time></trkpt><trkpt lat="45.2826797" lon="8.6453007"><ele>113.0</ele><time>2026-04-18T15:52:49.99Z</time></trkpt><trkpt lat="45.2827039" lon="8.645418"><ele>113.0</ele><time>2026-04-18T15:52:50.991Z</time></trkpt><trkpt lat="45.282715" lon="8.6455349"><ele>112.99999999999999</ele><time>2026-04-18T15:52:51.99Z</time></trkpt><trkpt lat="45.2827111" lon="8.6456551"><ele>113.0</ele><time>2026-04-18T15:52:52.991Z</time></trkpt><trkpt lat="45.2826886" lon="8.6457696"><ele>113.0</ele><time>2026-04-18T15:52:53.99Z</time></trkpt><trkpt lat="45.2826585" lon="8.6458909"><ele>113.00000000000001</ele><time>2026-04-18T15:52:54.991Z</time></trkpt><trkpt lat="45.2826228" lon="8.6460111"><ele>113.00000000000001</ele><time>2026-04-18T15:52:55.991Z</time></trkpt><trkpt lat="45.2825883" lon="8.64613"><ele>113.0</ele><time>2026-04-18T15:52:56.99Z</time></trkpt><trkpt lat="45.2825553" lon="8.6462513"><ele>113.0</ele><time>2026-04-18T15:52:57.991Z</time></trkpt><trkpt lat="45.2825177" lon="8.6463735"><ele>113.0</ele><time>2026-04-18T15:52:58.991Z</time></trkpt><trkpt lat="45.2824854" lon="8.6465013"><ele>113.00000000000001</ele><time>2026-04-18T15:52:59.991Z</time></trkpt><trkpt lat="45.2824525" lon="8.6466271"><ele>113.00000000000001</ele><time>2026-04-18T15:53:00.99Z</time></trkpt><trkpt lat="45.2824217" lon="8.6467476"><ele>113.0</ele><time>2026-04-18T15:53:01.99Z</time></trkpt><trkpt lat="45.2823904" lon="8.6468674"><ele>113.0</ele><time>2026-04-18T15:53:02.99Z</time></trkpt><trkpt lat="45.282362" lon="8.646988"><ele>113.0</ele><time>2026-04-18T15:53:03.99Z</time></trkpt><trkpt lat="45.2823379" lon="8.6471143"><ele>113.00000000000001</ele><time>2026-04-18T15:53:04.991Z</time></trkpt><trkpt lat="45.2823108" lon="8.6472424"><ele>113.00000000000001</ele><time>2026-04-18T15:53:05.99Z</time></trkpt><trkpt lat="45.2822888" lon="8.6473782"><ele>113.0</ele><time>2026-04-18T15:53:06.991Z</time></trkpt><trkpt lat="45.2822626" lon="8.6475272"><ele>113.0</ele><time>2026-04-18T15:53:07.991Z</time></trkpt><trkpt lat="45.2822388" lon="8.647677"><ele>112.75</ele><time>2026-04-18T15:53:08.991Z</time></trkpt><trkpt lat="45.282217" lon="8.6478299"><ele>112.5</ele><time>2026-04-18T15:53:09.991Z</time></trkpt><trkpt lat="45.2822006" lon="8.648003"><ele>112.25</ele><time>2026-04-18T15:53:10.99Z</time></trkpt><trkpt lat="45.2821885" lon="8.6481879"><ele>112.0</ele><time>2026-04-18T15:53:11.991Z</time></trkpt><trkpt lat="45.2821883" lon="8.6483804"><ele>112.0</ele><time>2026-04-18T15:53:12.99Z</time></trkpt><trkpt lat="45.2821998" lon="8.6485865"><ele>112.0</ele><time>2026-04-18T15:53:13.991Z</time></trkpt><trkpt lat="45.2822225" lon="8.6488032"><ele>112.0</ele><time>2026-04-18T15:53:14.991Z</time></trkpt><trkpt lat="45.2822587" lon="8.6490183"><ele>112.0</ele><time>2026-04-18T15:53:15.991Z</time></trkpt><trkpt lat="45.2823036" lon="8.6492283"><ele>112.0</ele><time>2026-04-18T15:53:16.991Z</time></trkpt><trkpt lat="45.2823542" lon="8.6494422"><ele>112.0</ele><time>2026-04-18T15:53:17.99Z</time></trkpt><trkpt lat="45.2824109" lon="8.6496684"><ele>112.0</ele><time>2026-04-18T15:53:18.991Z</time></trkpt><trkpt lat="45.2824756" lon="8.6498983"><ele>112.0</ele><time>2026-04-18T15:53:19.991Z</time></trkpt><trkpt lat="45.282539" lon="8.6501152"><ele>112.0</ele><time>2026-04-18T15:53:20.991Z</time></trkpt><trkpt lat="45.2825962" lon="8.6503159"><ele>111.75</ele><time>2026-04-18T15:53:21.99Z</time></trkpt><trkpt lat="45.2826508" lon="8.6505114"><ele>111.5</ele><time>2026-04-18T15:53:22.991Z</time></trkpt><trkpt lat="45.282702" lon="8.6506986"><ele>111.25</ele><time>2026-04-18T15:53:23.99Z</time></trkpt><trkpt lat="45.2827499" lon="8.6508772"><ele>111.0</ele><time>2026-04-18T15:53:24.991Z</time></trkpt><trkpt lat="45.2827897" lon="8.6510405"><ele>111.0</ele><time>2026-04-18T15:53:25.99Z</time></trkpt><trkpt lat="45.2828224" lon="8.6511881"><ele>111.0</ele><time>2026-04-18T15:53:26.991Z</time></trkpt><trkpt lat="45.2828466" lon="8.6513056"><ele>111.0</ele><time>2026-04-18T15:53:27.991Z</time></trkpt><trkpt lat="45.2828685" lon="8.651415"><ele>111.0</ele><time>2026-04-18T15:53:28.991Z</time></trkpt><trkpt lat="45.2828964" lon="8.6515276"><ele>111.0</ele><time>2026-04-18T15:53:29.991Z</time></trkpt><trkpt lat="45.2829281" lon="8.6516389"><ele>111.0</ele><time>2026-04-18T15:53:30.991Z</time></trkpt><trkpt lat="45.2829575" lon="8.6517413"><ele>111.0</ele><time>2026-04-18T15:53:31.991Z</time></trkpt><trkpt lat="45.2829855" lon="8.6518313"><ele>111.0</ele><time>2026-04-18T15:53:32.991Z</time></trkpt><trkpt lat="45.2830098" lon="8.6519271"><ele>111.0</ele><time>2026-04-18T15:53:33.991Z</time></trkpt><trkpt lat="45.2830434" lon="8.6520348"><ele>111.0</ele><time>2026-04-18T15:53:34.991Z</time></trkpt><trkpt lat="45.2830851" lon="8.6521563"><ele>111.0</ele><time>2026-04-18T15:53:35.991Z</time></trkpt><trkpt lat="45.2831327" lon="8.6522871"><ele>111.0</ele><time>2026-04-18T15:53:36.991Z</time></trkpt><trkpt lat="45.28319" lon="8.6524214"><ele>110.5</ele><time>2026-04-18T15:53:37.991Z</time></trkpt><trkpt lat="45.2832697" lon="8.6525598"><ele>110.0</ele><time>2026-04-18T15:53:38.991Z</time></trkpt><trkpt lat="45.2833706" lon="8.6527062"><ele>109.5</ele><time>2026-04-18T15:53:39.991Z</time></trkpt><trkpt lat="45.283477" lon="8.6528512"><ele>109.0</ele><time>2026-04-18T15:53:40.991Z</time></trkpt><trkpt lat="45.2835742" lon="8.6529702"><ele>109.00000000000001</ele><time>2026-04-18T15:53:41.99Z</time></trkpt><trkpt lat="45.2836635" lon="8.6530723"><ele>109.0</ele><time>2026-04-18T15:53:42.991Z</time></trkpt><trkpt lat="45.2837362" lon="8.6531599"><ele>109.0</ele><time>2026-04-18T15:53:43.99Z</time></trkpt><trkpt lat="45.2837924" lon="8.6532168"><ele>109.0</ele><time>2026-04-18T15:53:44.991Z</time></trkpt><trkpt lat="45.2838637" lon="8.6532465"><ele>109.00000000000001</ele><time>2026-04-18T15:53:46.99Z</time></trkpt><trkpt lat="45.2839239" lon="8.6531815"><ele>109.0</ele><time>2026-04-18T15:53:48.991Z</time></trkpt><trkpt lat="45.2839741" lon="8.6529938"><ele>109.5</ele><time>2026-04-18T15:53:50.99Z</time></trkpt><trkpt lat="45.2840129" lon="8.6528575"><ele>110.0</ele><time>2026-04-18T15:53:51.991Z</time></trkpt><trkpt lat="45.2840686" lon="8.6527042"><ele>110.5</ele><time>2026-04-18T15:53:52.99Z</time></trkpt><trkpt lat="45.284138" lon="8.6525343"><ele>111.0</ele><time>2026-04-18T15:53:53.991Z</time></trkpt><trkpt lat="45.2842161" lon="8.6523636"><ele>111.0</ele><time>2026-04-18T15:53:54.991Z</time></trkpt><trkpt lat="45.2843019" lon="8.6521824"><ele>111.0</ele><time>2026-04-18T15:53:55.991Z</time></trkpt><trkpt lat="45.2843906" lon="8.6519888"><ele>111.0</ele><time>2026-04-18T15:53:56.99Z</time></trkpt><trkpt lat="45.2844844" lon="8.6517897"><ele>111.0</ele><time>2026-04-18T15:53:57.99Z</time></trkpt><trkpt lat="45.2845885" lon="8.6515854"><ele>111.0</ele><time>2026-04-18T15:53:58.99Z</time></trkpt><trkpt lat="45.2846945" lon="8.6513765"><ele>111.0</ele><time>2026-04-18T15:53:59.991Z</time></trkpt><trkpt lat="45.2847994" lon="8.6511605"><ele>110.66666666666666</ele><time>2026-04-18T15:54:00.991Z</time></trkpt><trkpt lat="45.2849047" lon="8.6509396"><ele>110.33333333333333</ele><time>2026-04-18T15:54:01.991Z</time></trkpt><trkpt lat="45.2850119" lon="8.650717"><ele>110.0</ele><time>2026-04-18T15:54:02.991Z</time></trkpt><trkpt lat="45.2851219" lon="8.6504922"><ele>110.33333333333333</ele><time>2026-04-18T15:54:03.991Z</time></trkpt><trkpt lat="45.2852341" lon="8.6502658"><ele>110.66666666666666</ele><time>2026-04-18T15:54:04.991Z</time></trkpt><trkpt lat="45.2853465" lon="8.650037"><ele>111.0</ele><time>2026-04-18T15:54:05.991Z</time></trkpt><trkpt lat="45.2854591" lon="8.6498059"><ele>111.0</ele><time>2026-04-18T15:54:06.99Z</time></trkpt><trkpt lat="45.2855749" lon="8.6495754"><ele>111.0</ele><time>2026-04-18T15:54:07.991Z</time></trkpt><trkpt lat="45.2856957" lon="8.6493476"><ele>111.0</ele><time>2026-04-18T15:54:08.99Z</time></trkpt><trkpt lat="45.2858213" lon="8.6491279"><ele>111.0</ele><time>2026-04-18T15:54:09.991Z</time></trkpt><trkpt lat="45.2859584" lon="8.6489276"><ele>111.0</ele><time>2026-04-18T15:54:10.99Z</time></trkpt><trkpt lat="45.2861102" lon="8.6487442"><ele>111.0</ele><time>2026-04-18T15:54:11.991Z</time></trkpt><trkpt lat="45.2862749" lon="8.6485734"><ele>111.0</ele><time>2026-04-18T15:54:12.991Z</time></trkpt><trkpt lat="45.2864529" lon="8.6484086"><ele>111.0</ele><time>2026-04-18T15:54:13.99Z</time></trkpt><trkpt lat="45.2866328" lon="8.6482551"><ele>111.0</ele><time>2026-04-18T15:54:14.99Z</time></trkpt><trkpt lat="45.2868137" lon="8.6480966"><ele>111.0</ele><time>2026-04-18T15:54:15.991Z</time></trkpt><trkpt lat="45.286998" lon="8.6479315"><ele>111.0</ele><time>2026-04-18T15:54:16.99Z</time></trkpt><trkpt lat="45.2871802" lon="8.6477665"><ele>111.0</ele><time>2026-04-18T15:54:17.991Z</time></trkpt><trkpt lat="45.2873656" lon="8.6476052"><ele>110.66666666666666</ele><time>2026-04-18T15:54:18.991Z</time></trkpt><trkpt lat="45.2875501" lon="8.6474396"><ele>110.33333333333333</ele><time>2026-04-18T15:54:19.991Z</time></trkpt><trkpt lat="45.2877215" lon="8.6472822"><ele>110.0</ele><time>2026-04-18T15:54:20.991Z</time></trkpt><trkpt lat="45.2878792" lon="8.6471195"><ele>110.0</ele><time>2026-04-18T15:54:21.99Z</time></trkpt><trkpt lat="45.2880224" lon="8.6469506"><ele>110.0</ele><time>2026-04-18T15:54:22.991Z</time></trkpt><trkpt lat="45.2881455" lon="8.6467647"><ele>110.0</ele><time>2026-04-18T15:54:23.991Z</time></trkpt><trkpt lat="45.2882584" lon="8.6465569"><ele>110.33333333333333</ele><time>2026-04-18T15:54:24.99Z</time></trkpt><trkpt lat="45.2883518" lon="8.6463264"><ele>110.66666666666666</ele><time>2026-04-18T15:54:25.991Z</time></trkpt><trkpt lat="45.2884363" lon="8.6460783"><ele>111.0</ele><time>2026-04-18T15:54:26.991Z</time></trkpt><trkpt lat="45.2885021" lon="8.6458069"><ele>111.33333333333334</ele><time>2026-04-18T15:54:27.99Z</time></trkpt><trkpt lat="45.2885563" lon="8.6455259"><ele>111.66666666666667</ele><time>2026-04-18T15:54:28.991Z</time></trkpt><trkpt lat="45.2886089" lon="8.6452308"><ele>112.0</ele><time>2026-04-18T15:54:29.99Z</time></trkpt><trkpt lat="45.288657" lon="8.6449232"><ele>112.0</ele><time>2026-04-18T15:54:30.991Z</time></trkpt><trkpt lat="45.2887029" lon="8.6446124"><ele>112.0</ele><time>2026-04-18T15:54:31.991Z</time></trkpt><trkpt lat="45.2887504" lon="8.6442946"><ele>111.5</ele><time>2026-04-18T15:54:32.991Z</time></trkpt><trkpt lat="45.2888004" lon="8.6439745"><ele>111.0</ele><time>2026-04-18T15:54:33.991Z</time></trkpt><trkpt lat="45.2888527" lon="8.6436506"><ele>111.5</ele><time>2026-04-18T15:54:34.99Z</time></trkpt><trkpt lat="45.2889066" lon="8.6433266"><ele>112.0</ele><time>2026-04-18T15:54:35.991Z</time></trkpt><trkpt lat="45.2889579" lon="8.6430001"><ele>111.5</ele><time>2026-04-18T15:54:36.991Z</time></trkpt><trkpt lat="45.2890096" lon="8.6426686"><ele>111.0</ele><time>2026-04-18T15:54:37.99Z</time></trkpt><trkpt lat="45.2890651" lon="8.6423363"><ele>111.0</ele><time>2026-04-18T15:54:38.99Z</time></trkpt><trkpt lat="45.2891184" lon="8.6420009"><ele>111.0</ele><time>2026-04-18T15:54:39.991Z</time></trkpt><trkpt lat="45.2891725" lon="8.6416622"><ele>111.5</ele><time>2026-04-18T15:54:40.991Z</time></trkpt><trkpt lat="45.2892235" lon="8.6413252"><ele>112.0</ele><time>2026-04-18T15:54:41.99Z</time></trkpt><trkpt lat="45.2892726" lon="8.641006"><ele>112.33333333333334</ele><time>2026-04-18T15:54:42.99Z</time></trkpt><trkpt lat="45.2893207" lon="8.6407106"><ele>112.66666666666666</ele><time>2026-04-18T15:54:43.991Z</time></trkpt><trkpt lat="45.2893633" lon="8.6404277"><ele>113.0</ele><time>2026-04-18T15:54:44.991Z</time></trkpt><trkpt lat="45.2894081" lon="8.6401642"><ele>113.33333333333333</ele><time>2026-04-18T15:54:45.991Z</time></trkpt><trkpt lat="45.2894507" lon="8.639917"><ele>113.66666666666666</ele><time>2026-04-18T15:54:46.991Z</time></trkpt><trkpt lat="45.2894912" lon="8.6396821"><ele>114.0</ele><time>2026-04-18T15:54:47.991Z</time></trkpt><trkpt lat="45.289526" lon="8.6394599"><ele>114.0</ele><time>2026-04-18T15:54:48.991Z</time></trkpt><trkpt lat="45.2895608" lon="8.6392471"><ele>114.0</ele><time>2026-04-18T15:54:49.991Z</time></trkpt><trkpt lat="45.2895896" lon="8.639056"><ele>114.0</ele><time>2026-04-18T15:54:50.99Z</time></trkpt><trkpt lat="45.289613" lon="8.6388767"><ele>114.0</ele><time>2026-04-18T15:54:51.99Z</time></trkpt><trkpt lat="45.289637" lon="8.6387191"><ele>113.85714285714285</ele><time>2026-04-18T15:54:52.991Z</time></trkpt><trkpt lat="45.2896561" lon="8.63859"><ele>113.7142857142857</ele><time>2026-04-18T15:54:53.991Z</time></trkpt><trkpt lat="45.2896744" lon="8.6384865"><ele>113.57142857142857</ele><time>2026-04-18T15:54:54.991Z</time></trkpt><trkpt lat="45.2897083" lon="8.6383758"><ele>113.42857142857142</ele><time>2026-04-18T15:54:56.991Z</time></trkpt><trkpt lat="45.2897345" lon="8.6382808"><ele>113.28571428571428</ele><time>2026-04-18T15:55:00.991Z</time></trkpt><trkpt lat="45.2896845" lon="8.6382782"><ele>113.14285714285714</ele><time>2026-04-18T15:56:24.991Z</time></trkpt><trkpt lat="45.2896726" lon="8.6383745"><ele>113.0</ele><time>2026-04-18T15:56:25.991Z</time></trkpt><trkpt lat="45.289659" lon="8.6385028"><ele>113.25</ele><time>2026-04-18T15:56:26.99Z</time></trkpt><trkpt lat="45.2896399" lon="8.6386479"><ele>113.5</ele><time>2026-04-18T15:56:27.99Z</time></trkpt><trkpt lat="45.289615" lon="8.638807"><ele>113.75</ele><time>2026-04-18T15:56:28.99Z</time></trkpt><trkpt lat="45.2895861" lon="8.6389826"><ele>114.0</ele><time>2026-04-18T15:56:29.991Z</time></trkpt><trkpt lat="45.2895593" lon="8.6391703"><ele>114.0</ele><time>2026-04-18T15:56:30.991Z</time></trkpt><trkpt lat="45.2895265" lon="8.6393639"><ele>114.0</ele><time>2026-04-18T15:56:31.991Z</time></trkpt><trkpt lat="45.289497" lon="8.6395553"><ele>114.0</ele><time>2026-04-18T15:56:32.991Z</time></trkpt><trkpt lat="45.2894657" lon="8.6397413"><ele>114.0</ele><time>2026-04-18T15:56:33.991Z</time></trkpt><trkpt lat="45.2894371" lon="8.6399196"><ele>114.0</ele><time>2026-04-18T15:56:34.991Z</time></trkpt><trkpt lat="45.2894116" lon="8.6400907"><ele>114.0</ele><time>2026-04-18T15:56:35.99Z</time></trkpt><trkpt lat="45.2893845" lon="8.6402523"><ele>114.0</ele><time>2026-04-18T15:56:36.991Z</time></trkpt><trkpt lat="45.2893573" lon="8.6404104"><ele>114.0</ele><time>2026-04-18T15:56:37.991Z</time></trkpt><trkpt lat="45.2893301" lon="8.6405756"><ele>113.75</ele><time>2026-04-18T15:56:38.99Z</time></trkpt><trkpt lat="45.2893028" lon="8.640741"><ele>113.5</ele><time>2026-04-18T15:56:39.991Z</time></trkpt><trkpt lat="45.2892754" lon="8.6409227"><ele>113.25</ele><time>2026-04-18T15:56:40.991Z</time></trkpt><trkpt lat="45.2892455" lon="8.6411306"><ele>113.0</ele><time>2026-04-18T15:56:41.991Z</time></trkpt><trkpt lat="45.2892113" lon="8.6413534"><ele>112.66666666666666</ele><time>2026-04-18T15:56:42.991Z</time></trkpt><trkpt lat="45.2891703" lon="8.6415897"><ele>112.33333333333334</ele><time>2026-04-18T15:56:43.991Z</time></trkpt><trkpt lat="45.289133" lon="8.6418377"><ele>112.0</ele><time>2026-04-18T15:56:44.991Z</time></trkpt><trkpt lat="45.2890896" lon="8.6420972"><ele>112.0</ele><time>2026-04-18T15:56:45.991Z</time></trkpt><trkpt lat="45.2890453" lon="8.6423631"><ele>112.0</ele><time>2026-04-18T15:56:46.991Z</time></trkpt><trkpt lat="45.2889995" lon="8.6426444"><ele>112.0</ele><time>2026-04-18T15:56:47.991Z</time></trkpt><trkpt lat="45.2889531" lon="8.6429361"><ele>112.0</ele><time>2026-04-18T15:56:48.99Z</time></trkpt><trkpt lat="45.2889052" lon="8.6432329"><ele>112.0</ele><time>2026-04-18T15:56:49.991Z</time></trkpt><trkpt lat="45.2888609" lon="8.6435309"><ele>112.0</ele><time>2026-04-18T15:56:50.991Z</time></trkpt><trkpt lat="45.288813" lon="8.6438331"><ele>112.0</ele><time>2026-04-18T15:56:51.991Z</time></trkpt><trkpt lat="45.2887637" lon="8.6441353"><ele>112.0</ele><time>2026-04-18T15:56:52.991Z</time></trkpt><trkpt lat="45.2887225" lon="8.6444169"><ele>112.0</ele><time>2026-04-18T15:56:53.991Z</time></trkpt><trkpt lat="45.2886791" lon="8.6446844"><ele>112.0</ele><time>2026-04-18T15:56:54.991Z</time></trkpt><trkpt lat="45.2886382" lon="8.6449336"><ele>112.0</ele><time>2026-04-18T15:56:55.991Z</time></trkpt><trkpt lat="45.2885994" lon="8.645165"><ele>112.0</ele><time>2026-04-18T15:56:56.991Z</time></trkpt><trkpt lat="45.2885583" lon="8.6453821"><ele>112.0</ele><time>2026-04-18T15:56:57.991Z</time></trkpt><trkpt lat="45.2885237" lon="8.6455858"><ele>112.0</ele><time>2026-04-18T15:56:58.991Z</time></trkpt><trkpt lat="45.2884872" lon="8.6457769"><ele>112.0</ele><time>2026-04-18T15:56:59.99Z</time></trkpt><trkpt lat="45.2884522" lon="8.6459508"><ele>112.0</ele><time>2026-04-18T15:57:00.99Z</time></trkpt><trkpt lat="45.2884161" lon="8.6461014"><ele>111.8</ele><time>2026-04-18T15:57:01.99Z</time></trkpt><trkpt lat="45.2883748" lon="8.6462329"><ele>111.6</ele><time>2026-04-18T15:57:02.991Z</time></trkpt><trkpt lat="45.2883335" lon="8.6463543"><ele>111.39999999999999</ele><time>2026-04-18T15:57:03.991Z</time></trkpt><trkpt lat="45.2882906" lon="8.6464654"><ele>111.19999999999999</ele><time>2026-04-18T15:57:04.99Z</time></trkpt><trkpt lat="45.2882283" lon="8.6465821"><ele>111.0</ele><time>2026-04-18T15:57:05.991Z</time></trkpt><trkpt lat="45.2881662" lon="8.6466806"><ele>111.0</ele><time>2026-04-18T15:57:06.991Z</time></trkpt><trkpt lat="45.2881157" lon="8.6467682"><ele>111.0</ele><time>2026-04-18T15:57:07.99Z</time></trkpt><trkpt lat="45.2880733" lon="8.6468417"><ele>111.0</ele><time>2026-04-18T15:57:08.99Z</time></trkpt><trkpt lat="45.2879899" lon="8.6469658"><ele>111.0</ele><time>2026-04-18T15:57:10.99Z</time></trkpt><trkpt lat="45.2879396" lon="8.6470324"><ele>111.0</ele><time>2026-04-18T15:57:11.991Z</time></trkpt><trkpt lat="45.2878803" lon="8.6471034"><ele>111.0</ele><time>2026-04-18T15:57:12.991Z</time></trkpt><trkpt lat="45.2878049" lon="8.6471797"><ele>110.75</ele><time>2026-04-18T15:57:13.991Z</time></trkpt><trkpt lat="45.2877136" lon="8.6472666"><ele>110.5</ele><time>2026-04-18T15:57:14.99Z</time></trkpt><trkpt lat="45.2876116" lon="8.6473642"><ele>110.25</ele><time>2026-04-18T15:57:15.99Z</time></trkpt><trkpt lat="45.2875001" lon="8.6474652"><ele>110.0</ele><time>2026-04-18T15:57:16.99Z</time></trkpt><trkpt lat="45.2873771" lon="8.6475675"><ele>110.0</ele><time>2026-04-18T15:57:17.99Z</time></trkpt><trkpt lat="45.2872419" lon="8.6476848"><ele>110.0</ele><time>2026-04-18T15:57:18.99Z</time></trkpt><trkpt lat="45.2871002" lon="8.647808"><ele>110.0</ele><time>2026-04-18T15:57:19.991Z</time></trkpt><trkpt lat="45.2869573" lon="8.6479403"><ele>110.33333333333333</ele><time>2026-04-18T15:57:20.991Z</time></trkpt><trkpt lat="45.2868056" lon="8.6480751"><ele>110.66666666666666</ele><time>2026-04-18T15:57:21.991Z</time></trkpt><trkpt lat="45.2866475" lon="8.6482113"><ele>111.0</ele><time>2026-04-18T15:57:22.99Z</time></trkpt><trkpt lat="45.2864988" lon="8.648341"><ele>111.0</ele><time>2026-04-18T15:57:23.991Z</time></trkpt><trkpt lat="45.2863617" lon="8.6484645"><ele>111.0</ele><time>2026-04-18T15:57:24.991Z</time></trkpt><trkpt lat="45.2862381" lon="8.6485804"><ele>111.0</ele><time>2026-04-18T15:57:25.99Z</time></trkpt><trkpt lat="45.2861242" lon="8.6486922"><ele>111.0</ele><time>2026-04-18T15:57:26.99Z</time></trkpt><trkpt lat="45.2860164" lon="8.6488057"><ele>111.25</ele><time>2026-04-18T15:57:27.99Z</time></trkpt><trkpt lat="45.2859141" lon="8.6489313"><ele>111.5</ele><time>2026-04-18T15:57:28.991Z</time></trkpt><trkpt lat="45.2858276" lon="8.6490638"><ele>111.75</ele><time>2026-04-18T15:57:29.991Z</time></trkpt><trkpt lat="45.2857499" lon="8.649196"><ele>112.0</ele><time>2026-04-18T15:57:30.991Z</time></trkpt><trkpt lat="45.2856746" lon="8.6493272"><ele>111.75</ele><time>2026-04-18T15:57:31.991Z</time></trkpt><trkpt lat="45.2856022" lon="8.6494634"><ele>111.5</ele><time>2026-04-18T15:57:32.99Z</time></trkpt><trkpt lat="45.285528" lon="8.6496091"><ele>111.25</ele><time>2026-04-18T15:57:33.991Z</time></trkpt><trkpt lat="45.2854539" lon="8.6497579"><ele>111.0</ele><time>2026-04-18T15:57:34.991Z</time></trkpt><trkpt lat="45.2853886" lon="8.6498923"><ele>111.0</ele><time>2026-04-18T15:57:35.991Z</time></trkpt><trkpt lat="45.2853267" lon="8.6500203"><ele>111.0</ele><time>2026-04-18T15:57:36.991Z</time></trkpt><trkpt lat="45.2852705" lon="8.6501391"><ele>111.0</ele><time>2026-04-18T15:57:37.991Z</time></trkpt><trkpt lat="45.2852156" lon="8.6502479"><ele>111.0</ele><time>2026-04-18T15:57:38.99Z</time></trkpt><trkpt lat="45.2851623" lon="8.6503445"><ele>111.0</ele><time>2026-04-18T15:57:39.991Z</time></trkpt><trkpt lat="45.2851156" lon="8.6504315"><ele>110.8</ele><time>2026-04-18T15:57:40.991Z</time></trkpt><trkpt lat="45.2850568" lon="8.6505439"><ele>110.6</ele><time>2026-04-18T15:57:42.99Z</time></trkpt><trkpt lat="45.2849918" lon="8.6507021"><ele>110.4</ele><time>2026-04-18T15:59:01.991Z</time></trkpt><trkpt lat="45.2849452" lon="8.6508042"><ele>110.2</ele><time>2026-04-18T15:59:02.991Z</time></trkpt><trkpt lat="45.2848905" lon="8.6509072"><ele>110.0</ele><time>2026-04-18T15:59:03.99Z</time></trkpt><trkpt lat="45.2848318" lon="8.6510161"><ele>110.0</ele><time>2026-04-18T15:59:04.991Z</time></trkpt><trkpt lat="45.2847747" lon="8.6511335"><ele>110.0</ele><time>2026-04-18T15:59:05.991Z</time></trkpt><trkpt lat="45.2847139" lon="8.6512616"><ele>110.0</ele><time>2026-04-18T15:59:06.991Z</time></trkpt><trkpt lat="45.2846518" lon="8.6514009"><ele>110.0</ele><time>2026-04-18T15:59:07.991Z</time></trkpt><trkpt lat="45.2845854" lon="8.6515467"><ele>110.0</ele><time>2026-04-18T15:59:08.99Z</time></trkpt><trkpt lat="45.2845175" lon="8.6516979"><ele>110.0</ele><time>2026-04-18T15:59:09.99Z</time></trkpt><trkpt lat="45.2844379" lon="8.6518603"><ele>110.0</ele><time>2026-04-18T15:59:10.991Z</time></trkpt><trkpt lat="45.284356" lon="8.6520251"><ele>110.0</ele><time>2026-04-18T15:59:11.991Z</time></trkpt><trkpt lat="45.2842757" lon="8.652197"><ele>110.0</ele><time>2026-04-18T15:59:12.991Z</time></trkpt><trkpt lat="45.2841948" lon="8.6523679"><ele>110.25</ele><time>2026-04-18T15:59:13.99Z</time></trkpt><trkpt lat="45.2841195" lon="8.652529"><ele>110.5</ele><time>2026-04-18T15:59:14.991Z</time></trkpt><trkpt lat="45.2840521" lon="8.6526749"><ele>110.75</ele><time>2026-04-18T15:59:15.991Z</time></trkpt><trkpt lat="45.2840039" lon="8.6528162"><ele>111.0</ele><time>2026-04-18T15:59:16.991Z</time></trkpt><trkpt lat="45.2839555" lon="8.6529601"><ele>110.6</ele><time>2026-04-18T15:59:17.991Z</time></trkpt><trkpt lat="45.283918" lon="8.6531074"><ele>110.19999999999999</ele><time>2026-04-18T15:59:18.991Z</time></trkpt><trkpt lat="45.2838914" lon="8.6532484"><ele>109.80000000000001</ele><time>2026-04-18T15:59:19.99Z</time></trkpt><trkpt lat="45.2838728" lon="8.6533762"><ele>109.4</ele><time>2026-04-18T15:59:20.991Z</time></trkpt><trkpt lat="45.2838674" lon="8.6535023"><ele>109.0</ele><time>2026-04-18T15:59:21.991Z</time></trkpt><trkpt lat="45.2838658" lon="8.653635"><ele>108.83333333333334</ele><time>2026-04-18T15:59:22.99Z</time></trkpt><trkpt lat="45.2838704" lon="8.6537589"><ele>108.66666666666667</ele><time>2026-04-18T15:59:23.991Z</time></trkpt><trkpt lat="45.283882" lon="8.6538763"><ele>108.5</ele><time>2026-04-18T15:59:24.991Z</time></trkpt><trkpt lat="45.2839018" lon="8.6539951"><ele>108.33333333333334</ele><time>2026-04-18T15:59:25.99Z</time></trkpt><trkpt lat="45.2839206" lon="8.6541231"><ele>108.16666666666667</ele><time>2026-04-18T15:59:26.991Z</time></trkpt><trkpt lat="45.2839426" lon="8.6542476"><ele>108.0</ele><time>2026-04-18T15:59:27.991Z</time></trkpt><trkpt lat="45.2839643" lon="8.6543607"><ele>108.16666666666667</ele><time>2026-04-18T15:59:28.991Z</time></trkpt><trkpt lat="45.2839825" lon="8.6544472"><ele>108.33333333333334</ele><time>2026-04-18T15:59:29.991Z</time></trkpt><trkpt lat="45.2840153" lon="8.6545372"><ele>108.5</ele><time>2026-04-18T15:59:31.991Z</time></trkpt><trkpt lat="45.2840809" lon="8.6545285"><ele>108.66666666666667</ele><time>2026-04-18T15:59:34.991Z</time></trkpt><trkpt lat="45.2841673" lon="8.6544426"><ele>108.83333333333334</ele><time>2026-04-18T15:59:37.991Z</time></trkpt><trkpt lat="45.2842668" lon="8.6543683"><ele>109.0</ele><time>2026-04-18T15:59:39.991Z</time></trkpt><trkpt lat="45.2843327" lon="8.654323"><ele>109.16666666666667</ele><time>2026-04-18T15:59:40.991Z</time></trkpt><trkpt lat="45.2844024" lon="8.6542722"><ele>109.33333333333334</ele><time>2026-04-18T15:59:41.991Z</time></trkpt><trkpt lat="45.2844727" lon="8.6542244"><ele>109.5</ele><time>2026-04-18T15:59:42.991Z</time></trkpt><trkpt lat="45.2845487" lon="8.6541826"><ele>109.66666666666666</ele><time>2026-04-18T15:59:43.991Z</time></trkpt><trkpt lat="45.2846236" lon="8.6541457"><ele>109.83333333333333</ele><time>2026-04-18T15:59:44.991Z</time></trkpt><trkpt lat="45.2846985" lon="8.6541044"><ele>110.0</ele><time>2026-04-18T15:59:45.99Z</time></trkpt><trkpt lat="45.2847741" lon="8.6540635"><ele>109.99999999999999</ele><time>2026-04-18T15:59:46.99Z</time></trkpt><trkpt lat="45.2848487" lon="8.654026"><ele>110.0</ele><time>2026-04-18T15:59:47.991Z</time></trkpt><trkpt lat="45.284924" lon="8.6539933"><ele>110.0</ele><time>2026-04-18T15:59:48.991Z</time></trkpt><trkpt lat="45.2850044" lon="8.6539697"><ele>110.0</ele><time>2026-04-18T15:59:49.99Z</time></trkpt><trkpt lat="45.2850843" lon="8.6539569"><ele>109.99999999999999</ele><time>2026-04-18T15:59:50.991Z</time></trkpt><trkpt lat="45.2851671" lon="8.6539511"><ele>110.0</ele><time>2026-04-18T15:59:51.99Z</time></trkpt><trkpt lat="45.285252" lon="8.6539461"><ele>109.99999999999999</ele><time>2026-04-18T15:59:52.991Z</time></trkpt><trkpt lat="45.2853327" lon="8.6539453"><ele>110.0</ele><time>2026-04-18T15:59:53.991Z</time></trkpt><trkpt lat="45.2854141" lon="8.653948"><ele>110.0</ele><time>2026-04-18T15:59:54.991Z</time></trkpt><trkpt lat="45.285493" lon="8.6539498"><ele>110.0</ele><time>2026-04-18T15:59:55.991Z</time></trkpt><trkpt lat="45.2855709" lon="8.6539559"><ele>109.99999999999999</ele><time>2026-04-18T15:59:56.991Z</time></trkpt><trkpt lat="45.2856562" lon="8.6539636"><ele>110.0</ele><time>2026-04-18T15:59:57.991Z</time></trkpt><trkpt lat="45.2857374" lon="8.6539709"><ele>110.16666666666666</ele><time>2026-04-18T15:59:58.991Z</time></trkpt><trkpt lat="45.2858133" lon="8.6539783"><ele>110.33333333333333</ele><time>2026-04-18T15:59:59.99Z</time></trkpt><trkpt lat="45.2858951" lon="8.653984"><ele>110.5</ele><time>2026-04-18T16:00:00.991Z</time></trkpt><trkpt lat="45.2859733" lon="8.6539848"><ele>110.66666666666666</ele><time>2026-04-18T16:00:01.991Z</time></trkpt><trkpt lat="45.2860449" lon="8.6539747"><ele>110.83333333333333</ele><time>2026-04-18T16:00:02.991Z</time></trkpt><trkpt lat="45.2861071" lon="8.6539592"><ele>111.0</ele><time>2026-04-18T16:00:03.991Z</time></trkpt><trkpt lat="45.286213" lon="8.6538991"><ele>111.0</ele><time>2026-04-18T16:00:05.991Z</time></trkpt><trkpt lat="45.2862716" lon="8.6538613"><ele>111.0</ele><time>2026-04-18T16:00:06.99Z</time></trkpt><trkpt lat="45.2863885" lon="8.6537944"><ele>111.0</ele><time>2026-04-18T16:00:08.991Z</time></trkpt><trkpt lat="45.2865088" lon="8.6537511"><ele>111.0</ele><time>2026-04-18T16:00:10.991Z</time></trkpt><trkpt lat="45.2866221" lon="8.6537314"><ele>111.0</ele><time>2026-04-18T16:00:12.991Z</time></trkpt><trkpt lat="45.2867465" lon="8.6537192"><ele>110.75</ele><time>2026-04-18T16:00:14.991Z</time></trkpt><trkpt lat="45.2868624" lon="8.6537296"><ele>110.5</ele><time>2026-04-18T16:00:16.991Z</time></trkpt><trkpt lat="45.2869756" lon="8.6537689"><ele>110.25</ele><time>2026-04-18T16:00:18.99Z</time></trkpt><trkpt lat="45.2870909" lon="8.6537875"><ele>110.0</ele><time>2026-04-18T16:00:20.99Z</time></trkpt><trkpt lat="45.2872037" lon="8.6537766"><ele>110.4</ele><time>2026-04-18T16:00:22.991Z</time></trkpt><trkpt lat="45.2872973" lon="8.6537299"><ele>110.8</ele><time>2026-04-18T16:00:24.991Z</time></trkpt><trkpt lat="45.2874008" lon="8.6536301"><ele>111.19999999999999</ele><time>2026-04-18T16:00:26.99Z</time></trkpt><trkpt lat="45.2874636" lon="8.6535727"><ele>111.6</ele><time>2026-04-18T16:00:27.991Z</time></trkpt><trkpt lat="45.2875315" lon="8.6535116"><ele>112.0</ele><time>2026-04-18T16:00:28.991Z</time></trkpt><trkpt lat="45.2876056" lon="8.6534516"><ele>112.00000000000001</ele><time>2026-04-18T16:00:29.991Z</time></trkpt><trkpt lat="45.2876802" lon="8.6533901"><ele>112.0</ele><time>2026-04-18T16:00:30.99Z</time></trkpt><trkpt lat="45.2877497" lon="8.6533304"><ele>112.0</ele><time>2026-04-18T16:00:31.991Z</time></trkpt><trkpt lat="45.2878143" lon="8.653272"><ele>112.0</ele><time>2026-04-18T16:00:32.991Z</time></trkpt><trkpt lat="45.2878819" lon="8.6532114"><ele>112.00000000000001</ele><time>2026-04-18T16:00:33.991Z</time></trkpt><trkpt lat="45.2879513" lon="8.6531556"><ele>112.0</ele><time>2026-04-18T16:00:34.99Z</time></trkpt><trkpt lat="45.2880101" lon="8.6531035"><ele>112.00000000000001</ele><time>2026-04-18T16:00:35.991Z</time></trkpt><trkpt lat="45.2880664" lon="8.6530563"><ele>112.0</ele><time>2026-04-18T16:00:36.991Z</time></trkpt><trkpt lat="45.2881596" lon="8.652984"><ele>112.0</ele><time>2026-04-18T16:00:38.991Z</time></trkpt><trkpt lat="45.288257" lon="8.6529215"><ele>112.0</ele><time>2026-04-18T16:00:40.991Z</time></trkpt><trkpt lat="45.2883174" lon="8.6528857"><ele>112.00000000000001</ele><time>2026-04-18T16:00:41.99Z</time></trkpt><trkpt lat="45.2883789" lon="8.6528493"><ele>112.0</ele><time>2026-04-18T16:00:42.99Z</time></trkpt><trkpt lat="45.2884492" lon="8.6528118"><ele>112.50000000000001</ele><time>2026-04-18T16:00:43.991Z</time></trkpt><trkpt lat="45.2885208" lon="8.652768"><ele>113.0</ele><time>2026-04-18T16:00:44.991Z</time></trkpt><trkpt lat="45.2885932" lon="8.6527212"><ele>113.5</ele><time>2026-04-18T16:00:45.99Z</time></trkpt><trkpt lat="45.2886671" lon="8.6526791"><ele>114.0</ele><time>2026-04-18T16:00:46.99Z</time></trkpt><trkpt lat="45.2887345" lon="8.6526577"><ele>114.50000000000001</ele><time>2026-04-18T16:00:47.991Z</time></trkpt><trkpt lat="45.2888078" lon="8.6526461"><ele>115.0</ele><time>2026-04-18T16:00:48.991Z</time></trkpt><trkpt lat="45.2888871" lon="8.6526357"><ele>114.8</ele><time>2026-04-18T16:00:49.99Z</time></trkpt><trkpt lat="45.2889736" lon="8.65263"><ele>114.6</ele><time>2026-04-18T16:00:50.99Z</time></trkpt><trkpt lat="45.2890638" lon="8.6526205"><ele>114.4</ele><time>2026-04-18T16:00:51.991Z</time></trkpt><trkpt lat="45.2891547" lon="8.6526115"><ele>114.2</ele><time>2026-04-18T16:00:52.991Z</time></trkpt><trkpt lat="45.2892532" lon="8.6526035"><ele>114.0</ele><time>2026-04-18T16:00:53.991Z</time></trkpt><trkpt lat="45.2893501" lon="8.6525938"><ele>114.0</ele><time>2026-04-18T16:00:54.991Z</time></trkpt><trkpt lat="45.2894476" lon="8.6525814"><ele>114.0</ele><time>2026-04-18T16:00:55.991Z</time></trkpt><trkpt lat="45.2895494" lon="8.6525743"><ele>114.0</ele><time>2026-04-18T16:00:56.991Z</time></trkpt><trkpt lat="45.2896543" lon="8.6525636"><ele>114.0</ele><time>2026-04-18T16:00:57.99Z</time></trkpt><trkpt lat="45.2897581" lon="8.6525519"><ele>114.0</ele><time>2026-04-18T16:00:58.99Z</time></trkpt><trkpt lat="45.2898643" lon="8.6525419"><ele>113.80000000000001</ele><time>2026-04-18T16:00:59.99Z</time></trkpt><trkpt lat="45.2899716" lon="8.6525313"><ele>113.60000000000001</ele><time>2026-04-18T16:01:00.991Z</time></trkpt><trkpt lat="45.2900774" lon="8.6525195"><ele>113.4</ele><time>2026-04-18T16:01:01.99Z</time></trkpt><trkpt lat="45.2901816" lon="8.6525122"><ele>113.2</ele><time>2026-04-18T16:01:02.99Z</time></trkpt><trkpt lat="45.2902828" lon="8.6524991"><ele>113.0</ele><time>2026-04-18T16:01:03.99Z</time></trkpt><trkpt lat="45.2903859" lon="8.6524881"><ele>113.0</ele><time>2026-04-18T16:01:04.99Z</time></trkpt><trkpt lat="45.2904872" lon="8.6524777"><ele>113.00000000000001</ele><time>2026-04-18T16:01:05.991Z</time></trkpt><trkpt lat="45.290589" lon="8.6524702"><ele>113.00000000000001</ele><time>2026-04-18T16:01:06.991Z</time></trkpt><trkpt lat="45.2906877" lon="8.6524618"><ele>113.0</ele><time>2026-04-18T16:01:07.99Z</time></trkpt><trkpt lat="45.290788" lon="8.6524512"><ele>113.0</ele><time>2026-04-18T16:01:08.99Z</time></trkpt><trkpt lat="45.2908861" lon="8.6524414"><ele>113.2</ele><time>2026-04-18T16:01:09.991Z</time></trkpt><trkpt lat="45.2909891" lon="8.6524331"><ele>113.4</ele><time>2026-04-18T16:01:10.99Z</time></trkpt><trkpt lat="45.2910931" lon="8.6524218"><ele>113.60000000000001</ele><time>2026-04-18T16:01:11.991Z</time></trkpt><trkpt lat="45.291192" lon="8.6524099"><ele>113.80000000000001</ele><time>2026-04-18T16:01:12.991Z</time></trkpt><trkpt lat="45.2912993" lon="8.6523975"><ele>114.0</ele><time>2026-04-18T16:01:13.99Z</time></trkpt><trkpt lat="45.2914009" lon="8.652387"><ele>113.80000000000001</ele><time>2026-04-18T16:01:14.991Z</time></trkpt><trkpt lat="45.2915048" lon="8.6523834"><ele>113.60000000000001</ele><time>2026-04-18T16:01:15.991Z</time></trkpt><trkpt lat="45.2916058" lon="8.6523726"><ele>113.4</ele><time>2026-04-18T16:01:16.991Z</time></trkpt><trkpt lat="45.2917122" lon="8.6523577"><ele>113.2</ele><time>2026-04-18T16:01:17.991Z</time></trkpt><trkpt lat="45.2918239" lon="8.6523461"><ele>113.0</ele><time>2026-04-18T16:01:18.991Z</time></trkpt><trkpt lat="45.2919349" lon="8.652334"><ele>113.0</ele><time>2026-04-18T16:01:19.991Z</time></trkpt><trkpt lat="45.2920406" lon="8.6523244"><ele>113.00000000000001</ele><time>2026-04-18T16:01:20.991Z</time></trkpt><trkpt lat="45.2921342" lon="8.6523153"><ele>113.00000000000001</ele><time>2026-04-18T16:01:21.991Z</time></trkpt><trkpt lat="45.2922256" lon="8.6523087"><ele>113.0</ele><time>2026-04-18T16:01:22.991Z</time></trkpt><trkpt lat="45.2923179" lon="8.6522982"><ele>113.0</ele><time>2026-04-18T16:01:23.991Z</time></trkpt><trkpt lat="45.2924116" lon="8.6522869"><ele>112.99999999999999</ele><time>2026-04-18T16:01:24.991Z</time></trkpt><trkpt lat="45.2925046" lon="8.652275"><ele>113.0</ele><time>2026-04-18T16:01:25.991Z</time></trkpt><trkpt lat="45.2925986" lon="8.6522664"><ele>113.0</ele><time>2026-04-18T16:01:26.99Z</time></trkpt><trkpt lat="45.2926906" lon="8.6522551"><ele>113.0</ele><time>2026-04-18T16:01:27.991Z</time></trkpt><trkpt lat="45.292774" lon="8.6522453"><ele>112.99999999999999</ele><time>2026-04-18T16:01:28.99Z</time></trkpt><trkpt lat="45.2928514" lon="8.6522431"><ele>113.0</ele><time>2026-04-18T16:01:29.991Z</time></trkpt><trkpt lat="45.2929319" lon="8.652239"><ele>113.0</ele><time>2026-04-18T16:01:30.991Z</time></trkpt><trkpt lat="45.293004" lon="8.6522357"><ele>113.0</ele><time>2026-04-18T16:01:31.991Z</time></trkpt><trkpt lat="45.2930678" lon="8.6522345"><ele>113.0</ele><time>2026-04-18T16:01:32.991Z</time></trkpt><trkpt lat="45.2931394" lon="8.6522362"><ele>113.0</ele><time>2026-04-18T16:01:34.99Z</time></trkpt><trkpt lat="45.2931901" lon="8.6521766"><ele>113.0</ele><time>2026-04-18T16:02:18.99Z</time></trkpt><trkpt lat="45.2931785" lon="8.6520506"><ele>113.0</ele><time>2026-04-18T16:02:21.991Z</time></trkpt><trkpt lat="45.2931366" lon="8.6519686"><ele>113.0</ele><time>2026-04-18T16:02:23.991Z</time></trkpt><trkpt lat="45.2930644" lon="8.651862"><ele>113.2</ele><time>2026-04-18T16:02:25.99Z</time></trkpt><trkpt lat="45.2929768" lon="8.6517357"><ele>113.4</ele><time>2026-04-18T16:02:27.99Z</time></trkpt><trkpt lat="45.2929283" lon="8.6516535"><ele>113.60000000000001</ele><time>2026-04-18T16:02:28.991Z</time></trkpt><trkpt lat="45.2928767" lon="8.6515774"><ele>113.80000000000001</ele><time>2026-04-18T16:02:29.99Z</time></trkpt><trkpt lat="45.2927962" lon="8.6514506"><ele>114.0</ele><time>2026-04-18T16:02:31.99Z</time></trkpt><trkpt lat="45.292716" lon="8.6513232"><ele>114.0</ele><time>2026-04-18T16:02:33.99Z</time></trkpt><trkpt lat="45.2926438" lon="8.6512154"><ele>114.0</ele><time>2026-04-18T16:02:35.99Z</time></trkpt><trkpt lat="45.2925834" lon="8.65112"><ele>114.0</ele><time>2026-04-18T16:02:37.991Z</time></trkpt><trkpt lat="45.2925095" lon="8.6510046"><ele>114.0</ele><time>2026-04-18T16:02:39.99Z</time></trkpt><trkpt lat="45.292427" lon="8.6508752"><ele>114.0</ele><time>2026-04-18T16:02:41.991Z</time></trkpt><trkpt lat="45.2923831" lon="8.6508045"><ele>113.75</ele><time>2026-04-18T16:02:42.99Z</time></trkpt><trkpt lat="45.292303" lon="8.6506789"><ele>113.5</ele><time>2026-04-18T16:02:44.991Z</time></trkpt><trkpt lat="45.2922333" lon="8.6505583"><ele>113.25</ele><time>2026-04-18T16:02:46.991Z</time></trkpt><trkpt lat="45.2921657" lon="8.6504328"><ele>113.0</ele><time>2026-04-18T16:02:48.99Z</time></trkpt><trkpt lat="45.2920856" lon="8.6503133"><ele>112.75</ele><time>2026-04-18T16:02:50.991Z</time></trkpt><trkpt lat="45.2920055" lon="8.6501884"><ele>112.5</ele><time>2026-04-18T16:02:52.99Z</time></trkpt><trkpt lat="45.2919293" lon="8.6500656"><ele>112.25</ele><time>2026-04-18T16:02:54.99Z</time></trkpt><trkpt lat="45.2918505" lon="8.6499481"><ele>112.0</ele><time>2026-04-18T16:02:56.99Z</time></trkpt><trkpt lat="45.2917689" lon="8.6498268"><ele>112.00000000000001</ele><time>2026-04-18T16:02:58.991Z</time></trkpt><trkpt lat="45.2916843" lon="8.6496923"><ele>112.0</ele><time>2026-04-18T16:03:00.99Z</time></trkpt><trkpt lat="45.2916404" lon="8.6496271"><ele>112.0</ele><time>2026-04-18T16:03:01.991Z</time></trkpt><trkpt lat="45.291591" lon="8.6495461"><ele>112.0</ele><time>2026-04-18T16:03:02.99Z</time></trkpt><trkpt lat="45.2915423" lon="8.6494678"><ele>112.00000000000001</ele><time>2026-04-18T16:03:03.99Z</time></trkpt><trkpt lat="45.2914977" lon="8.6493975"><ele>112.0</ele><time>2026-04-18T16:03:04.99Z</time></trkpt><trkpt lat="45.2914187" lon="8.6492674"><ele>112.0</ele><time>2026-04-18T16:03:06.991Z</time></trkpt><trkpt lat="45.2913395" lon="8.6491424"><ele>112.0</ele><time>2026-04-18T16:03:08.99Z</time></trkpt><trkpt lat="45.2912559" lon="8.6490121"><ele>112.0</ele><time>2026-04-18T16:03:10.991Z</time></trkpt><trkpt lat="45.29117" lon="8.648892"><ele>112.0</ele><time>2026-04-18T16:03:12.99Z</time></trkpt><trkpt lat="45.2911015" lon="8.6487866"><ele>112.0</ele><time>2026-04-18T16:03:14.99Z</time></trkpt><trkpt lat="45.2910624" lon="8.648705"><ele>111.99999999999999</ele><time>2026-04-18T16:03:16.991Z</time></trkpt><trkpt lat="45.2910948" lon="8.6486145"><ele>111.99999999999999</ele><time>2026-04-18T16:03:21.991Z</time></trkpt><trkpt lat="45.291203" lon="8.6485868"><ele>112.0</ele><time>2026-04-18T16:03:24.991Z</time></trkpt><trkpt lat="45.291336" lon="8.6485528"><ele>112.0</ele><time>2026-04-18T16:03:26.991Z</time></trkpt><trkpt lat="45.2914128" lon="8.6485377"><ele>112.16666666666667</ele><time>2026-04-18T16:03:27.991Z</time></trkpt><trkpt lat="45.2914957" lon="8.6485199"><ele>112.33333333333334</ele><time>2026-04-18T16:03:28.99Z</time></trkpt><trkpt lat="45.2915762" lon="8.6485007"><ele>112.5</ele><time>2026-04-18T16:03:29.99Z</time></trkpt><trkpt lat="45.2916535" lon="8.648481"><ele>112.66666666666666</ele><time>2026-04-18T16:03:30.99Z</time></trkpt><trkpt lat="45.2917288" lon="8.6484594"><ele>112.83333333333333</ele><time>2026-04-18T16:03:31.991Z</time></trkpt><trkpt lat="45.2918045" lon="8.6484403"><ele>113.0</ele><time>2026-04-18T16:03:32.991Z</time></trkpt><trkpt lat="45.2918872" lon="8.6484238"><ele>112.99999999999999</ele><time>2026-04-18T16:03:33.99Z</time></trkpt><trkpt lat="45.291968" lon="8.6484049"><ele>113.0</ele><time>2026-04-18T16:03:34.991Z</time></trkpt><trkpt lat="45.2920549" lon="8.6483882"><ele>113.0</ele><time>2026-04-18T16:03:35.99Z</time></trkpt><trkpt lat="45.2921448" lon="8.6483684"><ele>113.0</ele><time>2026-04-18T16:03:36.99Z</time></trkpt><trkpt lat="45.2922335" lon="8.6483487"><ele>112.99999999999999</ele><time>2026-04-18T16:03:37.991Z</time></trkpt><trkpt lat="45.2923236" lon="8.6483286"><ele>113.0</ele><time>2026-04-18T16:03:38.991Z</time></trkpt><trkpt lat="45.2924113" lon="8.6483086"><ele>112.80000000000001</ele><time>2026-04-18T16:03:39.991Z</time></trkpt><trkpt lat="45.2925071" lon="8.6482885"><ele>112.60000000000001</ele><time>2026-04-18T16:03:40.99Z</time></trkpt><trkpt lat="45.2926076" lon="8.6482653"><ele>112.39999999999999</ele><time>2026-04-18T16:03:41.991Z</time></trkpt><trkpt lat="45.2927145" lon="8.6482396"><ele>112.19999999999999</ele><time>2026-04-18T16:03:42.99Z</time></trkpt><trkpt lat="45.2928287" lon="8.6482162"><ele>112.0</ele><time>2026-04-18T16:03:43.991Z</time></trkpt><trkpt lat="45.2929453" lon="8.6481906"><ele>112.0</ele><time>2026-04-18T16:03:44.991Z</time></trkpt><trkpt lat="45.2930605" lon="8.6481635"><ele>112.0</ele><time>2026-04-18T16:03:45.99Z</time></trkpt><trkpt lat="45.2931738" lon="8.6481374"><ele>112.0</ele><time>2026-04-18T16:03:46.991Z</time></trkpt><trkpt lat="45.2932906" lon="8.6481116"><ele>112.0</ele><time>2026-04-18T16:03:47.991Z</time></trkpt><trkpt lat="45.2934079" lon="8.6480861"><ele>111.8</ele><time>2026-04-18T16:03:48.99Z</time></trkpt><trkpt lat="45.2935166" lon="8.6480574"><ele>111.6</ele><time>2026-04-18T16:03:49.991Z</time></trkpt><trkpt lat="45.293611" lon="8.6480353"><ele>111.39999999999999</ele><time>2026-04-18T16:03:50.991Z</time></trkpt><trkpt lat="45.2937024" lon="8.6480135"><ele>111.19999999999999</ele><time>2026-04-18T16:03:51.99Z</time></trkpt><trkpt lat="45.2937868" lon="8.64799"><ele>111.0</ele><time>2026-04-18T16:03:52.991Z</time></trkpt><trkpt lat="45.2938773" lon="8.6479665"><ele>111.16666666666667</ele><time>2026-04-18T16:03:53.991Z</time></trkpt><trkpt lat="45.2939606" lon="8.6479423"><ele>111.33333333333334</ele><time>2026-04-18T16:03:54.991Z</time></trkpt><trkpt lat="45.294045" lon="8.6479229"><ele>111.5</ele><time>2026-04-18T16:03:55.991Z</time></trkpt><trkpt lat="45.2941246" lon="8.6479025"><ele>111.66666666666667</ele><time>2026-04-18T16:03:56.991Z</time></trkpt><trkpt lat="45.2941997" lon="8.6478844"><ele>111.83333333333334</ele><time>2026-04-18T16:03:57.99Z</time></trkpt><trkpt lat="45.2942725" lon="8.6478673"><ele>112.0</ele><time>2026-04-18T16:03:58.991Z</time></trkpt><trkpt lat="45.294345" lon="8.6478525"><ele>112.0</ele><time>2026-04-18T16:03:59.99Z</time></trkpt><trkpt lat="45.2944106" lon="8.6478331"><ele>111.99999999999999</ele><time>2026-04-18T16:04:00.99Z</time></trkpt><trkpt lat="45.2945275" lon="8.6478079"><ele>111.99999999999999</ele><time>2026-04-18T16:04:02.991Z</time></trkpt><trkpt lat="45.2946435" lon="8.6477813"><ele>112.0</ele><time>2026-04-18T16:04:04.991Z</time></trkpt><trkpt lat="45.2947595" lon="8.6477529"><ele>112.0</ele><time>2026-04-18T16:04:06.991Z</time></trkpt><trkpt lat="45.2948717" lon="8.6477242"><ele>112.16666666666667</ele><time>2026-04-18T16:04:08.991Z</time></trkpt><trkpt lat="45.2949864" lon="8.647687"><ele>112.33333333333334</ele><time>2026-04-18T16:04:10.991Z</time></trkpt><trkpt lat="45.2950489" lon="8.6476695"><ele>112.5</ele><time>2026-04-18T16:04:11.991Z</time></trkpt><trkpt lat="45.2951189" lon="8.647652"><ele>112.66666666666666</ele><time>2026-04-18T16:04:12.99Z</time></trkpt><trkpt lat="45.2951937" lon="8.6476334"><ele>112.83333333333333</ele><time>2026-04-18T16:04:13.991Z</time></trkpt><trkpt lat="45.2952754" lon="8.6476083"><ele>113.0</ele><time>2026-04-18T16:04:14.991Z</time></trkpt><trkpt lat="45.2953574" lon="8.6475874"><ele>113.0</ele><time>2026-04-18T16:04:15.99Z</time></trkpt><trkpt lat="45.2954418" lon="8.6475595"><ele>113.00000000000001</ele><time>2026-04-18T16:04:16.99Z</time></trkpt><trkpt lat="45.2955274" lon="8.6475313"><ele>113.00000000000001</ele><time>2026-04-18T16:04:17.991Z</time></trkpt><trkpt lat="45.2956204" lon="8.6475038"><ele>113.0</ele><time>2026-04-18T16:04:18.991Z</time></trkpt><trkpt lat="45.2957231" lon="8.6474714"><ele>113.0</ele><time>2026-04-18T16:04:19.991Z</time></trkpt><trkpt lat="45.2958394" lon="8.647435"><ele>112.75</ele><time>2026-04-18T16:04:20.991Z</time></trkpt><trkpt lat="45.2959622" lon="8.6473927"><ele>112.5</ele><time>2026-04-18T16:04:21.991Z</time></trkpt><trkpt lat="45.2960891" lon="8.6473578"><ele>112.25</ele><time>2026-04-18T16:04:22.991Z</time></trkpt><trkpt lat="45.2962133" lon="8.6473183"><ele>112.0</ele><time>2026-04-18T16:04:23.991Z</time></trkpt><trkpt lat="45.296332" lon="8.6472803"><ele>112.19999999999999</ele><time>2026-04-18T16:04:24.991Z</time></trkpt><trkpt lat="45.2964475" lon="8.6472474"><ele>112.39999999999999</ele><time>2026-04-18T16:04:25.99Z</time></trkpt><trkpt lat="45.2965469" lon="8.6472165"><ele>112.60000000000001</ele><time>2026-04-18T16:04:26.991Z</time></trkpt><trkpt lat="45.296625" lon="8.6471928"><ele>112.80000000000001</ele><time>2026-04-18T16:04:27.99Z</time></trkpt><trkpt lat="45.2967084" lon="8.6471648"><ele>113.0</ele><time>2026-04-18T16:04:29.991Z</time></trkpt><trkpt lat="45.2968317" lon="8.6471391"><ele>113.0</ele><time>2026-04-18T16:10:45.99Z</time></trkpt><trkpt lat="45.2969472" lon="8.6470952"><ele>113.00000000000001</ele><time>2026-04-18T16:10:47.99Z</time></trkpt><trkpt lat="45.2970182" lon="8.6470694"><ele>113.00000000000001</ele><time>2026-04-18T16:10:48.99Z</time></trkpt><trkpt lat="45.2971023" lon="8.6470459"><ele>113.0</ele><time>2026-04-18T16:10:49.99Z</time></trkpt><trkpt lat="45.2971888" lon="8.6470164"><ele>113.0</ele><time>2026-04-18T16:10:50.991Z</time></trkpt><trkpt lat="45.29727" lon="8.6469869"><ele>112.99999999999999</ele><time>2026-04-18T16:10:51.99Z</time></trkpt><trkpt lat="45.2973484" lon="8.6469631"><ele>113.0</ele><time>2026-04-18T16:10:52.991Z</time></trkpt><trkpt lat="45.2974193" lon="8.6469398"><ele>113.0</ele><time>2026-04-18T16:10:53.991Z</time></trkpt><trkpt lat="45.2975195" lon="8.6468873"><ele>113.0</ele><time>2026-04-18T16:10:55.991Z</time></trkpt><trkpt lat="45.2975718" lon="8.6468226"><ele>112.99999999999999</ele><time>2026-04-18T16:10:57.991Z</time></trkpt><trkpt lat="45.2975293" lon="8.6467086"><ele>113.0</ele><time>2026-04-18T16:11:01.99Z</time></trkpt><trkpt lat="45.2974361" lon="8.6466139"><ele>113.0</ele><time>2026-04-18T16:11:03.991Z</time></trkpt><trkpt lat="45.2973489" lon="8.6465162"><ele>113.00000000000001</ele><time>2026-04-18T16:11:05.991Z</time></trkpt><trkpt lat="45.2972873" lon="8.6463984"><ele>113.00000000000001</ele><time>2026-04-18T16:11:07.991Z</time></trkpt><trkpt lat="45.2972485" lon="8.6462415"><ele>113.0</ele><time>2026-04-18T16:11:09.99Z</time></trkpt><trkpt lat="45.2972345" lon="8.6460761"><ele>113.0</ele><time>2026-04-18T16:11:11.991Z</time></trkpt><trkpt lat="45.2972081" lon="8.6459122"><ele>112.83333333333333</ele><time>2026-04-18T16:11:13.991Z</time></trkpt><trkpt lat="45.2971968" lon="8.6458221"><ele>112.66666666666666</ele><time>2026-04-18T16:11:14.991Z</time></trkpt><trkpt lat="45.2971796" lon="8.6457196"><ele>112.5</ele><time>2026-04-18T16:11:15.991Z</time></trkpt><trkpt lat="45.2971644" lon="8.6456035"><ele>112.33333333333334</ele><time>2026-04-18T16:11:16.991Z</time></trkpt><trkpt lat="45.2971503" lon="8.6454809"><ele>112.16666666666667</ele><time>2026-04-18T16:11:17.99Z</time></trkpt><trkpt lat="45.2971323" lon="8.6453608"><ele>112.0</ele><time>2026-04-18T16:11:18.991Z</time></trkpt><trkpt lat="45.2971139" lon="8.6452347"><ele>112.00000000000001</ele><time>2026-04-18T16:11:19.99Z</time></trkpt><trkpt lat="45.2970942" lon="8.6451093"><ele>112.0</ele><time>2026-04-18T16:11:20.991Z</time></trkpt><trkpt lat="45.2970801" lon="8.6449888"><ele>112.0</ele><time>2026-04-18T16:11:21.99Z</time></trkpt><trkpt lat="45.2970659" lon="8.6448781"><ele>112.0</ele><time>2026-04-18T16:11:22.991Z</time></trkpt><trkpt lat="45.2970483" lon="8.6447814"><ele>112.00000000000001</ele><time>2026-04-18T16:11:23.991Z</time></trkpt><trkpt lat="45.2970272" lon="8.6446334"><ele>112.0</ele><time>2026-04-18T16:11:25.991Z</time></trkpt><trkpt lat="45.2970537" lon="8.6445471"><ele>112.0</ele><time>2026-04-18T16:11:27.99Z</time></trkpt><trkpt lat="45.2971334" lon="8.6445053"><ele>111.99999999999999</ele><time>2026-04-18T16:11:29.991Z</time></trkpt><trkpt lat="45.2972708" lon="8.6444451"><ele>111.99999999999999</ele><time>2026-04-18T16:11:31.991Z</time></trkpt><trkpt lat="45.2973595" lon="8.6444016"><ele>112.0</ele><time>2026-04-18T16:11:32.991Z</time></trkpt><trkpt lat="45.2974614" lon="8.6443536"><ele>112.0</ele><time>2026-04-18T16:11:33.991Z</time></trkpt><trkpt lat="45.297572" lon="8.6443009"><ele>112.25</ele><time>2026-04-18T16:11:34.991Z</time></trkpt><trkpt lat="45.2976889" lon="8.644247"><ele>112.5</ele><time>2026-04-18T16:11:35.991Z</time></trkpt><trkpt lat="45.297812" lon="8.6441909"><ele>112.75</ele><time>2026-04-18T16:11:36.991Z</time></trkpt><trkpt lat="45.2979287" lon="8.6441327"><ele>113.0</ele><time>2026-04-18T16:11:37.99Z</time></trkpt><trkpt lat="45.298041" lon="8.644079"><ele>113.0</ele><time>2026-04-18T16:11:38.991Z</time></trkpt><trkpt lat="45.2981483" lon="8.6440326"><ele>113.00000000000001</ele><time>2026-04-18T16:11:39.99Z</time></trkpt><trkpt lat="45.2982436" lon="8.643992"><ele>113.00000000000001</ele><time>2026-04-18T16:11:40.991Z</time></trkpt><trkpt lat="45.298332" lon="8.6439524"><ele>113.0</ele><time>2026-04-18T16:11:41.991Z</time></trkpt><trkpt lat="45.2984179" lon="8.6439112"><ele>113.0</ele><time>2026-04-18T16:11:42.99Z</time></trkpt><trkpt lat="45.2984978" lon="8.6438754"><ele>112.99999999999999</ele><time>2026-04-18T16:11:43.991Z</time></trkpt><trkpt lat="45.298577" lon="8.6438353"><ele>113.0</ele><time>2026-04-18T16:11:44.99Z</time></trkpt><trkpt lat="45.2986568" lon="8.6437972"><ele>113.0</ele><time>2026-04-18T16:11:45.991Z</time></trkpt><trkpt lat="45.2987352" lon="8.6437561"><ele>113.0</ele><time>2026-04-18T16:11:46.99Z</time></trkpt><trkpt lat="45.2988169" lon="8.6437268"><ele>112.99999999999999</ele><time>2026-04-18T16:11:47.991Z</time></trkpt><trkpt lat="45.2988962" lon="8.6437141"><ele>113.0</ele><time>2026-04-18T16:11:48.991Z</time></trkpt><trkpt lat="45.2989778" lon="8.6437188"><ele>113.16666666666666</ele><time>2026-04-18T16:11:49.99Z</time></trkpt><trkpt lat="45.299062" lon="8.6437219"><ele>113.33333333333333</ele><time>2026-04-18T16:11:50.99Z</time></trkpt><trkpt lat="45.2991466" lon="8.6437167"><ele>113.5</ele><time>2026-04-18T16:11:51.991Z</time></trkpt><trkpt lat="45.2992289" lon="8.6437332"><ele>113.66666666666666</ele><time>2026-04-18T16:11:52.99Z</time></trkpt><trkpt lat="45.2993082" lon="8.6437638"><ele>113.83333333333333</ele><time>2026-04-18T16:11:53.991Z</time></trkpt><trkpt lat="45.2993812" lon="8.6438185"><ele>114.0</ele><time>2026-04-18T16:11:54.99Z</time></trkpt><trkpt lat="45.2994596" lon="8.6438734"><ele>114.0</ele><time>2026-04-18T16:11:55.991Z</time></trkpt><trkpt lat="45.2995341" lon="8.6439311"><ele>114.0</ele><time>2026-04-18T16:11:56.991Z</time></trkpt><trkpt lat="45.29962" lon="8.6439935"><ele>114.0</ele><time>2026-04-18T16:11:57.99Z</time></trkpt><trkpt lat="45.2997081" lon="8.6440558"><ele>114.0</ele><time>2026-04-18T16:11:58.991Z</time></trkpt><trkpt lat="45.2997869" lon="8.6441095"><ele>114.0</ele><time>2026-04-18T16:11:59.99Z</time></trkpt><trkpt lat="45.2998584" lon="8.6441586"><ele>114.0</ele><time>2026-04-18T16:12:00.991Z</time></trkpt><trkpt lat="45.2999184" lon="8.6442113"><ele>113.80000000000001</ele><time>2026-04-18T16:12:01.991Z</time></trkpt><trkpt lat="45.3000147" lon="8.6443031"><ele>113.60000000000001</ele><time>2026-04-18T16:12:03.991Z</time></trkpt><trkpt lat="45.3000939" lon="8.6443194"><ele>113.4</ele><time>2026-04-18T16:12:05.99Z</time></trkpt><trkpt lat="45.3001483" lon="8.6442456"><ele>113.2</ele><time>2026-04-18T16:12:08.991Z</time></trkpt><trkpt lat="45.3002404" lon="8.6442622"><ele>113.0</ele><time>2026-04-18T16:12:11.991Z</time></trkpt><trkpt lat="45.3003357" lon="8.6443494"><ele>112.99999999999999</ele><time>2026-04-18T16:12:13.991Z</time></trkpt><trkpt lat="45.3003975" lon="8.6443909"><ele>113.0</ele><time>2026-04-18T16:12:14.991Z</time></trkpt><trkpt lat="45.3004652" lon="8.644438"><ele>113.0</ele><time>2026-04-18T16:12:15.99Z</time></trkpt><trkpt lat="45.3005366" lon="8.6444861"><ele>113.0</ele><time>2026-04-18T16:12:16.991Z</time></trkpt><trkpt lat="45.300621" lon="8.644549"><ele>112.99999999999999</ele><time>2026-04-18T16:12:17.99Z</time></trkpt><trkpt lat="45.3007119" lon="8.6446163"><ele>113.0</ele><time>2026-04-18T16:12:18.991Z</time></trkpt><trkpt lat="45.3008054" lon="8.6446888"><ele>113.0</ele><time>2026-04-18T16:12:19.991Z</time></trkpt><trkpt lat="45.30089" lon="8.6447543"><ele>113.00000000000001</ele><time>2026-04-18T16:12:20.991Z</time></trkpt><trkpt lat="45.3009673" lon="8.644816"><ele>113.00000000000001</ele><time>2026-04-18T16:12:21.991Z</time></trkpt><trkpt lat="45.3010446" lon="8.6448851"><ele>113.0</ele><time>2026-04-18T16:12:22.991Z</time></trkpt><trkpt lat="45.3011244" lon="8.644952"><ele>113.0</ele><time>2026-04-18T16:12:23.99Z</time></trkpt><trkpt lat="45.3012082" lon="8.6450197"><ele>113.0</ele><time>2026-04-18T16:12:24.99Z</time></trkpt><trkpt lat="45.3012988" lon="8.6450889"><ele>113.00000000000001</ele><time>2026-04-18T16:12:25.991Z</time></trkpt><trkpt lat="45.3013928" lon="8.6451629"><ele>113.00000000000001</ele><time>2026-04-18T16:12:26.99Z</time></trkpt><trkpt lat="45.3014951" lon="8.6452372"><ele>113.0</ele><time>2026-04-18T16:12:27.99Z</time></trkpt><trkpt lat="45.3015951" lon="8.6453152"><ele>113.0</ele><time>2026-04-18T16:12:28.991Z</time></trkpt><trkpt lat="45.3016946" lon="8.6453881"><ele>113.5</ele><time>2026-04-18T16:12:29.99Z</time></trkpt><trkpt lat="45.3017944" lon="8.6454671"><ele>114.0</ele><time>2026-04-18T16:12:30.991Z</time></trkpt><trkpt lat="45.3018999" lon="8.6455485"><ele>114.5</ele><time>2026-04-18T16:12:31.991Z</time></trkpt><trkpt lat="45.3020043" lon="8.6456302"><ele>115.0</ele><time>2026-04-18T16:12:32.991Z</time></trkpt><trkpt lat="45.3021098" lon="8.6457095"><ele>115.0</ele><time>2026-04-18T16:12:33.99Z</time></trkpt><trkpt lat="45.3022181" lon="8.6457944"><ele>115.0</ele><time>2026-04-18T16:12:34.991Z</time></trkpt><trkpt lat="45.3023331" lon="8.6458793"><ele>115.0</ele><time>2026-04-18T16:12:35.99Z</time></trkpt><trkpt lat="45.3024518" lon="8.6459682"><ele>115.0</ele><time>2026-04-18T16:12:36.991Z</time></trkpt><trkpt lat="45.3025703" lon="8.6460636"><ele>114.75</ele><time>2026-04-18T16:12:37.991Z</time></trkpt><trkpt lat="45.3026928" lon="8.6461574"><ele>114.5</ele><time>2026-04-18T16:12:38.991Z</time></trkpt><trkpt lat="45.3028147" lon="8.6462543"><ele>114.25</ele><time>2026-04-18T16:12:39.991Z</time></trkpt><trkpt lat="45.302942" lon="8.646352"><ele>114.0</ele><time>2026-04-18T16:12:40.991Z</time></trkpt><trkpt lat="45.303071" lon="8.6464529"><ele>113.75</ele><time>2026-04-18T16:12:41.99Z</time></trkpt><trkpt lat="45.3032002" lon="8.646554"><ele>113.5</ele><time>2026-04-18T16:12:42.991Z</time></trkpt><trkpt lat="45.3033321" lon="8.6466543"><ele>113.25</ele><time>2026-04-18T16:12:43.99Z</time></trkpt><trkpt lat="45.3034618" lon="8.6467542"><ele>113.0</ele><time>2026-04-18T16:12:44.99Z</time></trkpt><trkpt lat="45.3035969" lon="8.6468571"><ele>113.0</ele><time>2026-04-18T16:12:45.991Z</time></trkpt><trkpt lat="45.3037299" lon="8.6469606"><ele>113.0</ele><time>2026-04-18T16:12:46.991Z</time></trkpt><trkpt lat="45.303852" lon="8.6470606"><ele>113.0</ele><time>2026-04-18T16:12:47.991Z</time></trkpt><trkpt lat="45.3039699" lon="8.6471502"><ele>113.0</ele><time>2026-04-18T16:12:48.991Z</time></trkpt><trkpt lat="45.3040784" lon="8.6472316"><ele>113.2</ele><time>2026-04-18T16:12:49.991Z</time></trkpt><trkpt lat="45.3041796" lon="8.6473075"><ele>113.4</ele><time>2026-04-18T16:12:50.991Z</time></trkpt><trkpt lat="45.3042772" lon="8.6473712"><ele>113.60000000000001</ele><time>2026-04-18T16:12:51.991Z</time></trkpt><trkpt lat="45.3043528" lon="8.6474241"><ele>113.80000000000001</ele><time>2026-04-18T16:12:52.99Z</time></trkpt><trkpt lat="45.3044144" lon="8.6474686"><ele>114.0</ele><time>2026-04-18T16:12:53.991Z</time></trkpt><trkpt lat="45.3044855" lon="8.6475534"><ele>114.0</ele><time>2026-04-18T16:12:55.991Z</time></trkpt><trkpt lat="45.3044994" lon="8.6476544"><ele>114.0</ele><time>2026-04-18T16:12:57.991Z</time></trkpt><trkpt lat="45.3045335" lon="8.64774"><ele>114.0</ele><time>2026-04-18T16:12:59.99Z</time></trkpt><trkpt lat="45.3046011" lon="8.6477694"><ele>114.0</ele><time>2026-04-18T16:13:01.991Z</time></trkpt><trkpt lat="45.3046841" lon="8.6477573"><ele>114.0</ele><time>2026-04-18T16:13:03.99Z</time></trkpt><trkpt lat="45.3048129" lon="8.6477011"><ele>114.0</ele><time>2026-04-18T16:13:05.991Z</time></trkpt><trkpt lat="45.3048982" lon="8.6476694"><ele>114.0</ele><time>2026-04-18T16:13:06.991Z</time></trkpt><trkpt lat="45.3049942" lon="8.6476363"><ele>114.0</ele><time>2026-04-18T16:13:07.991Z</time></trkpt><trkpt lat="45.3050972" lon="8.6476016"><ele>114.0</ele><time>2026-04-18T16:13:08.99Z</time></trkpt><trkpt lat="45.3052045" lon="8.6475704"><ele>114.0</ele><time>2026-04-18T16:13:09.991Z</time></trkpt><trkpt lat="45.305314" lon="8.6475472"><ele>114.0</ele><time>2026-04-18T16:13:10.991Z</time></trkpt><trkpt lat="45.3054193" lon="8.6475298"><ele>114.0</ele><time>2026-04-18T16:13:11.991Z</time></trkpt><trkpt lat="45.3055231" lon="8.6475175"><ele>114.0</ele><time>2026-04-18T16:13:12.991Z</time></trkpt><trkpt lat="45.3056268" lon="8.6475111"><ele>114.0</ele><time>2026-04-18T16:13:13.991Z</time></trkpt><trkpt lat="45.3057325" lon="8.6474991"><ele>114.0</ele><time>2026-04-18T16:13:14.99Z</time></trkpt><trkpt lat="45.305834" lon="8.6474766"><ele>114.0</ele><time>2026-04-18T16:13:15.991Z</time></trkpt><trkpt lat="45.3059353" lon="8.6474364"><ele>114.0</ele><time>2026-04-18T16:13:16.991Z</time></trkpt><trkpt lat="45.3060399" lon="8.6473815"><ele>114.0</ele><time>2026-04-18T16:13:17.991Z</time></trkpt><trkpt lat="45.3061501" lon="8.6473183"><ele>114.0</ele><time>2026-04-18T16:13:18.991Z</time></trkpt><trkpt lat="45.3062616" lon="8.6472563"><ele>114.0</ele><time>2026-04-18T16:13:19.991Z</time></trkpt><trkpt lat="45.3063779" lon="8.6471964"><ele>114.0</ele><time>2026-04-18T16:13:20.99Z</time></trkpt><trkpt lat="45.3064976" lon="8.6471393"><ele>114.0</ele><time>2026-04-18T16:13:21.99Z</time></trkpt><trkpt lat="45.3066195" lon="8.6470824"><ele>114.0</ele><time>2026-04-18T16:13:22.991Z</time></trkpt><trkpt lat="45.3067477" lon="8.6470261"><ele>114.0</ele><time>2026-04-18T16:13:23.99Z</time></trkpt><trkpt lat="45.3068731" lon="8.6469686"><ele>114.0</ele><time>2026-04-18T16:13:24.991Z</time></trkpt><trkpt lat="45.3069899" lon="8.6469162"><ele>114.0</ele><time>2026-04-18T16:13:25.991Z</time></trkpt><trkpt lat="45.307096" lon="8.6468714"><ele>114.0</ele><time>2026-04-18T16:13:26.991Z</time></trkpt><trkpt lat="45.3071995" lon="8.646825"><ele>114.0</ele><time>2026-04-18T16:13:27.991Z</time></trkpt><trkpt lat="45.3073044" lon="8.6467809"><ele>114.0</ele><time>2026-04-18T16:13:28.991Z</time></trkpt><trkpt lat="45.3074092" lon="8.6467355"><ele>114.0</ele><time>2026-04-18T16:13:29.99Z</time></trkpt><trkpt lat="45.307518" lon="8.6466895"><ele>114.0</ele><time>2026-04-18T16:13:30.99Z</time></trkpt><trkpt lat="45.3076316" lon="8.64664"><ele>114.0</ele><time>2026-04-18T16:13:31.99Z</time></trkpt><trkpt lat="45.3077416" lon="8.6465919"><ele>114.0</ele><time>2026-04-18T16:13:32.991Z</time></trkpt><trkpt lat="45.3078432" lon="8.6465491"><ele>114.0</ele><time>2026-04-18T16:13:33.99Z</time></trkpt><trkpt lat="45.3079416" lon="8.6465231"><ele>114.0</ele><time>2026-04-18T16:13:34.99Z</time></trkpt><trkpt lat="45.3080426" lon="8.6465088"><ele>114.0</ele><time>2026-04-18T16:13:35.991Z</time></trkpt><trkpt lat="45.3081447" lon="8.6464997"><ele>114.0</ele><time>2026-04-18T16:13:36.99Z</time></trkpt><trkpt lat="45.3082529" lon="8.6464943"><ele>114.0</ele><time>2026-04-18T16:13:37.991Z</time></trkpt><trkpt lat="45.3083652" lon="8.6464982"><ele>114.0</ele><time>2026-04-18T16:13:38.991Z</time></trkpt><trkpt lat="45.3084783" lon="8.6465092"><ele>114.0</ele><time>2026-04-18T16:13:39.991Z</time></trkpt><trkpt lat="45.3085922" lon="8.6465194"><ele>114.0</ele><time>2026-04-18T16:13:40.991Z</time></trkpt><trkpt lat="45.308708" lon="8.6465275"><ele>114.0</ele><time>2026-04-18T16:13:41.991Z</time></trkpt><trkpt lat="45.3088239" lon="8.646536"><ele>114.0</ele><time>2026-04-18T16:13:42.99Z</time></trkpt><trkpt lat="45.3089421" lon="8.646544"><ele>114.0</ele><time>2026-04-18T16:13:43.991Z</time></trkpt><trkpt lat="45.3090554" lon="8.6465551"><ele>114.0</ele><time>2026-04-18T16:13:44.991Z</time></trkpt><trkpt lat="45.3091647" lon="8.64657"><ele>114.4</ele><time>2026-04-18T16:13:45.991Z</time></trkpt><trkpt lat="45.3092662" lon="8.646578"><ele>114.80000000000001</ele><time>2026-04-18T16:13:46.991Z</time></trkpt><trkpt lat="45.3093748" lon="8.6465839"><ele>115.19999999999999</ele><time>2026-04-18T16:13:47.991Z</time></trkpt><trkpt lat="45.3094851" lon="8.6465931"><ele>115.6</ele><time>2026-04-18T16:13:48.991Z</time></trkpt><trkpt lat="45.3095915" lon="8.6466033"><ele>116.0</ele><time>2026-04-18T16:13:49.991Z</time></trkpt><trkpt lat="45.3096983" lon="8.6466097"><ele>115.6</ele><time>2026-04-18T16:13:50.991Z</time></trkpt><trkpt lat="45.3098048" lon="8.6466211"><ele>115.19999999999999</ele><time>2026-04-18T16:13:51.99Z</time></trkpt><trkpt lat="45.3099118" lon="8.6466278"><ele>114.80000000000001</ele><time>2026-04-18T16:13:52.991Z</time></trkpt><trkpt lat="45.3100216" lon="8.6466389"><ele>114.4</ele><time>2026-04-18T16:13:53.991Z</time></trkpt><trkpt lat="45.3101317" lon="8.6466494"><ele>114.0</ele><time>2026-04-18T16:13:54.99Z</time></trkpt><trkpt lat="45.3102434" lon="8.6466611"><ele>114.0</ele><time>2026-04-18T16:13:55.991Z</time></trkpt><trkpt lat="45.3103619" lon="8.6466757"><ele>114.0</ele><time>2026-04-18T16:13:56.99Z</time></trkpt><trkpt lat="45.3104799" lon="8.6466891"><ele>114.0</ele><time>2026-04-18T16:13:57.991Z</time></trkpt><trkpt lat="45.310598" lon="8.6467005"><ele>114.0</ele><time>2026-04-18T16:13:58.991Z</time></trkpt><trkpt lat="45.3107248" lon="8.646712"><ele>114.5</ele><time>2026-04-18T16:13:59.991Z</time></trkpt><trkpt lat="45.3108441" lon="8.6467227"><ele>115.0</ele><time>2026-04-18T16:14:00.991Z</time></trkpt><trkpt lat="45.3109588" lon="8.6467392"><ele>115.5</ele><time>2026-04-18T16:14:01.99Z</time></trkpt><trkpt lat="45.3110667" lon="8.6467495"><ele>116.0</ele><time>2026-04-18T16:14:02.99Z</time></trkpt><trkpt lat="45.3111762" lon="8.6467577"><ele>115.99999999999999</ele><time>2026-04-18T16:14:03.991Z</time></trkpt><trkpt lat="45.3112866" lon="8.6467704"><ele>116.0</ele><time>2026-04-18T16:14:04.991Z</time></trkpt><trkpt lat="45.3113873" lon="8.6467748"><ele>116.0</ele><time>2026-04-18T16:14:05.99Z</time></trkpt><trkpt lat="45.3114735" lon="8.646774"><ele>116.0</ele><time>2026-04-18T16:14:06.99Z</time></trkpt><trkpt lat="45.3115449" lon="8.646775"><ele>115.99999999999999</ele><time>2026-04-18T16:14:07.991Z</time></trkpt><trkpt lat="45.3116086" lon="8.6467793"><ele>116.0</ele><time>2026-04-18T16:14:08.99Z</time></trkpt><trkpt lat="45.3116991" lon="8.646847"><ele>116.0</ele><time>2026-04-18T16:14:10.991Z</time></trkpt><trkpt lat="45.3117543" lon="8.6469977"><ele>116.0</ele><time>2026-04-18T16:14:12.991Z</time></trkpt><trkpt lat="45.3117813" lon="8.6470995"><ele>116.0</ele><time>2026-04-18T16:14:13.99Z</time></trkpt><trkpt lat="45.3118118" lon="8.6472197"><ele>116.0</ele><time>2026-04-18T16:14:14.991Z</time></trkpt><trkpt lat="45.3118464" lon="8.6473477"><ele>116.0</ele><time>2026-04-18T16:14:15.991Z</time></trkpt><trkpt lat="45.3118844" lon="8.647478"><ele>115.99999999999999</ele><time>2026-04-18T16:14:16.991Z</time></trkpt><trkpt lat="45.3119168" lon="8.6475988"><ele>116.0</ele><time>2026-04-18T16:14:17.99Z</time></trkpt><trkpt lat="45.311948" lon="8.6477226"><ele>116.0</ele><time>2026-04-18T16:14:18.991Z</time></trkpt><trkpt lat="45.3119828" lon="8.6478496"><ele>116.0</ele><time>2026-04-18T16:14:19.99Z</time></trkpt><trkpt lat="45.3120114" lon="8.6479629"><ele>115.99999999999999</ele><time>2026-04-18T16:14:20.991Z</time></trkpt><trkpt lat="45.312036" lon="8.6480699"><ele>116.0</ele><time>2026-04-18T16:14:21.991Z</time></trkpt><trkpt lat="45.3120592" lon="8.6481588"><ele>115.83333333333333</ele><time>2026-04-18T16:14:22.99Z</time></trkpt><trkpt lat="45.3120855" lon="8.6482525"><ele>115.66666666666666</ele><time>2026-04-18T16:14:23.991Z</time></trkpt><trkpt lat="45.3121175" lon="8.648353"><ele>115.5</ele><time>2026-04-18T16:14:24.991Z</time></trkpt><trkpt lat="45.3121459" lon="8.6484544"><ele>115.33333333333334</ele><time>2026-04-18T16:14:25.991Z</time></trkpt><trkpt lat="45.3121696" lon="8.6485426"><ele>115.16666666666667</ele><time>2026-04-18T16:14:26.99Z</time></trkpt><trkpt lat="45.3121928" lon="8.6486268"><ele>115.0</ele><time>2026-04-18T16:14:27.99Z</time></trkpt><trkpt lat="45.3122277" lon="8.6487677"><ele>115.16666666666667</ele><time>2026-04-18T16:14:29.99Z</time></trkpt><trkpt lat="45.312275" lon="8.6488271"><ele>115.33333333333334</ele><time>2026-04-18T16:14:31.99Z</time></trkpt><trkpt lat="45.3123521" lon="8.6488136"><ele>115.5</ele><time>2026-04-18T16:14:33.991Z</time></trkpt><trkpt lat="45.3124466" lon="8.6487448"><ele>115.66666666666666</ele><time>2026-04-18T16:14:35.99Z</time></trkpt><trkpt lat="45.3125116" lon="8.6487092"><ele>115.83333333333333</ele><time>2026-04-18T16:14:36.99Z</time></trkpt><trkpt lat="45.3125823" lon="8.6486722"><ele>116.0</ele><time>2026-04-18T16:14:37.991Z</time></trkpt><trkpt lat="45.312657" lon="8.6486293"><ele>116.16666666666666</ele><time>2026-04-18T16:14:38.991Z</time></trkpt><trkpt lat="45.3127338" lon="8.6485829"><ele>116.33333333333333</ele><time>2026-04-18T16:14:39.991Z</time></trkpt><trkpt lat="45.3128096" lon="8.6485306"><ele>116.5</ele><time>2026-04-18T16:14:40.991Z</time></trkpt><trkpt lat="45.3128813" lon="8.6484751"><ele>116.66666666666666</ele><time>2026-04-18T16:14:41.99Z</time></trkpt><trkpt lat="45.3129574" lon="8.6484161"><ele>116.83333333333333</ele><time>2026-04-18T16:14:42.991Z</time></trkpt><trkpt lat="45.3130334" lon="8.6483544"><ele>117.0</ele><time>2026-04-18T16:14:43.991Z</time></trkpt><trkpt lat="45.3131024" lon="8.6483007"><ele>116.71428571428572</ele><time>2026-04-18T16:14:44.991Z</time></trkpt><trkpt lat="45.3131658" lon="8.648249"><ele>116.42857142857144</ele><time>2026-04-18T16:14:45.991Z</time></trkpt><trkpt lat="45.3132289" lon="8.6481962"><ele>116.14285714285714</ele><time>2026-04-18T16:14:46.991Z</time></trkpt><trkpt lat="45.3132919" lon="8.6481384"><ele>115.85714285714286</ele><time>2026-04-18T16:14:47.99Z</time></trkpt><trkpt lat="45.3133585" lon="8.6480871"><ele>115.57142857142857</ele><time>2026-04-18T16:14:48.99Z</time></trkpt><trkpt lat="45.3134245" lon="8.648036"><ele>115.28571428571428</ele><time>2026-04-18T16:14:49.991Z</time></trkpt><trkpt lat="45.3134919" lon="8.6479863"><ele>114.99999999999999</ele><time>2026-04-18T16:14:50.991Z</time></trkpt><trkpt lat="45.3135576" lon="8.6479299"><ele>115.00000000000001</ele><time>2026-04-18T16:14:51.991Z</time></trkpt><trkpt lat="45.313626" lon="8.6478782"><ele>115.0</ele><time>2026-04-18T16:14:52.99Z</time></trkpt><trkpt lat="45.3136896" lon="8.6478189"><ele>115.0</ele><time>2026-04-18T16:14:53.991Z</time></trkpt><trkpt lat="45.3137492" lon="8.6477535"><ele>115.0</ele><time>2026-04-18T16:14:54.99Z</time></trkpt><trkpt lat="45.3138124" lon="8.6476727"><ele>115.00000000000001</ele><time>2026-04-18T16:14:55.991Z</time></trkpt><trkpt lat="45.3138733" lon="8.6475866"><ele>115.0</ele><time>2026-04-18T16:14:56.991Z</time></trkpt><trkpt lat="45.3139354" lon="8.6474983"><ele>114.83333333333334</ele><time>2026-04-18T16:14:57.991Z</time></trkpt><trkpt lat="45.313996" lon="8.6474082"><ele>114.66666666666667</ele><time>2026-04-18T16:14:58.99Z</time></trkpt><trkpt lat="45.3140566" lon="8.6473219"><ele>114.5</ele><time>2026-04-18T16:14:59.99Z</time></trkpt><trkpt lat="45.3141208" lon="8.6472332"><ele>114.33333333333334</ele><time>2026-04-18T16:15:00.991Z</time></trkpt><trkpt lat="45.3141854" lon="8.6471407"><ele>114.16666666666667</ele><time>2026-04-18T16:15:01.99Z</time></trkpt><trkpt lat="45.3142484" lon="8.6470532"><ele>114.0</ele><time>2026-04-18T16:15:02.991Z</time></trkpt><trkpt lat="45.3143129" lon="8.646966"><ele>114.0</ele><time>2026-04-18T16:15:03.99Z</time></trkpt><trkpt lat="45.3143766" lon="8.6468725"><ele>114.0</ele><time>2026-04-18T16:15:04.99Z</time></trkpt><trkpt lat="45.3144391" lon="8.646784"><ele>114.0</ele><time>2026-04-18T16:15:05.991Z</time></trkpt><trkpt lat="45.3145032" lon="8.6466921"><ele>114.0</ele><time>2026-04-18T16:15:06.991Z</time></trkpt><trkpt lat="45.3145707" lon="8.6465984"><ele>114.0</ele><time>2026-04-18T16:15:07.99Z</time></trkpt><trkpt lat="45.3146347" lon="8.646501"><ele>114.0</ele><time>2026-04-18T16:15:08.991Z</time></trkpt><trkpt lat="45.3147021" lon="8.6464006"><ele>114.0</ele><time>2026-04-18T16:15:09.991Z</time></trkpt><trkpt lat="45.3147689" lon="8.6463052"><ele>114.0</ele><time>2026-04-18T16:15:10.99Z</time></trkpt><trkpt lat="45.3148285" lon="8.64622"><ele>114.0</ele><time>2026-04-18T16:15:11.991Z</time></trkpt><trkpt lat="45.3148925" lon="8.6461378"><ele>114.0</ele><time>2026-04-18T16:15:12.991Z</time></trkpt><trkpt lat="45.3149587" lon="8.6460567"><ele>114.0</ele><time>2026-04-18T16:15:13.991Z</time></trkpt><trkpt lat="45.3150237" lon="8.645969"><ele>114.0</ele><time>2026-04-18T16:15:14.99Z</time></trkpt><trkpt lat="45.3150817" lon="8.6458868"><ele>114.0</ele><time>2026-04-18T16:15:15.991Z</time></trkpt><trkpt lat="45.3151366" lon="8.6458123"><ele>114.0</ele><time>2026-04-18T16:15:16.991Z</time></trkpt><trkpt lat="45.3151933" lon="8.6457441"><ele>114.0</ele><time>2026-04-18T16:15:17.991Z</time></trkpt><trkpt lat="45.3152495" lon="8.6456833"><ele>114.0</ele><time>2026-04-18T16:15:18.991Z</time></trkpt><trkpt lat="45.3153057" lon="8.6456214"><ele>114.0</ele><time>2026-04-18T16:15:19.99Z</time></trkpt><trkpt lat="45.3153588" lon="8.6455468"><ele>114.0</ele><time>2026-04-18T16:15:20.991Z</time></trkpt><trkpt lat="45.3154131" lon="8.6454666"><ele>114.0</ele><time>2026-04-18T16:15:21.991Z</time></trkpt><trkpt lat="45.3154675" lon="8.64538"><ele>114.0</ele><time>2026-04-18T16:15:22.99Z</time></trkpt><trkpt lat="45.3155249" lon="8.6452902"><ele>114.0</ele><time>2026-04-18T16:15:23.991Z</time></trkpt><trkpt lat="45.3155855" lon="8.6451916"><ele>114.0</ele><time>2026-04-18T16:15:24.991Z</time></trkpt><trkpt lat="45.315648" lon="8.6450906"><ele>114.0</ele><time>2026-04-18T16:15:25.991Z</time></trkpt><trkpt lat="45.3157055" lon="8.6449863"><ele>114.0</ele><time>2026-04-18T16:15:26.991Z</time></trkpt><trkpt lat="45.3157681" lon="8.6448836"><ele>114.0</ele><time>2026-04-18T16:15:27.991Z</time></trkpt><trkpt lat="45.3158288" lon="8.6447763"><ele>114.0</ele><time>2026-04-18T16:15:28.99Z</time></trkpt><trkpt lat="45.3158925" lon="8.6446711"><ele>114.0</ele><time>2026-04-18T16:15:29.99Z</time></trkpt><trkpt lat="45.3159541" lon="8.644565"><ele>114.0</ele><time>2026-04-18T16:15:30.99Z</time></trkpt><trkpt lat="45.3160161" lon="8.644465"><ele>114.0</ele><time>2026-04-18T16:15:31.99Z</time></trkpt><trkpt lat="45.3160844" lon="8.6443801"><ele>114.0</ele><time>2026-04-18T16:15:32.99Z</time></trkpt><trkpt lat="45.3161622" lon="8.6443107"><ele>114.0</ele><time>2026-04-18T16:15:33.991Z</time></trkpt><trkpt lat="45.3162476" lon="8.6442546"><ele>114.0</ele><time>2026-04-18T16:15:34.99Z</time></trkpt><trkpt lat="45.3163391" lon="8.6442196"><ele>114.4</ele><time>2026-04-18T16:15:35.991Z</time></trkpt><trkpt lat="45.3164323" lon="8.6441864"><ele>114.80000000000001</ele><time>2026-04-18T16:15:36.991Z</time></trkpt><trkpt lat="45.3165349" lon="8.6441518"><ele>115.19999999999999</ele><time>2026-04-18T16:15:37.991Z</time></trkpt><trkpt lat="45.3166273" lon="8.6441197"><ele>115.6</ele><time>2026-04-18T16:15:38.99Z</time></trkpt><trkpt lat="45.3167091" lon="8.6440939"><ele>116.0</ele><time>2026-04-18T16:15:39.991Z</time></trkpt><trkpt lat="45.316793" lon="8.6440672"><ele>116.0</ele><time>2026-04-18T16:15:40.99Z</time></trkpt><trkpt lat="45.3168801" lon="8.6440396"><ele>116.0</ele><time>2026-04-18T16:15:41.991Z</time></trkpt><trkpt lat="45.3169684" lon="8.6440083"><ele>116.0</ele><time>2026-04-18T16:15:42.991Z</time></trkpt><trkpt lat="45.3170606" lon="8.6439775"><ele>116.0</ele><time>2026-04-18T16:15:43.991Z</time></trkpt><trkpt lat="45.317149" lon="8.6439413"><ele>116.0</ele><time>2026-04-18T16:15:44.991Z</time></trkpt><trkpt lat="45.3172397" lon="8.6439116"><ele>115.8</ele><time>2026-04-18T16:15:45.991Z</time></trkpt><trkpt lat="45.3173321" lon="8.6438863"><ele>115.6</ele><time>2026-04-18T16:15:46.991Z</time></trkpt><trkpt lat="45.3174218" lon="8.6438535"><ele>115.4</ele><time>2026-04-18T16:15:47.99Z</time></trkpt><trkpt lat="45.3175162" lon="8.6438211"><ele>115.2</ele><time>2026-04-18T16:15:48.991Z</time></trkpt><trkpt lat="45.31761" lon="8.6437843"><ele>115.0</ele><time>2026-04-18T16:15:49.991Z</time></trkpt><trkpt lat="45.3177026" lon="8.6437495"><ele>115.0</ele><time>2026-04-18T16:15:50.991Z</time></trkpt><trkpt lat="45.3177947" lon="8.6437174"><ele>115.0</ele><time>2026-04-18T16:15:51.99Z</time></trkpt><trkpt lat="45.3178843" lon="8.643684"><ele>115.0</ele><time>2026-04-18T16:15:52.99Z</time></trkpt><trkpt lat="45.317976" lon="8.6436518"><ele>115.0</ele><time>2026-04-18T16:15:53.991Z</time></trkpt><trkpt lat="45.3180594" lon="8.6436207"><ele>115.0</ele><time>2026-04-18T16:15:54.99Z</time></trkpt><trkpt lat="45.3181455" lon="8.6435909"><ele>115.2</ele><time>2026-04-18T16:15:55.991Z</time></trkpt><trkpt lat="45.3182317" lon="8.6435544"><ele>115.4</ele><time>2026-04-18T16:15:56.991Z</time></trkpt><trkpt lat="45.3183202" lon="8.6435221"><ele>115.6</ele><time>2026-04-18T16:15:57.991Z</time></trkpt><trkpt lat="45.3184176" lon="8.6434864"><ele>115.8</ele><time>2026-04-18T16:15:58.991Z</time></trkpt><trkpt lat="45.3185269" lon="8.6434452"><ele>116.0</ele><time>2026-04-18T16:15:59.991Z</time></trkpt><trkpt lat="45.3186435" lon="8.6434039"><ele>116.0</ele><time>2026-04-18T16:16:00.991Z</time></trkpt><trkpt lat="45.3187696" lon="8.6433602"><ele>116.0</ele><time>2026-04-18T16:16:01.991Z</time></trkpt><trkpt lat="45.3189051" lon="8.6433159"><ele>116.0</ele><time>2026-04-18T16:16:02.991Z</time></trkpt><trkpt lat="45.3190462" lon="8.6432726"><ele>116.0</ele><time>2026-04-18T16:16:03.991Z</time></trkpt><trkpt lat="45.3191955" lon="8.6432267"><ele>116.33333333333333</ele><time>2026-04-18T16:16:04.991Z</time></trkpt><trkpt lat="45.3193523" lon="8.643179"><ele>116.66666666666666</ele><time>2026-04-18T16:16:05.991Z</time></trkpt><trkpt lat="45.3195098" lon="8.6431321"><ele>117.0</ele><time>2026-04-18T16:16:06.991Z</time></trkpt><trkpt lat="45.3196579" lon="8.6430792"><ele>117.0</ele><time>2026-04-18T16:16:07.991Z</time></trkpt><trkpt lat="45.3198008" lon="8.6430346"><ele>117.0</ele><time>2026-04-18T16:16:08.991Z</time></trkpt><trkpt lat="45.3199366" lon="8.6429877"><ele>117.0</ele><time>2026-04-18T16:16:09.991Z</time></trkpt><trkpt lat="45.3200664" lon="8.6429421"><ele>117.0</ele><time>2026-04-18T16:16:10.99Z</time></trkpt><trkpt lat="45.3201895" lon="8.6428969"><ele>117.0</ele><time>2026-04-18T16:16:11.99Z</time></trkpt><trkpt lat="45.3203029" lon="8.6428571"><ele>116.99999999999999</ele><time>2026-04-18T16:16:12.991Z</time></trkpt><trkpt lat="45.3204103" lon="8.6428209"><ele>116.99999999999999</ele><time>2026-04-18T16:16:13.99Z</time></trkpt><trkpt lat="45.3205087" lon="8.6427889"><ele>117.0</ele><time>2026-04-18T16:16:14.991Z</time></trkpt><trkpt lat="45.3206055" lon="8.6427575"><ele>117.0</ele><time>2026-04-18T16:16:15.99Z</time></trkpt><trkpt lat="45.3207034" lon="8.642724"><ele>117.0</ele><time>2026-04-18T16:16:16.99Z</time></trkpt><trkpt lat="45.3208058" lon="8.6426892"><ele>116.99999999999999</ele><time>2026-04-18T16:16:17.991Z</time></trkpt><trkpt lat="45.3209059" lon="8.642656"><ele>116.99999999999999</ele><time>2026-04-18T16:16:18.99Z</time></trkpt><trkpt lat="45.3210094" lon="8.6426222"><ele>117.0</ele><time>2026-04-18T16:16:19.991Z</time></trkpt><trkpt lat="45.3211161" lon="8.6425855"><ele>117.0</ele><time>2026-04-18T16:16:20.991Z</time></trkpt><trkpt lat="45.3212199" lon="8.6425494"><ele>117.0</ele><time>2026-04-18T16:16:21.99Z</time></trkpt><trkpt lat="45.3213145" lon="8.6425187"><ele>117.0</ele><time>2026-04-18T16:16:22.99Z</time></trkpt><trkpt lat="45.3214018" lon="8.64249"><ele>117.0</ele><time>2026-04-18T16:16:23.991Z</time></trkpt><trkpt lat="45.3214774" lon="8.6424722"><ele>117.0</ele><time>2026-04-18T16:16:24.99Z</time></trkpt><trkpt lat="45.3215464" lon="8.6424547"><ele>117.0</ele><time>2026-04-18T16:16:25.99Z</time></trkpt><trkpt lat="45.3216101" lon="8.6424371"><ele>117.0</ele><time>2026-04-18T16:16:26.99Z</time></trkpt><trkpt lat="45.3217227" lon="8.64239"><ele>116.83333333333333</ele><time>2026-04-18T16:16:28.991Z</time></trkpt><trkpt lat="45.3217997" lon="8.6423131"><ele>116.66666666666666</ele><time>2026-04-18T16:16:30.99Z</time></trkpt><trkpt lat="45.3218225" lon="8.6421991"><ele>116.5</ele><time>2026-04-18T16:16:32.991Z</time></trkpt><trkpt lat="45.3217961" lon="8.6420818"><ele>116.33333333333333</ele><time>2026-04-18T16:16:34.991Z</time></trkpt><trkpt lat="45.3217449" lon="8.6419363"><ele>116.16666666666666</ele><time>2026-04-18T16:16:36.99Z</time></trkpt><trkpt lat="45.3217178" lon="8.6418472"><ele>116.0</ele><time>2026-04-18T16:16:37.991Z</time></trkpt><trkpt lat="45.3216918" lon="8.6417482"><ele>115.99999999999999</ele><time>2026-04-18T16:16:38.991Z</time></trkpt><trkpt lat="45.3216577" lon="8.6416421"><ele>116.0</ele><time>2026-04-18T16:16:39.991Z</time></trkpt><trkpt lat="45.3216216" lon="8.6415335"><ele>116.0</ele><time>2026-04-18T16:16:40.991Z</time></trkpt><trkpt lat="45.3215867" lon="8.6414202"><ele>116.0</ele><time>2026-04-18T16:16:41.99Z</time></trkpt><trkpt lat="45.321552" lon="8.6413038"><ele>115.99999999999999</ele><time>2026-04-18T16:16:42.991Z</time></trkpt><trkpt lat="45.3215146" lon="8.6411827"><ele>116.0</ele><time>2026-04-18T16:16:43.991Z</time></trkpt><trkpt lat="45.3214729" lon="8.6410583"><ele>116.19999999999999</ele><time>2026-04-18T16:16:44.99Z</time></trkpt><trkpt lat="45.3214311" lon="8.6409298"><ele>116.39999999999999</ele><time>2026-04-18T16:16:45.991Z</time></trkpt><trkpt lat="45.3213897" lon="8.6407978"><ele>116.6</ele><time>2026-04-18T16:16:46.991Z</time></trkpt><trkpt lat="45.3213491" lon="8.6406648"><ele>116.8</ele><time>2026-04-18T16:16:47.99Z</time></trkpt><trkpt lat="45.3213072" lon="8.6405324"><ele>117.0</ele><time>2026-04-18T16:16:48.991Z</time></trkpt><trkpt lat="45.3212666" lon="8.6404131"><ele>116.83333333333333</ele><time>2026-04-18T16:16:49.99Z</time></trkpt><trkpt lat="45.3212308" lon="8.640305"><ele>116.66666666666666</ele><time>2026-04-18T16:16:50.99Z</time></trkpt><trkpt lat="45.3212007" lon="8.6402094"><ele>116.5</ele><time>2026-04-18T16:16:51.991Z</time></trkpt><trkpt lat="45.3211735" lon="8.6401265"><ele>116.33333333333333</ele><time>2026-04-18T16:16:52.991Z</time></trkpt><trkpt lat="45.3211354" lon="8.6399741"><ele>116.16666666666666</ele><time>2026-04-18T16:16:54.99Z</time></trkpt><trkpt lat="45.3211526" lon="8.6398579"><ele>116.0</ele><time>2026-04-18T16:16:56.991Z</time></trkpt><trkpt lat="45.3212356" lon="8.6397749"><ele>115.99999999999999</ele><time>2026-04-18T16:16:58.991Z</time></trkpt><trkpt lat="45.3212964" lon="8.6397294"><ele>116.0</ele><time>2026-04-18T16:16:59.991Z</time></trkpt><trkpt lat="45.3213601" lon="8.6396754"><ele>116.0</ele><time>2026-04-18T16:17:00.991Z</time></trkpt><trkpt lat="45.3214327" lon="8.6396193"><ele>116.0</ele><time>2026-04-18T16:17:01.991Z</time></trkpt><trkpt lat="45.3215101" lon="8.6395539"><ele>115.99999999999999</ele><time>2026-04-18T16:17:02.991Z</time></trkpt><trkpt lat="45.3215892" lon="8.6394836"><ele>116.0</ele><time>2026-04-18T16:17:03.99Z</time></trkpt><trkpt lat="45.3216737" lon="8.6394105"><ele>116.0</ele><time>2026-04-18T16:17:04.991Z</time></trkpt><trkpt lat="45.3217577" lon="8.6393418"><ele>116.0</ele><time>2026-04-18T16:17:05.991Z</time></trkpt><trkpt lat="45.3218444" lon="8.6392648"><ele>116.0</ele><time>2026-04-18T16:17:06.99Z</time></trkpt><trkpt lat="45.3219328" lon="8.6391922"><ele>116.0</ele><time>2026-04-18T16:17:07.99Z</time></trkpt><trkpt lat="45.3220161" lon="8.6391141"><ele>116.0</ele><time>2026-04-18T16:17:08.99Z</time></trkpt><trkpt lat="45.3221064" lon="8.6390355"><ele>116.0</ele><time>2026-04-18T16:17:09.99Z</time></trkpt><trkpt lat="45.3222057" lon="8.6389482"><ele>116.0</ele><time>2026-04-18T16:17:10.991Z</time></trkpt><trkpt lat="45.3223086" lon="8.6388595"><ele>116.0</ele><time>2026-04-18T16:17:11.991Z</time></trkpt><trkpt lat="45.322411" lon="8.63877"><ele>116.0</ele><time>2026-04-18T16:17:12.991Z</time></trkpt><trkpt lat="45.322514" lon="8.6386785"><ele>116.5</ele><time>2026-04-18T16:17:13.99Z</time></trkpt><trkpt lat="45.3226175" lon="8.6385852"><ele>117.0</ele><time>2026-04-18T16:17:14.991Z</time></trkpt><trkpt lat="45.3227187" lon="8.6384973"><ele>117.5</ele><time>2026-04-18T16:17:15.991Z</time></trkpt><trkpt lat="45.3228194" lon="8.6384082"><ele>118.0</ele><time>2026-04-18T16:17:16.991Z</time></trkpt><trkpt lat="45.3229246" lon="8.6383203"><ele>118.0</ele><time>2026-04-18T16:17:17.991Z</time></trkpt><trkpt lat="45.3230319" lon="8.6382238"><ele>118.0</ele><time>2026-04-18T16:17:18.991Z</time></trkpt><trkpt lat="45.3231438" lon="8.6381318"><ele>118.0</ele><time>2026-04-18T16:17:19.99Z</time></trkpt><trkpt lat="45.3232453" lon="8.6380418"><ele>118.0</ele><time>2026-04-18T16:17:20.99Z</time></trkpt><trkpt lat="45.323341" lon="8.6379592"><ele>118.0</ele><time>2026-04-18T16:17:21.991Z</time></trkpt><trkpt lat="45.3234313" lon="8.6378737"><ele>118.0</ele><time>2026-04-18T16:17:22.99Z</time></trkpt><trkpt lat="45.323521" lon="8.6377729"><ele>118.0</ele><time>2026-04-18T16:17:23.99Z</time></trkpt><trkpt lat="45.3236076" lon="8.6376621"><ele>118.0</ele><time>2026-04-18T16:17:24.991Z</time></trkpt><trkpt lat="45.3236953" lon="8.6375439"><ele>118.0</ele><time>2026-04-18T16:17:25.991Z</time></trkpt><trkpt lat="45.3237812" lon="8.6374262"><ele>118.0</ele><time>2026-04-18T16:17:26.99Z</time></trkpt><trkpt lat="45.3238622" lon="8.6373146"><ele>118.0</ele><time>2026-04-18T16:17:27.991Z</time></trkpt><trkpt lat="45.3239356" lon="8.6371995"><ele>118.0</ele><time>2026-04-18T16:17:28.991Z</time></trkpt><trkpt lat="45.3240053" lon="8.6370777"><ele>118.0</ele><time>2026-04-18T16:17:29.991Z</time></trkpt><trkpt lat="45.3240677" lon="8.636953"><ele>118.00000000000001</ele><time>2026-04-18T16:17:30.991Z</time></trkpt><trkpt lat="45.3241283" lon="8.6368214"><ele>118.00000000000001</ele><time>2026-04-18T16:17:31.99Z</time></trkpt><trkpt lat="45.3241865" lon="8.636687"><ele>118.0</ele><time>2026-04-18T16:17:32.991Z</time></trkpt><trkpt lat="45.3242422" lon="8.6365449"><ele>118.0</ele><time>2026-04-18T16:17:33.991Z</time></trkpt><trkpt lat="45.3243002" lon="8.6363967"><ele>118.0</ele><time>2026-04-18T16:17:34.991Z</time></trkpt><trkpt lat="45.324357" lon="8.636241"><ele>118.0</ele><time>2026-04-18T16:17:35.99Z</time></trkpt><trkpt lat="45.3244135" lon="8.6360921"><ele>118.0</ele><time>2026-04-18T16:17:36.991Z</time></trkpt><trkpt lat="45.3244691" lon="8.6359453"><ele>118.0</ele><time>2026-04-18T16:17:37.991Z</time></trkpt><trkpt lat="45.3245258" lon="8.6358082"><ele>117.80000000000001</ele><time>2026-04-18T16:17:38.99Z</time></trkpt><trkpt lat="45.3245818" lon="8.6356823"><ele>117.60000000000001</ele><time>2026-04-18T16:17:39.991Z</time></trkpt><trkpt lat="45.3246314" lon="8.6355659"><ele>117.39999999999999</ele><time>2026-04-18T16:17:40.99Z</time></trkpt><trkpt lat="45.3246778" lon="8.6354517"><ele>117.19999999999999</ele><time>2026-04-18T16:17:41.991Z</time></trkpt><trkpt lat="45.3247184" lon="8.6353438"><ele>117.0</ele><time>2026-04-18T16:17:42.991Z</time></trkpt><trkpt lat="45.3247547" lon="8.635247"><ele>117.66666666666667</ele><time>2026-04-18T16:17:43.991Z</time></trkpt><trkpt lat="45.3247937" lon="8.6351661"><ele>118.33333333333334</ele><time>2026-04-18T16:17:44.99Z</time></trkpt><trkpt lat="45.3248734" lon="8.6350491"><ele>119.0</ele><time>2026-04-18T16:17:46.99Z</time></trkpt><trkpt lat="45.3249633" lon="8.6350081"><ele>119.66666666666667</ele><time>2026-04-18T16:17:48.99Z</time></trkpt><trkpt lat="45.3250656" lon="8.6350433"><ele>120.33333333333334</ele><time>2026-04-18T16:17:50.991Z</time></trkpt><trkpt lat="45.325121" lon="8.6350921"><ele>121.0</ele><time>2026-04-18T16:17:51.991Z</time></trkpt><trkpt lat="45.3251898" lon="8.6351446"><ele>121.00000000000001</ele><time>2026-04-18T16:17:52.991Z</time></trkpt><trkpt lat="45.3252647" lon="8.6352018"><ele>121.0</ele><time>2026-04-18T16:17:53.991Z</time></trkpt><trkpt lat="45.325346" lon="8.6352654"><ele>121.0</ele><time>2026-04-18T16:17:54.991Z</time></trkpt><trkpt lat="45.3254249" lon="8.6353216"><ele>121.0</ele><time>2026-04-18T16:17:55.99Z</time></trkpt><trkpt lat="45.3254959" lon="8.6353758"><ele>121.00000000000001</ele><time>2026-04-18T16:17:56.991Z</time></trkpt><trkpt lat="45.3255607" lon="8.6354173"><ele>121.0</ele><time>2026-04-18T16:17:57.99Z</time></trkpt><trkpt lat="45.3256693" lon="8.6354384"><ele>120.50000000000001</ele><time>2026-04-18T16:17:59.991Z</time></trkpt><trkpt lat="45.3257409" lon="8.6354009"><ele>120.0</ele><time>2026-04-18T16:18:01.991Z</time></trkpt><trkpt lat="45.3257801" lon="8.6353218"><ele>119.5</ele><time>2026-04-18T16:18:03.99Z</time></trkpt><trkpt lat="45.3258012" lon="8.635201"><ele>119.0</ele><time>2026-04-18T16:18:05.99Z</time></trkpt><trkpt lat="45.3258289" lon="8.6350273"><ele>118.50000000000001</ele><time>2026-04-18T16:18:07.991Z</time></trkpt><trkpt lat="45.3258444" lon="8.6349319"><ele>118.0</ele><time>2026-04-18T16:18:08.991Z</time></trkpt><trkpt lat="45.3258623" lon="8.6348324"><ele>118.00000000000001</ele><time>2026-04-18T16:18:09.99Z</time></trkpt><trkpt lat="45.3258783" lon="8.6347296"><ele>118.0</ele><time>2026-04-18T16:18:10.99Z</time></trkpt><trkpt lat="45.3258936" lon="8.6346306"><ele>118.0</ele><time>2026-04-18T16:18:11.99Z</time></trkpt><trkpt lat="45.3259126" lon="8.634526"><ele>118.0</ele><time>2026-04-18T16:18:12.99Z</time></trkpt><trkpt lat="45.3259323" lon="8.6344128"><ele>118.00000000000001</ele><time>2026-04-18T16:18:13.991Z</time></trkpt><trkpt lat="45.3259517" lon="8.6342926"><ele>118.0</ele><time>2026-04-18T16:18:14.991Z</time></trkpt><trkpt lat="45.3259739" lon="8.6341687"><ele>118.00000000000001</ele><time>2026-04-18T16:18:15.991Z</time></trkpt><trkpt lat="45.3259951" lon="8.6340476"><ele>118.0</ele><time>2026-04-18T16:18:16.991Z</time></trkpt><trkpt lat="45.3260185" lon="8.6339328"><ele>118.0</ele><time>2026-04-18T16:18:17.991Z</time></trkpt><trkpt lat="45.3260431" lon="8.6338258"><ele>118.0</ele><time>2026-04-18T16:18:18.99Z</time></trkpt><trkpt lat="45.3260615" lon="8.6337245"><ele>118.00000000000001</ele><time>2026-04-18T16:18:19.99Z</time></trkpt><trkpt lat="45.3260763" lon="8.6336367"><ele>118.0</ele><time>2026-04-18T16:18:20.991Z</time></trkpt><trkpt lat="45.3260747" lon="8.633494"><ele>118.00000000000001</ele><time>2026-04-18T16:18:22.99Z</time></trkpt><trkpt lat="45.3260562" lon="8.6334077"><ele>118.0</ele><time>2026-04-18T16:18:24.99Z</time></trkpt><trkpt lat="45.3260524" lon="8.6333175"><ele>118.0</ele><time>2026-04-18T16:18:27.991Z</time></trkpt><trkpt lat="45.3261274" lon="8.633267"><ele>118.0</ele><time>2026-04-18T16:18:30.99Z</time></trkpt><trkpt lat="45.3262361" lon="8.6332243"><ele>118.00000000000001</ele><time>2026-04-18T16:18:32.991Z</time></trkpt><trkpt lat="45.3263091" lon="8.633196"><ele>118.0</ele><time>2026-04-18T16:18:33.99Z</time></trkpt><trkpt lat="45.3263874" lon="8.6331681"><ele>117.80000000000001</ele><time>2026-04-18T16:18:34.99Z</time></trkpt><trkpt lat="45.326467" lon="8.6331337"><ele>117.60000000000001</ele><time>2026-04-18T16:18:35.991Z</time></trkpt><trkpt lat="45.326549" lon="8.6331"><ele>117.39999999999999</ele><time>2026-04-18T16:18:36.991Z</time></trkpt><trkpt lat="45.3266367" lon="8.6330669"><ele>117.19999999999999</ele><time>2026-04-18T16:18:37.99Z</time></trkpt><trkpt lat="45.3267292" lon="8.6330336"><ele>117.0</ele><time>2026-04-18T16:18:38.991Z</time></trkpt><trkpt lat="45.3268269" lon="8.6329971"><ele>117.0</ele><time>2026-04-18T16:18:39.99Z</time></trkpt><trkpt lat="45.3269288" lon="8.6329567"><ele>116.99999999999999</ele><time>2026-04-18T16:18:40.991Z</time></trkpt><trkpt lat="45.3270323" lon="8.6329138"><ele>116.99999999999999</ele><time>2026-04-18T16:18:41.991Z</time></trkpt><trkpt lat="45.3271418" lon="8.632872"><ele>117.0</ele><time>2026-04-18T16:18:42.991Z</time></trkpt><trkpt lat="45.3272539" lon="8.6328339"><ele>117.0</ele><time>2026-04-18T16:18:43.991Z</time></trkpt><trkpt lat="45.3273475" lon="8.6327968"><ele>117.0</ele><time>2026-04-18T16:18:44.991Z</time></trkpt><trkpt lat="45.3274372" lon="8.6327604"><ele>116.99999999999999</ele><time>2026-04-18T16:18:45.99Z</time></trkpt><trkpt lat="45.3275277" lon="8.6327258"><ele>116.99999999999999</ele><time>2026-04-18T16:18:46.991Z</time></trkpt><trkpt lat="45.3276179" lon="8.6326911"><ele>117.0</ele><time>2026-04-18T16:18:47.99Z</time></trkpt><trkpt lat="45.3277107" lon="8.6326544"><ele>117.0</ele><time>2026-04-18T16:18:48.991Z</time></trkpt><trkpt lat="45.327806" lon="8.6326135"><ele>117.0</ele><time>2026-04-18T16:18:49.99Z</time></trkpt><trkpt lat="45.3279017" lon="8.6325727"><ele>116.99999999999999</ele><time>2026-04-18T16:18:50.991Z</time></trkpt><trkpt lat="45.328004" lon="8.6325324"><ele>116.99999999999999</ele><time>2026-04-18T16:18:51.991Z</time></trkpt><trkpt lat="45.3281102" lon="8.6324915"><ele>117.0</ele><time>2026-04-18T16:18:52.991Z</time></trkpt><trkpt lat="45.3282178" lon="8.6324499"><ele>117.0</ele><time>2026-04-18T16:18:53.991Z</time></trkpt><trkpt lat="45.3283243" lon="8.6324048"><ele>117.0</ele><time>2026-04-18T16:18:54.991Z</time></trkpt><trkpt lat="45.3284284" lon="8.6323618"><ele>116.99999999999999</ele><time>2026-04-18T16:18:55.991Z</time></trkpt><trkpt lat="45.3285231" lon="8.6323173"><ele>116.99999999999999</ele><time>2026-04-18T16:18:56.991Z</time></trkpt><trkpt lat="45.3286182" lon="8.6322806"><ele>117.0</ele><time>2026-04-18T16:18:57.991Z</time></trkpt><trkpt lat="45.3287108" lon="8.6322425"><ele>117.0</ele><time>2026-04-18T16:18:58.991Z</time></trkpt><trkpt lat="45.3288046" lon="8.6322055"><ele>117.0</ele><time>2026-04-18T16:18:59.991Z</time></trkpt><trkpt lat="45.3288911" lon="8.6321708"><ele>117.0</ele><time>2026-04-18T16:19:00.991Z</time></trkpt><trkpt lat="45.328975" lon="8.6321356"><ele>117.0</ele><time>2026-04-18T16:19:01.99Z</time></trkpt><trkpt lat="45.3290571" lon="8.6321041"><ele>117.0</ele><time>2026-04-18T16:19:02.991Z</time></trkpt><trkpt lat="45.3291438" lon="8.6320687"><ele>117.0</ele><time>2026-04-18T16:19:03.991Z</time></trkpt><trkpt lat="45.3292333" lon="8.6320312"><ele>117.0</ele><time>2026-04-18T16:19:04.99Z</time></trkpt><trkpt lat="45.3293245" lon="8.6319931"><ele>117.19999999999999</ele><time>2026-04-18T16:19:05.99Z</time></trkpt><trkpt lat="45.3294168" lon="8.6319543"><ele>117.39999999999999</ele><time>2026-04-18T16:19:06.991Z</time></trkpt><trkpt lat="45.329512" lon="8.6319157"><ele>117.60000000000001</ele><time>2026-04-18T16:19:07.991Z</time></trkpt><trkpt lat="45.3296011" lon="8.6318807"><ele>117.80000000000001</ele><time>2026-04-18T16:19:08.991Z</time></trkpt><trkpt lat="45.3296931" lon="8.6318456"><ele>118.0</ele><time>2026-04-18T16:19:09.99Z</time></trkpt><trkpt lat="45.3297883" lon="8.6318055"><ele>118.0</ele><time>2026-04-18T16:19:10.991Z</time></trkpt><trkpt lat="45.3298775" lon="8.6317674"><ele>118.00000000000001</ele><time>2026-04-18T16:19:11.991Z</time></trkpt><trkpt lat="45.3299673" lon="8.6317303"><ele>118.00000000000001</ele><time>2026-04-18T16:19:12.991Z</time></trkpt><trkpt lat="45.3300598" lon="8.6316918"><ele>118.0</ele><time>2026-04-18T16:19:13.991Z</time></trkpt><trkpt lat="45.330155" lon="8.6316581"><ele>118.0</ele><time>2026-04-18T16:19:14.991Z</time></trkpt><trkpt lat="45.3302483" lon="8.6316196"><ele>118.0</ele><time>2026-04-18T16:19:15.991Z</time></trkpt><trkpt lat="45.3303419" lon="8.6315884"><ele>118.00000000000001</ele><time>2026-04-18T16:19:16.991Z</time></trkpt><trkpt lat="45.3304331" lon="8.6315543"><ele>118.00000000000001</ele><time>2026-04-18T16:19:17.991Z</time></trkpt><trkpt lat="45.3305235" lon="8.6315225"><ele>118.0</ele><time>2026-04-18T16:19:18.991Z</time></trkpt><trkpt lat="45.3306122" lon="8.6314924"><ele>118.0</ele><time>2026-04-18T16:19:19.991Z</time></trkpt><trkpt lat="45.3307024" lon="8.6314748"><ele>118.16666666666667</ele><time>2026-04-18T16:19:20.99Z</time></trkpt><trkpt lat="45.3307909" lon="8.6314623"><ele>118.33333333333334</ele><time>2026-04-18T16:19:21.991Z</time></trkpt><trkpt lat="45.3308802" lon="8.6314605"><ele>118.5</ele><time>2026-04-18T16:19:22.991Z</time></trkpt><trkpt lat="45.330971" lon="8.6314645"><ele>118.66666666666666</ele><time>2026-04-18T16:19:23.991Z</time></trkpt><trkpt lat="45.3310594" lon="8.631469"><ele>118.83333333333333</ele><time>2026-04-18T16:19:24.991Z</time></trkpt><trkpt lat="45.3311445" lon="8.6314831"><ele>119.0</ele><time>2026-04-18T16:19:25.991Z</time></trkpt><trkpt lat="45.3312167" lon="8.6315063"><ele>118.99999999999999</ele><time>2026-04-18T16:19:26.99Z</time></trkpt><trkpt lat="45.3313307" lon="8.6315642"><ele>119.0</ele><time>2026-04-18T16:19:28.99Z</time></trkpt><trkpt lat="45.3313886" lon="8.6316121"><ele>119.0</ele><time>2026-04-18T16:19:29.991Z</time></trkpt><trkpt lat="45.3314462" lon="8.6316639"><ele>119.0</ele><time>2026-04-18T16:19:30.991Z</time></trkpt><trkpt lat="45.3315095" lon="8.6317128"><ele>118.99999999999999</ele><time>2026-04-18T16:19:31.991Z</time></trkpt><trkpt lat="45.3315649" lon="8.6317648"><ele>119.0</ele><time>2026-04-18T16:19:32.99Z</time></trkpt><trkpt lat="45.3316296" lon="8.6318164"><ele>119.2</ele><time>2026-04-18T16:19:33.991Z</time></trkpt><trkpt lat="45.3317049" lon="8.6318747"><ele>119.4</ele><time>2026-04-18T16:19:34.99Z</time></trkpt><trkpt lat="45.3317905" lon="8.6319418"><ele>119.6</ele><time>2026-04-18T16:19:35.991Z</time></trkpt><trkpt lat="45.3318799" lon="8.6320151"><ele>119.8</ele><time>2026-04-18T16:19:36.991Z</time></trkpt><trkpt lat="45.3319804" lon="8.6320977"><ele>120.0</ele><time>2026-04-18T16:19:37.991Z</time></trkpt><trkpt lat="45.3320859" lon="8.6321846"><ele>119.5</ele><time>2026-04-18T16:19:38.99Z</time></trkpt><trkpt lat="45.3322005" lon="8.6322783"><ele>119.0</ele><time>2026-04-18T16:19:39.991Z</time></trkpt><trkpt lat="45.3323152" lon="8.6323754"><ele>118.5</ele><time>2026-04-18T16:19:40.99Z</time></trkpt><trkpt lat="45.332436" lon="8.6324738"><ele>118.0</ele><time>2026-04-18T16:19:41.991Z</time></trkpt><trkpt lat="45.3325653" lon="8.6325767"><ele>118.0</ele><time>2026-04-18T16:19:42.991Z</time></trkpt><trkpt lat="45.3326914" lon="8.6326842"><ele>118.0</ele><time>2026-04-18T16:19:43.991Z</time></trkpt><trkpt lat="45.3328204" lon="8.6327919"><ele>118.0</ele><time>2026-04-18T16:19:44.99Z</time></trkpt><trkpt lat="45.3329537" lon="8.6329039"><ele>118.0</ele><time>2026-04-18T16:19:45.991Z</time></trkpt><trkpt lat="45.3330907" lon="8.6330156"><ele>118.0</ele><time>2026-04-18T16:19:46.99Z</time></trkpt><trkpt lat="45.3332313" lon="8.6331184"><ele>118.0</ele><time>2026-04-18T16:19:47.99Z</time></trkpt><trkpt lat="45.333383" lon="8.6332155"><ele>118.0</ele><time>2026-04-18T16:19:48.991Z</time></trkpt><trkpt lat="45.3335427" lon="8.6333052"><ele>118.0</ele><time>2026-04-18T16:19:49.991Z</time></trkpt><trkpt lat="45.3337098" lon="8.6333934"><ele>118.0</ele><time>2026-04-18T16:19:50.991Z</time></trkpt><trkpt lat="45.3338842" lon="8.6334811"><ele>118.33333333333334</ele><time>2026-04-18T16:19:51.99Z</time></trkpt><trkpt lat="45.3340716" lon="8.6335721"><ele>118.66666666666666</ele><time>2026-04-18T16:19:52.99Z</time></trkpt><trkpt lat="45.3342682" lon="8.6336713"><ele>119.0</ele><time>2026-04-18T16:19:53.991Z</time></trkpt><trkpt lat="45.3344633" lon="8.6337699"><ele>119.0</ele><time>2026-04-18T16:19:54.991Z</time></trkpt><trkpt lat="45.3346518" lon="8.6338686"><ele>119.0</ele><time>2026-04-18T16:19:55.99Z</time></trkpt><trkpt lat="45.3348269" lon="8.6339547"><ele>119.0</ele><time>2026-04-18T16:19:56.991Z</time></trkpt><trkpt lat="45.3350014" lon="8.6340374"><ele>119.33333333333333</ele><time>2026-04-18T16:19:57.991Z</time></trkpt><trkpt lat="45.335171" lon="8.6341232"><ele>119.66666666666666</ele><time>2026-04-18T16:19:58.991Z</time></trkpt><trkpt lat="45.3353258" lon="8.6342126"><ele>120.0</ele><time>2026-04-18T16:19:59.991Z</time></trkpt><trkpt lat="45.3354671" lon="8.6343095"><ele>119.66666666666666</ele><time>2026-04-18T16:20:00.991Z</time></trkpt><trkpt lat="45.3355934" lon="8.6344247"><ele>119.33333333333333</ele><time>2026-04-18T16:20:01.991Z</time></trkpt><trkpt lat="45.335706" lon="8.6345785"><ele>119.0</ele><time>2026-04-18T16:20:02.991Z</time></trkpt><trkpt lat="45.3357989" lon="8.6347725"><ele>119.0</ele><time>2026-04-18T16:20:03.991Z</time></trkpt><trkpt lat="45.3358913" lon="8.6349826"><ele>119.0</ele><time>2026-04-18T16:20:04.991Z</time></trkpt><trkpt lat="45.3359842" lon="8.635208"><ele>119.0</ele><time>2026-04-18T16:20:05.991Z</time></trkpt><trkpt lat="45.336077" lon="8.635443"><ele>119.0</ele><time>2026-04-18T16:20:06.991Z</time></trkpt><trkpt lat="45.3361739" lon="8.6356827"><ele>119.0</ele><time>2026-04-18T16:20:07.991Z</time></trkpt><trkpt lat="45.3362728" lon="8.6359231"><ele>119.0</ele><time>2026-04-18T16:20:08.991Z</time></trkpt><trkpt lat="45.3363675" lon="8.6361541"><ele>118.66666666666666</ele><time>2026-04-18T16:20:09.99Z</time></trkpt><trkpt lat="45.3364557" lon="8.6363705"><ele>118.33333333333334</ele><time>2026-04-18T16:20:10.991Z</time></trkpt><trkpt lat="45.3365401" lon="8.6365729"><ele>118.0</ele><time>2026-04-18T16:20:11.99Z</time></trkpt><trkpt lat="45.3366253" lon="8.636772"><ele>118.0</ele><time>2026-04-18T16:20:12.991Z</time></trkpt><trkpt lat="45.3367151" lon="8.6369741"><ele>118.0</ele><time>2026-04-18T16:20:13.99Z</time></trkpt><trkpt lat="45.3368077" lon="8.6371722"><ele>118.0</ele><time>2026-04-18T16:20:14.99Z</time></trkpt><trkpt lat="45.3368929" lon="8.6373555"><ele>118.0</ele><time>2026-04-18T16:20:15.991Z</time></trkpt><trkpt lat="45.3369678" lon="8.6375311"><ele>118.0</ele><time>2026-04-18T16:20:16.991Z</time></trkpt><trkpt lat="45.337036" lon="8.6376849"><ele>118.0</ele><time>2026-04-18T16:20:17.99Z</time></trkpt><trkpt lat="45.3370928" lon="8.6378151"><ele>118.0</ele><time>2026-04-18T16:20:18.991Z</time></trkpt><trkpt lat="45.3371289" lon="8.6379456"><ele>118.0</ele><time>2026-04-18T16:20:19.99Z</time></trkpt><trkpt lat="45.3371273" lon="8.6380781"><ele>118.0</ele><time>2026-04-18T16:20:20.991Z</time></trkpt><trkpt lat="45.3370907" lon="8.6382245"><ele>118.0</ele><time>2026-04-18T16:20:21.99Z</time></trkpt><trkpt lat="45.3370295" lon="8.6383836"><ele>118.0</ele><time>2026-04-18T16:20:22.99Z</time></trkpt><trkpt lat="45.3369589" lon="8.6385764"><ele>118.33333333333334</ele><time>2026-04-18T16:20:23.991Z</time></trkpt><trkpt lat="45.3368881" lon="8.6387825"><ele>118.66666666666666</ele><time>2026-04-18T16:20:24.991Z</time></trkpt><trkpt lat="45.3368139" lon="8.6390034"><ele>119.0</ele><time>2026-04-18T16:20:25.99Z</time></trkpt><trkpt lat="45.3367375" lon="8.6392403"><ele>119.0</ele><time>2026-04-18T16:20:26.991Z</time></trkpt><trkpt lat="45.336654" lon="8.6394859"><ele>119.0</ele><time>2026-04-18T16:20:27.99Z</time></trkpt><trkpt lat="45.3365701" lon="8.6397427"><ele>119.0</ele><time>2026-04-18T16:20:28.99Z</time></trkpt><trkpt lat="45.3364814" lon="8.6400072"><ele>118.66666666666666</ele><time>2026-04-18T16:20:29.991Z</time></trkpt><trkpt lat="45.3363863" lon="8.640275"><ele>118.33333333333334</ele><time>2026-04-18T16:20:30.991Z</time></trkpt><trkpt lat="45.3362896" lon="8.6405507"><ele>118.0</ele><time>2026-04-18T16:20:31.991Z</time></trkpt><trkpt lat="45.3361895" lon="8.6408324"><ele>118.0</ele><time>2026-04-18T16:20:32.991Z</time></trkpt><trkpt lat="45.3360913" lon="8.6411213"><ele>118.0</ele><time>2026-04-18T16:20:33.991Z</time></trkpt><trkpt lat="45.3359893" lon="8.6414177"><ele>118.5</ele><time>2026-04-18T16:20:34.991Z</time></trkpt><trkpt lat="45.3358864" lon="8.6417239"><ele>119.0</ele><time>2026-04-18T16:20:35.99Z</time></trkpt><trkpt lat="45.3357817" lon="8.6420323"><ele>119.0</ele><time>2026-04-18T16:20:36.991Z</time></trkpt><trkpt lat="45.3356699" lon="8.642343"><ele>119.0</ele><time>2026-04-18T16:20:37.99Z</time></trkpt><trkpt lat="45.3355506" lon="8.6426538"><ele>118.0</ele><time>2026-04-18T16:20:38.99Z</time></trkpt><trkpt lat="45.3354255" lon="8.6429457"><ele>117.0</ele><time>2026-04-18T16:20:39.99Z</time></trkpt><trkpt lat="45.3353032" lon="8.6432141"><ele>117.0</ele><time>2026-04-18T16:20:40.99Z</time></trkpt><trkpt lat="45.3351931" lon="8.643476"><ele>117.0</ele><time>2026-04-18T16:20:41.99Z</time></trkpt><trkpt lat="45.3350986" lon="8.6437239"><ele>117.0</ele><time>2026-04-18T16:20:42.99Z</time></trkpt><trkpt lat="45.3350161" lon="8.6439648"><ele>117.33333333333334</ele><time>2026-04-18T16:20:43.991Z</time></trkpt><trkpt lat="45.3349337" lon="8.6441903"><ele>117.66666666666667</ele><time>2026-04-18T16:20:44.991Z</time></trkpt><trkpt lat="45.3348579" lon="8.6444068"><ele>118.0</ele><time>2026-04-18T16:20:45.991Z</time></trkpt><trkpt lat="45.3347879" lon="8.6446168"><ele>119.66666666666667</ele><time>2026-04-18T16:20:46.991Z</time></trkpt><trkpt lat="45.334715" lon="8.6448299"><ele>121.33333333333334</ele><time>2026-04-18T16:20:47.99Z</time></trkpt><trkpt lat="45.3346404" lon="8.6450484"><ele>123.0</ele><time>2026-04-18T16:20:48.991Z</time></trkpt><trkpt lat="45.3345625" lon="8.6452657"><ele>123.66666666666666</ele><time>2026-04-18T16:20:49.99Z</time></trkpt><trkpt lat="45.3344889" lon="8.6454923"><ele>124.33333333333333</ele><time>2026-04-18T16:20:50.991Z</time></trkpt><trkpt lat="45.3344254" lon="8.6457293"><ele>125.0</ele><time>2026-04-18T16:20:51.991Z</time></trkpt><trkpt lat="45.3343699" lon="8.6459863"><ele>125.33333333333333</ele><time>2026-04-18T16:20:52.99Z</time></trkpt><trkpt lat="45.3343361" lon="8.6462529"><ele>125.66666666666666</ele><time>2026-04-18T16:20:53.991Z</time></trkpt><trkpt lat="45.334325" lon="8.6465278"><ele>126.0</ele><time>2026-04-18T16:20:54.99Z</time></trkpt><trkpt lat="45.3343224" lon="8.6468131"><ele>126.0</ele><time>2026-04-18T16:20:55.991Z</time></trkpt><trkpt lat="45.334325" lon="8.6471063"><ele>126.0</ele><time>2026-04-18T16:20:56.99Z</time></trkpt><trkpt lat="45.3343304" lon="8.6474021"><ele>126.0</ele><time>2026-04-18T16:20:57.99Z</time></trkpt><trkpt lat="45.3343317" lon="8.6477014"><ele>126.0</ele><time>2026-04-18T16:20:58.991Z</time></trkpt><trkpt lat="45.334336" lon="8.6480063"><ele>126.0</ele><time>2026-04-18T16:20:59.991Z</time></trkpt><trkpt lat="45.3343436" lon="8.6483173"><ele>126.0</ele><time>2026-04-18T16:21:00.99Z</time></trkpt><trkpt lat="45.3343523" lon="8.648628"><ele>126.0</ele><time>2026-04-18T16:21:01.99Z</time></trkpt><trkpt lat="45.3343567" lon="8.6489409"><ele>126.0</ele><time>2026-04-18T16:21:02.991Z</time></trkpt><trkpt lat="45.3343635" lon="8.64925"><ele>126.0</ele><time>2026-04-18T16:21:03.991Z</time></trkpt><trkpt lat="45.3343679" lon="8.6495585"><ele>126.0</ele><time>2026-04-18T16:21:04.99Z</time></trkpt><trkpt lat="45.3343727" lon="8.6498667"><ele>126.0</ele><time>2026-04-18T16:21:05.99Z</time></trkpt><trkpt lat="45.3343734" lon="8.650168"><ele>126.0</ele><time>2026-04-18T16:21:06.991Z</time></trkpt><trkpt lat="45.3343755" lon="8.6504455"><ele>125.66666666666666</ele><time>2026-04-18T16:21:07.99Z</time></trkpt><trkpt lat="45.3343798" lon="8.6507063"><ele>125.33333333333333</ele><time>2026-04-18T16:21:08.991Z</time></trkpt><trkpt lat="45.3343915" lon="8.6509479"><ele>125.0</ele><time>2026-04-18T16:21:09.991Z</time></trkpt><trkpt lat="45.3344174" lon="8.6511703"><ele>124.66666666666666</ele><time>2026-04-18T16:21:10.991Z</time></trkpt><trkpt lat="45.3344629" lon="8.6513835"><ele>124.33333333333334</ele><time>2026-04-18T16:21:11.991Z</time></trkpt><trkpt lat="45.3345393" lon="8.6515876"><ele>124.0</ele><time>2026-04-18T16:21:12.99Z</time></trkpt><trkpt lat="45.3346246" lon="8.6517788"><ele>122.66666666666667</ele><time>2026-04-18T16:21:13.991Z</time></trkpt><trkpt lat="45.3347254" lon="8.6519482"><ele>121.33333333333334</ele><time>2026-04-18T16:21:14.99Z</time></trkpt><trkpt lat="45.3348362" lon="8.6520959"><ele>120.0</ele><time>2026-04-18T16:21:15.99Z</time></trkpt><trkpt lat="45.3349599" lon="8.652225"><ele>119.33333333333334</ele><time>2026-04-18T16:21:16.99Z</time></trkpt><trkpt lat="45.335105" lon="8.6523257"><ele>118.66666666666667</ele><time>2026-04-18T16:21:17.99Z</time></trkpt><trkpt lat="45.3352562" lon="8.6524001"><ele>118.0</ele><time>2026-04-18T16:21:18.991Z</time></trkpt><trkpt lat="45.3354153" lon="8.6524522"><ele>118.0</ele><time>2026-04-18T16:21:19.991Z</time></trkpt><trkpt lat="45.335582" lon="8.6524959"><ele>118.0</ele><time>2026-04-18T16:21:20.991Z</time></trkpt><trkpt lat="45.3357514" lon="8.6525279"><ele>118.0</ele><time>2026-04-18T16:21:21.991Z</time></trkpt><trkpt lat="45.3359284" lon="8.6525585"><ele>118.0</ele><time>2026-04-18T16:21:22.99Z</time></trkpt><trkpt lat="45.3361105" lon="8.6525853"><ele>118.0</ele><time>2026-04-18T16:21:23.991Z</time></trkpt><trkpt lat="45.3363024" lon="8.6526182"><ele>118.0</ele><time>2026-04-18T16:21:24.991Z</time></trkpt><trkpt lat="45.3364945" lon="8.6526541"><ele>118.0</ele><time>2026-04-18T16:21:25.991Z</time></trkpt><trkpt lat="45.3366838" lon="8.652691"><ele>118.0</ele><time>2026-04-18T16:21:26.991Z</time></trkpt><trkpt lat="45.3368776" lon="8.6527277"><ele>118.0</ele><time>2026-04-18T16:21:27.991Z</time></trkpt><trkpt lat="45.3370611" lon="8.652758"><ele>118.0</ele><time>2026-04-18T16:21:28.99Z</time></trkpt><trkpt lat="45.3372125" lon="8.6527852"><ele>118.00000000000001</ele><time>2026-04-18T16:21:29.99Z</time></trkpt><trkpt lat="45.3373297" lon="8.6528024"><ele>118.00000000000001</ele><time>2026-04-18T16:21:30.991Z</time></trkpt><trkpt lat="45.3374152" lon="8.6528235"><ele>118.0</ele><time>2026-04-18T16:21:31.991Z</time></trkpt><trkpt lat="45.3375045" lon="8.6528494"><ele>118.0</ele><time>2026-04-18T16:21:33.99Z</time></trkpt><trkpt lat="45.3374104" lon="8.6530099"><ele>117.80000000000001</ele><time>2026-04-18T16:23:46.989Z</time></trkpt><trkpt lat="45.3374211" lon="8.6531501"><ele>117.60000000000001</ele><time>2026-04-18T16:23:49.989Z</time></trkpt><trkpt lat="45.337424" lon="8.6532996"><ele>117.39999999999999</ele><time>2026-04-18T16:23:51.989Z</time></trkpt><trkpt lat="45.3374292" lon="8.6534813"><ele>117.19999999999999</ele><time>2026-04-18T16:23:53.989Z</time></trkpt><trkpt lat="45.3374309" lon="8.6535789"><ele>117.0</ele><time>2026-04-18T16:23:54.988Z</time></trkpt><trkpt lat="45.3374368" lon="8.6536859"><ele>117.0</ele><time>2026-04-18T16:23:55.989Z</time></trkpt><trkpt lat="45.3374363" lon="8.6537948"><ele>117.0</ele><time>2026-04-18T16:23:56.989Z</time></trkpt><trkpt lat="45.3374414" lon="8.6539026"><ele>117.0</ele><time>2026-04-18T16:23:57.988Z</time></trkpt><trkpt lat="45.3374408" lon="8.6540131"><ele>117.0</ele><time>2026-04-18T16:23:58.988Z</time></trkpt><trkpt lat="45.3374419" lon="8.6541282"><ele>117.0</ele><time>2026-04-18T16:23:59.988Z</time></trkpt><trkpt lat="45.3374412" lon="8.6542499"><ele>117.0</ele><time>2026-04-18T16:24:00.989Z</time></trkpt><trkpt lat="45.3374411" lon="8.6543735"><ele>117.19999999999999</ele><time>2026-04-18T16:24:01.989Z</time></trkpt><trkpt lat="45.3374425" lon="8.6544992"><ele>117.39999999999999</ele><time>2026-04-18T16:24:02.989Z</time></trkpt><trkpt lat="45.337445" lon="8.6546263"><ele>117.60000000000001</ele><time>2026-04-18T16:24:03.988Z</time></trkpt><trkpt lat="45.3374463" lon="8.6547567"><ele>117.80000000000001</ele><time>2026-04-18T16:24:04.989Z</time></trkpt><trkpt lat="45.3374505" lon="8.6549001"><ele>118.0</ele><time>2026-04-18T16:24:05.989Z</time></trkpt><trkpt lat="45.3374537" lon="8.6550343"><ele>118.0</ele><time>2026-04-18T16:24:06.988Z</time></trkpt><trkpt lat="45.337456" lon="8.6551659"><ele>118.00000000000001</ele><time>2026-04-18T16:24:07.989Z</time></trkpt><trkpt lat="45.3374555" lon="8.6552957"><ele>118.00000000000001</ele><time>2026-04-18T16:24:08.989Z</time></trkpt><trkpt lat="45.337456" lon="8.655429"><ele>118.0</ele><time>2026-04-18T16:24:09.988Z</time></trkpt><trkpt lat="45.3374591" lon="8.6555622"><ele>118.0</ele><time>2026-04-18T16:24:10.988Z</time></trkpt><trkpt lat="45.3374644" lon="8.6556942"><ele>117.66666666666667</ele><time>2026-04-18T16:24:11.989Z</time></trkpt><trkpt lat="45.3374685" lon="8.6558225"><ele>117.33333333333334</ele><time>2026-04-18T16:24:12.988Z</time></trkpt><trkpt lat="45.3374699" lon="8.6559443"><ele>117.0</ele><time>2026-04-18T16:24:13.989Z</time></trkpt><trkpt lat="45.3374729" lon="8.65607"><ele>116.66666666666666</ele><time>2026-04-18T16:24:14.988Z</time></trkpt><trkpt lat="45.3374769" lon="8.6561932"><ele>116.33333333333333</ele><time>2026-04-18T16:24:15.989Z</time></trkpt><trkpt lat="45.3374761" lon="8.6563163"><ele>116.0</ele><time>2026-04-18T16:24:16.989Z</time></trkpt><trkpt lat="45.3374788" lon="8.6564424"><ele>116.0</ele><time>2026-04-18T16:24:17.989Z</time></trkpt><trkpt lat="45.337481" lon="8.656571"><ele>116.0</ele><time>2026-04-18T16:24:18.989Z</time></trkpt><trkpt lat="45.3374824" lon="8.6567108"><ele>116.0</ele><time>2026-04-18T16:24:19.989Z</time></trkpt><trkpt lat="45.337486" lon="8.6568512"><ele>116.0</ele><time>2026-04-18T16:24:20.988Z</time></trkpt><trkpt lat="45.3374895" lon="8.6569883"><ele>116.0</ele><time>2026-04-18T16:24:21.989Z</time></trkpt><trkpt lat="45.3374922" lon="8.6571233"><ele>116.16666666666666</ele><time>2026-04-18T16:24:22.988Z</time></trkpt><trkpt lat="45.3374946" lon="8.6572485"><ele>116.33333333333333</ele><time>2026-04-18T16:24:23.989Z</time></trkpt><trkpt lat="45.3374983" lon="8.6573602"><ele>116.5</ele><time>2026-04-18T16:24:24.989Z</time></trkpt><trkpt lat="45.3375024" lon="8.6574614"><ele>116.66666666666666</ele><time>2026-04-18T16:24:25.989Z</time></trkpt><trkpt lat="45.3375069" lon="8.6575539"><ele>116.83333333333333</ele><time>2026-04-18T16:24:26.988Z</time></trkpt><trkpt lat="45.3375118" lon="8.657705"><ele>117.0</ele><time>2026-04-18T16:24:28.989Z</time></trkpt><trkpt lat="45.337518" lon="8.6578305"><ele>117.0</ele><time>2026-04-18T16:24:30.989Z</time></trkpt><trkpt lat="45.3375195" lon="8.657957"><ele>116.99999999999999</ele><time>2026-04-18T16:24:43.989Z</time></trkpt><trkpt lat="45.3375285" lon="8.6581368"><ele>116.99999999999999</ele><time>2026-04-18T16:24:45.988Z</time></trkpt><trkpt lat="45.337533" lon="8.6582528"><ele>117.0</ele><time>2026-04-18T16:24:46.989Z</time></trkpt><trkpt lat="45.3375345" lon="8.6583826"><ele>117.0</ele><time>2026-04-18T16:24:47.989Z</time></trkpt><trkpt lat="45.3375384" lon="8.6585129"><ele>117.16666666666667</ele><time>2026-04-18T16:24:48.989Z</time></trkpt><trkpt lat="45.33754" lon="8.6586237"><ele>117.33333333333334</ele><time>2026-04-18T16:24:49.988Z</time></trkpt><trkpt lat="45.337542" lon="8.6587291"><ele>117.5</ele><time>2026-04-18T16:24:50.988Z</time></trkpt><trkpt lat="45.3375471" lon="8.6588436"><ele>117.66666666666667</ele><time>2026-04-18T16:24:51.989Z</time></trkpt><trkpt lat="45.337548" lon="8.6589585"><ele>117.83333333333334</ele><time>2026-04-18T16:24:52.988Z</time></trkpt><trkpt lat="45.3375529" lon="8.6590777"><ele>118.0</ele><time>2026-04-18T16:24:53.989Z</time></trkpt><trkpt lat="45.3375559" lon="8.6591984"><ele>118.00000000000001</ele><time>2026-04-18T16:24:54.989Z</time></trkpt><trkpt lat="45.3375551" lon="8.6593205"><ele>118.0</ele><time>2026-04-18T16:24:55.989Z</time></trkpt><trkpt lat="45.3375526" lon="8.6594377"><ele>118.0</ele><time>2026-04-18T16:24:56.989Z</time></trkpt><trkpt lat="45.3375509" lon="8.6595535"><ele>118.0</ele><time>2026-04-18T16:24:57.989Z</time></trkpt><trkpt lat="45.3375485" lon="8.6596752"><ele>118.00000000000001</ele><time>2026-04-18T16:24:58.989Z</time></trkpt><trkpt lat="45.3375498" lon="8.659796"><ele>118.0</ele><time>2026-04-18T16:24:59.988Z</time></trkpt><trkpt lat="45.337556" lon="8.6599284"><ele>117.80000000000001</ele><time>2026-04-18T16:25:00.989Z</time></trkpt><trkpt lat="45.33756" lon="8.6600739"><ele>117.60000000000001</ele><time>2026-04-18T16:25:01.989Z</time></trkpt><trkpt lat="45.3375642" lon="8.6602105"><ele>117.39999999999999</ele><time>2026-04-18T16:25:02.989Z</time></trkpt><trkpt lat="45.3375667" lon="8.6603493"><ele>117.19999999999999</ele><time>2026-04-18T16:25:03.989Z</time></trkpt><trkpt lat="45.337571" lon="8.6604687"><ele>117.0</ele><time>2026-04-18T16:25:04.989Z</time></trkpt><trkpt lat="45.3375714" lon="8.6605765"><ele>117.0</ele><time>2026-04-18T16:25:05.988Z</time></trkpt><trkpt lat="45.33758" lon="8.6606809"><ele>117.0</ele><time>2026-04-18T16:25:06.989Z</time></trkpt><trkpt lat="45.3375961" lon="8.6607692"><ele>117.0</ele><time>2026-04-18T16:25:07.989Z</time></trkpt><trkpt lat="45.3376537" lon="8.6609028"><ele>117.0</ele><time>2026-04-18T16:25:09.988Z</time></trkpt><trkpt lat="45.3377107" lon="8.6609592"><ele>117.0</ele><time>2026-04-18T16:25:10.989Z</time></trkpt><trkpt lat="45.3377876" lon="8.6610134"><ele>117.0</ele><time>2026-04-18T16:25:11.988Z</time></trkpt><trkpt lat="45.3378773" lon="8.6610677"><ele>117.0</ele><time>2026-04-18T16:25:12.988Z</time></trkpt><trkpt lat="45.3379634" lon="8.6611256"><ele>116.99999999999999</ele><time>2026-04-18T16:25:13.989Z</time></trkpt><trkpt lat="45.3380551" lon="8.6611826"><ele>116.99999999999999</ele><time>2026-04-18T16:25:14.988Z</time></trkpt><trkpt lat="45.3381457" lon="8.6612433"><ele>117.0</ele><time>2026-04-18T16:25:15.988Z</time></trkpt><trkpt lat="45.3382283" lon="8.661297"><ele>117.0</ele><time>2026-04-18T16:25:16.989Z</time></trkpt><trkpt lat="45.3383138" lon="8.6613508"><ele>117.19999999999999</ele><time>2026-04-18T16:25:17.989Z</time></trkpt><trkpt lat="45.3384093" lon="8.661393"><ele>117.39999999999999</ele><time>2026-04-18T16:25:18.989Z</time></trkpt><trkpt lat="45.3385092" lon="8.6614164"><ele>117.60000000000001</ele><time>2026-04-18T16:25:19.989Z</time></trkpt><trkpt lat="45.3386173" lon="8.6614397"><ele>117.80000000000001</ele><time>2026-04-18T16:25:20.988Z</time></trkpt><trkpt lat="45.3387303" lon="8.6614667"><ele>118.0</ele><time>2026-04-18T16:25:21.989Z</time></trkpt><trkpt lat="45.3388414" lon="8.6614948"><ele>118.0</ele><time>2026-04-18T16:25:22.989Z</time></trkpt><trkpt lat="45.3389516" lon="8.661522"><ele>118.00000000000001</ele><time>2026-04-18T16:25:23.989Z</time></trkpt><trkpt lat="45.33906" lon="8.6615463"><ele>118.00000000000001</ele><time>2026-04-18T16:25:24.988Z</time></trkpt><trkpt lat="45.3391659" lon="8.6615679"><ele>118.0</ele><time>2026-04-18T16:25:25.989Z</time></trkpt><trkpt lat="45.3392658" lon="8.6615991"><ele>118.0</ele><time>2026-04-18T16:25:26.989Z</time></trkpt><trkpt lat="45.3393641" lon="8.6616362"><ele>118.00000000000001</ele><time>2026-04-18T16:25:27.989Z</time></trkpt><trkpt lat="45.3394573" lon="8.6616861"><ele>118.0</ele><time>2026-04-18T16:25:28.989Z</time></trkpt><trkpt lat="45.3395331" lon="8.6617333"><ele>118.0</ele><time>2026-04-18T16:25:29.989Z</time></trkpt><trkpt lat="45.3396107" lon="8.6617805"><ele>118.0</ele><time>2026-04-18T16:25:30.988Z</time></trkpt><trkpt lat="45.3396731" lon="8.6618209"><ele>118.00000000000001</ele><time>2026-04-18T16:25:31.988Z</time></trkpt><trkpt lat="45.3397444" lon="8.6619209"><ele>118.0</ele><time>2026-04-18T16:25:33.989Z</time></trkpt><trkpt lat="45.3397489" lon="8.6620837"><ele>118.00000000000001</ele><time>2026-04-18T16:25:35.988Z</time></trkpt><trkpt lat="45.3397277" lon="8.6621899"><ele>118.0</ele><time>2026-04-18T16:25:36.988Z</time></trkpt><trkpt lat="45.3396975" lon="8.662305"><ele>118.0</ele><time>2026-04-18T16:25:37.989Z</time></trkpt><trkpt lat="45.3396768" lon="8.6624006"><ele>118.0</ele><time>2026-04-18T16:25:38.989Z</time></trkpt><trkpt lat="45.3396731" lon="8.6625664"><ele>118.00000000000001</ele><time>2026-04-18T16:25:40.989Z</time></trkpt><trkpt lat="45.3397114" lon="8.662658"><ele>118.0</ele><time>2026-04-18T16:25:42.989Z</time></trkpt><trkpt lat="45.339791" lon="8.6626942"><ele>118.00000000000001</ele><time>2026-04-18T16:25:44.988Z</time></trkpt><trkpt lat="45.3398603" lon="8.6627137"><ele>118.0</ele><time>2026-04-18T16:25:45.989Z</time></trkpt><trkpt lat="45.339941" lon="8.6627388"><ele>118.0</ele><time>2026-04-18T16:25:46.988Z</time></trkpt><trkpt lat="45.3400232" lon="8.6627654"><ele>118.0</ele><time>2026-04-18T16:25:47.988Z</time></trkpt><trkpt lat="45.3401121" lon="8.6627958"><ele>118.00000000000001</ele><time>2026-04-18T16:25:48.988Z</time></trkpt><trkpt lat="45.3402074" lon="8.6628288"><ele>118.0</ele><time>2026-04-18T16:25:49.989Z</time></trkpt><trkpt lat="45.340299" lon="8.6628582"><ele>118.25</ele><time>2026-04-18T16:25:50.989Z</time></trkpt><trkpt lat="45.3404038" lon="8.6628795"><ele>118.5</ele><time>2026-04-18T16:25:51.989Z</time></trkpt><trkpt lat="45.34052" lon="8.6629027"><ele>118.75</ele><time>2026-04-18T16:25:52.989Z</time></trkpt><trkpt lat="45.340642" lon="8.6629249"><ele>119.0</ele><time>2026-04-18T16:25:53.989Z</time></trkpt><trkpt lat="45.3407712" lon="8.6629429"><ele>119.0</ele><time>2026-04-18T16:25:54.989Z</time></trkpt><trkpt lat="45.3409012" lon="8.6629655"><ele>119.0</ele><time>2026-04-18T16:25:55.989Z</time></trkpt><trkpt lat="45.3410186" lon="8.6629935"><ele>119.0</ele><time>2026-04-18T16:25:56.988Z</time></trkpt><trkpt lat="45.3411268" lon="8.6630139"><ele>119.0</ele><time>2026-04-18T16:25:57.989Z</time></trkpt><trkpt lat="45.341235" lon="8.6630384"><ele>119.0</ele><time>2026-04-18T16:25:58.989Z</time></trkpt><trkpt lat="45.3413411" lon="8.6630623"><ele>119.0</ele><time>2026-04-18T16:25:59.988Z</time></trkpt><trkpt lat="45.3414402" lon="8.6630816"><ele>119.0</ele><time>2026-04-18T16:26:00.988Z</time></trkpt><trkpt lat="45.3415446" lon="8.6630947"><ele>119.0</ele><time>2026-04-18T16:26:01.988Z</time></trkpt><trkpt lat="45.3416557" lon="8.6631105"><ele>119.0</ele><time>2026-04-18T16:26:02.989Z</time></trkpt><trkpt lat="45.3417678" lon="8.663126"><ele>119.0</ele><time>2026-04-18T16:26:03.989Z</time></trkpt><trkpt lat="45.3418814" lon="8.6631422"><ele>119.0</ele><time>2026-04-18T16:26:04.989Z</time></trkpt><trkpt lat="45.3420002" lon="8.6631617"><ele>119.0</ele><time>2026-04-18T16:26:05.989Z</time></trkpt><trkpt lat="45.3421196" lon="8.6631875"><ele>119.0</ele><time>2026-04-18T16:26:06.989Z</time></trkpt><trkpt lat="45.3422384" lon="8.6632209"><ele>119.0</ele><time>2026-04-18T16:26:07.988Z</time></trkpt><trkpt lat="45.342355" lon="8.6632611"><ele>119.0</ele><time>2026-04-18T16:26:08.989Z</time></trkpt><trkpt lat="45.3424718" lon="8.6633024"><ele>119.0</ele><time>2026-04-18T16:26:09.989Z</time></trkpt><trkpt lat="45.3425896" lon="8.6633496"><ele>119.0</ele><time>2026-04-18T16:26:10.988Z</time></trkpt><trkpt lat="45.3427053" lon="8.66339"><ele>119.0</ele><time>2026-04-18T16:26:11.989Z</time></trkpt><trkpt lat="45.3428147" lon="8.663433"><ele>119.0</ele><time>2026-04-18T16:26:12.989Z</time></trkpt><trkpt lat="45.3429095" lon="8.6634712"><ele>119.0</ele><time>2026-04-18T16:26:13.989Z</time></trkpt><trkpt lat="45.3429972" lon="8.6635061"><ele>119.0</ele><time>2026-04-18T16:26:14.989Z</time></trkpt><trkpt lat="45.3430826" lon="8.6635431"><ele>119.0</ele><time>2026-04-18T16:26:15.989Z</time></trkpt><trkpt lat="45.3431714" lon="8.6635816"><ele>119.0</ele><time>2026-04-18T16:26:16.989Z</time></trkpt><trkpt lat="45.3432616" lon="8.6636156"><ele>119.0</ele><time>2026-04-18T16:26:17.989Z</time></trkpt><trkpt lat="45.3433563" lon="8.6636558"><ele>119.0</ele><time>2026-04-18T16:26:18.989Z</time></trkpt><trkpt lat="45.3434477" lon="8.6636974"><ele>119.0</ele><time>2026-04-18T16:26:19.988Z</time></trkpt><trkpt lat="45.3435399" lon="8.6637344"><ele>119.0</ele><time>2026-04-18T16:26:20.988Z</time></trkpt><trkpt lat="45.3436342" lon="8.6637726"><ele>119.0</ele><time>2026-04-18T16:26:21.989Z</time></trkpt><trkpt lat="45.343729" lon="8.6638093"><ele>119.0</ele><time>2026-04-18T16:26:22.989Z</time></trkpt><trkpt lat="45.3438289" lon="8.6638524"><ele>119.0</ele><time>2026-04-18T16:26:23.989Z</time></trkpt><trkpt lat="45.3439293" lon="8.6638955"><ele>119.0</ele><time>2026-04-18T16:26:24.988Z</time></trkpt><trkpt lat="45.3440336" lon="8.6639387"><ele>119.0</ele><time>2026-04-18T16:26:25.989Z</time></trkpt><trkpt lat="45.3441412" lon="8.6639882"><ele>119.25</ele><time>2026-04-18T16:26:26.989Z</time></trkpt><trkpt lat="45.3442597" lon="8.6640447"><ele>119.5</ele><time>2026-04-18T16:26:27.988Z</time></trkpt><trkpt lat="45.3443772" lon="8.6640992"><ele>119.75</ele><time>2026-04-18T16:26:28.989Z</time></trkpt><trkpt lat="45.3445043" lon="8.6641616"><ele>120.0</ele><time>2026-04-18T16:26:29.988Z</time></trkpt><trkpt lat="45.3446205" lon="8.6642196"><ele>120.25</ele><time>2026-04-18T16:26:30.989Z</time></trkpt><trkpt lat="45.3447323" lon="8.6642752"><ele>120.5</ele><time>2026-04-18T16:26:31.989Z</time></trkpt><trkpt lat="45.3448494" lon="8.6643273"><ele>120.75</ele><time>2026-04-18T16:26:32.989Z</time></trkpt><trkpt lat="45.3449718" lon="8.6643875"><ele>121.0</ele><time>2026-04-18T16:26:33.988Z</time></trkpt><trkpt lat="45.3450915" lon="8.6644475"><ele>121.0</ele><time>2026-04-18T16:26:34.988Z</time></trkpt><trkpt lat="45.3452074" lon="8.6645099"><ele>121.0</ele><time>2026-04-18T16:26:35.989Z</time></trkpt><trkpt lat="45.345311" lon="8.6645657"><ele>121.0</ele><time>2026-04-18T16:26:36.989Z</time></trkpt><trkpt lat="45.3454053" lon="8.664624"><ele>121.0</ele><time>2026-04-18T16:26:37.989Z</time></trkpt><trkpt lat="45.3454941" lon="8.664684"><ele>121.0</ele><time>2026-04-18T16:26:38.989Z</time></trkpt><trkpt lat="45.3455714" lon="8.6647396"><ele>121.0</ele><time>2026-04-18T16:26:39.989Z</time></trkpt><trkpt lat="45.3456449" lon="8.664789"><ele>120.99999999999999</ele><time>2026-04-18T16:26:40.988Z</time></trkpt><trkpt lat="45.345702" lon="8.6648305"><ele>121.0</ele><time>2026-04-18T16:26:41.989Z</time></trkpt><trkpt lat="45.3457665" lon="8.6648585"><ele>121.0</ele><time>2026-04-18T16:26:44.989Z</time></trkpt><trkpt lat="45.3457011" lon="8.6648008"><ele>120.99999999999999</ele><time>2026-04-18T16:27:13.989Z</time></trkpt><trkpt lat="45.3456142" lon="8.6647603"><ele>121.0</ele><time>2026-04-18T16:27:15.988Z</time></trkpt><trkpt lat="45.3455525" lon="8.6647219"><ele>121.0</ele><time>2026-04-18T16:27:16.989Z</time></trkpt><trkpt lat="45.3454924" lon="8.6646796"><ele>121.0</ele><time>2026-04-18T16:27:17.989Z</time></trkpt><trkpt lat="45.3454274" lon="8.6646367"><ele>121.0</ele><time>2026-04-18T16:27:18.989Z</time></trkpt><trkpt lat="45.3453555" lon="8.6645915"><ele>121.0</ele><time>2026-04-18T16:27:19.988Z</time></trkpt><trkpt lat="45.3452681" lon="8.6645436"><ele>121.0</ele><time>2026-04-18T16:27:20.989Z</time></trkpt><trkpt lat="45.3451732" lon="8.6644898"><ele>121.0</ele><time>2026-04-18T16:27:21.989Z</time></trkpt><trkpt lat="45.345071" lon="8.6644321"><ele>121.0</ele><time>2026-04-18T16:27:22.989Z</time></trkpt><trkpt lat="45.3449627" lon="8.6643832"><ele>121.0</ele><time>2026-04-18T16:27:23.989Z</time></trkpt><trkpt lat="45.3448653" lon="8.6643341"><ele>121.0</ele><time>2026-04-18T16:27:24.989Z</time></trkpt><trkpt lat="45.3447747" lon="8.6642879"><ele>121.0</ele><time>2026-04-18T16:27:25.988Z</time></trkpt><trkpt lat="45.3446927" lon="8.6642483"><ele>121.0</ele><time>2026-04-18T16:27:26.988Z</time></trkpt><trkpt lat="45.3446233" lon="8.6642119"><ele>120.83333333333334</ele><time>2026-04-18T16:27:27.989Z</time></trkpt><trkpt lat="45.3445612" lon="8.6641845"><ele>120.66666666666667</ele><time>2026-04-18T16:27:28.989Z</time></trkpt><trkpt lat="45.3444697" lon="8.6641849"><ele>120.5</ele><time>2026-04-18T16:27:30.988Z</time></trkpt><trkpt lat="45.3444184" lon="8.6642617"><ele>120.33333333333334</ele><time>2026-04-18T16:27:32.989Z</time></trkpt><trkpt lat="45.3443963" lon="8.6644458"><ele>120.16666666666667</ele><time>2026-04-18T16:27:34.988Z</time></trkpt><trkpt lat="45.3443841" lon="8.6645586"><ele>120.0</ele><time>2026-04-18T16:27:35.989Z</time></trkpt><trkpt lat="45.3443649" lon="8.6646749"><ele>120.0</ele><time>2026-04-18T16:27:36.988Z</time></trkpt><trkpt lat="45.3443402" lon="8.6647985"><ele>120.0</ele><time>2026-04-18T16:27:37.989Z</time></trkpt><trkpt lat="45.3443165" lon="8.6649252"><ele>120.0</ele><time>2026-04-18T16:27:38.989Z</time></trkpt><trkpt lat="45.3442945" lon="8.6650556"><ele>120.0</ele><time>2026-04-18T16:27:39.988Z</time></trkpt><trkpt lat="45.3442653" lon="8.6651938"><ele>120.0</ele><time>2026-04-18T16:27:40.989Z</time></trkpt><trkpt lat="45.3442431" lon="8.6653322"><ele>120.0</ele><time>2026-04-18T16:27:41.989Z</time></trkpt><trkpt lat="45.3442182" lon="8.6654745"><ele>120.0</ele><time>2026-04-18T16:27:42.989Z</time></trkpt><trkpt lat="45.3441954" lon="8.665624"><ele>120.0</ele><time>2026-04-18T16:27:43.989Z</time></trkpt><trkpt lat="45.3441723" lon="8.6657821"><ele>120.0</ele><time>2026-04-18T16:27:44.988Z</time></trkpt><trkpt lat="45.3441489" lon="8.6659466"><ele>120.0</ele><time>2026-04-18T16:27:45.988Z</time></trkpt><trkpt lat="45.3441269" lon="8.6661183"><ele>120.0</ele><time>2026-04-18T16:27:46.988Z</time></trkpt><trkpt lat="45.3441071" lon="8.6662777"><ele>120.0</ele><time>2026-04-18T16:27:47.988Z</time></trkpt><trkpt lat="45.3440919" lon="8.6664257"><ele>120.0</ele><time>2026-04-18T16:27:48.988Z</time></trkpt><trkpt lat="45.3440776" lon="8.6665593"><ele>120.0</ele><time>2026-04-18T16:27:49.988Z</time></trkpt><trkpt lat="45.344061" lon="8.6666815"><ele>120.0</ele><time>2026-04-18T16:27:50.989Z</time></trkpt><trkpt lat="45.3440433" lon="8.6668209"><ele>120.0</ele><time>2026-04-18T16:27:51.988Z</time></trkpt><trkpt lat="45.3440287" lon="8.666958"><ele>120.0</ele><time>2026-04-18T16:27:52.989Z</time></trkpt><trkpt lat="45.344013" lon="8.667104"><ele>120.0</ele><time>2026-04-18T16:27:53.989Z</time></trkpt><trkpt lat="45.344003" lon="8.6672463"><ele>120.0</ele><time>2026-04-18T16:27:54.989Z</time></trkpt><trkpt lat="45.3440021" lon="8.667385"><ele>120.0</ele><time>2026-04-18T16:27:55.989Z</time></trkpt><trkpt lat="45.3440091" lon="8.6675074"><ele>120.0</ele><time>2026-04-18T16:27:56.988Z</time></trkpt><trkpt lat="45.3440193" lon="8.6676139"><ele>120.0</ele><time>2026-04-18T16:27:57.989Z</time></trkpt><trkpt lat="45.3440284" lon="8.6677525"><ele>120.0</ele><time>2026-04-18T16:27:59.988Z</time></trkpt><trkpt lat="45.3439418" lon="8.6677949"><ele>120.0</ele><time>2026-04-18T16:28:04.989Z</time></trkpt><trkpt lat="45.3438313" lon="8.6677806"><ele>120.0</ele><time>2026-04-18T16:28:06.989Z</time></trkpt><trkpt lat="45.3437616" lon="8.6677735"><ele>120.0</ele><time>2026-04-18T16:28:07.989Z</time></trkpt><trkpt lat="45.3436824" lon="8.6677695"><ele>120.0</ele><time>2026-04-18T16:28:08.989Z</time></trkpt><trkpt lat="45.3436001" lon="8.6677687"><ele>120.0</ele><time>2026-04-18T16:28:09.989Z</time></trkpt><trkpt lat="45.3435112" lon="8.6677675"><ele>120.0</ele><time>2026-04-18T16:28:10.989Z</time></trkpt><trkpt lat="45.3434123" lon="8.6677622"><ele>120.0</ele><time>2026-04-18T16:28:11.989Z</time></trkpt><trkpt lat="45.3433017" lon="8.6677535"><ele>120.0</ele><time>2026-04-18T16:28:12.989Z</time></trkpt><trkpt lat="45.343183" lon="8.6677469"><ele>120.0</ele><time>2026-04-18T16:28:13.988Z</time></trkpt><trkpt lat="45.3430634" lon="8.6677336"><ele>120.0</ele><time>2026-04-18T16:28:14.988Z</time></trkpt><trkpt lat="45.3429463" lon="8.6677234"><ele>120.0</ele><time>2026-04-18T16:28:15.989Z</time></trkpt><trkpt lat="45.3428367" lon="8.6677129"><ele>120.0</ele><time>2026-04-18T16:28:16.989Z</time></trkpt><trkpt lat="45.3427365" lon="8.6677087"><ele>120.0</ele><time>2026-04-18T16:28:17.989Z</time></trkpt><trkpt lat="45.3426408" lon="8.6677053"><ele>120.16666666666667</ele><time>2026-04-18T16:28:18.989Z</time></trkpt><trkpt lat="45.34256" lon="8.6677135"><ele>120.33333333333334</ele><time>2026-04-18T16:28:19.989Z</time></trkpt><trkpt lat="45.3424884" lon="8.667737"><ele>120.5</ele><time>2026-04-18T16:28:20.988Z</time></trkpt><trkpt lat="45.3424313" lon="8.6677752"><ele>120.66666666666667</ele><time>2026-04-18T16:28:21.989Z</time></trkpt><trkpt lat="45.3423826" lon="8.667911"><ele>120.83333333333334</ele><time>2026-04-18T16:28:23.989Z</time></trkpt><trkpt lat="45.3423854" lon="8.6680763"><ele>121.0</ele><time>2026-04-18T16:28:25.989Z</time></trkpt><trkpt lat="45.3423878" lon="8.6681774"><ele>121.00000000000001</ele><time>2026-04-18T16:28:26.988Z</time></trkpt><trkpt lat="45.3423856" lon="8.6682928"><ele>121.0</ele><time>2026-04-18T16:28:27.989Z</time></trkpt><trkpt lat="45.3423789" lon="8.6684233"><ele>121.0</ele><time>2026-04-18T16:28:28.989Z</time></trkpt><trkpt lat="45.3423753" lon="8.6685553"><ele>121.0</ele><time>2026-04-18T16:28:29.989Z</time></trkpt><trkpt lat="45.3423749" lon="8.6686656"><ele>121.00000000000001</ele><time>2026-04-18T16:28:30.989Z</time></trkpt><trkpt lat="45.3423753" lon="8.6687597"><ele>121.0</ele><time>2026-04-18T16:28:31.989Z</time></trkpt><trkpt lat="45.3423764" lon="8.6688937"><ele>121.0</ele><time>2026-04-18T16:28:33.989Z</time></trkpt><trkpt lat="45.3423125" lon="8.6689817"><ele>121.0</ele><time>2026-04-18T16:28:36.989Z</time></trkpt><trkpt lat="45.3422442" lon="8.6689855"><ele>121.0</ele><time>2026-04-18T16:28:37.989Z</time></trkpt><trkpt lat="45.3421403" lon="8.6689928"><ele>121.0</ele><time>2026-04-18T16:28:38.989Z</time></trkpt><trkpt lat="45.3420314" lon="8.6690133"><ele>121.0</ele><time>2026-04-18T16:28:39.988Z</time></trkpt><trkpt lat="45.341914" lon="8.6690374"><ele>120.83333333333334</ele><time>2026-04-18T16:28:40.989Z</time></trkpt><trkpt lat="45.3418079" lon="8.6690624"><ele>120.66666666666667</ele><time>2026-04-18T16:28:41.989Z</time></trkpt><trkpt lat="45.341712" lon="8.6690817"><ele>120.5</ele><time>2026-04-18T16:28:42.988Z</time></trkpt><trkpt lat="45.3416249" lon="8.6691072"><ele>120.33333333333334</ele><time>2026-04-18T16:28:43.989Z</time></trkpt><trkpt lat="45.3415453" lon="8.6691307"><ele>120.16666666666667</ele><time>2026-04-18T16:28:44.989Z</time></trkpt><trkpt lat="45.3414792" lon="8.6691695"><ele>120.0</ele><time>2026-04-18T16:28:45.989Z</time></trkpt><trkpt lat="45.3414211" lon="8.6692271"><ele>119.6</ele><time>2026-04-18T16:28:46.988Z</time></trkpt><trkpt lat="45.3413492" lon="8.6693008"><ele>119.2</ele><time>2026-04-18T16:28:47.989Z</time></trkpt><trkpt lat="45.3412723" lon="8.6693801"><ele>118.80000000000001</ele><time>2026-04-18T16:28:48.989Z</time></trkpt><trkpt lat="45.3411952" lon="8.6694629"><ele>118.4</ele><time>2026-04-18T16:28:49.989Z</time></trkpt><trkpt lat="45.3411151" lon="8.6695476"><ele>118.0</ele><time>2026-04-18T16:28:50.989Z</time></trkpt><trkpt lat="45.3410313" lon="8.6696307"><ele>118.0</ele><time>2026-04-18T16:28:51.989Z</time></trkpt><trkpt lat="45.3409469" lon="8.6697172"><ele>118.00000000000001</ele><time>2026-04-18T16:28:52.989Z</time></trkpt><trkpt lat="45.3408641" lon="8.669802"><ele>118.00000000000001</ele><time>2026-04-18T16:28:53.989Z</time></trkpt><trkpt lat="45.3407792" lon="8.6698885"><ele>118.0</ele><time>2026-04-18T16:28:54.989Z</time></trkpt><trkpt lat="45.340697" lon="8.6699755"><ele>118.0</ele><time>2026-04-18T16:28:55.989Z</time></trkpt><trkpt lat="45.3406186" lon="8.6700708"><ele>118.5</ele><time>2026-04-18T16:28:56.989Z</time></trkpt><trkpt lat="45.3405425" lon="8.6701829"><ele>119.0</ele><time>2026-04-18T16:28:57.988Z</time></trkpt><trkpt lat="45.3404635" lon="8.670303"><ele>119.5</ele><time>2026-04-18T16:28:58.989Z</time></trkpt><trkpt lat="45.3403909" lon="8.6704299"><ele>120.0</ele><time>2026-04-18T16:28:59.989Z</time></trkpt><trkpt lat="45.3403179" lon="8.6705561"><ele>120.0</ele><time>2026-04-18T16:29:00.989Z</time></trkpt><trkpt lat="45.3402441" lon="8.6706861"><ele>120.0</ele><time>2026-04-18T16:29:01.988Z</time></trkpt><trkpt lat="45.3401717" lon="8.6708163"><ele>120.0</ele><time>2026-04-18T16:29:02.989Z</time></trkpt><trkpt lat="45.3400964" lon="8.6709497"><ele>120.0</ele><time>2026-04-18T16:29:03.989Z</time></trkpt><trkpt lat="45.3400214" lon="8.6710848"><ele>120.0</ele><time>2026-04-18T16:29:04.989Z</time></trkpt><trkpt lat="45.3399441" lon="8.6712307"><ele>120.0</ele><time>2026-04-18T16:29:05.988Z</time></trkpt><trkpt lat="45.3398632" lon="8.6713813"><ele>120.0</ele><time>2026-04-18T16:29:06.989Z</time></trkpt><trkpt lat="45.3397859" lon="8.6715233"><ele>120.0</ele><time>2026-04-18T16:29:07.988Z</time></trkpt><trkpt lat="45.3397151" lon="8.671656"><ele>120.0</ele><time>2026-04-18T16:29:08.989Z</time></trkpt><trkpt lat="45.3396439" lon="8.6717879"><ele>120.0</ele><time>2026-04-18T16:29:09.989Z</time></trkpt><trkpt lat="45.3395696" lon="8.6719181"><ele>120.0</ele><time>2026-04-18T16:29:10.989Z</time></trkpt><trkpt lat="45.3394948" lon="8.6720525"><ele>120.0</ele><time>2026-04-18T16:29:11.989Z</time></trkpt><trkpt lat="45.3394209" lon="8.6721869"><ele>119.5</ele><time>2026-04-18T16:29:12.989Z</time></trkpt><trkpt lat="45.3393589" lon="8.672332"><ele>119.0</ele><time>2026-04-18T16:29:13.989Z</time></trkpt><trkpt lat="45.3392985" lon="8.6724811"><ele>118.5</ele><time>2026-04-18T16:29:14.989Z</time></trkpt><trkpt lat="45.3392414" lon="8.6726123"><ele>118.0</ele><time>2026-04-18T16:29:15.989Z</time></trkpt><trkpt lat="45.3391755" lon="8.672731"><ele>118.0</ele><time>2026-04-18T16:29:16.989Z</time></trkpt><trkpt lat="45.3391064" lon="8.6728513"><ele>118.00000000000001</ele><time>2026-04-18T16:29:17.989Z</time></trkpt><trkpt lat="45.3390369" lon="8.6729576"><ele>118.00000000000001</ele><time>2026-04-18T16:29:18.989Z</time></trkpt><trkpt lat="45.3389584" lon="8.6730667"><ele>118.0</ele><time>2026-04-18T16:29:19.988Z</time></trkpt><trkpt lat="45.3388705" lon="8.6731707"><ele>118.0</ele><time>2026-04-18T16:29:20.989Z</time></trkpt><trkpt lat="45.3387706" lon="8.6732705"><ele>118.5</ele><time>2026-04-18T16:29:21.989Z</time></trkpt><trkpt lat="45.3386706" lon="8.6733682"><ele>119.0</ele><time>2026-04-18T16:29:22.988Z</time></trkpt><trkpt lat="45.3385798" lon="8.6734643"><ele>119.5</ele><time>2026-04-18T16:29:23.988Z</time></trkpt><trkpt lat="45.338483" lon="8.67356"><ele>120.0</ele><time>2026-04-18T16:29:24.989Z</time></trkpt><trkpt lat="45.3383891" lon="8.6736587"><ele>120.0</ele><time>2026-04-18T16:29:25.989Z</time></trkpt><trkpt lat="45.3382963" lon="8.6737587"><ele>120.0</ele><time>2026-04-18T16:29:26.989Z</time></trkpt><trkpt lat="45.3381949" lon="8.6738669"><ele>120.0</ele><time>2026-04-18T16:29:27.988Z</time></trkpt><trkpt lat="45.3381008" lon="8.6739727"><ele>120.0</ele><time>2026-04-18T16:29:28.988Z</time></trkpt><trkpt lat="45.338008" lon="8.6740847"><ele>120.0</ele><time>2026-04-18T16:29:29.989Z</time></trkpt><trkpt lat="45.3379154" lon="8.6741863"><ele>120.0</ele><time>2026-04-18T16:29:30.989Z</time></trkpt><trkpt lat="45.3378224" lon="8.674276"><ele>120.0</ele><time>2026-04-18T16:29:31.989Z</time></trkpt><trkpt lat="45.3377258" lon="8.6743746"><ele>120.0</ele><time>2026-04-18T16:29:32.989Z</time></trkpt><trkpt lat="45.3376327" lon="8.6744755"><ele>120.0</ele><time>2026-04-18T16:29:33.989Z</time></trkpt><trkpt lat="45.3375359" lon="8.6745711"><ele>120.0</ele><time>2026-04-18T16:29:34.988Z</time></trkpt><trkpt lat="45.3374377" lon="8.67467"><ele>120.0</ele><time>2026-04-18T16:29:35.988Z</time></trkpt><trkpt lat="45.3373392" lon="8.6747721"><ele>120.0</ele><time>2026-04-18T16:29:36.989Z</time></trkpt><trkpt lat="45.3372404" lon="8.6748702"><ele>120.0</ele><time>2026-04-18T16:29:37.989Z</time></trkpt><trkpt lat="45.3371433" lon="8.6749657"><ele>120.0</ele><time>2026-04-18T16:29:38.989Z</time></trkpt><trkpt lat="45.3370466" lon="8.6750515"><ele>120.0</ele><time>2026-04-18T16:29:39.988Z</time></trkpt><trkpt lat="45.3369418" lon="8.6751379"><ele>120.0</ele><time>2026-04-18T16:29:40.988Z</time></trkpt><trkpt lat="45.3368378" lon="8.6752209"><ele>120.0</ele><time>2026-04-18T16:29:41.988Z</time></trkpt><trkpt lat="45.3367328" lon="8.6752935"><ele>120.0</ele><time>2026-04-18T16:29:42.988Z</time></trkpt><trkpt lat="45.3366348" lon="8.6753597"><ele>120.0</ele><time>2026-04-18T16:29:43.988Z</time></trkpt><trkpt lat="45.3365376" lon="8.6754262"><ele>120.0</ele><time>2026-04-18T16:29:44.989Z</time></trkpt><trkpt lat="45.3364476" lon="8.6754997"><ele>120.0</ele><time>2026-04-18T16:29:45.989Z</time></trkpt><trkpt lat="45.3363561" lon="8.6755853"><ele>120.0</ele><time>2026-04-18T16:29:46.989Z</time></trkpt><trkpt lat="45.336261" lon="8.6756804"><ele>120.0</ele><time>2026-04-18T16:29:47.989Z</time></trkpt><trkpt lat="45.3361678" lon="8.675784"><ele>120.0</ele><time>2026-04-18T16:29:48.989Z</time></trkpt><trkpt lat="45.3360834" lon="8.6758833"><ele>120.0</ele><time>2026-04-18T16:29:49.988Z</time></trkpt><trkpt lat="45.3359955" lon="8.6759879"><ele>120.0</ele><time>2026-04-18T16:29:50.989Z</time></trkpt><trkpt lat="45.3359081" lon="8.6760942"><ele>120.0</ele><time>2026-04-18T16:29:51.989Z</time></trkpt><trkpt lat="45.3358167" lon="8.6762032"><ele>120.0</ele><time>2026-04-18T16:29:52.989Z</time></trkpt><trkpt lat="45.3357233" lon="8.6763129"><ele>120.0</ele><time>2026-04-18T16:29:53.988Z</time></trkpt><trkpt lat="45.3356338" lon="8.676428"><ele>119.75</ele><time>2026-04-18T16:29:54.989Z</time></trkpt><trkpt lat="45.3355463" lon="8.6765438"><ele>119.5</ele><time>2026-04-18T16:29:55.989Z</time></trkpt><trkpt lat="45.3354598" lon="8.6766554"><ele>119.25</ele><time>2026-04-18T16:29:56.989Z</time></trkpt><trkpt lat="45.3353752" lon="8.6767596"><ele>119.0</ele><time>2026-04-18T16:29:57.988Z</time></trkpt><trkpt lat="45.3352895" lon="8.6768514"><ele>119.0</ele><time>2026-04-18T16:29:58.989Z</time></trkpt><trkpt lat="45.3351999" lon="8.6769265"><ele>119.0</ele><time>2026-04-18T16:29:59.989Z</time></trkpt><trkpt lat="45.3351089" lon="8.6769991"><ele>119.0</ele><time>2026-04-18T16:30:00.988Z</time></trkpt><trkpt lat="45.3350154" lon="8.6770756"><ele>119.0</ele><time>2026-04-18T16:30:01.988Z</time></trkpt><trkpt lat="45.334917" lon="8.6771556"><ele>119.0</ele><time>2026-04-18T16:30:02.988Z</time></trkpt><trkpt lat="45.3348152" lon="8.6772336"><ele>119.2</ele><time>2026-04-18T16:30:03.989Z</time></trkpt><trkpt lat="45.3347145" lon="8.6773051"><ele>119.4</ele><time>2026-04-18T16:30:04.989Z</time></trkpt><trkpt lat="45.3346135" lon="8.6773827"><ele>119.6</ele><time>2026-04-18T16:30:05.989Z</time></trkpt><trkpt lat="45.3345195" lon="8.6774536"><ele>119.8</ele><time>2026-04-18T16:30:06.989Z</time></trkpt><trkpt lat="45.3344266" lon="8.6775247"><ele>120.0</ele><time>2026-04-18T16:30:07.988Z</time></trkpt><trkpt lat="45.334335" lon="8.677601"><ele>120.0</ele><time>2026-04-18T16:30:08.989Z</time></trkpt><trkpt lat="45.3342441" lon="8.6776753"><ele>120.0</ele><time>2026-04-18T16:30:09.989Z</time></trkpt><trkpt lat="45.3341485" lon="8.6777608"><ele>120.0</ele><time>2026-04-18T16:30:10.989Z</time></trkpt><trkpt lat="45.3340459" lon="8.6778504"><ele>120.0</ele><time>2026-04-18T16:30:11.989Z</time></trkpt><trkpt lat="45.3339418" lon="8.67794"><ele>119.8</ele><time>2026-04-18T16:30:12.988Z</time></trkpt><trkpt lat="45.3338455" lon="8.6780274"><ele>119.6</ele><time>2026-04-18T16:30:13.988Z</time></trkpt><trkpt lat="45.3337597" lon="8.6781099"><ele>119.4</ele><time>2026-04-18T16:30:14.988Z</time></trkpt><trkpt lat="45.3336723" lon="8.6781939"><ele>119.2</ele><time>2026-04-18T16:30:15.989Z</time></trkpt><trkpt lat="45.3335849" lon="8.6782794"><ele>119.0</ele><time>2026-04-18T16:30:16.989Z</time></trkpt><trkpt lat="45.3334913" lon="8.6783737"><ele>119.0</ele><time>2026-04-18T16:30:17.989Z</time></trkpt><trkpt lat="45.3333944" lon="8.6784728"><ele>119.0</ele><time>2026-04-18T16:30:18.989Z</time></trkpt><trkpt lat="45.3332951" lon="8.6785754"><ele>119.0</ele><time>2026-04-18T16:30:19.988Z</time></trkpt><trkpt lat="45.3331969" lon="8.6786736"><ele>119.0</ele><time>2026-04-18T16:30:20.988Z</time></trkpt><trkpt lat="45.3331013" lon="8.6787643"><ele>118.5</ele><time>2026-04-18T16:30:21.988Z</time></trkpt><trkpt lat="45.3330118" lon="8.6788555"><ele>118.0</ele><time>2026-04-18T16:30:22.989Z</time></trkpt><trkpt lat="45.332911" lon="8.6789549"><ele>117.5</ele><time>2026-04-18T16:30:23.989Z</time></trkpt><trkpt lat="45.3328053" lon="8.6790495"><ele>117.0</ele><time>2026-04-18T16:30:24.989Z</time></trkpt><trkpt lat="45.332708" lon="8.6791304"><ele>117.0</ele><time>2026-04-18T16:30:25.989Z</time></trkpt><trkpt lat="45.3326119" lon="8.6791999"><ele>116.99999999999999</ele><time>2026-04-18T16:30:26.988Z</time></trkpt><trkpt lat="45.3325125" lon="8.67927"><ele>116.99999999999999</ele><time>2026-04-18T16:30:27.988Z</time></trkpt><trkpt lat="45.3324132" lon="8.6793373"><ele>117.0</ele><time>2026-04-18T16:30:28.989Z</time></trkpt><trkpt lat="45.3323106" lon="8.6793985"><ele>117.0</ele><time>2026-04-18T16:30:29.989Z</time></trkpt><trkpt lat="45.3322013" lon="8.6794558"><ele>117.0</ele><time>2026-04-18T16:30:30.989Z</time></trkpt><trkpt lat="45.3320858" lon="8.6795051"><ele>117.0</ele><time>2026-04-18T16:30:31.988Z</time></trkpt><trkpt lat="45.3319671" lon="8.6795491"><ele>117.0</ele><time>2026-04-18T16:30:32.989Z</time></trkpt><trkpt lat="45.3318478" lon="8.6795892"><ele>117.0</ele><time>2026-04-18T16:30:33.989Z</time></trkpt><trkpt lat="45.3317294" lon="8.679625"><ele>117.0</ele><time>2026-04-18T16:30:34.989Z</time></trkpt><trkpt lat="45.3316134" lon="8.6796601"><ele>117.0</ele><time>2026-04-18T16:30:35.989Z</time></trkpt><trkpt lat="45.3314982" lon="8.6796901"><ele>117.0</ele><time>2026-04-18T16:30:36.989Z</time></trkpt><trkpt lat="45.3313824" lon="8.6797132"><ele>117.0</ele><time>2026-04-18T16:30:37.988Z</time></trkpt><trkpt lat="45.3312611" lon="8.6797294"><ele>117.5</ele><time>2026-04-18T16:30:38.989Z</time></trkpt><trkpt lat="45.3311376" lon="8.6797431"><ele>118.0</ele><time>2026-04-18T16:30:39.988Z</time></trkpt><trkpt lat="45.331016" lon="8.6797495"><ele>118.5</ele><time>2026-04-18T16:30:40.988Z</time></trkpt><trkpt lat="45.3308893" lon="8.6797594"><ele>119.0</ele><time>2026-04-18T16:30:41.989Z</time></trkpt><trkpt lat="45.3307629" lon="8.6797738"><ele>119.0</ele><time>2026-04-18T16:30:42.988Z</time></trkpt><trkpt lat="45.3306337" lon="8.6797872"><ele>119.0</ele><time>2026-04-18T16:30:43.989Z</time></trkpt><trkpt lat="45.3304985" lon="8.6798029"><ele>119.0</ele><time>2026-04-18T16:30:44.989Z</time></trkpt><trkpt lat="45.3303622" lon="8.679824"><ele>119.0</ele><time>2026-04-18T16:30:45.988Z</time></trkpt><trkpt lat="45.3302276" lon="8.6798479"><ele>118.75</ele><time>2026-04-18T16:30:46.988Z</time></trkpt><trkpt lat="45.3300878" lon="8.6798738"><ele>118.5</ele><time>2026-04-18T16:30:47.989Z</time></trkpt><trkpt lat="45.329946" lon="8.6799011"><ele>118.25</ele><time>2026-04-18T16:30:48.989Z</time></trkpt><trkpt lat="45.3297977" lon="8.6799341"><ele>118.0</ele><time>2026-04-18T16:30:49.989Z</time></trkpt><trkpt lat="45.329651" lon="8.679969"><ele>118.0</ele><time>2026-04-18T16:30:50.988Z</time></trkpt><trkpt lat="45.329507" lon="8.6800014"><ele>118.0</ele><time>2026-04-18T16:30:51.988Z</time></trkpt><trkpt lat="45.3293666" lon="8.6800313"><ele>118.0</ele><time>2026-04-18T16:30:52.989Z</time></trkpt><trkpt lat="45.3292336" lon="8.680067"><ele>118.0</ele><time>2026-04-18T16:30:53.989Z</time></trkpt><trkpt lat="45.3291009" lon="8.6801157"><ele>118.0</ele><time>2026-04-18T16:30:54.989Z</time></trkpt><trkpt lat="45.328965" lon="8.6801755"><ele>118.0</ele><time>2026-04-18T16:30:55.989Z</time></trkpt><trkpt lat="45.3288285" lon="8.6802434"><ele>118.0</ele><time>2026-04-18T16:30:56.989Z</time></trkpt><trkpt lat="45.3286936" lon="8.6803132"><ele>118.0</ele><time>2026-04-18T16:30:57.988Z</time></trkpt><trkpt lat="45.3285566" lon="8.6803925"><ele>118.0</ele><time>2026-04-18T16:30:58.989Z</time></trkpt><trkpt lat="45.3284273" lon="8.6804759"><ele>118.0</ele><time>2026-04-18T16:30:59.989Z</time></trkpt><trkpt lat="45.3282946" lon="8.6805615"><ele>118.0</ele><time>2026-04-18T16:31:00.988Z</time></trkpt><trkpt lat="45.3281716" lon="8.6806492"><ele>118.0</ele><time>2026-04-18T16:31:01.989Z</time></trkpt><trkpt lat="45.3280457" lon="8.6807389"><ele>118.0</ele><time>2026-04-18T16:31:02.989Z</time></trkpt><trkpt lat="45.3279126" lon="8.6808249"><ele>118.0</ele><time>2026-04-18T16:31:03.988Z</time></trkpt><trkpt lat="45.3277796" lon="8.6809122"><ele>118.0</ele><time>2026-04-18T16:31:04.988Z</time></trkpt><trkpt lat="45.3276469" lon="8.6810005"><ele>118.0</ele><time>2026-04-18T16:31:05.989Z</time></trkpt><trkpt lat="45.3275281" lon="8.6810848"><ele>117.75</ele><time>2026-04-18T16:31:06.989Z</time></trkpt><trkpt lat="45.3274246" lon="8.6811706"><ele>117.5</ele><time>2026-04-18T16:31:07.988Z</time></trkpt><trkpt lat="45.3273238" lon="8.6812698"><ele>117.25</ele><time>2026-04-18T16:31:08.988Z</time></trkpt><trkpt lat="45.3272232" lon="8.6813796"><ele>117.0</ele><time>2026-04-18T16:31:09.989Z</time></trkpt><trkpt lat="45.3271208" lon="8.6815014"><ele>117.0</ele><time>2026-04-18T16:31:10.989Z</time></trkpt><trkpt lat="45.3270114" lon="8.6816271"><ele>117.0</ele><time>2026-04-18T16:31:11.989Z</time></trkpt><trkpt lat="45.3268985" lon="8.6817548"><ele>117.0</ele><time>2026-04-18T16:31:12.989Z</time></trkpt><trkpt lat="45.3267846" lon="8.681879"><ele>117.0</ele><time>2026-04-18T16:31:13.989Z</time></trkpt><trkpt lat="45.326677" lon="8.6819975"><ele>116.75</ele><time>2026-04-18T16:31:14.989Z</time></trkpt><trkpt lat="45.3265763" lon="8.6821164"><ele>116.5</ele><time>2026-04-18T16:31:15.989Z</time></trkpt><trkpt lat="45.3264786" lon="8.6822274"><ele>116.25</ele><time>2026-04-18T16:31:16.988Z</time></trkpt><trkpt lat="45.326378" lon="8.6823377"><ele>116.0</ele><time>2026-04-18T16:31:17.988Z</time></trkpt><trkpt lat="45.3262771" lon="8.6824461"><ele>116.0</ele><time>2026-04-18T16:31:18.988Z</time></trkpt><trkpt lat="45.3261714" lon="8.6825595"><ele>116.0</ele><time>2026-04-18T16:31:19.989Z</time></trkpt><trkpt lat="45.3260665" lon="8.682685"><ele>116.0</ele><time>2026-04-18T16:31:20.989Z</time></trkpt><trkpt lat="45.3259647" lon="8.6828138"><ele>116.0</ele><time>2026-04-18T16:31:21.989Z</time></trkpt><trkpt lat="45.3258599" lon="8.6829483"><ele>116.0</ele><time>2026-04-18T16:31:22.989Z</time></trkpt><trkpt lat="45.3257552" lon="8.6830893"><ele>116.0</ele><time>2026-04-18T16:31:23.988Z</time></trkpt><trkpt lat="45.3256472" lon="8.6832356"><ele>116.0</ele><time>2026-04-18T16:31:24.988Z</time></trkpt><trkpt lat="45.3255386" lon="8.683391"><ele>116.0</ele><time>2026-04-18T16:31:25.989Z</time></trkpt><trkpt lat="45.325428" lon="8.6835491"><ele>117.33333333333333</ele><time>2026-04-18T16:31:26.989Z</time></trkpt><trkpt lat="45.3253183" lon="8.6837093"><ele>118.66666666666666</ele><time>2026-04-18T16:31:27.988Z</time></trkpt><trkpt lat="45.3252066" lon="8.6838694"><ele>120.0</ele><time>2026-04-18T16:31:28.989Z</time></trkpt><trkpt lat="45.3250955" lon="8.6840262"><ele>120.0</ele><time>2026-04-18T16:31:29.989Z</time></trkpt><trkpt lat="45.3249875" lon="8.6841801"><ele>120.0</ele><time>2026-04-18T16:31:30.989Z</time></trkpt><trkpt lat="45.324884" lon="8.6843241"><ele>120.0</ele><time>2026-04-18T16:31:31.989Z</time></trkpt><trkpt lat="45.3247821" lon="8.684472"><ele>120.0</ele><time>2026-04-18T16:31:32.989Z</time></trkpt><trkpt lat="45.3246757" lon="8.6846193"><ele>119.66666666666666</ele><time>2026-04-18T16:31:33.989Z</time></trkpt><trkpt lat="45.3245678" lon="8.6847696"><ele>119.33333333333333</ele><time>2026-04-18T16:31:34.989Z</time></trkpt><trkpt lat="45.3244619" lon="8.6849279"><ele>119.0</ele><time>2026-04-18T16:31:35.988Z</time></trkpt><trkpt lat="45.324352" lon="8.6850811"><ele>119.0</ele><time>2026-04-18T16:31:36.989Z</time></trkpt><trkpt lat="45.3242408" lon="8.6852364"><ele>119.0</ele><time>2026-04-18T16:31:37.989Z</time></trkpt><trkpt lat="45.3241315" lon="8.6853893"><ele>119.0</ele><time>2026-04-18T16:31:38.989Z</time></trkpt><trkpt lat="45.3240287" lon="8.6855365"><ele>118.5</ele><time>2026-04-18T16:31:39.989Z</time></trkpt><trkpt lat="45.3239238" lon="8.6856859"><ele>118.0</ele><time>2026-04-18T16:31:40.988Z</time></trkpt><trkpt lat="45.3238201" lon="8.685834"><ele>117.5</ele><time>2026-04-18T16:31:41.989Z</time></trkpt><trkpt lat="45.3237111" lon="8.6859889"><ele>117.0</ele><time>2026-04-18T16:31:42.988Z</time></trkpt><trkpt lat="45.3236049" lon="8.6861398"><ele>116.75</ele><time>2026-04-18T16:31:43.988Z</time></trkpt><trkpt lat="45.3235038" lon="8.6862922"><ele>116.5</ele><time>2026-04-18T16:31:44.989Z</time></trkpt><trkpt lat="45.3233995" lon="8.6864457"><ele>116.25</ele><time>2026-04-18T16:31:45.989Z</time></trkpt><trkpt lat="45.3232944" lon="8.6865985"><ele>116.0</ele><time>2026-04-18T16:31:46.989Z</time></trkpt><trkpt lat="45.3231876" lon="8.6867491"><ele>116.0</ele><time>2026-04-18T16:31:47.989Z</time></trkpt><trkpt lat="45.3230803" lon="8.6869012"><ele>116.0</ele><time>2026-04-18T16:31:48.989Z</time></trkpt><trkpt lat="45.3229744" lon="8.6870565"><ele>116.0</ele><time>2026-04-18T16:31:49.989Z</time></trkpt><trkpt lat="45.3228657" lon="8.6872128"><ele>116.33333333333333</ele><time>2026-04-18T16:31:50.989Z</time></trkpt><trkpt lat="45.3227532" lon="8.6873717"><ele>116.66666666666666</ele><time>2026-04-18T16:31:51.988Z</time></trkpt><trkpt lat="45.322645" lon="8.6875194"><ele>117.0</ele><time>2026-04-18T16:31:52.988Z</time></trkpt><trkpt lat="45.3225431" lon="8.6876656"><ele>116.75</ele><time>2026-04-18T16:31:53.989Z</time></trkpt><trkpt lat="45.3224483" lon="8.6877965"><ele>116.5</ele><time>2026-04-18T16:31:54.988Z</time></trkpt><trkpt lat="45.3223554" lon="8.6879257"><ele>116.25</ele><time>2026-04-18T16:31:55.988Z</time></trkpt><trkpt lat="45.3222612" lon="8.6880525"><ele>116.0</ele><time>2026-04-18T16:31:56.988Z</time></trkpt><trkpt lat="45.3221707" lon="8.6881808"><ele>116.0</ele><time>2026-04-18T16:31:57.988Z</time></trkpt><trkpt lat="45.3220815" lon="8.6883071"><ele>116.0</ele><time>2026-04-18T16:31:58.989Z</time></trkpt><trkpt lat="45.3219949" lon="8.6884277"><ele>116.0</ele><time>2026-04-18T16:31:59.988Z</time></trkpt><trkpt lat="45.3219085" lon="8.6885513"><ele>116.0</ele><time>2026-04-18T16:32:00.988Z</time></trkpt><trkpt lat="45.3218197" lon="8.6886746"><ele>116.0</ele><time>2026-04-18T16:32:01.989Z</time></trkpt><trkpt lat="45.3217239" lon="8.6887938"><ele>116.0</ele><time>2026-04-18T16:32:02.989Z</time></trkpt><trkpt lat="45.3216209" lon="8.6889159"><ele>116.0</ele><time>2026-04-18T16:32:03.988Z</time></trkpt><trkpt lat="45.3215171" lon="8.6890375"><ele>116.0</ele><time>2026-04-18T16:32:04.988Z</time></trkpt><trkpt lat="45.3214126" lon="8.6891662"><ele>116.25</ele><time>2026-04-18T16:32:05.989Z</time></trkpt><trkpt lat="45.3213102" lon="8.689291"><ele>116.5</ele><time>2026-04-18T16:32:06.989Z</time></trkpt><trkpt lat="45.3212066" lon="8.6894164"><ele>116.75</ele><time>2026-04-18T16:32:07.988Z</time></trkpt><trkpt lat="45.3211052" lon="8.6895344"><ele>117.0</ele><time>2026-04-18T16:32:08.989Z</time></trkpt><trkpt lat="45.3209988" lon="8.689646"><ele>117.25</ele><time>2026-04-18T16:32:09.989Z</time></trkpt><trkpt lat="45.3208905" lon="8.6897506"><ele>117.5</ele><time>2026-04-18T16:32:10.989Z</time></trkpt><trkpt lat="45.3207779" lon="8.6898475"><ele>117.75</ele><time>2026-04-18T16:32:11.988Z</time></trkpt><trkpt lat="45.3206573" lon="8.6899499"><ele>118.0</ele><time>2026-04-18T16:32:12.989Z</time></trkpt><trkpt lat="45.3205482" lon="8.6900462"><ele>118.0</ele><time>2026-04-18T16:32:13.989Z</time></trkpt><trkpt lat="45.320445" lon="8.6901341"><ele>118.0</ele><time>2026-04-18T16:32:14.988Z</time></trkpt><trkpt lat="45.3203408" lon="8.6902144"><ele>118.0</ele><time>2026-04-18T16:32:15.988Z</time></trkpt><trkpt lat="45.3202364" lon="8.6903026"><ele>118.0</ele><time>2026-04-18T16:32:16.989Z</time></trkpt><trkpt lat="45.3201284" lon="8.6903971"><ele>117.4</ele><time>2026-04-18T16:32:17.989Z</time></trkpt><trkpt lat="45.3200283" lon="8.6904816"><ele>116.80000000000001</ele><time>2026-04-18T16:32:18.989Z</time></trkpt><trkpt lat="45.3199366" lon="8.6905555"><ele>116.2</ele><time>2026-04-18T16:32:19.989Z</time></trkpt><trkpt lat="45.3198421" lon="8.6906163"><ele>115.6</ele><time>2026-04-18T16:32:20.989Z</time></trkpt><trkpt lat="45.319748" lon="8.6906707"><ele>115.0</ele><time>2026-04-18T16:32:21.989Z</time></trkpt><trkpt lat="45.3196483" lon="8.690717"><ele>115.0</ele><time>2026-04-18T16:32:22.989Z</time></trkpt><trkpt lat="45.3195437" lon="8.6907652"><ele>115.0</ele><time>2026-04-18T16:32:23.989Z</time></trkpt><trkpt lat="45.3194458" lon="8.6908166"><ele>115.0</ele><time>2026-04-18T16:32:24.989Z</time></trkpt><trkpt lat="45.3193457" lon="8.6908738"><ele>115.0</ele><time>2026-04-18T16:32:25.988Z</time></trkpt><trkpt lat="45.3192381" lon="8.6909391"><ele>115.0</ele><time>2026-04-18T16:32:26.989Z</time></trkpt><trkpt lat="45.3191264" lon="8.6910089"><ele>115.0</ele><time>2026-04-18T16:32:27.989Z</time></trkpt><trkpt lat="45.3190127" lon="8.6910863"><ele>115.0</ele><time>2026-04-18T16:32:28.988Z</time></trkpt><trkpt lat="45.3188933" lon="8.6911683"><ele>115.0</ele><time>2026-04-18T16:32:29.989Z</time></trkpt><trkpt lat="45.3187702" lon="8.6912467"><ele>115.0</ele><time>2026-04-18T16:32:30.988Z</time></trkpt><trkpt lat="45.3186401" lon="8.6913269"><ele>115.5</ele><time>2026-04-18T16:32:31.989Z</time></trkpt><trkpt lat="45.3185077" lon="8.6914043"><ele>116.0</ele><time>2026-04-18T16:32:32.989Z</time></trkpt><trkpt lat="45.3183799" lon="8.6914769"><ele>116.5</ele><time>2026-04-18T16:32:33.989Z</time></trkpt><trkpt lat="45.3182464" lon="8.6915506"><ele>117.0</ele><time>2026-04-18T16:32:34.989Z</time></trkpt><trkpt lat="45.3181099" lon="8.6916279"><ele>116.75</ele><time>2026-04-18T16:32:35.989Z</time></trkpt><trkpt lat="45.3179829" lon="8.6917013"><ele>116.5</ele><time>2026-04-18T16:32:36.989Z</time></trkpt><trkpt lat="45.3178635" lon="8.6917656"><ele>116.25</ele><time>2026-04-18T16:32:37.989Z</time></trkpt><trkpt lat="45.317751" lon="8.691826"><ele>116.0</ele><time>2026-04-18T16:32:38.988Z</time></trkpt><trkpt lat="45.3176436" lon="8.6918793"><ele>115.99999999999999</ele><time>2026-04-18T16:32:39.989Z</time></trkpt><trkpt lat="45.3175563" lon="8.6919279"><ele>116.0</ele><time>2026-04-18T16:32:40.988Z</time></trkpt><trkpt lat="45.3174851" lon="8.6919688"><ele>116.0</ele><time>2026-04-18T16:32:41.989Z</time></trkpt><trkpt lat="45.3173905" lon="8.6920238"><ele>116.0</ele><time>2026-04-18T16:32:43.989Z</time></trkpt><trkpt lat="45.3172988" lon="8.6920872"><ele>115.99999999999999</ele><time>2026-04-18T16:32:45.988Z</time></trkpt><trkpt lat="45.3172359" lon="8.6921431"><ele>116.0</ele><time>2026-04-18T16:32:46.988Z</time></trkpt><trkpt lat="45.3171598" lon="8.6922042"><ele>116.0</ele><time>2026-04-18T16:32:47.988Z</time></trkpt><trkpt lat="45.3170736" lon="8.6922582"><ele>116.0</ele><time>2026-04-18T16:32:48.989Z</time></trkpt><trkpt lat="45.3169822" lon="8.692305"><ele>116.0</ele><time>2026-04-18T16:32:49.989Z</time></trkpt><trkpt lat="45.3168861" lon="8.6923522"><ele>116.0</ele><time>2026-04-18T16:32:50.988Z</time></trkpt><trkpt lat="45.3167937" lon="8.6923955"><ele>116.0</ele><time>2026-04-18T16:32:51.989Z</time></trkpt><trkpt lat="45.3167092" lon="8.6924304"><ele>115.99999999999999</ele><time>2026-04-18T16:32:52.988Z</time></trkpt><trkpt lat="45.3166319" lon="8.692462"><ele>116.0</ele><time>2026-04-18T16:32:53.989Z</time></trkpt><trkpt lat="45.3165586" lon="8.6924917"><ele>116.0</ele><time>2026-04-18T16:32:54.989Z</time></trkpt><trkpt lat="45.3164913" lon="8.6925155"><ele>116.0</ele><time>2026-04-18T16:32:55.989Z</time></trkpt><trkpt lat="45.3164191" lon="8.6925406"><ele>115.99999999999999</ele><time>2026-04-18T16:32:56.989Z</time></trkpt><trkpt lat="45.3163418" lon="8.69257"><ele>116.0</ele><time>2026-04-18T16:32:57.989Z</time></trkpt><trkpt lat="45.3162661" lon="8.6925998"><ele>115.66666666666666</ele><time>2026-04-18T16:32:58.988Z</time></trkpt><trkpt lat="45.3161894" lon="8.6926324"><ele>115.33333333333333</ele><time>2026-04-18T16:32:59.988Z</time></trkpt><trkpt lat="45.316112" lon="8.6926649"><ele>115.0</ele><time>2026-04-18T16:33:00.989Z</time></trkpt><trkpt lat="45.3160332" lon="8.6926961"><ele>114.66666666666666</ele><time>2026-04-18T16:33:01.989Z</time></trkpt><trkpt lat="45.3159534" lon="8.6927201"><ele>114.33333333333333</ele><time>2026-04-18T16:33:02.988Z</time></trkpt><trkpt lat="45.3158901" lon="8.6927452"><ele>114.0</ele><time>2026-04-18T16:33:03.989Z</time></trkpt><trkpt lat="45.315809" lon="8.6927733"><ele>114.0</ele><time>2026-04-18T16:33:05.989Z</time></trkpt><trkpt lat="45.3157021" lon="8.6928319"><ele>114.0</ele><time>2026-04-18T16:33:42.989Z</time></trkpt><trkpt lat="45.3155962" lon="8.6928714"><ele>114.0</ele><time>2026-04-18T16:33:44.988Z</time></trkpt><trkpt lat="45.3154785" lon="8.6929172"><ele>114.0</ele><time>2026-04-18T16:33:46.989Z</time></trkpt><trkpt lat="45.3154134" lon="8.6929452"><ele>114.0</ele><time>2026-04-18T16:33:47.988Z</time></trkpt><trkpt lat="45.3153435" lon="8.6929693"><ele>114.33333333333333</ele><time>2026-04-18T16:33:48.988Z</time></trkpt><trkpt lat="45.315274" lon="8.6929976"><ele>114.66666666666666</ele><time>2026-04-18T16:33:49.988Z</time></trkpt><trkpt lat="45.315203" lon="8.6930256"><ele>115.0</ele><time>2026-04-18T16:33:50.988Z</time></trkpt><trkpt lat="45.31513" lon="8.6930541"><ele>115.33333333333333</ele><time>2026-04-18T16:33:51.988Z</time></trkpt><trkpt lat="45.315062" lon="8.6930804"><ele>115.66666666666666</ele><time>2026-04-18T16:33:52.988Z</time></trkpt><trkpt lat="45.3149859" lon="8.693104"><ele>116.0</ele><time>2026-04-18T16:33:53.988Z</time></trkpt><trkpt lat="45.3148993" lon="8.6931318"><ele>116.0</ele><time>2026-04-18T16:33:54.989Z</time></trkpt><trkpt lat="45.3148169" lon="8.6931607"><ele>116.0</ele><time>2026-04-18T16:33:55.989Z</time></trkpt><trkpt lat="45.3147322" lon="8.6931861"><ele>116.0</ele><time>2026-04-18T16:33:56.989Z</time></trkpt><trkpt lat="45.3146471" lon="8.6932189"><ele>116.0</ele><time>2026-04-18T16:33:57.989Z</time></trkpt><trkpt lat="45.3145548" lon="8.6932492"><ele>116.0</ele><time>2026-04-18T16:33:58.988Z</time></trkpt><trkpt lat="45.3144627" lon="8.6932875"><ele>116.19999999999999</ele><time>2026-04-18T16:33:59.989Z</time></trkpt><trkpt lat="45.3143706" lon="8.6933245"><ele>116.39999999999999</ele><time>2026-04-18T16:34:00.988Z</time></trkpt><trkpt lat="45.3142752" lon="8.6933623"><ele>116.6</ele><time>2026-04-18T16:34:01.988Z</time></trkpt><trkpt lat="45.3141791" lon="8.6933974"><ele>116.8</ele><time>2026-04-18T16:34:02.989Z</time></trkpt><trkpt lat="45.3140897" lon="8.6934243"><ele>117.0</ele><time>2026-04-18T16:34:03.989Z</time></trkpt><trkpt lat="45.3140023" lon="8.6934459"><ele>117.0</ele><time>2026-04-18T16:34:04.989Z</time></trkpt><trkpt lat="45.3139129" lon="8.6934787"><ele>117.0</ele><time>2026-04-18T16:34:05.989Z</time></trkpt><trkpt lat="45.3138301" lon="8.6935164"><ele>117.0</ele><time>2026-04-18T16:34:06.989Z</time></trkpt><trkpt lat="45.3137476" lon="8.6935499"><ele>117.0</ele><time>2026-04-18T16:34:07.988Z</time></trkpt><trkpt lat="45.3136661" lon="8.6935841"><ele>117.0</ele><time>2026-04-18T16:34:08.988Z</time></trkpt><trkpt lat="45.3135844" lon="8.693618"><ele>117.0</ele><time>2026-04-18T16:34:09.988Z</time></trkpt><trkpt lat="45.3135044" lon="8.6936499"><ele>116.83333333333333</ele><time>2026-04-18T16:34:10.988Z</time></trkpt><trkpt lat="45.3134283" lon="8.6936834"><ele>116.66666666666666</ele><time>2026-04-18T16:34:11.989Z</time></trkpt><trkpt lat="45.3133497" lon="8.6937195"><ele>116.5</ele><time>2026-04-18T16:34:12.989Z</time></trkpt><trkpt lat="45.3132705" lon="8.6937542"><ele>116.33333333333333</ele><time>2026-04-18T16:34:13.989Z</time></trkpt><trkpt lat="45.3131881" lon="8.6937872"><ele>116.16666666666666</ele><time>2026-04-18T16:34:14.988Z</time></trkpt><trkpt lat="45.3131044" lon="8.6938194"><ele>116.0</ele><time>2026-04-18T16:34:15.989Z</time></trkpt><trkpt lat="45.313018" lon="8.6938514"><ele>116.0</ele><time>2026-04-18T16:34:16.989Z</time></trkpt><trkpt lat="45.312929" lon="8.6938882"><ele>116.0</ele><time>2026-04-18T16:34:17.989Z</time></trkpt><trkpt lat="45.3128379" lon="8.6939237"><ele>116.0</ele><time>2026-04-18T16:34:18.989Z</time></trkpt><trkpt lat="45.3127423" lon="8.6939635"><ele>116.0</ele><time>2026-04-18T16:34:19.989Z</time></trkpt><trkpt lat="45.3126432" lon="8.6940065"><ele>116.0</ele><time>2026-04-18T16:34:20.988Z</time></trkpt><trkpt lat="45.3125444" lon="8.6940464"><ele>116.0</ele><time>2026-04-18T16:34:21.989Z</time></trkpt><trkpt lat="45.3124411" lon="8.6940833"><ele>116.0</ele><time>2026-04-18T16:34:22.989Z</time></trkpt><trkpt lat="45.3123368" lon="8.6941197"><ele>116.0</ele><time>2026-04-18T16:34:23.988Z</time></trkpt><trkpt lat="45.3122294" lon="8.6941652"><ele>116.0</ele><time>2026-04-18T16:34:24.989Z</time></trkpt><trkpt lat="45.3121178" lon="8.6942153"><ele>116.0</ele><time>2026-04-18T16:34:25.989Z</time></trkpt><trkpt lat="45.3120094" lon="8.6942608"><ele>115.8</ele><time>2026-04-18T16:34:26.989Z</time></trkpt><trkpt lat="45.3119001" lon="8.694307"><ele>115.6</ele><time>2026-04-18T16:34:27.989Z</time></trkpt><trkpt lat="45.3118004" lon="8.6943504"><ele>115.4</ele><time>2026-04-18T16:34:28.989Z</time></trkpt><trkpt lat="45.3117052" lon="8.6943951"><ele>115.2</ele><time>2026-04-18T16:34:29.989Z</time></trkpt><trkpt lat="45.311604" lon="8.6944328"><ele>115.0</ele><time>2026-04-18T16:34:30.989Z</time></trkpt><trkpt lat="45.3114942" lon="8.694472"><ele>115.0</ele><time>2026-04-18T16:34:31.989Z</time></trkpt><trkpt lat="45.3113757" lon="8.6945146"><ele>115.0</ele><time>2026-04-18T16:34:32.989Z</time></trkpt><trkpt lat="45.311256" lon="8.6945568"><ele>115.0</ele><time>2026-04-18T16:34:33.988Z</time></trkpt><trkpt lat="45.3111363" lon="8.6945983"><ele>115.0</ele><time>2026-04-18T16:34:34.989Z</time></trkpt><trkpt lat="45.3110208" lon="8.6946443"><ele>115.0</ele><time>2026-04-18T16:34:35.988Z</time></trkpt><trkpt lat="45.3109026" lon="8.6946952"><ele>115.0</ele><time>2026-04-18T16:34:36.989Z</time></trkpt><trkpt lat="45.3107899" lon="8.6947476"><ele>115.0</ele><time>2026-04-18T16:34:37.988Z</time></trkpt><trkpt lat="45.310679" lon="8.6947918"><ele>115.0</ele><time>2026-04-18T16:34:38.989Z</time></trkpt><trkpt lat="45.3105664" lon="8.6948306"><ele>115.4</ele><time>2026-04-18T16:34:39.989Z</time></trkpt><trkpt lat="45.3104597" lon="8.6948596"><ele>115.8</ele><time>2026-04-18T16:34:40.988Z</time></trkpt><trkpt lat="45.3103589" lon="8.6948799"><ele>116.19999999999999</ele><time>2026-04-18T16:34:41.988Z</time></trkpt><trkpt lat="45.3102611" lon="8.6949007"><ele>116.6</ele><time>2026-04-18T16:34:42.989Z</time></trkpt><trkpt lat="45.3101678" lon="8.6949262"><ele>117.0</ele><time>2026-04-18T16:34:43.988Z</time></trkpt><trkpt lat="45.3100824" lon="8.6949532"><ele>117.0</ele><time>2026-04-18T16:34:44.989Z</time></trkpt><trkpt lat="45.3100046" lon="8.694974"><ele>117.0</ele><time>2026-04-18T16:34:45.989Z</time></trkpt><trkpt lat="45.3099221" lon="8.6949986"><ele>117.0</ele><time>2026-04-18T16:34:46.989Z</time></trkpt><trkpt lat="45.3098306" lon="8.6950276"><ele>117.0</ele><time>2026-04-18T16:34:47.989Z</time></trkpt><trkpt lat="45.3097409" lon="8.695053"><ele>117.0</ele><time>2026-04-18T16:34:48.988Z</time></trkpt><trkpt lat="45.3096489" lon="8.6950842"><ele>117.0</ele><time>2026-04-18T16:34:49.988Z</time></trkpt><trkpt lat="45.309556" lon="8.6951186"><ele>116.8</ele><time>2026-04-18T16:34:50.989Z</time></trkpt><trkpt lat="45.3094604" lon="8.695159"><ele>116.6</ele><time>2026-04-18T16:34:51.989Z</time></trkpt><trkpt lat="45.3093567" lon="8.6951984"><ele>116.39999999999999</ele><time>2026-04-18T16:34:52.989Z</time></trkpt><trkpt lat="45.3092553" lon="8.6952426"><ele>116.19999999999999</ele><time>2026-04-18T16:34:53.989Z</time></trkpt><trkpt lat="45.309148" lon="8.695293"><ele>116.0</ele><time>2026-04-18T16:34:54.989Z</time></trkpt><trkpt lat="45.3090387" lon="8.6953397"><ele>115.8</ele><time>2026-04-18T16:34:55.989Z</time></trkpt><trkpt lat="45.3089334" lon="8.6953877"><ele>115.6</ele><time>2026-04-18T16:34:56.989Z</time></trkpt><trkpt lat="45.3088319" lon="8.6954302"><ele>115.4</ele><time>2026-04-18T16:34:57.988Z</time></trkpt><trkpt lat="45.3087373" lon="8.6954706"><ele>115.2</ele><time>2026-04-18T16:34:58.989Z</time></trkpt><trkpt lat="45.3086462" lon="8.6955104"><ele>115.0</ele><time>2026-04-18T16:34:59.989Z</time></trkpt><trkpt lat="45.3085553" lon="8.6955496"><ele>115.0</ele><time>2026-04-18T16:35:00.989Z</time></trkpt><trkpt lat="45.3084662" lon="8.6955956"><ele>115.0</ele><time>2026-04-18T16:35:01.988Z</time></trkpt><trkpt lat="45.3083697" lon="8.6956473"><ele>115.0</ele><time>2026-04-18T16:35:02.989Z</time></trkpt><trkpt lat="45.308268" lon="8.6957009"><ele>115.0</ele><time>2026-04-18T16:35:03.988Z</time></trkpt><trkpt lat="45.3081635" lon="8.6957608"><ele>115.0</ele><time>2026-04-18T16:35:04.989Z</time></trkpt><trkpt lat="45.3080538" lon="8.6958276"><ele>114.75</ele><time>2026-04-18T16:35:05.989Z</time></trkpt><trkpt lat="45.3079373" lon="8.6958947"><ele>114.5</ele><time>2026-04-18T16:35:06.989Z</time></trkpt><trkpt lat="45.3078221" lon="8.6959607"><ele>114.25</ele><time>2026-04-18T16:35:07.989Z</time></trkpt><trkpt lat="45.3077068" lon="8.6960304"><ele>114.0</ele><time>2026-04-18T16:35:08.989Z</time></trkpt><trkpt lat="45.3075957" lon="8.6961007"><ele>114.0</ele><time>2026-04-18T16:35:09.989Z</time></trkpt><trkpt lat="45.3074809" lon="8.6961754"><ele>114.0</ele><time>2026-04-18T16:35:10.989Z</time></trkpt><trkpt lat="45.3073677" lon="8.6962506"><ele>114.0</ele><time>2026-04-18T16:35:11.989Z</time></trkpt><trkpt lat="45.3072608" lon="8.6963251"><ele>114.0</ele><time>2026-04-18T16:35:12.989Z</time></trkpt><trkpt lat="45.3071545" lon="8.6964008"><ele>114.25</ele><time>2026-04-18T16:35:13.989Z</time></trkpt><trkpt lat="45.307051" lon="8.6964725"><ele>114.5</ele><time>2026-04-18T16:35:14.989Z</time></trkpt><trkpt lat="45.3069499" lon="8.6965469"><ele>114.75</ele><time>2026-04-18T16:35:15.988Z</time></trkpt><trkpt lat="45.306844" lon="8.696622"><ele>115.0</ele><time>2026-04-18T16:35:16.988Z</time></trkpt><trkpt lat="45.3067396" lon="8.6966993"><ele>115.0</ele><time>2026-04-18T16:35:17.989Z</time></trkpt><trkpt lat="45.3066392" lon="8.696778"><ele>115.0</ele><time>2026-04-18T16:35:18.988Z</time></trkpt><trkpt lat="45.3065386" lon="8.6968564"><ele>115.0</ele><time>2026-04-18T16:35:19.988Z</time></trkpt><trkpt lat="45.3064319" lon="8.6969324"><ele>115.0</ele><time>2026-04-18T16:35:20.988Z</time></trkpt><trkpt lat="45.306322" lon="8.6970077"><ele>114.75</ele><time>2026-04-18T16:35:21.989Z</time></trkpt><trkpt lat="45.3062105" lon="8.6970821"><ele>114.5</ele><time>2026-04-18T16:35:22.989Z</time></trkpt><trkpt lat="45.3061037" lon="8.6971534"><ele>114.25</ele><time>2026-04-18T16:35:23.989Z</time></trkpt><trkpt lat="45.3059991" lon="8.6972239"><ele>114.0</ele><time>2026-04-18T16:35:24.989Z</time></trkpt><trkpt lat="45.3058889" lon="8.6972984"><ele>114.0</ele><time>2026-04-18T16:35:25.988Z</time></trkpt><trkpt lat="45.3057762" lon="8.6973715"><ele>114.0</ele><time>2026-04-18T16:35:26.989Z</time></trkpt><trkpt lat="45.3056654" lon="8.6974466"><ele>114.0</ele><time>2026-04-18T16:35:27.989Z</time></trkpt><trkpt lat="45.3055504" lon="8.6975163"><ele>114.0</ele><time>2026-04-18T16:35:28.989Z</time></trkpt><trkpt lat="45.305434" lon="8.6975793"><ele>114.0</ele><time>2026-04-18T16:35:29.989Z</time></trkpt><trkpt lat="45.3053214" lon="8.6976451"><ele>114.0</ele><time>2026-04-18T16:35:30.989Z</time></trkpt><trkpt lat="45.3052104" lon="8.6977092"><ele>114.0</ele><time>2026-04-18T16:35:31.989Z</time></trkpt><trkpt lat="45.3051071" lon="8.6977688"><ele>114.0</ele><time>2026-04-18T16:35:32.989Z</time></trkpt><trkpt lat="45.3050029" lon="8.6978222"><ele>114.0</ele><time>2026-04-18T16:35:33.989Z</time></trkpt><trkpt lat="45.3048983" lon="8.6978766"><ele>114.0</ele><time>2026-04-18T16:35:34.988Z</time></trkpt><trkpt lat="45.3047915" lon="8.6979256"><ele>114.0</ele><time>2026-04-18T16:35:35.989Z</time></trkpt><trkpt lat="45.3046775" lon="8.6979712"><ele>114.0</ele><time>2026-04-18T16:35:36.989Z</time></trkpt><trkpt lat="45.3045631" lon="8.698026"><ele>114.0</ele><time>2026-04-18T16:35:37.989Z</time></trkpt><trkpt lat="45.3044411" lon="8.6980885"><ele>114.0</ele><time>2026-04-18T16:35:38.988Z</time></trkpt><trkpt lat="45.3043234" lon="8.6981488"><ele>114.0</ele><time>2026-04-18T16:35:39.989Z</time></trkpt><trkpt lat="45.3042134" lon="8.6982108"><ele>114.0</ele><time>2026-04-18T16:35:40.989Z</time></trkpt><trkpt lat="45.3041108" lon="8.6982705"><ele>114.0</ele><time>2026-04-18T16:35:41.989Z</time></trkpt><trkpt lat="45.3040029" lon="8.6983262"><ele>114.0</ele><time>2026-04-18T16:35:42.989Z</time></trkpt><trkpt lat="45.3038929" lon="8.6983842"><ele>114.0</ele><time>2026-04-18T16:35:43.989Z</time></trkpt><trkpt lat="45.3037779" lon="8.6984389"><ele>114.0</ele><time>2026-04-18T16:35:44.989Z</time></trkpt><trkpt lat="45.3036636" lon="8.6984954"><ele>114.2</ele><time>2026-04-18T16:35:45.989Z</time></trkpt><trkpt lat="45.3035528" lon="8.698554"><ele>114.4</ele><time>2026-04-18T16:35:46.989Z</time></trkpt><trkpt lat="45.3034452" lon="8.6986087"><ele>114.6</ele><time>2026-04-18T16:35:47.988Z</time></trkpt><trkpt lat="45.3033431" lon="8.6986649"><ele>114.8</ele><time>2026-04-18T16:35:48.989Z</time></trkpt><trkpt lat="45.3032438" lon="8.6987172"><ele>115.0</ele><time>2026-04-18T16:35:49.989Z</time></trkpt><trkpt lat="45.3031456" lon="8.6987675"><ele>115.0</ele><time>2026-04-18T16:35:50.989Z</time></trkpt><trkpt lat="45.3030521" lon="8.6988067"><ele>115.0</ele><time>2026-04-18T16:35:51.988Z</time></trkpt><trkpt lat="45.3029565" lon="8.6988422"><ele>115.0</ele><time>2026-04-18T16:35:52.989Z</time></trkpt><trkpt lat="45.3028603" lon="8.6988798"><ele>115.0</ele><time>2026-04-18T16:35:53.989Z</time></trkpt><trkpt lat="45.3027704" lon="8.6989143"><ele>115.0</ele><time>2026-04-18T16:35:54.989Z</time></trkpt><trkpt lat="45.3026856" lon="8.6989521"><ele>115.00000000000001</ele><time>2026-04-18T16:35:55.989Z</time></trkpt><trkpt lat="45.3026084" lon="8.6989932"><ele>115.0</ele><time>2026-04-18T16:35:56.988Z</time></trkpt><trkpt lat="45.3025396" lon="8.6990552"><ele>115.0</ele><time>2026-04-18T16:35:57.989Z</time></trkpt><trkpt lat="45.3024747" lon="8.6991304"><ele>115.0</ele><time>2026-04-18T16:35:58.988Z</time></trkpt><trkpt lat="45.3024029" lon="8.6992192"><ele>115.00000000000001</ele><time>2026-04-18T16:35:59.988Z</time></trkpt><trkpt lat="45.3023266" lon="8.6993072"><ele>115.0</ele><time>2026-04-18T16:36:00.989Z</time></trkpt><trkpt lat="45.302256" lon="8.6993971"><ele>114.83333333333334</ele><time>2026-04-18T16:36:01.988Z</time></trkpt><trkpt lat="45.3021876" lon="8.6994944"><ele>114.66666666666667</ele><time>2026-04-18T16:36:02.989Z</time></trkpt><trkpt lat="45.3021286" lon="8.6995849"><ele>114.5</ele><time>2026-04-18T16:36:03.989Z</time></trkpt><trkpt lat="45.302073" lon="8.6996655"><ele>114.33333333333334</ele><time>2026-04-18T16:36:04.989Z</time></trkpt><trkpt lat="45.3020192" lon="8.6997474"><ele>114.16666666666667</ele><time>2026-04-18T16:36:05.989Z</time></trkpt><trkpt lat="45.3019692" lon="8.6998154"><ele>114.0</ele><time>2026-04-18T16:36:06.989Z</time></trkpt><trkpt lat="45.3019187" lon="8.699878"><ele>114.0</ele><time>2026-04-18T16:36:07.989Z</time></trkpt><trkpt lat="45.3018711" lon="8.6999424"><ele>114.0</ele><time>2026-04-18T16:36:08.989Z</time></trkpt><trkpt lat="45.3018152" lon="8.7000192"><ele>114.0</ele><time>2026-04-18T16:36:09.989Z</time></trkpt><trkpt lat="45.3017563" lon="8.7001001"><ele>114.0</ele><time>2026-04-18T16:36:10.989Z</time></trkpt><trkpt lat="45.301687" lon="8.7001897"><ele>114.0</ele><time>2026-04-18T16:36:11.989Z</time></trkpt><trkpt lat="45.301616" lon="8.7002783"><ele>114.0</ele><time>2026-04-18T16:36:12.988Z</time></trkpt><trkpt lat="45.3015414" lon="8.7003728"><ele>114.0</ele><time>2026-04-18T16:36:13.989Z</time></trkpt><trkpt lat="45.3014635" lon="8.7004709"><ele>114.0</ele><time>2026-04-18T16:36:14.989Z</time></trkpt><trkpt lat="45.3013841" lon="8.7005687"><ele>114.0</ele><time>2026-04-18T16:36:15.989Z</time></trkpt><trkpt lat="45.301307" lon="8.7006614"><ele>114.0</ele><time>2026-04-18T16:36:16.989Z</time></trkpt><trkpt lat="45.3012268" lon="8.7007531"><ele>114.0</ele><time>2026-04-18T16:36:17.989Z</time></trkpt><trkpt lat="45.3011424" lon="8.7008526"><ele>114.0</ele><time>2026-04-18T16:36:18.989Z</time></trkpt><trkpt lat="45.3010483" lon="8.7009528"><ele>114.0</ele><time>2026-04-18T16:36:19.989Z</time></trkpt><trkpt lat="45.300952" lon="8.7010531"><ele>114.0</ele><time>2026-04-18T16:36:20.989Z</time></trkpt><trkpt lat="45.3008583" lon="8.7011488"><ele>114.0</ele><time>2026-04-18T16:36:21.989Z</time></trkpt><trkpt lat="45.3007642" lon="8.7012386"><ele>113.80000000000001</ele><time>2026-04-18T16:36:22.989Z</time></trkpt><trkpt lat="45.3006697" lon="8.7013219"><ele>113.60000000000001</ele><time>2026-04-18T16:36:23.988Z</time></trkpt><trkpt lat="45.3005779" lon="8.7013989"><ele>113.4</ele><time>2026-04-18T16:36:24.989Z</time></trkpt><trkpt lat="45.3004847" lon="8.7014699"><ele>113.2</ele><time>2026-04-18T16:36:25.989Z</time></trkpt><trkpt lat="45.3003836" lon="8.7015416"><ele>113.0</ele><time>2026-04-18T16:36:26.989Z</time></trkpt><trkpt lat="45.3002846" lon="8.7016094"><ele>113.0</ele><time>2026-04-18T16:36:27.988Z</time></trkpt><trkpt lat="45.3001865" lon="8.7016726"><ele>113.00000000000001</ele><time>2026-04-18T16:36:28.989Z</time></trkpt><trkpt lat="45.3000908" lon="8.7017306"><ele>113.00000000000001</ele><time>2026-04-18T16:36:29.988Z</time></trkpt><trkpt lat="45.2999999" lon="8.701782"><ele>113.0</ele><time>2026-04-18T16:36:30.989Z</time></trkpt><trkpt lat="45.2999114" lon="8.7018303"><ele>113.0</ele><time>2026-04-18T16:36:31.989Z</time></trkpt><trkpt lat="45.2998227" lon="8.7018738"><ele>112.80000000000001</ele><time>2026-04-18T16:36:32.989Z</time></trkpt><trkpt lat="45.2997335" lon="8.7019199"><ele>112.60000000000001</ele><time>2026-04-18T16:36:33.989Z</time></trkpt><trkpt lat="45.299642" lon="8.7019625"><ele>112.39999999999999</ele><time>2026-04-18T16:36:34.988Z</time></trkpt><trkpt lat="45.2995426" lon="8.7019931"><ele>112.19999999999999</ele><time>2026-04-18T16:36:35.989Z</time></trkpt><trkpt lat="45.2994377" lon="8.7020166"><ele>112.0</ele><time>2026-04-18T16:36:36.989Z</time></trkpt><trkpt lat="45.2993264" lon="8.7020306"><ele>112.0</ele><time>2026-04-18T16:36:37.989Z</time></trkpt><trkpt lat="45.2992117" lon="8.7020433"><ele>112.0</ele><time>2026-04-18T16:36:38.989Z</time></trkpt><trkpt lat="45.2990886" lon="8.7020584"><ele>112.0</ele><time>2026-04-18T16:36:39.989Z</time></trkpt><trkpt lat="45.2989654" lon="8.702074"><ele>112.0</ele><time>2026-04-18T16:36:40.988Z</time></trkpt><trkpt lat="45.2988419" lon="8.7020926"><ele>112.25</ele><time>2026-04-18T16:36:41.989Z</time></trkpt><trkpt lat="45.2987137" lon="8.7021113"><ele>112.5</ele><time>2026-04-18T16:36:42.989Z</time></trkpt><trkpt lat="45.2985849" lon="8.702133"><ele>112.75</ele><time>2026-04-18T16:36:43.989Z</time></trkpt><trkpt lat="45.2984559" lon="8.7021494"><ele>113.0</ele><time>2026-04-18T16:36:44.988Z</time></trkpt><trkpt lat="45.2983279" lon="8.7021681"><ele>113.0</ele><time>2026-04-18T16:36:45.989Z</time></trkpt><trkpt lat="45.2982028" lon="8.7021856"><ele>113.0</ele><time>2026-04-18T16:36:46.988Z</time></trkpt><trkpt lat="45.2980829" lon="8.7022079"><ele>113.0</ele><time>2026-04-18T16:36:47.989Z</time></trkpt><trkpt lat="45.2979584" lon="8.7022328"><ele>113.0</ele><time>2026-04-18T16:36:48.989Z</time></trkpt><trkpt lat="45.2978346" lon="8.7022708"><ele>113.0</ele><time>2026-04-18T16:36:49.989Z</time></trkpt><trkpt lat="45.2977032" lon="8.702319"><ele>113.0</ele><time>2026-04-18T16:36:50.989Z</time></trkpt><trkpt lat="45.2975705" lon="8.7023567"><ele>113.0</ele><time>2026-04-18T16:36:51.989Z</time></trkpt><trkpt lat="45.2974505" lon="8.7023935"><ele>113.0</ele><time>2026-04-18T16:36:52.989Z</time></trkpt><trkpt lat="45.297333" lon="8.7024323"><ele>112.5</ele><time>2026-04-18T16:36:53.989Z</time></trkpt><trkpt lat="45.2972169" lon="8.7024767"><ele>112.0</ele><time>2026-04-18T16:36:54.989Z</time></trkpt><trkpt lat="45.2971045" lon="8.7025267"><ele>111.5</ele><time>2026-04-18T16:36:55.989Z</time></trkpt><trkpt lat="45.2969938" lon="8.7025842"><ele>111.0</ele><time>2026-04-18T16:36:56.988Z</time></trkpt><trkpt lat="45.2968857" lon="8.7026498"><ele>111.0</ele><time>2026-04-18T16:36:57.989Z</time></trkpt><trkpt lat="45.2967771" lon="8.7027219"><ele>111.0</ele><time>2026-04-18T16:36:58.988Z</time></trkpt><trkpt lat="45.296669" lon="8.7027907"><ele>111.0</ele><time>2026-04-18T16:36:59.988Z</time></trkpt><trkpt lat="45.2965623" lon="8.7028603"><ele>111.0</ele><time>2026-04-18T16:37:00.988Z</time></trkpt><trkpt lat="45.2964645" lon="8.7029281"><ele>111.4</ele><time>2026-04-18T16:37:01.989Z</time></trkpt><trkpt lat="45.2963759" lon="8.7030018"><ele>111.8</ele><time>2026-04-18T16:37:02.989Z</time></trkpt><trkpt lat="45.2962914" lon="8.7030844"><ele>112.20000000000002</ele><time>2026-04-18T16:37:03.989Z</time></trkpt><trkpt lat="45.2962084" lon="8.7031768"><ele>112.60000000000001</ele><time>2026-04-18T16:37:04.989Z</time></trkpt><trkpt lat="45.2961336" lon="8.7032628"><ele>113.0</ele><time>2026-04-18T16:37:05.988Z</time></trkpt><trkpt lat="45.2960599" lon="8.7033506"><ele>113.0</ele><time>2026-04-18T16:37:06.989Z</time></trkpt><trkpt lat="45.2959821" lon="8.7034422"><ele>113.00000000000001</ele><time>2026-04-18T16:37:07.988Z</time></trkpt><trkpt lat="45.2959062" lon="8.7035355"><ele>113.00000000000001</ele><time>2026-04-18T16:37:08.989Z</time></trkpt><trkpt lat="45.2958304" lon="8.7036335"><ele>113.0</ele><time>2026-04-18T16:37:09.988Z</time></trkpt><trkpt lat="45.2957494" lon="8.7037364"><ele>113.0</ele><time>2026-04-18T16:37:10.988Z</time></trkpt><trkpt lat="45.295665" lon="8.703837"><ele>113.0</ele><time>2026-04-18T16:37:11.988Z</time></trkpt><trkpt lat="45.2955891" lon="8.7039327"><ele>113.00000000000001</ele><time>2026-04-18T16:37:12.988Z</time></trkpt><trkpt lat="45.295518" lon="8.7040205"><ele>113.00000000000001</ele><time>2026-04-18T16:37:13.989Z</time></trkpt><trkpt lat="45.2954485" lon="8.7041033"><ele>113.0</ele><time>2026-04-18T16:37:14.989Z</time></trkpt><trkpt lat="45.2953731" lon="8.7041949"><ele>113.0</ele><time>2026-04-18T16:37:15.988Z</time></trkpt><trkpt lat="45.2952932" lon="8.7042998"><ele>113.25</ele><time>2026-04-18T16:37:16.988Z</time></trkpt><trkpt lat="45.2952092" lon="8.7044229"><ele>113.5</ele><time>2026-04-18T16:37:17.989Z</time></trkpt><trkpt lat="45.2951215" lon="8.7045576"><ele>113.75</ele><time>2026-04-18T16:37:18.989Z</time></trkpt><trkpt lat="45.2950302" lon="8.704695"><ele>114.0</ele><time>2026-04-18T16:37:19.988Z</time></trkpt><trkpt lat="45.2949454" lon="8.7048296"><ele>114.0</ele><time>2026-04-18T16:37:20.989Z</time></trkpt><trkpt lat="45.2948624" lon="8.7049547"><ele>114.0</ele><time>2026-04-18T16:37:21.989Z</time></trkpt><trkpt lat="45.2947768" lon="8.7050799"><ele>114.0</ele><time>2026-04-18T16:37:22.988Z</time></trkpt><trkpt lat="45.2946951" lon="8.7051907"><ele>114.0</ele><time>2026-04-18T16:37:23.989Z</time></trkpt><trkpt lat="45.2946092" lon="8.7052964"><ele>114.16666666666667</ele><time>2026-04-18T16:37:24.989Z</time></trkpt><trkpt lat="45.2945385" lon="8.7053923"><ele>114.33333333333334</ele><time>2026-04-18T16:37:25.989Z</time></trkpt><trkpt lat="45.2944704" lon="8.7054813"><ele>114.5</ele><time>2026-04-18T16:37:26.989Z</time></trkpt><trkpt lat="45.2944106" lon="8.7055651"><ele>114.66666666666667</ele><time>2026-04-18T16:37:27.989Z</time></trkpt><trkpt lat="45.2943563" lon="8.7056399"><ele>114.83333333333334</ele><time>2026-04-18T16:37:28.989Z</time></trkpt><trkpt lat="45.2943078" lon="8.7056979"><ele>115.0</ele><time>2026-04-18T16:37:29.989Z</time></trkpt><trkpt lat="45.2942146" lon="8.7058252"><ele>115.0</ele><time>2026-04-18T16:37:31.988Z</time></trkpt><trkpt lat="45.2941558" lon="8.7058935"><ele>115.0</ele><time>2026-04-18T16:37:32.988Z</time></trkpt><trkpt lat="45.2940933" lon="8.7059546"><ele>115.0</ele><time>2026-04-18T16:37:33.988Z</time></trkpt><trkpt lat="45.2940066" lon="8.7059912"><ele>115.0</ele><time>2026-04-18T16:37:35.989Z</time></trkpt><trkpt lat="45.2939591" lon="8.7059091"><ele>115.0</ele><time>2026-04-18T16:37:37.989Z</time></trkpt><trkpt lat="45.2939068" lon="8.7057168"><ele>115.25</ele><time>2026-04-18T16:37:39.989Z</time></trkpt><trkpt lat="45.2938642" lon="8.7055845"><ele>115.5</ele><time>2026-04-18T16:37:40.989Z</time></trkpt><trkpt lat="45.2938071" lon="8.7054376"><ele>115.75</ele><time>2026-04-18T16:37:41.989Z</time></trkpt><trkpt lat="45.2937534" lon="8.7052744"><ele>116.0</ele><time>2026-04-18T16:37:42.989Z</time></trkpt><trkpt lat="45.2936856" lon="8.7051008"><ele>116.0</ele><time>2026-04-18T16:37:43.988Z</time></trkpt><trkpt lat="45.2936239" lon="8.7049336"><ele>116.0</ele><time>2026-04-18T16:37:44.989Z</time></trkpt><trkpt lat="45.2935738" lon="8.7047795"><ele>116.0</ele><time>2026-04-18T16:37:45.989Z</time></trkpt><trkpt lat="45.2935329" lon="8.7046411"><ele>116.0</ele><time>2026-04-18T16:37:46.988Z</time></trkpt><trkpt lat="45.2934932" lon="8.7045181"><ele>116.0</ele><time>2026-04-18T16:37:47.989Z</time></trkpt><trkpt lat="45.2934613" lon="8.7044078"><ele>115.0</ele><time>2026-04-18T16:37:48.988Z</time></trkpt><trkpt lat="45.2934307" lon="8.7042928"><ele>115.0</ele><time>2026-04-18T16:37:49.989Z</time></trkpt></trkseg></trk></gpx>